<?xml version="1.0" encoding="UTF-8" standalone="no" ?>
<gpx xmlns="http://www.topografix.com/GPX/1/1" xmlns:xsi="http://www.w3.org/2001/XMLSchema-instance" xsi:schemaLocation="http://www.topografix.com/GPX/1/1 http://www.topografix.com/GPX/1/1/gpx.xsd" version="1.1" creator="VisuGPX - https://www.visugpx.com">
  <metadata>
    <name>ROC D'AZURE 14-10-2018</name>
  </metadata>
  <trk>
    <name><![CDATA[ROC D'AZURE 14-10-2018]]></name>
    <trkseg>
      <trkpt lat="43.41846" lon="6.73706">
        <ele>3.7999999523163</ele>
        <time>2018-10-14T08:28:51Z</time>
      </trkpt>
      <trkpt lat="43.41846" lon="6.73706">
        <ele>3.7999999523163</ele>
        <time>2018-10-14T08:28:52Z</time>
      </trkpt>
      <trkpt lat="43.41843" lon="6.73705">
        <ele>4</ele>
        <time>2018-10-14T08:31:53Z</time>
      </trkpt>
      <trkpt lat="43.41838" lon="6.73704">
        <ele>4</ele>
        <time>2018-10-14T08:31:55Z</time>
      </trkpt>
      <trkpt lat="43.41819" lon="6.737">
        <ele>4</ele>
        <time>2018-10-14T08:32:00Z</time>
      </trkpt>
      <trkpt lat="43.4179" lon="6.73693">
        <ele>4.1999998092651</ele>
        <time>2018-10-14T08:32:07Z</time>
      </trkpt>
      <trkpt lat="43.41786" lon="6.73692">
        <ele>4.1999998092651</ele>
        <time>2018-10-14T08:32:08Z</time>
      </trkpt>
      <trkpt lat="43.41768" lon="6.73687">
        <ele>4.1999998092651</ele>
        <time>2018-10-14T08:32:12Z</time>
      </trkpt>
      <trkpt lat="43.41747" lon="6.73682">
        <ele>4.1999998092651</ele>
        <time>2018-10-14T08:32:18Z</time>
      </trkpt>
      <trkpt lat="43.41731" lon="6.73677">
        <ele>4.4000000953674</ele>
        <time>2018-10-14T08:32:23Z</time>
      </trkpt>
      <trkpt lat="43.41709" lon="6.73671">
        <ele>4.5999999046326</ele>
        <time>2018-10-14T08:32:29Z</time>
      </trkpt>
      <trkpt lat="43.41692" lon="6.73669">
        <ele>4.5999999046326</ele>
        <time>2018-10-14T08:32:35Z</time>
      </trkpt>
      <trkpt lat="43.41674" lon="6.73654">
        <ele>4.5999999046326</ele>
        <time>2018-10-14T08:32:40Z</time>
      </trkpt>
      <trkpt lat="43.4167" lon="6.7365">
        <ele>4.5999999046326</ele>
        <time>2018-10-14T08:32:41Z</time>
      </trkpt>
      <trkpt lat="43.41666" lon="6.73645">
        <ele>4.5999999046326</ele>
        <time>2018-10-14T08:32:42Z</time>
      </trkpt>
      <trkpt lat="43.41654" lon="6.73625">
        <ele>4.5999999046326</ele>
        <time>2018-10-14T08:32:46Z</time>
      </trkpt>
      <trkpt lat="43.41642" lon="6.73606">
        <ele>4.5999999046326</ele>
        <time>2018-10-14T08:32:50Z</time>
      </trkpt>
      <trkpt lat="43.41636" lon="6.73596">
        <ele>4.5999999046326</ele>
        <time>2018-10-14T08:32:52Z</time>
      </trkpt>
      <trkpt lat="43.41623" lon="6.73565">
        <ele>4.4000000953674</ele>
        <time>2018-10-14T08:32:58Z</time>
      </trkpt>
      <trkpt lat="43.41622" lon="6.73553">
        <ele>4.4000000953674</ele>
        <time>2018-10-14T08:33:00Z</time>
      </trkpt>
      <trkpt lat="43.41624" lon="6.73532">
        <ele>4.4000000953674</ele>
        <time>2018-10-14T08:33:03Z</time>
      </trkpt>
      <trkpt lat="43.41625" lon="6.73526">
        <ele>4.5999999046326</ele>
        <time>2018-10-14T08:33:04Z</time>
      </trkpt>
      <trkpt lat="43.41629" lon="6.73513">
        <ele>4.5999999046326</ele>
        <time>2018-10-14T08:33:06Z</time>
      </trkpt>
      <trkpt lat="43.41632" lon="6.73507">
        <ele>4.5999999046326</ele>
        <time>2018-10-14T08:33:07Z</time>
      </trkpt>
      <trkpt lat="43.41663" lon="6.73468">
        <ele>4.8000001907349</ele>
        <time>2018-10-14T08:33:15Z</time>
      </trkpt>
      <trkpt lat="43.41693" lon="6.7343">
        <ele>4.8000001907349</ele>
        <time>2018-10-14T08:33:23Z</time>
      </trkpt>
      <trkpt lat="43.41711" lon="6.73398">
        <ele>4.8000001907349</ele>
        <time>2018-10-14T08:33:29Z</time>
      </trkpt>
      <trkpt lat="43.41722" lon="6.73359">
        <ele>4.8000001907349</ele>
        <time>2018-10-14T08:33:35Z</time>
      </trkpt>
      <trkpt lat="43.41724" lon="6.73346">
        <ele>4.8000001907349</ele>
        <time>2018-10-14T08:33:37Z</time>
      </trkpt>
      <trkpt lat="43.41724" lon="6.73325">
        <ele>4.8000001907349</ele>
        <time>2018-10-14T08:33:40Z</time>
      </trkpt>
      <trkpt lat="43.41722" lon="6.73278">
        <ele>4.8000001907349</ele>
        <time>2018-10-14T08:33:47Z</time>
      </trkpt>
      <trkpt lat="43.41721" lon="6.73272">
        <ele>4.8000001907349</ele>
        <time>2018-10-14T08:33:48Z</time>
      </trkpt>
      <trkpt lat="43.41715" lon="6.73223">
        <ele>4.8000001907349</ele>
        <time>2018-10-14T08:33:55Z</time>
      </trkpt>
      <trkpt lat="43.4171" lon="6.73174">
        <ele>5</ele>
        <time>2018-10-14T08:34:02Z</time>
      </trkpt>
      <trkpt lat="43.41704" lon="6.73126">
        <ele>5</ele>
        <time>2018-10-14T08:34:09Z</time>
      </trkpt>
      <trkpt lat="43.417" lon="6.73077">
        <ele>5</ele>
        <time>2018-10-14T08:34:16Z</time>
      </trkpt>
      <trkpt lat="43.41695" lon="6.73023">
        <ele>5</ele>
        <time>2018-10-14T08:34:24Z</time>
      </trkpt>
      <trkpt lat="43.41683" lon="6.72948">
        <ele>5.1999998092651</ele>
        <time>2018-10-14T08:34:35Z</time>
      </trkpt>
      <trkpt lat="43.41668" lon="6.72891">
        <ele>5.1999998092651</ele>
        <time>2018-10-14T08:34:44Z</time>
      </trkpt>
      <trkpt lat="43.41663" lon="6.72874">
        <ele>5</ele>
        <time>2018-10-14T08:34:47Z</time>
      </trkpt>
      <trkpt lat="43.41655" lon="6.72851">
        <ele>5</ele>
        <time>2018-10-14T08:34:51Z</time>
      </trkpt>
      <trkpt lat="43.41646" lon="6.7283">
        <ele>5</ele>
        <time>2018-10-14T08:34:55Z</time>
      </trkpt>
      <trkpt lat="43.41639" lon="6.72822">
        <ele>5</ele>
        <time>2018-10-14T08:34:57Z</time>
      </trkpt>
      <trkpt lat="43.4163" lon="6.72818">
        <ele>5</ele>
        <time>2018-10-14T08:34:59Z</time>
      </trkpt>
      <trkpt lat="43.41625" lon="6.72817">
        <ele>5</ele>
        <time>2018-10-14T08:35:00Z</time>
      </trkpt>
      <trkpt lat="43.4161" lon="6.72815">
        <ele>5</ele>
        <time>2018-10-14T08:35:03Z</time>
      </trkpt>
      <trkpt lat="43.41599" lon="6.72817">
        <ele>5</ele>
        <time>2018-10-14T08:35:05Z</time>
      </trkpt>
      <trkpt lat="43.41588" lon="6.72821">
        <ele>5</ele>
        <time>2018-10-14T08:35:07Z</time>
      </trkpt>
      <trkpt lat="43.41583" lon="6.72824">
        <ele>4.8000001907349</ele>
        <time>2018-10-14T08:35:08Z</time>
      </trkpt>
      <trkpt lat="43.41564" lon="6.72838">
        <ele>4.8000001907349</ele>
        <time>2018-10-14T08:35:12Z</time>
      </trkpt>
      <trkpt lat="43.4154" lon="6.72851">
        <ele>5</ele>
        <time>2018-10-14T08:35:17Z</time>
      </trkpt>
      <trkpt lat="43.41522" lon="6.72861">
        <ele>5.1999998092651</ele>
        <time>2018-10-14T08:35:21Z</time>
      </trkpt>
      <trkpt lat="43.41518" lon="6.72865">
        <ele>5.1999998092651</ele>
        <time>2018-10-14T08:35:22Z</time>
      </trkpt>
      <trkpt lat="43.41514" lon="6.72869">
        <ele>5.4000000953674</ele>
        <time>2018-10-14T08:35:23Z</time>
      </trkpt>
      <trkpt lat="43.41503" lon="6.72883">
        <ele>5.4000000953674</ele>
        <time>2018-10-14T08:35:26Z</time>
      </trkpt>
      <trkpt lat="43.415" lon="6.72889">
        <ele>5.4000000953674</ele>
        <time>2018-10-14T08:35:27Z</time>
      </trkpt>
      <trkpt lat="43.41479" lon="6.72918">
        <ele>5.5999999046326</ele>
        <time>2018-10-14T08:35:33Z</time>
      </trkpt>
      <trkpt lat="43.41473" lon="6.72927">
        <ele>5.5999999046326</ele>
        <time>2018-10-14T08:35:35Z</time>
      </trkpt>
      <trkpt lat="43.41468" lon="6.72935">
        <ele>5.5999999046326</ele>
        <time>2018-10-14T08:35:37Z</time>
      </trkpt>
      <trkpt lat="43.41465" lon="6.72939">
        <ele>5.4000000953674</ele>
        <time>2018-10-14T08:35:38Z</time>
      </trkpt>
      <trkpt lat="43.41453" lon="6.72953">
        <ele>5.1999998092651</ele>
        <time>2018-10-14T08:35:42Z</time>
      </trkpt>
      <trkpt lat="43.4145" lon="6.72958">
        <ele>5.1999998092651</ele>
        <time>2018-10-14T08:35:43Z</time>
      </trkpt>
      <trkpt lat="43.41436" lon="6.72975">
        <ele>5</ele>
        <time>2018-10-14T08:35:46Z</time>
      </trkpt>
      <trkpt lat="43.4141" lon="6.73014">
        <ele>4.8000001907349</ele>
        <time>2018-10-14T08:35:52Z</time>
      </trkpt>
      <trkpt lat="43.41378" lon="6.7306">
        <ele>5</ele>
        <time>2018-10-14T08:36:00Z</time>
      </trkpt>
      <trkpt lat="43.41352" lon="6.73091">
        <ele>5</ele>
        <time>2018-10-14T08:36:06Z</time>
      </trkpt>
      <trkpt lat="43.41348" lon="6.73097">
        <ele>5</ele>
        <time>2018-10-14T08:36:07Z</time>
      </trkpt>
      <trkpt lat="43.41332" lon="6.73129">
        <ele>4.8000001907349</ele>
        <time>2018-10-14T08:36:12Z</time>
      </trkpt>
      <trkpt lat="43.41331" lon="6.73137">
        <ele>4.8000001907349</ele>
        <time>2018-10-14T08:36:13Z</time>
      </trkpt>
      <trkpt lat="43.4133" lon="6.73145">
        <ele>4.5999999046326</ele>
        <time>2018-10-14T08:36:14Z</time>
      </trkpt>
      <trkpt lat="43.41328" lon="6.73161">
        <ele>4.5999999046326</ele>
        <time>2018-10-14T08:36:16Z</time>
      </trkpt>
      <trkpt lat="43.41325" lon="6.73168">
        <ele>4.5999999046326</ele>
        <time>2018-10-14T08:36:17Z</time>
      </trkpt>
      <trkpt lat="43.41321" lon="6.73172">
        <ele>4.5999999046326</ele>
        <time>2018-10-14T08:36:18Z</time>
      </trkpt>
      <trkpt lat="43.41315" lon="6.73174">
        <ele>4.4000000953674</ele>
        <time>2018-10-14T08:36:19Z</time>
      </trkpt>
      <trkpt lat="43.41309" lon="6.73174">
        <ele>4.5999999046326</ele>
        <time>2018-10-14T08:36:20Z</time>
      </trkpt>
      <trkpt lat="43.41297" lon="6.73176">
        <ele>4.5999999046326</ele>
        <time>2018-10-14T08:36:23Z</time>
      </trkpt>
      <trkpt lat="43.41285" lon="6.7319">
        <ele>4.8000001907349</ele>
        <time>2018-10-14T08:36:26Z</time>
      </trkpt>
      <trkpt lat="43.41274" lon="6.73197">
        <ele>4.8000001907349</ele>
        <time>2018-10-14T08:36:28Z</time>
      </trkpt>
      <trkpt lat="43.41269" lon="6.73198">
        <ele>4.8000001907349</ele>
        <time>2018-10-14T08:36:29Z</time>
      </trkpt>
      <trkpt lat="43.41263" lon="6.73197">
        <ele>4.8000001907349</ele>
        <time>2018-10-14T08:36:30Z</time>
      </trkpt>
      <trkpt lat="43.41247" lon="6.7319">
        <ele>4.8000001907349</ele>
        <time>2018-10-14T08:36:33Z</time>
      </trkpt>
      <trkpt lat="43.41236" lon="6.73189">
        <ele>4.8000001907349</ele>
        <time>2018-10-14T08:36:35Z</time>
      </trkpt>
      <trkpt lat="43.41231" lon="6.7319">
        <ele>4.8000001907349</ele>
        <time>2018-10-14T08:36:36Z</time>
      </trkpt>
      <trkpt lat="43.41225" lon="6.7319">
        <ele>4.8000001907349</ele>
        <time>2018-10-14T08:36:37Z</time>
      </trkpt>
      <trkpt lat="43.41218" lon="6.73186">
        <ele>5</ele>
        <time>2018-10-14T08:36:39Z</time>
      </trkpt>
      <trkpt lat="43.41215" lon="6.73182">
        <ele>4.8000001907349</ele>
        <time>2018-10-14T08:36:40Z</time>
      </trkpt>
      <trkpt lat="43.41207" lon="6.7317">
        <ele>4.8000001907349</ele>
        <time>2018-10-14T08:36:42Z</time>
      </trkpt>
      <trkpt lat="43.41178" lon="6.73134">
        <ele>4.8000001907349</ele>
        <time>2018-10-14T08:36:49Z</time>
      </trkpt>
      <trkpt lat="43.41173" lon="6.73127">
        <ele>4.8000001907349</ele>
        <time>2018-10-14T08:36:51Z</time>
      </trkpt>
      <trkpt lat="43.41174" lon="6.7312">
        <ele>4.5999999046326</ele>
        <time>2018-10-14T08:36:53Z</time>
      </trkpt>
      <trkpt lat="43.41182" lon="6.73109">
        <ele>5</ele>
        <time>2018-10-14T08:36:57Z</time>
      </trkpt>
      <trkpt lat="43.41186" lon="6.73108">
        <ele>5</ele>
        <time>2018-10-14T08:36:58Z</time>
      </trkpt>
      <trkpt lat="43.41195" lon="6.73108">
        <ele>5</ele>
        <time>2018-10-14T08:37:00Z</time>
      </trkpt>
      <trkpt lat="43.41203" lon="6.731">
        <ele>5</ele>
        <time>2018-10-14T08:37:03Z</time>
      </trkpt>
      <trkpt lat="43.41225" lon="6.73068">
        <ele>5.1999998092651</ele>
        <time>2018-10-14T08:37:10Z</time>
      </trkpt>
      <trkpt lat="43.41264" lon="6.73018">
        <ele>5.4000000953674</ele>
        <time>2018-10-14T08:37:20Z</time>
      </trkpt>
      <trkpt lat="43.41295" lon="6.72978">
        <ele>5.5999999046326</ele>
        <time>2018-10-14T08:37:28Z</time>
      </trkpt>
      <trkpt lat="43.41327" lon="6.72937">
        <ele>5.8000001907349</ele>
        <time>2018-10-14T08:37:36Z</time>
      </trkpt>
      <trkpt lat="43.41363" lon="6.7289">
        <ele>5.8000001907349</ele>
        <time>2018-10-14T08:37:45Z</time>
      </trkpt>
      <trkpt lat="43.41385" lon="6.7286">
        <ele>5.8000001907349</ele>
        <time>2018-10-14T08:37:50Z</time>
      </trkpt>
      <trkpt lat="43.41418" lon="6.72817">
        <ele>6</ele>
        <time>2018-10-14T08:37:58Z</time>
      </trkpt>
      <trkpt lat="43.41459" lon="6.72764">
        <ele>6.1999998092651</ele>
        <time>2018-10-14T08:38:08Z</time>
      </trkpt>
      <trkpt lat="43.41481" lon="6.72734">
        <ele>6</ele>
        <time>2018-10-14T08:38:14Z</time>
      </trkpt>
      <trkpt lat="43.41483" lon="6.72728">
        <ele>6.1999998092651</ele>
        <time>2018-10-14T08:38:15Z</time>
      </trkpt>
      <trkpt lat="43.41484" lon="6.72722">
        <ele>6</ele>
        <time>2018-10-14T08:38:16Z</time>
      </trkpt>
      <trkpt lat="43.41484" lon="6.7271">
        <ele>6</ele>
        <time>2018-10-14T08:38:18Z</time>
      </trkpt>
      <trkpt lat="43.41485" lon="6.72707">
        <ele>5.8000001907349</ele>
        <time>2018-10-14T08:38:19Z</time>
      </trkpt>
      <trkpt lat="43.41488" lon="6.72701">
        <ele>5.5999999046326</ele>
        <time>2018-10-14T08:38:22Z</time>
      </trkpt>
      <trkpt lat="43.41489" lon="6.72697">
        <ele>5.5999999046326</ele>
        <time>2018-10-14T08:38:24Z</time>
      </trkpt>
      <trkpt lat="43.41494" lon="6.72694">
        <ele>5.5999999046326</ele>
        <time>2018-10-14T08:38:26Z</time>
      </trkpt>
      <trkpt lat="43.41498" lon="6.72691">
        <ele>5.1999998092651</ele>
        <time>2018-10-14T08:38:29Z</time>
      </trkpt>
      <trkpt lat="43.41506" lon="6.72685">
        <ele>5</ele>
        <time>2018-10-14T08:38:34Z</time>
      </trkpt>
      <trkpt lat="43.41511" lon="6.72676">
        <ele>5</ele>
        <time>2018-10-14T08:38:38Z</time>
      </trkpt>
      <trkpt lat="43.41516" lon="6.72662">
        <ele>5</ele>
        <time>2018-10-14T08:38:42Z</time>
      </trkpt>
      <trkpt lat="43.41515" lon="6.72659">
        <ele>4.8000001907349</ele>
        <time>2018-10-14T08:38:43Z</time>
      </trkpt>
      <trkpt lat="43.41505" lon="6.72653">
        <ele>4.8000001907349</ele>
        <time>2018-10-14T08:38:46Z</time>
      </trkpt>
      <trkpt lat="43.41501" lon="6.72652">
        <ele>5</ele>
        <time>2018-10-14T08:38:47Z</time>
      </trkpt>
      <trkpt lat="43.41485" lon="6.72645">
        <ele>5</ele>
        <time>2018-10-14T08:38:51Z</time>
      </trkpt>
      <trkpt lat="43.41482" lon="6.72643">
        <ele>4.8000001907349</ele>
        <time>2018-10-14T08:38:52Z</time>
      </trkpt>
      <trkpt lat="43.41473" lon="6.72636">
        <ele>4.5999999046326</ele>
        <time>2018-10-14T08:38:55Z</time>
      </trkpt>
      <trkpt lat="43.41465" lon="6.72631">
        <ele>4.4000000953674</ele>
        <time>2018-10-14T08:38:57Z</time>
      </trkpt>
      <trkpt lat="43.41457" lon="6.72628">
        <ele>4.4000000953674</ele>
        <time>2018-10-14T08:38:59Z</time>
      </trkpt>
      <trkpt lat="43.41449" lon="6.72624">
        <ele>4.1999998092651</ele>
        <time>2018-10-14T08:39:03Z</time>
      </trkpt>
      <trkpt lat="43.41445" lon="6.72621">
        <ele>4</ele>
        <time>2018-10-14T08:39:06Z</time>
      </trkpt>
      <trkpt lat="43.41444" lon="6.72619">
        <ele>3.7999999523163</ele>
        <time>2018-10-14T08:39:08Z</time>
      </trkpt>
      <trkpt lat="43.41443" lon="6.72619">
        <ele>3.7999999523163</ele>
        <time>2018-10-14T08:39:09Z</time>
      </trkpt>
      <trkpt lat="43.41419" lon="6.72558">
        <ele>1</ele>
        <time>2018-10-14T08:39:57Z</time>
      </trkpt>
      <trkpt lat="43.41415" lon="6.72552">
        <ele>1.2000000476837</ele>
        <time>2018-10-14T08:40:00Z</time>
      </trkpt>
      <trkpt lat="43.41411" lon="6.72546">
        <ele>1.2000000476837</ele>
        <time>2018-10-14T08:40:03Z</time>
      </trkpt>
      <trkpt lat="43.41411" lon="6.72542">
        <ele>1.2000000476837</ele>
        <time>2018-10-14T08:40:05Z</time>
      </trkpt>
      <trkpt lat="43.41407" lon="6.72531">
        <ele>0.80000001192093</ele>
        <time>2018-10-14T08:40:10Z</time>
      </trkpt>
      <trkpt lat="43.41403" lon="6.7252">
        <ele>0.60000002384186</ele>
        <time>2018-10-14T08:40:15Z</time>
      </trkpt>
      <trkpt lat="43.41394" lon="6.72507">
        <ele>0.40000000596046</ele>
        <time>2018-10-14T08:40:21Z</time>
      </trkpt>
      <trkpt lat="43.41384" lon="6.72493">
        <ele>0.40000000596046</ele>
        <time>2018-10-14T08:40:28Z</time>
      </trkpt>
      <trkpt lat="43.41375" lon="6.72482">
        <ele>0.20000000298023</ele>
        <time>2018-10-14T08:40:35Z</time>
      </trkpt>
      <trkpt lat="43.41367" lon="6.72473">
        <ele>0.60000002384186</ele>
        <time>2018-10-14T08:40:41Z</time>
      </trkpt>
      <trkpt lat="43.41358" lon="6.72466">
        <ele>0.80000001192093</ele>
        <time>2018-10-14T08:40:47Z</time>
      </trkpt>
      <trkpt lat="43.41348" lon="6.72461">
        <ele>1</ele>
        <time>2018-10-14T08:40:54Z</time>
      </trkpt>
      <trkpt lat="43.41338" lon="6.72456">
        <ele>1</ele>
        <time>2018-10-14T08:41:01Z</time>
      </trkpt>
      <trkpt lat="43.41328" lon="6.72455">
        <ele>1.2000000476837</ele>
        <time>2018-10-14T08:41:07Z</time>
      </trkpt>
      <trkpt lat="43.41314" lon="6.7246">
        <ele>1.2000000476837</ele>
        <time>2018-10-14T08:41:14Z</time>
      </trkpt>
      <trkpt lat="43.41299" lon="6.72466">
        <ele>1.3999999761581</ele>
        <time>2018-10-14T08:41:20Z</time>
      </trkpt>
      <trkpt lat="43.41285" lon="6.72473">
        <ele>1.3999999761581</ele>
        <time>2018-10-14T08:41:24Z</time>
      </trkpt>
      <trkpt lat="43.41267" lon="6.72478">
        <ele>1.3999999761581</ele>
        <time>2018-10-14T08:41:30Z</time>
      </trkpt>
      <trkpt lat="43.41254" lon="6.72479">
        <ele>1.6000000238419</ele>
        <time>2018-10-14T08:41:35Z</time>
      </trkpt>
      <trkpt lat="43.41239" lon="6.7248">
        <ele>1.6000000238419</ele>
        <time>2018-10-14T08:41:40Z</time>
      </trkpt>
      <trkpt lat="43.41222" lon="6.7248">
        <ele>1.3999999761581</ele>
        <time>2018-10-14T08:41:46Z</time>
      </trkpt>
      <trkpt lat="43.41212" lon="6.72478">
        <ele>1.2000000476837</ele>
        <time>2018-10-14T08:41:51Z</time>
      </trkpt>
      <trkpt lat="43.41208" lon="6.72475">
        <ele>1</ele>
        <time>2018-10-14T08:41:55Z</time>
      </trkpt>
      <trkpt lat="43.41186" lon="6.725">
        <ele>2.4000000953674</ele>
        <time>2018-10-14T08:42:51Z</time>
      </trkpt>
      <trkpt lat="43.41183" lon="6.72503">
        <ele>2.4000000953674</ele>
        <time>2018-10-14T08:42:53Z</time>
      </trkpt>
      <trkpt lat="43.41174" lon="6.72512">
        <ele>2.7999999523163</ele>
        <time>2018-10-14T08:42:58Z</time>
      </trkpt>
      <trkpt lat="43.41161" lon="6.72511">
        <ele>3.2000000476837</ele>
        <time>2018-10-14T08:43:02Z</time>
      </trkpt>
      <trkpt lat="43.41139" lon="6.72495">
        <ele>3.4000000953674</ele>
        <time>2018-10-14T08:43:09Z</time>
      </trkpt>
      <trkpt lat="43.41112" lon="6.72478">
        <ele>3.7999999523163</ele>
        <time>2018-10-14T08:43:16Z</time>
      </trkpt>
      <trkpt lat="43.41088" lon="6.72462">
        <ele>4</ele>
        <time>2018-10-14T08:43:22Z</time>
      </trkpt>
      <trkpt lat="43.4108" lon="6.72456">
        <ele>4</ele>
        <time>2018-10-14T08:43:24Z</time>
      </trkpt>
      <trkpt lat="43.41072" lon="6.72448">
        <ele>4</ele>
        <time>2018-10-14T08:43:26Z</time>
      </trkpt>
      <trkpt lat="43.41068" lon="6.72443">
        <ele>4</ele>
        <time>2018-10-14T08:43:27Z</time>
      </trkpt>
      <trkpt lat="43.41048" lon="6.72426">
        <ele>4.1999998092651</ele>
        <time>2018-10-14T08:43:31Z</time>
      </trkpt>
      <trkpt lat="43.41042" lon="6.72422">
        <ele>4.4000000953674</ele>
        <time>2018-10-14T08:43:32Z</time>
      </trkpt>
      <trkpt lat="43.41036" lon="6.7242">
        <ele>4.4000000953674</ele>
        <time>2018-10-14T08:43:33Z</time>
      </trkpt>
      <trkpt lat="43.41012" lon="6.72415">
        <ele>4.5999999046326</ele>
        <time>2018-10-14T08:43:37Z</time>
      </trkpt>
      <trkpt lat="43.40969" lon="6.72414">
        <ele>4.5999999046326</ele>
        <time>2018-10-14T08:43:44Z</time>
      </trkpt>
      <trkpt lat="43.40932" lon="6.72422">
        <ele>4.5999999046326</ele>
        <time>2018-10-14T08:43:50Z</time>
      </trkpt>
      <trkpt lat="43.40926" lon="6.72423">
        <ele>4.5999999046326</ele>
        <time>2018-10-14T08:43:51Z</time>
      </trkpt>
      <trkpt lat="43.40915" lon="6.72418">
        <ele>4.8000001907349</ele>
        <time>2018-10-14T08:43:53Z</time>
      </trkpt>
      <trkpt lat="43.40907" lon="6.72403">
        <ele>4.5999999046326</ele>
        <time>2018-10-14T08:43:55Z</time>
      </trkpt>
      <trkpt lat="43.40902" lon="6.72372">
        <ele>4.4000000953674</ele>
        <time>2018-10-14T08:43:58Z</time>
      </trkpt>
      <trkpt lat="43.409" lon="6.72364">
        <ele>4.4000000953674</ele>
        <time>2018-10-14T08:43:59Z</time>
      </trkpt>
      <trkpt lat="43.40895" lon="6.72356">
        <ele>4.4000000953674</ele>
        <time>2018-10-14T08:44:00Z</time>
      </trkpt>
      <trkpt lat="43.40884" lon="6.72346">
        <ele>4.4000000953674</ele>
        <time>2018-10-14T08:44:02Z</time>
      </trkpt>
      <trkpt lat="43.40859" lon="6.72335">
        <ele>4.4000000953674</ele>
        <time>2018-10-14T08:44:06Z</time>
      </trkpt>
      <trkpt lat="43.40825" lon="6.72334">
        <ele>4.5999999046326</ele>
        <time>2018-10-14T08:44:11Z</time>
      </trkpt>
      <trkpt lat="43.40794" lon="6.72322">
        <ele>4.5999999046326</ele>
        <time>2018-10-14T08:44:16Z</time>
      </trkpt>
      <trkpt lat="43.40749" lon="6.72304">
        <ele>4.4000000953674</ele>
        <time>2018-10-14T08:44:23Z</time>
      </trkpt>
      <trkpt lat="43.40744" lon="6.72299">
        <ele>4.5999999046326</ele>
        <time>2018-10-14T08:44:24Z</time>
      </trkpt>
      <trkpt lat="43.40739" lon="6.72294">
        <ele>4.4000000953674</ele>
        <time>2018-10-14T08:44:25Z</time>
      </trkpt>
      <trkpt lat="43.40733" lon="6.72281">
        <ele>4.4000000953674</ele>
        <time>2018-10-14T08:44:27Z</time>
      </trkpt>
      <trkpt lat="43.40731" lon="6.72264">
        <ele>4.4000000953674</ele>
        <time>2018-10-14T08:44:29Z</time>
      </trkpt>
      <trkpt lat="43.40732" lon="6.72255">
        <ele>4.5999999046326</ele>
        <time>2018-10-14T08:44:30Z</time>
      </trkpt>
      <trkpt lat="43.40735" lon="6.72246">
        <ele>4.5999999046326</ele>
        <time>2018-10-14T08:44:31Z</time>
      </trkpt>
      <trkpt lat="43.40742" lon="6.72232">
        <ele>4.5999999046326</ele>
        <time>2018-10-14T08:44:33Z</time>
      </trkpt>
      <trkpt lat="43.40747" lon="6.72226">
        <ele>4.5999999046326</ele>
        <time>2018-10-14T08:44:34Z</time>
      </trkpt>
      <trkpt lat="43.40751" lon="6.72219">
        <ele>4.5999999046326</ele>
        <time>2018-10-14T08:44:35Z</time>
      </trkpt>
      <trkpt lat="43.40765" lon="6.7219">
        <ele>4.5999999046326</ele>
        <time>2018-10-14T08:44:39Z</time>
      </trkpt>
      <trkpt lat="43.40787" lon="6.7213">
        <ele>4.8000001907349</ele>
        <time>2018-10-14T08:44:47Z</time>
      </trkpt>
      <trkpt lat="43.40789" lon="6.72122">
        <ele>4.8000001907349</ele>
        <time>2018-10-14T08:44:48Z</time>
      </trkpt>
      <trkpt lat="43.40792" lon="6.72106">
        <ele>4.8000001907349</ele>
        <time>2018-10-14T08:44:50Z</time>
      </trkpt>
      <trkpt lat="43.40796" lon="6.72044">
        <ele>4.8000001907349</ele>
        <time>2018-10-14T08:44:57Z</time>
      </trkpt>
      <trkpt lat="43.40806" lon="6.71983">
        <ele>4.8000001907349</ele>
        <time>2018-10-14T08:45:04Z</time>
      </trkpt>
      <trkpt lat="43.40819" lon="6.7194">
        <ele>4.8000001907349</ele>
        <time>2018-10-14T08:45:09Z</time>
      </trkpt>
      <trkpt lat="43.40823" lon="6.71932">
        <ele>4.8000001907349</ele>
        <time>2018-10-14T08:45:10Z</time>
      </trkpt>
      <trkpt lat="43.4084" lon="6.71883">
        <ele>4.5999999046326</ele>
        <time>2018-10-14T08:45:16Z</time>
      </trkpt>
      <trkpt lat="43.40866" lon="6.7183">
        <ele>4.5999999046326</ele>
        <time>2018-10-14T08:45:23Z</time>
      </trkpt>
      <trkpt lat="43.4088" lon="6.71812">
        <ele>4.8000001907349</ele>
        <time>2018-10-14T08:45:26Z</time>
      </trkpt>
      <trkpt lat="43.40888" lon="6.71798">
        <ele>4.8000001907349</ele>
        <time>2018-10-14T08:45:28Z</time>
      </trkpt>
      <trkpt lat="43.40891" lon="6.71791">
        <ele>4.8000001907349</ele>
        <time>2018-10-14T08:45:29Z</time>
      </trkpt>
      <trkpt lat="43.40896" lon="6.71774">
        <ele>5</ele>
        <time>2018-10-14T08:45:31Z</time>
      </trkpt>
      <trkpt lat="43.40898" lon="6.71765">
        <ele>5</ele>
        <time>2018-10-14T08:45:32Z</time>
      </trkpt>
      <trkpt lat="43.40906" lon="6.71723">
        <ele>5</ele>
        <time>2018-10-14T08:45:37Z</time>
      </trkpt>
      <trkpt lat="43.40915" lon="6.71681">
        <ele>4.8000001907349</ele>
        <time>2018-10-14T08:45:42Z</time>
      </trkpt>
      <trkpt lat="43.40922" lon="6.71646">
        <ele>4.5999999046326</ele>
        <time>2018-10-14T08:45:46Z</time>
      </trkpt>
      <trkpt lat="43.40924" lon="6.71637">
        <ele>4.5999999046326</ele>
        <time>2018-10-14T08:45:47Z</time>
      </trkpt>
      <trkpt lat="43.40936" lon="6.71574">
        <ele>4.4000000953674</ele>
        <time>2018-10-14T08:45:54Z</time>
      </trkpt>
      <trkpt lat="43.40942" lon="6.71548">
        <ele>4.1999998092651</ele>
        <time>2018-10-14T08:45:57Z</time>
      </trkpt>
      <trkpt lat="43.40943" lon="6.71539">
        <ele>4.1999998092651</ele>
        <time>2018-10-14T08:45:58Z</time>
      </trkpt>
      <trkpt lat="43.40945" lon="6.71521">
        <ele>4</ele>
        <time>2018-10-14T08:46:00Z</time>
      </trkpt>
      <trkpt lat="43.40943" lon="6.71503">
        <ele>4</ele>
        <time>2018-10-14T08:46:02Z</time>
      </trkpt>
      <trkpt lat="43.40937" lon="6.71491">
        <ele>3.7999999523163</ele>
        <time>2018-10-14T08:46:04Z</time>
      </trkpt>
      <trkpt lat="43.40935" lon="6.71486">
        <ele>3.7999999523163</ele>
        <time>2018-10-14T08:46:05Z</time>
      </trkpt>
      <trkpt lat="43.40937" lon="6.7148">
        <ele>3.7999999523163</ele>
        <time>2018-10-14T08:46:07Z</time>
      </trkpt>
      <trkpt lat="43.40944" lon="6.71466">
        <ele>3.7999999523163</ele>
        <time>2018-10-14T08:46:13Z</time>
      </trkpt>
      <trkpt lat="43.40947" lon="6.71453">
        <ele>3.5999999046326</ele>
        <time>2018-10-14T08:46:15Z</time>
      </trkpt>
      <trkpt lat="43.4095" lon="6.71442">
        <ele>3.5999999046326</ele>
        <time>2018-10-14T08:46:17Z</time>
      </trkpt>
      <trkpt lat="43.40953" lon="6.71433">
        <ele>3.7999999523163</ele>
        <time>2018-10-14T08:46:19Z</time>
      </trkpt>
      <trkpt lat="43.40957" lon="6.71431">
        <ele>4</ele>
        <time>2018-10-14T08:46:20Z</time>
      </trkpt>
      <trkpt lat="43.4097" lon="6.7143">
        <ele>4</ele>
        <time>2018-10-14T08:46:24Z</time>
      </trkpt>
      <trkpt lat="43.40971" lon="6.71418">
        <ele>4</ele>
        <time>2018-10-14T08:46:27Z</time>
      </trkpt>
      <trkpt lat="43.40979" lon="6.71401">
        <ele>4</ele>
        <time>2018-10-14T08:46:31Z</time>
      </trkpt>
      <trkpt lat="43.40988" lon="6.71396">
        <ele>4</ele>
        <time>2018-10-14T08:46:33Z</time>
      </trkpt>
      <trkpt lat="43.40997" lon="6.71392">
        <ele>4</ele>
        <time>2018-10-14T08:46:35Z</time>
      </trkpt>
      <trkpt lat="43.41027" lon="6.71376">
        <ele>4.1999998092651</ele>
        <time>2018-10-14T08:46:41Z</time>
      </trkpt>
      <trkpt lat="43.41035" lon="6.71365">
        <ele>4.1999998092651</ele>
        <time>2018-10-14T08:46:43Z</time>
      </trkpt>
      <trkpt lat="43.41045" lon="6.71347">
        <ele>4.1999998092651</ele>
        <time>2018-10-14T08:46:46Z</time>
      </trkpt>
      <trkpt lat="43.41073" lon="6.71299">
        <ele>4.1999998092651</ele>
        <time>2018-10-14T08:46:54Z</time>
      </trkpt>
      <trkpt lat="43.41095" lon="6.71271">
        <ele>4.1999998092651</ele>
        <time>2018-10-14T08:46:59Z</time>
      </trkpt>
      <trkpt lat="43.41098" lon="6.71264">
        <ele>4.1999998092651</ele>
        <time>2018-10-14T08:47:00Z</time>
      </trkpt>
      <trkpt lat="43.411" lon="6.71256">
        <ele>4.1999998092651</ele>
        <time>2018-10-14T08:47:01Z</time>
      </trkpt>
      <trkpt lat="43.41099" lon="6.71248">
        <ele>4.1999998092651</ele>
        <time>2018-10-14T08:47:02Z</time>
      </trkpt>
      <trkpt lat="43.41092" lon="6.71218">
        <ele>4</ele>
        <time>2018-10-14T08:47:06Z</time>
      </trkpt>
      <trkpt lat="43.41084" lon="6.71189">
        <ele>4</ele>
        <time>2018-10-14T08:47:10Z</time>
      </trkpt>
      <trkpt lat="43.41079" lon="6.71166">
        <ele>3.7999999523163</ele>
        <time>2018-10-14T08:47:13Z</time>
      </trkpt>
      <trkpt lat="43.41077" lon="6.71158">
        <ele>3.7999999523163</ele>
        <time>2018-10-14T08:47:14Z</time>
      </trkpt>
      <trkpt lat="43.41068" lon="6.71133">
        <ele>3.5999999046326</ele>
        <time>2018-10-14T08:47:17Z</time>
      </trkpt>
      <trkpt lat="43.41065" lon="6.71125">
        <ele>3.5999999046326</ele>
        <time>2018-10-14T08:47:18Z</time>
      </trkpt>
      <trkpt lat="43.41059" lon="6.71109">
        <ele>3.5999999046326</ele>
        <time>2018-10-14T08:47:20Z</time>
      </trkpt>
      <trkpt lat="43.41053" lon="6.71095">
        <ele>3.4000000953674</ele>
        <time>2018-10-14T08:47:22Z</time>
      </trkpt>
      <trkpt lat="43.41045" lon="6.7107">
        <ele>3.4000000953674</ele>
        <time>2018-10-14T08:47:25Z</time>
      </trkpt>
      <trkpt lat="43.41043" lon="6.71055">
        <ele>3.2000000476837</ele>
        <time>2018-10-14T08:47:27Z</time>
      </trkpt>
      <trkpt lat="43.41039" lon="6.71025">
        <ele>3.2000000476837</ele>
        <time>2018-10-14T08:47:31Z</time>
      </trkpt>
      <trkpt lat="43.41037" lon="6.71017">
        <ele>3</ele>
        <time>2018-10-14T08:47:32Z</time>
      </trkpt>
      <trkpt lat="43.41032" lon="6.71002">
        <ele>3</ele>
        <time>2018-10-14T08:47:34Z</time>
      </trkpt>
      <trkpt lat="43.41027" lon="6.70987">
        <ele>3</ele>
        <time>2018-10-14T08:47:36Z</time>
      </trkpt>
      <trkpt lat="43.41026" lon="6.70979">
        <ele>3</ele>
        <time>2018-10-14T08:47:37Z</time>
      </trkpt>
      <trkpt lat="43.41022" lon="6.70964">
        <ele>3</ele>
        <time>2018-10-14T08:47:39Z</time>
      </trkpt>
      <trkpt lat="43.4102" lon="6.70956">
        <ele>3</ele>
        <time>2018-10-14T08:47:40Z</time>
      </trkpt>
      <trkpt lat="43.41018" lon="6.70949">
        <ele>3</ele>
        <time>2018-10-14T08:47:41Z</time>
      </trkpt>
      <trkpt lat="43.41011" lon="6.70924">
        <ele>3.2000000476837</ele>
        <time>2018-10-14T08:47:44Z</time>
      </trkpt>
      <trkpt lat="43.41007" lon="6.70908">
        <ele>3.2000000476837</ele>
        <time>2018-10-14T08:47:46Z</time>
      </trkpt>
      <trkpt lat="43.41004" lon="6.70891">
        <ele>3.4000000953674</ele>
        <time>2018-10-14T08:47:48Z</time>
      </trkpt>
      <trkpt lat="43.40998" lon="6.70875">
        <ele>3.4000000953674</ele>
        <time>2018-10-14T08:47:50Z</time>
      </trkpt>
      <trkpt lat="43.40989" lon="6.70867">
        <ele>3.4000000953674</ele>
        <time>2018-10-14T08:47:52Z</time>
      </trkpt>
      <trkpt lat="43.40976" lon="6.70863">
        <ele>3.5999999046326</ele>
        <time>2018-10-14T08:47:54Z</time>
      </trkpt>
      <trkpt lat="43.40971" lon="6.70859">
        <ele>3.5999999046326</ele>
        <time>2018-10-14T08:47:55Z</time>
      </trkpt>
      <trkpt lat="43.40967" lon="6.70853">
        <ele>3.5999999046326</ele>
        <time>2018-10-14T08:47:56Z</time>
      </trkpt>
      <trkpt lat="43.40965" lon="6.70838">
        <ele>3.5999999046326</ele>
        <time>2018-10-14T08:47:58Z</time>
      </trkpt>
      <trkpt lat="43.40969" lon="6.70825">
        <ele>3.7999999523163</ele>
        <time>2018-10-14T08:48:00Z</time>
      </trkpt>
      <trkpt lat="43.40972" lon="6.70821">
        <ele>4</ele>
        <time>2018-10-14T08:48:01Z</time>
      </trkpt>
      <trkpt lat="43.40975" lon="6.70816">
        <ele>4</ele>
        <time>2018-10-14T08:48:02Z</time>
      </trkpt>
      <trkpt lat="43.40984" lon="6.70808">
        <ele>4.1999998092651</ele>
        <time>2018-10-14T08:48:04Z</time>
      </trkpt>
      <trkpt lat="43.4099" lon="6.70806">
        <ele>4.1999998092651</ele>
        <time>2018-10-14T08:48:05Z</time>
      </trkpt>
      <trkpt lat="43.41033" lon="6.70786">
        <ele>4.4000000953674</ele>
        <time>2018-10-14T08:48:13Z</time>
      </trkpt>
      <trkpt lat="43.41049" lon="6.70778">
        <ele>4.5999999046326</ele>
        <time>2018-10-14T08:48:16Z</time>
      </trkpt>
      <trkpt lat="43.41059" lon="6.70779">
        <ele>4.5999999046326</ele>
        <time>2018-10-14T08:48:18Z</time>
      </trkpt>
      <trkpt lat="43.4107" lon="6.70787">
        <ele>4.5999999046326</ele>
        <time>2018-10-14T08:48:20Z</time>
      </trkpt>
      <trkpt lat="43.41082" lon="6.70791">
        <ele>4.5999999046326</ele>
        <time>2018-10-14T08:48:22Z</time>
      </trkpt>
      <trkpt lat="43.41088" lon="6.70792">
        <ele>4.5999999046326</ele>
        <time>2018-10-14T08:48:23Z</time>
      </trkpt>
      <trkpt lat="43.41113" lon="6.70793">
        <ele>4.8000001907349</ele>
        <time>2018-10-14T08:48:27Z</time>
      </trkpt>
      <trkpt lat="43.41138" lon="6.70793">
        <ele>4.8000001907349</ele>
        <time>2018-10-14T08:48:31Z</time>
      </trkpt>
      <trkpt lat="43.4115" lon="6.70789">
        <ele>4.8000001907349</ele>
        <time>2018-10-14T08:48:33Z</time>
      </trkpt>
      <trkpt lat="43.4116" lon="6.70778">
        <ele>5</ele>
        <time>2018-10-14T08:48:35Z</time>
      </trkpt>
      <trkpt lat="43.41163" lon="6.70772">
        <ele>5</ele>
        <time>2018-10-14T08:48:36Z</time>
      </trkpt>
      <trkpt lat="43.41181" lon="6.7073">
        <ele>5</ele>
        <time>2018-10-14T08:48:42Z</time>
      </trkpt>
      <trkpt lat="43.41202" lon="6.7068">
        <ele>5.1999998092651</ele>
        <time>2018-10-14T08:48:49Z</time>
      </trkpt>
      <trkpt lat="43.41205" lon="6.70674">
        <ele>5.1999998092651</ele>
        <time>2018-10-14T08:48:50Z</time>
      </trkpt>
      <trkpt lat="43.41213" lon="6.70654">
        <ele>5.1999998092651</ele>
        <time>2018-10-14T08:48:53Z</time>
      </trkpt>
      <trkpt lat="43.41234" lon="6.70604">
        <ele>5.4000000953674</ele>
        <time>2018-10-14T08:49:00Z</time>
      </trkpt>
      <trkpt lat="43.41249" lon="6.70567">
        <ele>5.5999999046326</ele>
        <time>2018-10-14T08:49:05Z</time>
      </trkpt>
      <trkpt lat="43.41254" lon="6.70551">
        <ele>5.5999999046326</ele>
        <time>2018-10-14T08:49:07Z</time>
      </trkpt>
      <trkpt lat="43.41276" lon="6.7049">
        <ele>5.8000001907349</ele>
        <time>2018-10-14T08:49:15Z</time>
      </trkpt>
      <trkpt lat="43.413" lon="6.70434">
        <ele>5.8000001907349</ele>
        <time>2018-10-14T08:49:23Z</time>
      </trkpt>
      <trkpt lat="43.41327" lon="6.70366">
        <ele>6</ele>
        <time>2018-10-14T08:49:32Z</time>
      </trkpt>
      <trkpt lat="43.4133" lon="6.70349">
        <ele>6</ele>
        <time>2018-10-14T08:49:34Z</time>
      </trkpt>
      <trkpt lat="43.41334" lon="6.70322">
        <ele>6</ele>
        <time>2018-10-14T08:49:37Z</time>
      </trkpt>
      <trkpt lat="43.41335" lon="6.70304">
        <ele>6</ele>
        <time>2018-10-14T08:49:39Z</time>
      </trkpt>
      <trkpt lat="43.41335" lon="6.70286">
        <ele>6</ele>
        <time>2018-10-14T08:49:41Z</time>
      </trkpt>
      <trkpt lat="43.41335" lon="6.70277">
        <ele>6</ele>
        <time>2018-10-14T08:49:42Z</time>
      </trkpt>
      <trkpt lat="43.41328" lon="6.70226">
        <ele>6.1999998092651</ele>
        <time>2018-10-14T08:49:48Z</time>
      </trkpt>
      <trkpt lat="43.41317" lon="6.7018">
        <ele>6.1999998092651</ele>
        <time>2018-10-14T08:49:54Z</time>
      </trkpt>
      <trkpt lat="43.41307" lon="6.70153">
        <ele>6.1999998092651</ele>
        <time>2018-10-14T08:49:58Z</time>
      </trkpt>
      <trkpt lat="43.41302" lon="6.70149">
        <ele>6.1999998092651</ele>
        <time>2018-10-14T08:49:59Z</time>
      </trkpt>
      <trkpt lat="43.41298" lon="6.70144">
        <ele>6.1999998092651</ele>
        <time>2018-10-14T08:50:00Z</time>
      </trkpt>
      <trkpt lat="43.41294" lon="6.7013">
        <ele>6.1999998092651</ele>
        <time>2018-10-14T08:50:02Z</time>
      </trkpt>
      <trkpt lat="43.41291" lon="6.70117">
        <ele>6.1999998092651</ele>
        <time>2018-10-14T08:50:04Z</time>
      </trkpt>
      <trkpt lat="43.41288" lon="6.7011">
        <ele>6</ele>
        <time>2018-10-14T08:50:05Z</time>
      </trkpt>
      <trkpt lat="43.4128" lon="6.70094">
        <ele>6</ele>
        <time>2018-10-14T08:50:08Z</time>
      </trkpt>
      <trkpt lat="43.41278" lon="6.70085">
        <ele>6.1999998092651</ele>
        <time>2018-10-14T08:50:10Z</time>
      </trkpt>
      <trkpt lat="43.41281" lon="6.70073">
        <ele>6.4000000953674</ele>
        <time>2018-10-14T08:50:13Z</time>
      </trkpt>
      <trkpt lat="43.4128" lon="6.70069">
        <ele>6.4000000953674</ele>
        <time>2018-10-14T08:50:14Z</time>
      </trkpt>
      <trkpt lat="43.41281" lon="6.70057">
        <ele>6.4000000953674</ele>
        <time>2018-10-14T08:50:16Z</time>
      </trkpt>
      <trkpt lat="43.41283" lon="6.7004">
        <ele>6.4000000953674</ele>
        <time>2018-10-14T08:50:18Z</time>
      </trkpt>
      <trkpt lat="43.41284" lon="6.70032">
        <ele>6.4000000953674</ele>
        <time>2018-10-14T08:50:19Z</time>
      </trkpt>
      <trkpt lat="43.41283" lon="6.70025">
        <ele>6.4000000953674</ele>
        <time>2018-10-14T08:50:20Z</time>
      </trkpt>
      <trkpt lat="43.41278" lon="6.70005">
        <ele>6.4000000953674</ele>
        <time>2018-10-14T08:50:23Z</time>
      </trkpt>
      <trkpt lat="43.41268" lon="6.69967">
        <ele>6.4000000953674</ele>
        <time>2018-10-14T08:50:29Z</time>
      </trkpt>
      <trkpt lat="43.41259" lon="6.69928">
        <ele>6.5999999046326</ele>
        <time>2018-10-14T08:50:35Z</time>
      </trkpt>
      <trkpt lat="43.41251" lon="6.69889">
        <ele>6.5999999046326</ele>
        <time>2018-10-14T08:50:41Z</time>
      </trkpt>
      <trkpt lat="43.4125" lon="6.69883">
        <ele>6.5999999046326</ele>
        <time>2018-10-14T08:50:42Z</time>
      </trkpt>
      <trkpt lat="43.4124" lon="6.69856">
        <ele>6.5999999046326</ele>
        <time>2018-10-14T08:50:47Z</time>
      </trkpt>
      <trkpt lat="43.41234" lon="6.69841">
        <ele>6.5999999046326</ele>
        <time>2018-10-14T08:50:50Z</time>
      </trkpt>
      <trkpt lat="43.41228" lon="6.69832">
        <ele>6.5999999046326</ele>
        <time>2018-10-14T08:50:52Z</time>
      </trkpt>
      <trkpt lat="43.41221" lon="6.69822">
        <ele>6.5999999046326</ele>
        <time>2018-10-14T08:50:54Z</time>
      </trkpt>
      <trkpt lat="43.41217" lon="6.69812">
        <ele>6.5999999046326</ele>
        <time>2018-10-14T08:50:56Z</time>
      </trkpt>
      <trkpt lat="43.41215" lon="6.69805">
        <ele>6.5999999046326</ele>
        <time>2018-10-14T08:50:57Z</time>
      </trkpt>
      <trkpt lat="43.41206" lon="6.69776">
        <ele>6.5999999046326</ele>
        <time>2018-10-14T08:51:02Z</time>
      </trkpt>
      <trkpt lat="43.41199" lon="6.69752">
        <ele>6.5999999046326</ele>
        <time>2018-10-14T08:51:06Z</time>
      </trkpt>
      <trkpt lat="43.41197" lon="6.69746">
        <ele>6.5999999046326</ele>
        <time>2018-10-14T08:51:07Z</time>
      </trkpt>
      <trkpt lat="43.41194" lon="6.69741">
        <ele>6.4000000953674</ele>
        <time>2018-10-14T08:51:08Z</time>
      </trkpt>
      <trkpt lat="43.41185" lon="6.69723">
        <ele>6.4000000953674</ele>
        <time>2018-10-14T08:51:11Z</time>
      </trkpt>
      <trkpt lat="43.41179" lon="6.6971">
        <ele>6.4000000953674</ele>
        <time>2018-10-14T08:51:13Z</time>
      </trkpt>
      <trkpt lat="43.41174" lon="6.69698">
        <ele>6.4000000953674</ele>
        <time>2018-10-14T08:51:15Z</time>
      </trkpt>
      <trkpt lat="43.4117" lon="6.69695">
        <ele>6.4000000953674</ele>
        <time>2018-10-14T08:51:16Z</time>
      </trkpt>
      <trkpt lat="43.41158" lon="6.69688">
        <ele>6.4000000953674</ele>
        <time>2018-10-14T08:51:19Z</time>
      </trkpt>
      <trkpt lat="43.41149" lon="6.69689">
        <ele>6.4000000953674</ele>
        <time>2018-10-14T08:51:21Z</time>
      </trkpt>
      <trkpt lat="43.4114" lon="6.69694">
        <ele>6.5999999046326</ele>
        <time>2018-10-14T08:51:23Z</time>
      </trkpt>
      <trkpt lat="43.41133" lon="6.69702">
        <ele>6.5999999046326</ele>
        <time>2018-10-14T08:51:25Z</time>
      </trkpt>
      <trkpt lat="43.41127" lon="6.69718">
        <ele>6.8000001907349</ele>
        <time>2018-10-14T08:51:29Z</time>
      </trkpt>
      <trkpt lat="43.4112" lon="6.69742">
        <ele>7</ele>
        <time>2018-10-14T08:51:36Z</time>
      </trkpt>
      <trkpt lat="43.41112" lon="6.69757">
        <ele>7.1999998092651</ele>
        <time>2018-10-14T08:51:42Z</time>
      </trkpt>
      <trkpt lat="43.41098" lon="6.69776">
        <ele>7.4000000953674</ele>
        <time>2018-10-14T08:51:51Z</time>
      </trkpt>
      <trkpt lat="43.41088" lon="6.69797">
        <ele>7.8000001907349</ele>
        <time>2018-10-14T08:51:59Z</time>
      </trkpt>
      <trkpt lat="43.41079" lon="6.69819">
        <ele>8.6000003814697</ele>
        <time>2018-10-14T08:52:07Z</time>
      </trkpt>
      <trkpt lat="43.4107" lon="6.69843">
        <ele>9.8000001907349</ele>
        <time>2018-10-14T08:52:16Z</time>
      </trkpt>
      <trkpt lat="43.41064" lon="6.69865">
        <ele>11</ele>
        <time>2018-10-14T08:52:24Z</time>
      </trkpt>
      <trkpt lat="43.41056" lon="6.69879">
        <ele>11.800000190735</ele>
        <time>2018-10-14T08:52:30Z</time>
      </trkpt>
      <trkpt lat="43.41044" lon="6.69895">
        <ele>13.60000038147</ele>
        <time>2018-10-14T08:52:39Z</time>
      </trkpt>
      <trkpt lat="43.41044" lon="6.69898">
        <ele>13.800000190735</ele>
        <time>2018-10-14T08:52:40Z</time>
      </trkpt>
      <trkpt lat="43.41046" lon="6.69907">
        <ele>14.39999961853</ele>
        <time>2018-10-14T08:52:44Z</time>
      </trkpt>
      <trkpt lat="43.41048" lon="6.6992">
        <ele>15.39999961853</ele>
        <time>2018-10-14T08:52:49Z</time>
      </trkpt>
      <trkpt lat="43.41044" lon="6.69935">
        <ele>16.799999237061</ele>
        <time>2018-10-14T08:52:56Z</time>
      </trkpt>
      <trkpt lat="43.41038" lon="6.69947">
        <ele>17.799999237061</ele>
        <time>2018-10-14T08:53:02Z</time>
      </trkpt>
      <trkpt lat="43.41032" lon="6.6996">
        <ele>19</ele>
        <time>2018-10-14T08:53:09Z</time>
      </trkpt>
      <trkpt lat="43.41031" lon="6.69969">
        <ele>19.799999237061</ele>
        <time>2018-10-14T08:53:13Z</time>
      </trkpt>
      <trkpt lat="43.41031" lon="6.69976">
        <ele>20.39999961853</ele>
        <time>2018-10-14T08:53:16Z</time>
      </trkpt>
      <trkpt lat="43.4103" lon="6.69991">
        <ele>21.39999961853</ele>
        <time>2018-10-14T08:53:23Z</time>
      </trkpt>
      <trkpt lat="43.41032" lon="6.70005">
        <ele>22.39999961853</ele>
        <time>2018-10-14T08:53:29Z</time>
      </trkpt>
      <trkpt lat="43.41032" lon="6.70011">
        <ele>23</ele>
        <time>2018-10-14T08:53:32Z</time>
      </trkpt>
      <trkpt lat="43.41032" lon="6.70014">
        <ele>23.39999961853</ele>
        <time>2018-10-14T08:53:34Z</time>
      </trkpt>
      <trkpt lat="43.41031" lon="6.70027">
        <ele>24.39999961853</ele>
        <time>2018-10-14T08:53:40Z</time>
      </trkpt>
      <trkpt lat="43.41034" lon="6.70038">
        <ele>25.60000038147</ele>
        <time>2018-10-14T08:53:46Z</time>
      </trkpt>
      <trkpt lat="43.41037" lon="6.7005">
        <ele>26.200000762939</ele>
        <time>2018-10-14T08:53:51Z</time>
      </trkpt>
      <trkpt lat="43.41041" lon="6.70066">
        <ele>27</ele>
        <time>2018-10-14T08:53:58Z</time>
      </trkpt>
      <trkpt lat="43.41046" lon="6.70085">
        <ele>28.39999961853</ele>
        <time>2018-10-14T08:54:07Z</time>
      </trkpt>
      <trkpt lat="43.41048" lon="6.701">
        <ele>29.60000038147</ele>
        <time>2018-10-14T08:54:14Z</time>
      </trkpt>
      <trkpt lat="43.41047" lon="6.70104">
        <ele>30</ele>
        <time>2018-10-14T08:54:16Z</time>
      </trkpt>
      <trkpt lat="43.41044" lon="6.70109">
        <ele>30.39999961853</ele>
        <time>2018-10-14T08:54:19Z</time>
      </trkpt>
      <trkpt lat="43.41041" lon="6.70119">
        <ele>31.39999961853</ele>
        <time>2018-10-14T08:54:25Z</time>
      </trkpt>
      <trkpt lat="43.41039" lon="6.70124">
        <ele>32</ele>
        <time>2018-10-14T08:54:28Z</time>
      </trkpt>
      <trkpt lat="43.41037" lon="6.70127">
        <ele>32.400001525879</ele>
        <time>2018-10-14T08:54:30Z</time>
      </trkpt>
      <trkpt lat="43.41035" lon="6.70128">
        <ele>32.400001525879</ele>
        <time>2018-10-14T08:54:31Z</time>
      </trkpt>
      <trkpt lat="43.4103" lon="6.70125">
        <ele>33.200000762939</ele>
        <time>2018-10-14T08:54:34Z</time>
      </trkpt>
      <trkpt lat="43.41025" lon="6.70126">
        <ele>33.799999237061</ele>
        <time>2018-10-14T08:54:37Z</time>
      </trkpt>
      <trkpt lat="43.41024" lon="6.70128">
        <ele>34.200000762939</ele>
        <time>2018-10-14T08:54:38Z</time>
      </trkpt>
      <trkpt lat="43.41013" lon="6.70138">
        <ele>35.799999237061</ele>
        <time>2018-10-14T08:54:45Z</time>
      </trkpt>
      <trkpt lat="43.41011" lon="6.70141">
        <ele>36</ele>
        <time>2018-10-14T08:54:47Z</time>
      </trkpt>
      <trkpt lat="43.4101" lon="6.70147">
        <ele>36.599998474121</ele>
        <time>2018-10-14T08:54:50Z</time>
      </trkpt>
      <trkpt lat="43.41006" lon="6.70156">
        <ele>37.599998474121</ele>
        <time>2018-10-14T08:54:55Z</time>
      </trkpt>
      <trkpt lat="43.40995" lon="6.70153">
        <ele>38.599998474121</ele>
        <time>2018-10-14T08:55:00Z</time>
      </trkpt>
      <trkpt lat="43.40976" lon="6.70141">
        <ele>39</ele>
        <time>2018-10-14T08:55:04Z</time>
      </trkpt>
      <trkpt lat="43.40967" lon="6.7014">
        <ele>39.400001525879</ele>
        <time>2018-10-14T08:55:07Z</time>
      </trkpt>
      <trkpt lat="43.40963" lon="6.70142">
        <ele>40.200000762939</ele>
        <time>2018-10-14T08:55:10Z</time>
      </trkpt>
      <trkpt lat="43.40961" lon="6.70145">
        <ele>40.599998474121</ele>
        <time>2018-10-14T08:55:12Z</time>
      </trkpt>
      <trkpt lat="43.40954" lon="6.70152">
        <ele>42</ele>
        <time>2018-10-14T08:55:18Z</time>
      </trkpt>
      <trkpt lat="43.40947" lon="6.70159">
        <ele>43.400001525879</ele>
        <time>2018-10-14T08:55:25Z</time>
      </trkpt>
      <trkpt lat="43.40938" lon="6.70169">
        <ele>45</ele>
        <time>2018-10-14T08:55:32Z</time>
      </trkpt>
      <trkpt lat="43.40928" lon="6.70173">
        <ele>46</ele>
        <time>2018-10-14T08:55:38Z</time>
      </trkpt>
      <trkpt lat="43.40917" lon="6.70171">
        <ele>46.799999237061</ele>
        <time>2018-10-14T08:55:42Z</time>
      </trkpt>
      <trkpt lat="43.40899" lon="6.70171">
        <ele>47.599998474121</ele>
        <time>2018-10-14T08:55:47Z</time>
      </trkpt>
      <trkpt lat="43.40888" lon="6.70184">
        <ele>48</ele>
        <time>2018-10-14T08:55:51Z</time>
      </trkpt>
      <trkpt lat="43.40881" lon="6.70198">
        <ele>48.400001525879</ele>
        <time>2018-10-14T08:55:54Z</time>
      </trkpt>
      <trkpt lat="43.40876" lon="6.70208">
        <ele>48.599998474121</ele>
        <time>2018-10-14T08:55:56Z</time>
      </trkpt>
      <trkpt lat="43.40868" lon="6.70216">
        <ele>48.799999237061</ele>
        <time>2018-10-14T08:55:58Z</time>
      </trkpt>
      <trkpt lat="43.40861" lon="6.70223">
        <ele>49</ele>
        <time>2018-10-14T08:56:00Z</time>
      </trkpt>
      <trkpt lat="43.40847" lon="6.70238">
        <ele>49.400001525879</ele>
        <time>2018-10-14T08:56:03Z</time>
      </trkpt>
      <trkpt lat="43.40841" lon="6.70242">
        <ele>49.400001525879</ele>
        <time>2018-10-14T08:56:04Z</time>
      </trkpt>
      <trkpt lat="43.40834" lon="6.70243">
        <ele>49.400001525879</ele>
        <time>2018-10-14T08:56:05Z</time>
      </trkpt>
      <trkpt lat="43.40821" lon="6.70246">
        <ele>49.599998474121</ele>
        <time>2018-10-14T08:56:07Z</time>
      </trkpt>
      <trkpt lat="43.40808" lon="6.70247">
        <ele>49.799999237061</ele>
        <time>2018-10-14T08:56:09Z</time>
      </trkpt>
      <trkpt lat="43.40796" lon="6.70243">
        <ele>50</ele>
        <time>2018-10-14T08:56:11Z</time>
      </trkpt>
      <trkpt lat="43.40774" lon="6.7023">
        <ele>50.400001525879</ele>
        <time>2018-10-14T08:56:15Z</time>
      </trkpt>
      <trkpt lat="43.4077" lon="6.70226">
        <ele>50.599998474121</ele>
        <time>2018-10-14T08:56:16Z</time>
      </trkpt>
      <trkpt lat="43.40765" lon="6.70221">
        <ele>50.799999237061</ele>
        <time>2018-10-14T08:56:17Z</time>
      </trkpt>
      <trkpt lat="43.40758" lon="6.70211">
        <ele>51</ele>
        <time>2018-10-14T08:56:19Z</time>
      </trkpt>
      <trkpt lat="43.40754" lon="6.70207">
        <ele>51.200000762939</ele>
        <time>2018-10-14T08:56:20Z</time>
      </trkpt>
      <trkpt lat="43.40738" lon="6.70196">
        <ele>52</ele>
        <time>2018-10-14T08:56:25Z</time>
      </trkpt>
      <trkpt lat="43.40723" lon="6.70188">
        <ele>53.400001525879</ele>
        <time>2018-10-14T08:56:32Z</time>
      </trkpt>
      <trkpt lat="43.40711" lon="6.7018">
        <ele>54.400001525879</ele>
        <time>2018-10-14T08:56:38Z</time>
      </trkpt>
      <trkpt lat="43.40694" lon="6.70168">
        <ele>56</ele>
        <time>2018-10-14T08:56:46Z</time>
      </trkpt>
      <trkpt lat="43.40678" lon="6.70162">
        <ele>57</ele>
        <time>2018-10-14T08:56:52Z</time>
      </trkpt>
      <trkpt lat="43.40658" lon="6.70156">
        <ele>57.799999237061</ele>
        <time>2018-10-14T08:56:59Z</time>
      </trkpt>
      <trkpt lat="43.4064" lon="6.70148">
        <ele>58.799999237061</ele>
        <time>2018-10-14T08:57:05Z</time>
      </trkpt>
      <trkpt lat="43.40622" lon="6.70138">
        <ele>59.400001525879</ele>
        <time>2018-10-14T08:57:10Z</time>
      </trkpt>
      <trkpt lat="43.4061" lon="6.70131">
        <ele>59.599998474121</ele>
        <time>2018-10-14T08:57:13Z</time>
      </trkpt>
      <trkpt lat="43.40596" lon="6.70123">
        <ele>59.799999237061</ele>
        <time>2018-10-14T08:57:16Z</time>
      </trkpt>
      <trkpt lat="43.40585" lon="6.70119">
        <ele>59.799999237061</ele>
        <time>2018-10-14T08:57:18Z</time>
      </trkpt>
      <trkpt lat="43.40572" lon="6.70117">
        <ele>60</ele>
        <time>2018-10-14T08:57:20Z</time>
      </trkpt>
      <trkpt lat="43.40566" lon="6.70116">
        <ele>60</ele>
        <time>2018-10-14T08:57:21Z</time>
      </trkpt>
      <trkpt lat="43.40554" lon="6.70113">
        <ele>60.200000762939</ele>
        <time>2018-10-14T08:57:23Z</time>
      </trkpt>
      <trkpt lat="43.40547" lon="6.70112">
        <ele>60.200000762939</ele>
        <time>2018-10-14T08:57:24Z</time>
      </trkpt>
      <trkpt lat="43.4052" lon="6.70106">
        <ele>60.599998474121</ele>
        <time>2018-10-14T08:57:29Z</time>
      </trkpt>
      <trkpt lat="43.40497" lon="6.70104">
        <ele>61.200000762939</ele>
        <time>2018-10-14T08:57:34Z</time>
      </trkpt>
      <trkpt lat="43.40481" lon="6.70106">
        <ele>62</ele>
        <time>2018-10-14T08:57:39Z</time>
      </trkpt>
      <trkpt lat="43.40469" lon="6.70108">
        <ele>62.799999237061</ele>
        <time>2018-10-14T08:57:45Z</time>
      </trkpt>
      <trkpt lat="43.40458" lon="6.70107">
        <ele>63.799999237061</ele>
        <time>2018-10-14T08:57:51Z</time>
      </trkpt>
      <trkpt lat="43.40444" lon="6.70105">
        <ele>65.199996948242</ele>
        <time>2018-10-14T08:57:59Z</time>
      </trkpt>
      <trkpt lat="43.40437" lon="6.70098">
        <ele>66.199996948242</ele>
        <time>2018-10-14T08:58:04Z</time>
      </trkpt>
      <trkpt lat="43.40427" lon="6.70091">
        <ele>67.199996948242</ele>
        <time>2018-10-14T08:58:10Z</time>
      </trkpt>
      <trkpt lat="43.40412" lon="6.70082">
        <ele>68.400001525879</ele>
        <time>2018-10-14T08:58:17Z</time>
      </trkpt>
      <trkpt lat="43.40397" lon="6.70075">
        <ele>69.400001525879</ele>
        <time>2018-10-14T08:58:23Z</time>
      </trkpt>
      <trkpt lat="43.40383" lon="6.7007">
        <ele>70.199996948242</ele>
        <time>2018-10-14T08:58:29Z</time>
      </trkpt>
      <trkpt lat="43.40371" lon="6.70064">
        <ele>70.800003051758</ele>
        <time>2018-10-14T08:58:34Z</time>
      </trkpt>
      <trkpt lat="43.40356" lon="6.70056">
        <ele>71.599998474121</ele>
        <time>2018-10-14T08:58:39Z</time>
      </trkpt>
      <trkpt lat="43.40326" lon="6.70035">
        <ele>73.199996948242</ele>
        <time>2018-10-14T08:58:49Z</time>
      </trkpt>
      <trkpt lat="43.40309" lon="6.70023">
        <ele>73.599998474121</ele>
        <time>2018-10-14T08:58:54Z</time>
      </trkpt>
      <trkpt lat="43.40305" lon="6.7002">
        <ele>73.599998474121</ele>
        <time>2018-10-14T08:58:55Z</time>
      </trkpt>
      <trkpt lat="43.4029" lon="6.70003">
        <ele>74</ele>
        <time>2018-10-14T08:58:59Z</time>
      </trkpt>
      <trkpt lat="43.4027" lon="6.69977">
        <ele>74.199996948242</ele>
        <time>2018-10-14T08:59:04Z</time>
      </trkpt>
      <trkpt lat="43.40243" lon="6.69951">
        <ele>74.199996948242</ele>
        <time>2018-10-14T08:59:09Z</time>
      </trkpt>
      <trkpt lat="43.40228" lon="6.69946">
        <ele>74</ele>
        <time>2018-10-14T08:59:11Z</time>
      </trkpt>
      <trkpt lat="43.4022" lon="6.69947">
        <ele>73.800003051758</ele>
        <time>2018-10-14T08:59:12Z</time>
      </trkpt>
      <trkpt lat="43.40212" lon="6.69951">
        <ele>73.599998474121</ele>
        <time>2018-10-14T08:59:13Z</time>
      </trkpt>
      <trkpt lat="43.40194" lon="6.69966">
        <ele>73</ele>
        <time>2018-10-14T08:59:15Z</time>
      </trkpt>
      <trkpt lat="43.40147" lon="6.70019">
        <ele>71.199996948242</ele>
        <time>2018-10-14T08:59:20Z</time>
      </trkpt>
      <trkpt lat="43.40116" lon="6.70057">
        <ele>71</ele>
        <time>2018-10-14T08:59:24Z</time>
      </trkpt>
      <trkpt lat="43.40103" lon="6.7008">
        <ele>71.199996948242</ele>
        <time>2018-10-14T08:59:27Z</time>
      </trkpt>
      <trkpt lat="43.401" lon="6.70086">
        <ele>71.400001525879</ele>
        <time>2018-10-14T08:59:28Z</time>
      </trkpt>
      <trkpt lat="43.40095" lon="6.70096">
        <ele>71.599998474121</ele>
        <time>2018-10-14T08:59:30Z</time>
      </trkpt>
      <trkpt lat="43.40088" lon="6.70109">
        <ele>72.199996948242</ele>
        <time>2018-10-14T08:59:35Z</time>
      </trkpt>
      <trkpt lat="43.40079" lon="6.70123">
        <ele>72.800003051758</ele>
        <time>2018-10-14T08:59:42Z</time>
      </trkpt>
      <trkpt lat="43.40067" lon="6.70131">
        <ele>73.199996948242</ele>
        <time>2018-10-14T08:59:51Z</time>
      </trkpt>
      <trkpt lat="43.40056" lon="6.70127">
        <ele>73.400001525879</ele>
        <time>2018-10-14T08:59:57Z</time>
      </trkpt>
      <trkpt lat="43.40051" lon="6.70124">
        <ele>74</ele>
        <time>2018-10-14T09:00:01Z</time>
      </trkpt>
      <trkpt lat="43.40039" lon="6.70117">
        <ele>75.400001525879</ele>
        <time>2018-10-14T09:00:10Z</time>
      </trkpt>
      <trkpt lat="43.40029" lon="6.70111">
        <ele>76.400001525879</ele>
        <time>2018-10-14T09:00:18Z</time>
      </trkpt>
      <trkpt lat="43.40017" lon="6.70105">
        <ele>78</ele>
        <time>2018-10-14T09:00:27Z</time>
      </trkpt>
      <trkpt lat="43.40006" lon="6.70105">
        <ele>79.199996948242</ele>
        <time>2018-10-14T09:00:36Z</time>
      </trkpt>
      <trkpt lat="43.39993" lon="6.70109">
        <ele>80.400001525879</ele>
        <time>2018-10-14T09:00:46Z</time>
      </trkpt>
      <trkpt lat="43.39984" lon="6.70113">
        <ele>81.400001525879</ele>
        <time>2018-10-14T09:00:53Z</time>
      </trkpt>
      <trkpt lat="43.39971" lon="6.70116">
        <ele>82</ele>
        <time>2018-10-14T09:01:00Z</time>
      </trkpt>
      <trkpt lat="43.39961" lon="6.70121">
        <ele>83</ele>
        <time>2018-10-14T09:01:07Z</time>
      </trkpt>
      <trkpt lat="43.39953" lon="6.70125">
        <ele>84.199996948242</ele>
        <time>2018-10-14T09:01:14Z</time>
      </trkpt>
      <trkpt lat="43.39946" lon="6.70128">
        <ele>85.199996948242</ele>
        <time>2018-10-14T09:01:20Z</time>
      </trkpt>
      <trkpt lat="43.39937" lon="6.70132">
        <ele>86.599998474121</ele>
        <time>2018-10-14T09:01:27Z</time>
      </trkpt>
      <trkpt lat="43.39928" lon="6.70134">
        <ele>87.800003051758</ele>
        <time>2018-10-14T09:01:34Z</time>
      </trkpt>
      <trkpt lat="43.39927" lon="6.70134">
        <ele>88</ele>
        <time>2018-10-14T09:01:35Z</time>
      </trkpt>
      <trkpt lat="43.39915" lon="6.70136">
        <ele>89.199996948242</ele>
        <time>2018-10-14T09:01:43Z</time>
      </trkpt>
      <trkpt lat="43.39904" lon="6.70141">
        <ele>90.599998474121</ele>
        <time>2018-10-14T09:01:51Z</time>
      </trkpt>
      <trkpt lat="43.39893" lon="6.70147">
        <ele>92</ele>
        <time>2018-10-14T09:01:59Z</time>
      </trkpt>
      <trkpt lat="43.3988" lon="6.70158">
        <ele>93</ele>
        <time>2018-10-14T09:02:06Z</time>
      </trkpt>
      <trkpt lat="43.39863" lon="6.70178">
        <ele>94</ele>
        <time>2018-10-14T09:02:14Z</time>
      </trkpt>
      <trkpt lat="43.39848" lon="6.70188">
        <ele>94.599998474121</ele>
        <time>2018-10-14T09:02:19Z</time>
      </trkpt>
      <trkpt lat="43.39839" lon="6.7019">
        <ele>94.800003051758</ele>
        <time>2018-10-14T09:02:21Z</time>
      </trkpt>
      <trkpt lat="43.39831" lon="6.7019">
        <ele>95</ele>
        <time>2018-10-14T09:02:23Z</time>
      </trkpt>
      <trkpt lat="43.39827" lon="6.70188">
        <ele>95.199996948242</ele>
        <time>2018-10-14T09:02:24Z</time>
      </trkpt>
      <trkpt lat="43.39801" lon="6.70185">
        <ele>95.800003051758</ele>
        <time>2018-10-14T09:02:30Z</time>
      </trkpt>
      <trkpt lat="43.39768" lon="6.70181">
        <ele>96.400001525879</ele>
        <time>2018-10-14T09:02:37Z</time>
      </trkpt>
      <trkpt lat="43.39743" lon="6.70178">
        <ele>96.800003051758</ele>
        <time>2018-10-14T09:02:42Z</time>
      </trkpt>
      <trkpt lat="43.39739" lon="6.70176">
        <ele>96.800003051758</ele>
        <time>2018-10-14T09:02:43Z</time>
      </trkpt>
      <trkpt lat="43.39704" lon="6.70164">
        <ele>97.199996948242</ele>
        <time>2018-10-14T09:02:49Z</time>
      </trkpt>
      <trkpt lat="43.39692" lon="6.70159">
        <ele>97.199996948242</ele>
        <time>2018-10-14T09:02:51Z</time>
      </trkpt>
      <trkpt lat="43.39682" lon="6.7015">
        <ele>97.400001525879</ele>
        <time>2018-10-14T09:02:53Z</time>
      </trkpt>
      <trkpt lat="43.39662" lon="6.7013">
        <ele>97.800003051758</ele>
        <time>2018-10-14T09:02:58Z</time>
      </trkpt>
      <trkpt lat="43.39653" lon="6.70121">
        <ele>98.199996948242</ele>
        <time>2018-10-14T09:03:02Z</time>
      </trkpt>
      <trkpt lat="43.39645" lon="6.70109">
        <ele>99</ele>
        <time>2018-10-14T09:03:07Z</time>
      </trkpt>
      <trkpt lat="43.39638" lon="6.70095">
        <ele>99.599998474121</ele>
        <time>2018-10-14T09:03:12Z</time>
      </trkpt>
      <trkpt lat="43.39631" lon="6.70081">
        <ele>100.59999847412</ele>
        <time>2018-10-14T09:03:18Z</time>
      </trkpt>
      <trkpt lat="43.39621" lon="6.7007">
        <ele>101.40000152588</ele>
        <time>2018-10-14T09:03:24Z</time>
      </trkpt>
      <trkpt lat="43.39608" lon="6.70064">
        <ele>101.80000305176</ele>
        <time>2018-10-14T09:03:29Z</time>
      </trkpt>
      <trkpt lat="43.39589" lon="6.70068">
        <ele>102.59999847412</ele>
        <time>2018-10-14T09:03:35Z</time>
      </trkpt>
      <trkpt lat="43.39569" lon="6.70079">
        <ele>103</ele>
        <time>2018-10-14T09:03:40Z</time>
      </trkpt>
      <trkpt lat="43.39565" lon="6.70081">
        <ele>103</ele>
        <time>2018-10-14T09:03:41Z</time>
      </trkpt>
      <trkpt lat="43.39538" lon="6.70097">
        <ele>103.40000152588</ele>
        <time>2018-10-14T09:03:46Z</time>
      </trkpt>
      <trkpt lat="43.39524" lon="6.70106">
        <ele>103.40000152588</ele>
        <time>2018-10-14T09:03:48Z</time>
      </trkpt>
      <trkpt lat="43.39503" lon="6.7011">
        <ele>103.59999847412</ele>
        <time>2018-10-14T09:03:51Z</time>
      </trkpt>
      <trkpt lat="43.39463" lon="6.70109">
        <ele>104</ele>
        <time>2018-10-14T09:03:57Z</time>
      </trkpt>
      <trkpt lat="43.39425" lon="6.701">
        <ele>104</ele>
        <time>2018-10-14T09:04:02Z</time>
      </trkpt>
      <trkpt lat="43.39388" lon="6.70087">
        <ele>104</ele>
        <time>2018-10-14T09:04:07Z</time>
      </trkpt>
      <trkpt lat="43.39368" lon="6.70075">
        <ele>104</ele>
        <time>2018-10-14T09:04:10Z</time>
      </trkpt>
      <trkpt lat="43.39356" lon="6.70064">
        <ele>104</ele>
        <time>2018-10-14T09:04:12Z</time>
      </trkpt>
      <trkpt lat="43.39327" lon="6.70027">
        <ele>103.59999847412</ele>
        <time>2018-10-14T09:04:17Z</time>
      </trkpt>
      <trkpt lat="43.39291" lon="6.69983">
        <ele>104</ele>
        <time>2018-10-14T09:04:24Z</time>
      </trkpt>
      <trkpt lat="43.39287" lon="6.69979">
        <ele>104</ele>
        <time>2018-10-14T09:04:25Z</time>
      </trkpt>
      <trkpt lat="43.39275" lon="6.69965">
        <ele>104.19999694824</ele>
        <time>2018-10-14T09:04:28Z</time>
      </trkpt>
      <trkpt lat="43.39272" lon="6.6996">
        <ele>104.40000152588</ele>
        <time>2018-10-14T09:04:29Z</time>
      </trkpt>
      <trkpt lat="43.39256" lon="6.69942">
        <ele>104.59999847412</ele>
        <time>2018-10-14T09:04:34Z</time>
      </trkpt>
      <trkpt lat="43.39231" lon="6.69933">
        <ele>104.59999847412</ele>
        <time>2018-10-14T09:04:39Z</time>
      </trkpt>
      <trkpt lat="43.39225" lon="6.6993">
        <ele>104.59999847412</ele>
        <time>2018-10-14T09:04:40Z</time>
      </trkpt>
      <trkpt lat="43.39213" lon="6.69919">
        <ele>104.40000152588</ele>
        <time>2018-10-14T09:04:42Z</time>
      </trkpt>
      <trkpt lat="43.39198" lon="6.69893">
        <ele>104.19999694824</ele>
        <time>2018-10-14T09:04:45Z</time>
      </trkpt>
      <trkpt lat="43.39192" lon="6.69886">
        <ele>104.19999694824</ele>
        <time>2018-10-14T09:04:46Z</time>
      </trkpt>
      <trkpt lat="43.39178" lon="6.69871">
        <ele>104.19999694824</ele>
        <time>2018-10-14T09:04:49Z</time>
      </trkpt>
      <trkpt lat="43.39168" lon="6.69865">
        <ele>104.59999847412</ele>
        <time>2018-10-14T09:04:54Z</time>
      </trkpt>
      <trkpt lat="43.39157" lon="6.69859">
        <ele>105.19999694824</ele>
        <time>2018-10-14T09:05:00Z</time>
      </trkpt>
      <trkpt lat="43.39145" lon="6.6985">
        <ele>106</ele>
        <time>2018-10-14T09:05:09Z</time>
      </trkpt>
      <trkpt lat="43.39136" lon="6.69839">
        <ele>106.59999847412</ele>
        <time>2018-10-14T09:05:16Z</time>
      </trkpt>
      <trkpt lat="43.39133" lon="6.69825">
        <ele>107.19999694824</ele>
        <time>2018-10-14T09:05:23Z</time>
      </trkpt>
      <trkpt lat="43.3913" lon="6.69807">
        <ele>108</ele>
        <time>2018-10-14T09:05:29Z</time>
      </trkpt>
      <trkpt lat="43.39129" lon="6.69793">
        <ele>108.59999847412</ele>
        <time>2018-10-14T09:05:34Z</time>
      </trkpt>
      <trkpt lat="43.39129" lon="6.69778">
        <ele>109.59999847412</ele>
        <time>2018-10-14T09:05:41Z</time>
      </trkpt>
      <trkpt lat="43.3913" lon="6.69762">
        <ele>110.59999847412</ele>
        <time>2018-10-14T09:05:49Z</time>
      </trkpt>
      <trkpt lat="43.39129" lon="6.69741">
        <ele>112.19999694824</ele>
        <time>2018-10-14T09:05:59Z</time>
      </trkpt>
      <trkpt lat="43.39129" lon="6.69725">
        <ele>113.40000152588</ele>
        <time>2018-10-14T09:06:07Z</time>
      </trkpt>
      <trkpt lat="43.39129" lon="6.69722">
        <ele>113.59999847412</ele>
        <time>2018-10-14T09:06:09Z</time>
      </trkpt>
      <trkpt lat="43.39126" lon="6.69712">
        <ele>114.40000152588</ele>
        <time>2018-10-14T09:06:14Z</time>
      </trkpt>
      <trkpt lat="43.39124" lon="6.697">
        <ele>115.59999847412</ele>
        <time>2018-10-14T09:06:20Z</time>
      </trkpt>
      <trkpt lat="43.39121" lon="6.69686">
        <ele>117</ele>
        <time>2018-10-14T09:06:28Z</time>
      </trkpt>
      <trkpt lat="43.39116" lon="6.69674">
        <ele>118.19999694824</ele>
        <time>2018-10-14T09:06:35Z</time>
      </trkpt>
      <trkpt lat="43.39114" lon="6.69665">
        <ele>119.40000152588</ele>
        <time>2018-10-14T09:06:41Z</time>
      </trkpt>
      <trkpt lat="43.39112" lon="6.6965">
        <ele>120.59999847412</ele>
        <time>2018-10-14T09:06:49Z</time>
      </trkpt>
      <trkpt lat="43.3911" lon="6.69639">
        <ele>121.19999694824</ele>
        <time>2018-10-14T09:06:53Z</time>
      </trkpt>
      <trkpt lat="43.39107" lon="6.69623">
        <ele>123</ele>
        <time>2018-10-14T09:07:02Z</time>
      </trkpt>
      <trkpt lat="43.39104" lon="6.69611">
        <ele>124.40000152588</ele>
        <time>2018-10-14T09:07:09Z</time>
      </trkpt>
      <trkpt lat="43.39101" lon="6.696">
        <ele>125.59999847412</ele>
        <time>2018-10-14T09:07:16Z</time>
      </trkpt>
      <trkpt lat="43.39098" lon="6.6959">
        <ele>126.80000305176</ele>
        <time>2018-10-14T09:07:22Z</time>
      </trkpt>
      <trkpt lat="43.39094" lon="6.69578">
        <ele>128</ele>
        <time>2018-10-14T09:07:29Z</time>
      </trkpt>
      <trkpt lat="43.39088" lon="6.69561">
        <ele>130</ele>
        <time>2018-10-14T09:07:39Z</time>
      </trkpt>
      <trkpt lat="43.39083" lon="6.6955">
        <ele>131</ele>
        <time>2018-10-14T09:07:44Z</time>
      </trkpt>
      <trkpt lat="43.39076" lon="6.69541">
        <ele>132.80000305176</ele>
        <time>2018-10-14T09:07:52Z</time>
      </trkpt>
      <trkpt lat="43.39069" lon="6.69532">
        <ele>134.39999389648</ele>
        <time>2018-10-14T09:07:59Z</time>
      </trkpt>
      <trkpt lat="43.39068" lon="6.69532">
        <ele>134.60000610352</ele>
        <time>2018-10-14T09:08:00Z</time>
      </trkpt>
      <trkpt lat="43.3906" lon="6.69529">
        <ele>136</ele>
        <time>2018-10-14T09:08:06Z</time>
      </trkpt>
      <trkpt lat="43.39051" lon="6.69523">
        <ele>137.19999694824</ele>
        <time>2018-10-14T09:08:13Z</time>
      </trkpt>
      <trkpt lat="43.39044" lon="6.69519">
        <ele>138.39999389648</ele>
        <time>2018-10-14T09:08:19Z</time>
      </trkpt>
      <trkpt lat="43.39037" lon="6.69515">
        <ele>139.60000610352</ele>
        <time>2018-10-14T09:08:25Z</time>
      </trkpt>
      <trkpt lat="43.39028" lon="6.69506">
        <ele>141</ele>
        <time>2018-10-14T09:08:33Z</time>
      </trkpt>
      <trkpt lat="43.39019" lon="6.69497">
        <ele>142.60000610352</ele>
        <time>2018-10-14T09:08:41Z</time>
      </trkpt>
      <trkpt lat="43.3901" lon="6.6949">
        <ele>143.60000610352</ele>
        <time>2018-10-14T09:08:47Z</time>
      </trkpt>
      <trkpt lat="43.39" lon="6.69482">
        <ele>145</ele>
        <time>2018-10-14T09:08:55Z</time>
      </trkpt>
      <trkpt lat="43.3899" lon="6.69475">
        <ele>146.60000610352</ele>
        <time>2018-10-14T09:09:02Z</time>
      </trkpt>
      <trkpt lat="43.38981" lon="6.69465">
        <ele>148</ele>
        <time>2018-10-14T09:09:10Z</time>
      </trkpt>
      <trkpt lat="43.38974" lon="6.69457">
        <ele>149.39999389648</ele>
        <time>2018-10-14T09:09:17Z</time>
      </trkpt>
      <trkpt lat="43.38966" lon="6.69443">
        <ele>151.60000610352</ele>
        <time>2018-10-14T09:09:27Z</time>
      </trkpt>
      <trkpt lat="43.38962" lon="6.69432">
        <ele>153</ele>
        <time>2018-10-14T09:09:34Z</time>
      </trkpt>
      <trkpt lat="43.38959" lon="6.69421">
        <ele>154.39999389648</ele>
        <time>2018-10-14T09:09:41Z</time>
      </trkpt>
      <trkpt lat="43.38957" lon="6.69414">
        <ele>155.19999694824</ele>
        <time>2018-10-14T09:09:45Z</time>
      </trkpt>
      <trkpt lat="43.38955" lon="6.69408">
        <ele>155.80000305176</ele>
        <time>2018-10-14T09:09:48Z</time>
      </trkpt>
      <trkpt lat="43.38951" lon="6.69396">
        <ele>157</ele>
        <time>2018-10-14T09:09:54Z</time>
      </trkpt>
      <trkpt lat="43.38947" lon="6.69383">
        <ele>158.39999389648</ele>
        <time>2018-10-14T09:10:01Z</time>
      </trkpt>
      <trkpt lat="43.38943" lon="6.69372">
        <ele>159.80000305176</ele>
        <time>2018-10-14T09:10:08Z</time>
      </trkpt>
      <trkpt lat="43.38938" lon="6.6936">
        <ele>161.19999694824</ele>
        <time>2018-10-14T09:10:15Z</time>
      </trkpt>
      <trkpt lat="43.38934" lon="6.69352">
        <ele>162.60000610352</ele>
        <time>2018-10-14T09:10:21Z</time>
      </trkpt>
      <trkpt lat="43.38927" lon="6.69337">
        <ele>164.60000610352</ele>
        <time>2018-10-14T09:10:30Z</time>
      </trkpt>
      <trkpt lat="43.38922" lon="6.69328">
        <ele>165.80000305176</ele>
        <time>2018-10-14T09:10:36Z</time>
      </trkpt>
      <trkpt lat="43.38915" lon="6.69317">
        <ele>167.80000305176</ele>
        <time>2018-10-14T09:10:44Z</time>
      </trkpt>
      <trkpt lat="43.38914" lon="6.69316">
        <ele>168.19999694824</ele>
        <time>2018-10-14T09:10:45Z</time>
      </trkpt>
      <trkpt lat="43.38907" lon="6.6931">
        <ele>169.19999694824</ele>
        <time>2018-10-14T09:10:50Z</time>
      </trkpt>
      <trkpt lat="43.38897" lon="6.69306">
        <ele>170.80000305176</ele>
        <time>2018-10-14T09:10:58Z</time>
      </trkpt>
      <trkpt lat="43.38884" lon="6.69301">
        <ele>173</ele>
        <time>2018-10-14T09:11:08Z</time>
      </trkpt>
      <trkpt lat="43.38875" lon="6.69296">
        <ele>174.60000610352</ele>
        <time>2018-10-14T09:11:16Z</time>
      </trkpt>
      <trkpt lat="43.38865" lon="6.6929">
        <ele>176.19999694824</ele>
        <time>2018-10-14T09:11:24Z</time>
      </trkpt>
      <trkpt lat="43.38855" lon="6.69284">
        <ele>178.19999694824</ele>
        <time>2018-10-14T09:11:33Z</time>
      </trkpt>
      <trkpt lat="43.38849" lon="6.69281">
        <ele>179.39999389648</ele>
        <time>2018-10-14T09:11:38Z</time>
      </trkpt>
      <trkpt lat="43.38848" lon="6.6928">
        <ele>179.60000610352</ele>
        <time>2018-10-14T09:11:39Z</time>
      </trkpt>
      <trkpt lat="43.38841" lon="6.69275">
        <ele>181</ele>
        <time>2018-10-14T09:11:45Z</time>
      </trkpt>
      <trkpt lat="43.38833" lon="6.69269">
        <ele>182.80000305176</ele>
        <time>2018-10-14T09:11:52Z</time>
      </trkpt>
      <trkpt lat="43.38828" lon="6.69265">
        <ele>183.39999389648</ele>
        <time>2018-10-14T09:11:56Z</time>
      </trkpt>
      <trkpt lat="43.38822" lon="6.69259">
        <ele>184.39999389648</ele>
        <time>2018-10-14T09:12:01Z</time>
      </trkpt>
      <trkpt lat="43.38814" lon="6.69248">
        <ele>186.19999694824</ele>
        <time>2018-10-14T09:12:09Z</time>
      </trkpt>
      <trkpt lat="43.38805" lon="6.69234">
        <ele>188.39999389648</ele>
        <time>2018-10-14T09:12:19Z</time>
      </trkpt>
      <trkpt lat="43.38799" lon="6.69226">
        <ele>189.60000610352</ele>
        <time>2018-10-14T09:12:25Z</time>
      </trkpt>
      <trkpt lat="43.38792" lon="6.69217">
        <ele>191.19999694824</ele>
        <time>2018-10-14T09:12:32Z</time>
      </trkpt>
      <trkpt lat="43.38786" lon="6.6921">
        <ele>192.60000610352</ele>
        <time>2018-10-14T09:12:38Z</time>
      </trkpt>
      <trkpt lat="43.38777" lon="6.69202">
        <ele>193.60000610352</ele>
        <time>2018-10-14T09:12:43Z</time>
      </trkpt>
      <trkpt lat="43.38768" lon="6.69191">
        <ele>194.60000610352</ele>
        <time>2018-10-14T09:12:48Z</time>
      </trkpt>
      <trkpt lat="43.38757" lon="6.6918">
        <ele>195.60000610352</ele>
        <time>2018-10-14T09:12:53Z</time>
      </trkpt>
      <trkpt lat="43.38746" lon="6.69168">
        <ele>197</ele>
        <time>2018-10-14T09:13:00Z</time>
      </trkpt>
      <trkpt lat="43.38736" lon="6.69159">
        <ele>198.19999694824</ele>
        <time>2018-10-14T09:13:06Z</time>
      </trkpt>
      <trkpt lat="43.38728" lon="6.69152">
        <ele>199</ele>
        <time>2018-10-14T09:13:11Z</time>
      </trkpt>
      <trkpt lat="43.38715" lon="6.69142">
        <ele>200</ele>
        <time>2018-10-14T09:13:19Z</time>
      </trkpt>
      <trkpt lat="43.38714" lon="6.6914">
        <ele>200.19999694824</ele>
        <time>2018-10-14T09:13:20Z</time>
      </trkpt>
      <trkpt lat="43.38715" lon="6.69133">
        <ele>200.80000305176</ele>
        <time>2018-10-14T09:13:23Z</time>
      </trkpt>
      <trkpt lat="43.38716" lon="6.69132">
        <ele>201.19999694824</ele>
        <time>2018-10-14T09:13:25Z</time>
      </trkpt>
      <trkpt lat="43.38742" lon="6.69106">
        <ele>208</ele>
        <time>2018-10-14T09:14:04Z</time>
      </trkpt>
      <trkpt lat="43.38743" lon="6.69106">
        <ele>208.19999694824</ele>
        <time>2018-10-14T09:14:05Z</time>
      </trkpt>
      <trkpt lat="43.38748" lon="6.69106">
        <ele>208.80000305176</ele>
        <time>2018-10-14T09:14:08Z</time>
      </trkpt>
      <trkpt lat="43.38753" lon="6.69109">
        <ele>209.19999694824</ele>
        <time>2018-10-14T09:14:11Z</time>
      </trkpt>
      <trkpt lat="43.38767" lon="6.6912">
        <ele>210.60000610352</ele>
        <time>2018-10-14T09:14:19Z</time>
      </trkpt>
      <trkpt lat="43.3878" lon="6.69124">
        <ele>211.19999694824</ele>
        <time>2018-10-14T09:14:25Z</time>
      </trkpt>
      <trkpt lat="43.38795" lon="6.69131">
        <ele>211.80000305176</ele>
        <time>2018-10-14T09:14:31Z</time>
      </trkpt>
      <trkpt lat="43.38807" lon="6.69142">
        <ele>212.19999694824</ele>
        <time>2018-10-14T09:14:35Z</time>
      </trkpt>
      <trkpt lat="43.38811" lon="6.69144">
        <ele>212.19999694824</ele>
        <time>2018-10-14T09:14:36Z</time>
      </trkpt>
      <trkpt lat="43.38815" lon="6.69144">
        <ele>212.19999694824</ele>
        <time>2018-10-14T09:14:37Z</time>
      </trkpt>
      <trkpt lat="43.38822" lon="6.69139">
        <ele>212.60000610352</ele>
        <time>2018-10-14T09:14:39Z</time>
      </trkpt>
      <trkpt lat="43.38829" lon="6.69133">
        <ele>212.80000305176</ele>
        <time>2018-10-14T09:14:41Z</time>
      </trkpt>
      <trkpt lat="43.38839" lon="6.69126">
        <ele>212.80000305176</ele>
        <time>2018-10-14T09:14:43Z</time>
      </trkpt>
      <trkpt lat="43.3885" lon="6.69117">
        <ele>213</ele>
        <time>2018-10-14T09:14:45Z</time>
      </trkpt>
      <trkpt lat="43.38865" lon="6.69104">
        <ele>213</ele>
        <time>2018-10-14T09:14:47Z</time>
      </trkpt>
      <trkpt lat="43.38871" lon="6.69099">
        <ele>213</ele>
        <time>2018-10-14T09:14:48Z</time>
      </trkpt>
      <trkpt lat="43.38885" lon="6.69091">
        <ele>213</ele>
        <time>2018-10-14T09:14:50Z</time>
      </trkpt>
      <trkpt lat="43.38911" lon="6.69069">
        <ele>212.39999389648</ele>
        <time>2018-10-14T09:14:54Z</time>
      </trkpt>
      <trkpt lat="43.38924" lon="6.69059">
        <ele>212</ele>
        <time>2018-10-14T09:14:56Z</time>
      </trkpt>
      <trkpt lat="43.3894" lon="6.69052">
        <ele>211.39999389648</ele>
        <time>2018-10-14T09:14:58Z</time>
      </trkpt>
      <trkpt lat="43.38971" lon="6.69044">
        <ele>210.39999389648</ele>
        <time>2018-10-14T09:15:02Z</time>
      </trkpt>
      <trkpt lat="43.38984" lon="6.69042">
        <ele>209.80000305176</ele>
        <time>2018-10-14T09:15:04Z</time>
      </trkpt>
      <trkpt lat="43.39005" lon="6.69036">
        <ele>209</ele>
        <time>2018-10-14T09:15:07Z</time>
      </trkpt>
      <trkpt lat="43.3902" lon="6.69032">
        <ele>208.39999389648</ele>
        <time>2018-10-14T09:15:09Z</time>
      </trkpt>
      <trkpt lat="43.39035" lon="6.69025">
        <ele>207.60000610352</ele>
        <time>2018-10-14T09:15:11Z</time>
      </trkpt>
      <trkpt lat="43.39051" lon="6.69016">
        <ele>206.39999389648</ele>
        <time>2018-10-14T09:15:14Z</time>
      </trkpt>
      <trkpt lat="43.39072" lon="6.68999">
        <ele>204.60000610352</ele>
        <time>2018-10-14T09:15:18Z</time>
      </trkpt>
      <trkpt lat="43.39081" lon="6.68997">
        <ele>203.60000610352</ele>
        <time>2018-10-14T09:15:20Z</time>
      </trkpt>
      <trkpt lat="43.39089" lon="6.68993">
        <ele>202.60000610352</ele>
        <time>2018-10-14T09:15:22Z</time>
      </trkpt>
      <trkpt lat="43.39097" lon="6.68987">
        <ele>201.60000610352</ele>
        <time>2018-10-14T09:15:24Z</time>
      </trkpt>
      <trkpt lat="43.39103" lon="6.68978">
        <ele>200.60000610352</ele>
        <time>2018-10-14T09:15:26Z</time>
      </trkpt>
      <trkpt lat="43.3911" lon="6.68956">
        <ele>198.80000305176</ele>
        <time>2018-10-14T09:15:29Z</time>
      </trkpt>
      <trkpt lat="43.39119" lon="6.68947">
        <ele>197.60000610352</ele>
        <time>2018-10-14T09:15:31Z</time>
      </trkpt>
      <trkpt lat="43.39123" lon="6.68945">
        <ele>197</ele>
        <time>2018-10-14T09:15:32Z</time>
      </trkpt>
      <trkpt lat="43.39128" lon="6.68945">
        <ele>196.39999389648</ele>
        <time>2018-10-14T09:15:33Z</time>
      </trkpt>
      <trkpt lat="43.39138" lon="6.6895">
        <ele>195.19999694824</ele>
        <time>2018-10-14T09:15:35Z</time>
      </trkpt>
      <trkpt lat="43.39152" lon="6.68951">
        <ele>193.39999389648</ele>
        <time>2018-10-14T09:15:38Z</time>
      </trkpt>
      <trkpt lat="43.39156" lon="6.68948">
        <ele>192.80000305176</ele>
        <time>2018-10-14T09:15:39Z</time>
      </trkpt>
      <trkpt lat="43.39164" lon="6.68939">
        <ele>191.80000305176</ele>
        <time>2018-10-14T09:15:41Z</time>
      </trkpt>
      <trkpt lat="43.39174" lon="6.6893">
        <ele>190.80000305176</ele>
        <time>2018-10-14T09:15:43Z</time>
      </trkpt>
      <trkpt lat="43.39186" lon="6.68922">
        <ele>189.60000610352</ele>
        <time>2018-10-14T09:15:45Z</time>
      </trkpt>
      <trkpt lat="43.39194" lon="6.6892">
        <ele>189</ele>
        <time>2018-10-14T09:15:46Z</time>
      </trkpt>
      <trkpt lat="43.39201" lon="6.6892">
        <ele>188.19999694824</ele>
        <time>2018-10-14T09:15:47Z</time>
      </trkpt>
      <trkpt lat="43.39218" lon="6.6892">
        <ele>187</ele>
        <time>2018-10-14T09:15:49Z</time>
      </trkpt>
      <trkpt lat="43.39251" lon="6.68918">
        <ele>184.60000610352</ele>
        <time>2018-10-14T09:15:53Z</time>
      </trkpt>
      <trkpt lat="43.39257" lon="6.68919">
        <ele>184.19999694824</ele>
        <time>2018-10-14T09:15:54Z</time>
      </trkpt>
      <trkpt lat="43.39262" lon="6.68921">
        <ele>183.60000610352</ele>
        <time>2018-10-14T09:15:55Z</time>
      </trkpt>
      <trkpt lat="43.39278" lon="6.68924">
        <ele>182</ele>
        <time>2018-10-14T09:15:58Z</time>
      </trkpt>
      <trkpt lat="43.39297" lon="6.68913">
        <ele>179.60000610352</ele>
        <time>2018-10-14T09:16:02Z</time>
      </trkpt>
      <trkpt lat="43.39303" lon="6.68909">
        <ele>179</ele>
        <time>2018-10-14T09:16:03Z</time>
      </trkpt>
      <trkpt lat="43.39323" lon="6.68896">
        <ele>177</ele>
        <time>2018-10-14T09:16:06Z</time>
      </trkpt>
      <trkpt lat="43.39335" lon="6.68887">
        <ele>175.60000610352</ele>
        <time>2018-10-14T09:16:08Z</time>
      </trkpt>
      <trkpt lat="43.39345" lon="6.68885">
        <ele>174.39999389648</ele>
        <time>2018-10-14T09:16:10Z</time>
      </trkpt>
      <trkpt lat="43.39357" lon="6.68892">
        <ele>173</ele>
        <time>2018-10-14T09:16:12Z</time>
      </trkpt>
      <trkpt lat="43.39364" lon="6.68894">
        <ele>172.39999389648</ele>
        <time>2018-10-14T09:16:13Z</time>
      </trkpt>
      <trkpt lat="43.39377" lon="6.68899">
        <ele>171</ele>
        <time>2018-10-14T09:16:15Z</time>
      </trkpt>
      <trkpt lat="43.39387" lon="6.68905">
        <ele>169.39999389648</ele>
        <time>2018-10-14T09:16:17Z</time>
      </trkpt>
      <trkpt lat="43.39392" lon="6.68907">
        <ele>168.80000305176</ele>
        <time>2018-10-14T09:16:18Z</time>
      </trkpt>
      <trkpt lat="43.39409" lon="6.68913">
        <ele>166.60000610352</ele>
        <time>2018-10-14T09:16:21Z</time>
      </trkpt>
      <trkpt lat="43.39435" lon="6.68929">
        <ele>163.39999389648</ele>
        <time>2018-10-14T09:16:26Z</time>
      </trkpt>
      <trkpt lat="43.39447" lon="6.68929">
        <ele>162</ele>
        <time>2018-10-14T09:16:28Z</time>
      </trkpt>
      <trkpt lat="43.39453" lon="6.68926">
        <ele>161.39999389648</ele>
        <time>2018-10-14T09:16:29Z</time>
      </trkpt>
      <trkpt lat="43.39471" lon="6.68909">
        <ele>159</ele>
        <time>2018-10-14T09:16:33Z</time>
      </trkpt>
      <trkpt lat="43.39493" lon="6.68891">
        <ele>155.39999389648</ele>
        <time>2018-10-14T09:16:38Z</time>
      </trkpt>
      <trkpt lat="43.39501" lon="6.68886">
        <ele>154</ele>
        <time>2018-10-14T09:16:40Z</time>
      </trkpt>
      <trkpt lat="43.3951" lon="6.6888">
        <ele>152.19999694824</ele>
        <time>2018-10-14T09:16:42Z</time>
      </trkpt>
      <trkpt lat="43.39518" lon="6.68871">
        <ele>150.80000305176</ele>
        <time>2018-10-14T09:16:44Z</time>
      </trkpt>
      <trkpt lat="43.39523" lon="6.68866">
        <ele>150</ele>
        <time>2018-10-14T09:16:45Z</time>
      </trkpt>
      <trkpt lat="43.39527" lon="6.6886">
        <ele>149.19999694824</ele>
        <time>2018-10-14T09:16:46Z</time>
      </trkpt>
      <trkpt lat="43.39529" lon="6.68854">
        <ele>148.60000610352</ele>
        <time>2018-10-14T09:16:47Z</time>
      </trkpt>
      <trkpt lat="43.39534" lon="6.68839">
        <ele>146.39999389648</ele>
        <time>2018-10-14T09:16:50Z</time>
      </trkpt>
      <trkpt lat="43.39537" lon="6.6883">
        <ele>145.19999694824</ele>
        <time>2018-10-14T09:16:52Z</time>
      </trkpt>
      <trkpt lat="43.39534" lon="6.6882">
        <ele>143.80000305176</ele>
        <time>2018-10-14T09:16:54Z</time>
      </trkpt>
      <trkpt lat="43.39531" lon="6.68815">
        <ele>143.19999694824</ele>
        <time>2018-10-14T09:16:55Z</time>
      </trkpt>
      <trkpt lat="43.39517" lon="6.68786">
        <ele>140</ele>
        <time>2018-10-14T09:17:01Z</time>
      </trkpt>
      <trkpt lat="43.39506" lon="6.68773">
        <ele>137.60000610352</ele>
        <time>2018-10-14T09:17:06Z</time>
      </trkpt>
      <trkpt lat="43.39494" lon="6.68759">
        <ele>135.39999389648</ele>
        <time>2018-10-14T09:17:10Z</time>
      </trkpt>
      <trkpt lat="43.3948" lon="6.68743">
        <ele>133.19999694824</ele>
        <time>2018-10-14T09:17:14Z</time>
      </trkpt>
      <trkpt lat="43.39475" lon="6.68731">
        <ele>132</ele>
        <time>2018-10-14T09:17:16Z</time>
      </trkpt>
      <trkpt lat="43.39468" lon="6.6871">
        <ele>130.39999389648</ele>
        <time>2018-10-14T09:17:19Z</time>
      </trkpt>
      <trkpt lat="43.39463" lon="6.68689">
        <ele>128.80000305176</ele>
        <time>2018-10-14T09:17:23Z</time>
      </trkpt>
      <trkpt lat="43.39463" lon="6.68684">
        <ele>128.39999389648</ele>
        <time>2018-10-14T09:17:24Z</time>
      </trkpt>
      <trkpt lat="43.39465" lon="6.68671">
        <ele>127.59999847412</ele>
        <time>2018-10-14T09:17:26Z</time>
      </trkpt>
      <trkpt lat="43.39466" lon="6.68647">
        <ele>126.19999694824</ele>
        <time>2018-10-14T09:17:29Z</time>
      </trkpt>
      <trkpt lat="43.39469" lon="6.68628">
        <ele>125.19999694824</ele>
        <time>2018-10-14T09:17:31Z</time>
      </trkpt>
      <trkpt lat="43.39478" lon="6.68585">
        <ele>123</ele>
        <time>2018-10-14T09:17:35Z</time>
      </trkpt>
      <trkpt lat="43.39482" lon="6.68548">
        <ele>121</ele>
        <time>2018-10-14T09:17:39Z</time>
      </trkpt>
      <trkpt lat="43.39479" lon="6.68537">
        <ele>120</ele>
        <time>2018-10-14T09:17:41Z</time>
      </trkpt>
      <trkpt lat="43.39476" lon="6.68531">
        <ele>119.40000152588</ele>
        <time>2018-10-14T09:17:42Z</time>
      </trkpt>
      <trkpt lat="43.39472" lon="6.68526">
        <ele>118.80000305176</ele>
        <time>2018-10-14T09:17:43Z</time>
      </trkpt>
      <trkpt lat="43.3946" lon="6.68522">
        <ele>117.59999847412</ele>
        <time>2018-10-14T09:17:45Z</time>
      </trkpt>
      <trkpt lat="43.39445" lon="6.6852">
        <ele>115.40000152588</ele>
        <time>2018-10-14T09:17:49Z</time>
      </trkpt>
      <trkpt lat="43.3944" lon="6.68517">
        <ele>114.80000305176</ele>
        <time>2018-10-14T09:17:50Z</time>
      </trkpt>
      <trkpt lat="43.39431" lon="6.68507">
        <ele>113.59999847412</ele>
        <time>2018-10-14T09:17:52Z</time>
      </trkpt>
      <trkpt lat="43.39417" lon="6.68486">
        <ele>111.80000305176</ele>
        <time>2018-10-14T09:17:55Z</time>
      </trkpt>
      <trkpt lat="43.39412" lon="6.6848">
        <ele>111.40000152588</ele>
        <time>2018-10-14T09:17:56Z</time>
      </trkpt>
      <trkpt lat="43.39407" lon="6.68473">
        <ele>110.80000305176</ele>
        <time>2018-10-14T09:17:57Z</time>
      </trkpt>
      <trkpt lat="43.39396" lon="6.68454">
        <ele>109.80000305176</ele>
        <time>2018-10-14T09:17:59Z</time>
      </trkpt>
      <trkpt lat="43.39388" lon="6.68435">
        <ele>108.80000305176</ele>
        <time>2018-10-14T09:18:01Z</time>
      </trkpt>
      <trkpt lat="43.39384" lon="6.68428">
        <ele>108.40000152588</ele>
        <time>2018-10-14T09:18:02Z</time>
      </trkpt>
      <trkpt lat="43.39379" lon="6.68424">
        <ele>108</ele>
        <time>2018-10-14T09:18:03Z</time>
      </trkpt>
      <trkpt lat="43.3937" lon="6.68414">
        <ele>107</ele>
        <time>2018-10-14T09:18:05Z</time>
      </trkpt>
      <trkpt lat="43.39362" lon="6.68385">
        <ele>104.80000305176</ele>
        <time>2018-10-14T09:18:09Z</time>
      </trkpt>
      <trkpt lat="43.39361" lon="6.68373">
        <ele>103.59999847412</ele>
        <time>2018-10-14T09:18:11Z</time>
      </trkpt>
      <trkpt lat="43.39358" lon="6.68362">
        <ele>102.19999694824</ele>
        <time>2018-10-14T09:18:13Z</time>
      </trkpt>
      <trkpt lat="43.39351" lon="6.68344">
        <ele>100.19999694824</ele>
        <time>2018-10-14T09:18:16Z</time>
      </trkpt>
      <trkpt lat="43.39345" lon="6.68336">
        <ele>99.199996948242</ele>
        <time>2018-10-14T09:18:18Z</time>
      </trkpt>
      <trkpt lat="43.39338" lon="6.68334">
        <ele>98</ele>
        <time>2018-10-14T09:18:20Z</time>
      </trkpt>
      <trkpt lat="43.39336" lon="6.68335">
        <ele>97.599998474121</ele>
        <time>2018-10-14T09:18:21Z</time>
      </trkpt>
      <trkpt lat="43.39326" lon="6.6834">
        <ele>95.400001525879</ele>
        <time>2018-10-14T09:18:26Z</time>
      </trkpt>
      <trkpt lat="43.39311" lon="6.68337">
        <ele>93.800003051758</ele>
        <time>2018-10-14T09:18:31Z</time>
      </trkpt>
      <trkpt lat="43.39309" lon="6.68335">
        <ele>93.400001525879</ele>
        <time>2018-10-14T09:18:32Z</time>
      </trkpt>
      <trkpt lat="43.39307" lon="6.68326">
        <ele>92.599998474121</ele>
        <time>2018-10-14T09:18:34Z</time>
      </trkpt>
      <trkpt lat="43.3931" lon="6.68313">
        <ele>91.199996948242</ele>
        <time>2018-10-14T09:18:38Z</time>
      </trkpt>
      <trkpt lat="43.39319" lon="6.68293">
        <ele>89.800003051758</ele>
        <time>2018-10-14T09:18:43Z</time>
      </trkpt>
      <trkpt lat="43.39318" lon="6.68282">
        <ele>88.599998474121</ele>
        <time>2018-10-14T09:18:47Z</time>
      </trkpt>
      <trkpt lat="43.39315" lon="6.68273">
        <ele>87.400001525879</ele>
        <time>2018-10-14T09:18:52Z</time>
      </trkpt>
      <trkpt lat="43.39308" lon="6.68265">
        <ele>86.400001525879</ele>
        <time>2018-10-14T09:18:59Z</time>
      </trkpt>
      <trkpt lat="43.39299" lon="6.68256">
        <ele>85.599998474121</ele>
        <time>2018-10-14T09:19:06Z</time>
      </trkpt>
      <trkpt lat="43.39291" lon="6.68251">
        <ele>84.800003051758</ele>
        <time>2018-10-14T09:19:12Z</time>
      </trkpt>
      <trkpt lat="43.39284" lon="6.68245">
        <ele>84.199996948242</ele>
        <time>2018-10-14T09:19:17Z</time>
      </trkpt>
      <trkpt lat="43.39274" lon="6.6824">
        <ele>83.800003051758</ele>
        <time>2018-10-14T09:19:25Z</time>
      </trkpt>
      <trkpt lat="43.39267" lon="6.68231">
        <ele>83.800003051758</ele>
        <time>2018-10-14T09:19:32Z</time>
      </trkpt>
      <trkpt lat="43.39266" lon="6.68219">
        <ele>83.800003051758</ele>
        <time>2018-10-14T09:19:37Z</time>
      </trkpt>
      <trkpt lat="43.39268" lon="6.68214">
        <ele>83.599998474121</ele>
        <time>2018-10-14T09:19:38Z</time>
      </trkpt>
      <trkpt lat="43.39274" lon="6.68196">
        <ele>83.199996948242</ele>
        <time>2018-10-14T09:19:41Z</time>
      </trkpt>
      <trkpt lat="43.39278" lon="6.68184">
        <ele>83</ele>
        <time>2018-10-14T09:19:43Z</time>
      </trkpt>
      <trkpt lat="43.39283" lon="6.68169">
        <ele>83</ele>
        <time>2018-10-14T09:19:46Z</time>
      </trkpt>
      <trkpt lat="43.39294" lon="6.68147">
        <ele>82.800003051758</ele>
        <time>2018-10-14T09:19:52Z</time>
      </trkpt>
      <trkpt lat="43.39306" lon="6.68126">
        <ele>82.800003051758</ele>
        <time>2018-10-14T09:19:58Z</time>
      </trkpt>
      <trkpt lat="43.3932" lon="6.68108">
        <ele>82.800003051758</ele>
        <time>2018-10-14T09:20:05Z</time>
      </trkpt>
      <trkpt lat="43.39327" lon="6.68099">
        <ele>82.800003051758</ele>
        <time>2018-10-14T09:20:10Z</time>
      </trkpt>
      <trkpt lat="43.39329" lon="6.68087">
        <ele>83</ele>
        <time>2018-10-14T09:20:15Z</time>
      </trkpt>
      <trkpt lat="43.39325" lon="6.68075">
        <ele>83.199996948242</ele>
        <time>2018-10-14T09:20:19Z</time>
      </trkpt>
      <trkpt lat="43.39326" lon="6.6806">
        <ele>83.400001525879</ele>
        <time>2018-10-14T09:20:23Z</time>
      </trkpt>
      <trkpt lat="43.39327" lon="6.68041">
        <ele>83.800003051758</ele>
        <time>2018-10-14T09:20:29Z</time>
      </trkpt>
      <trkpt lat="43.39326" lon="6.68031">
        <ele>83.800003051758</ele>
        <time>2018-10-14T09:20:34Z</time>
      </trkpt>
      <trkpt lat="43.39327" lon="6.68029">
        <ele>83.599998474121</ele>
        <time>2018-10-14T09:20:35Z</time>
      </trkpt>
      <trkpt lat="43.39329" lon="6.68024">
        <ele>83.400001525879</ele>
        <time>2018-10-14T09:20:37Z</time>
      </trkpt>
      <trkpt lat="43.39332" lon="6.6802">
        <ele>83.199996948242</ele>
        <time>2018-10-14T09:20:39Z</time>
      </trkpt>
      <trkpt lat="43.39334" lon="6.68014">
        <ele>82.800003051758</ele>
        <time>2018-10-14T09:20:41Z</time>
      </trkpt>
      <trkpt lat="43.39335" lon="6.67994">
        <ele>82.599998474121</ele>
        <time>2018-10-14T09:20:46Z</time>
      </trkpt>
      <trkpt lat="43.39335" lon="6.67987">
        <ele>82.400001525879</ele>
        <time>2018-10-14T09:20:48Z</time>
      </trkpt>
      <trkpt lat="43.39334" lon="6.6798">
        <ele>82.400001525879</ele>
        <time>2018-10-14T09:20:50Z</time>
      </trkpt>
      <trkpt lat="43.39329" lon="6.67965">
        <ele>82.199996948242</ele>
        <time>2018-10-14T09:20:55Z</time>
      </trkpt>
      <trkpt lat="43.39321" lon="6.67953">
        <ele>81.599998474121</ele>
        <time>2018-10-14T09:20:59Z</time>
      </trkpt>
      <trkpt lat="43.39321" lon="6.6795">
        <ele>81.400001525879</ele>
        <time>2018-10-14T09:21:00Z</time>
      </trkpt>
      <trkpt lat="43.39318" lon="6.67931">
        <ele>80.599998474121</ele>
        <time>2018-10-14T09:21:05Z</time>
      </trkpt>
      <trkpt lat="43.39315" lon="6.67916">
        <ele>80</ele>
        <time>2018-10-14T09:21:09Z</time>
      </trkpt>
      <trkpt lat="43.3931" lon="6.67901">
        <ele>79</ele>
        <time>2018-10-14T09:21:14Z</time>
      </trkpt>
      <trkpt lat="43.39307" lon="6.67895">
        <ele>78.400001525879</ele>
        <time>2018-10-14T09:21:18Z</time>
      </trkpt>
      <trkpt lat="43.39302" lon="6.67886">
        <ele>77.199996948242</ele>
        <time>2018-10-14T09:21:25Z</time>
      </trkpt>
      <trkpt lat="43.39299" lon="6.67882">
        <ele>76.800003051758</ele>
        <time>2018-10-14T09:21:29Z</time>
      </trkpt>
      <trkpt lat="43.39297" lon="6.6788">
        <ele>76.199996948242</ele>
        <time>2018-10-14T09:21:31Z</time>
      </trkpt>
      <trkpt lat="43.39297" lon="6.67878">
        <ele>75.800003051758</ele>
        <time>2018-10-14T09:21:33Z</time>
      </trkpt>
      <trkpt lat="43.39299" lon="6.67876">
        <ele>75.400001525879</ele>
        <time>2018-10-14T09:21:36Z</time>
      </trkpt>
      <trkpt lat="43.39303" lon="6.67868">
        <ele>74.800003051758</ele>
        <time>2018-10-14T09:21:40Z</time>
      </trkpt>
      <trkpt lat="43.39304" lon="6.67867">
        <ele>74.800003051758</ele>
        <time>2018-10-14T09:21:41Z</time>
      </trkpt>
      <trkpt lat="43.39304" lon="6.67865">
        <ele>74.599998474121</ele>
        <time>2018-10-14T09:21:42Z</time>
      </trkpt>
      <trkpt lat="43.39307" lon="6.67863">
        <ele>74.199996948242</ele>
        <time>2018-10-14T09:21:44Z</time>
      </trkpt>
      <trkpt lat="43.39311" lon="6.6786">
        <ele>73.800003051758</ele>
        <time>2018-10-14T09:21:46Z</time>
      </trkpt>
      <trkpt lat="43.39312" lon="6.67857">
        <ele>73.199996948242</ele>
        <time>2018-10-14T09:21:48Z</time>
      </trkpt>
      <trkpt lat="43.39313" lon="6.67855">
        <ele>73.199996948242</ele>
        <time>2018-10-14T09:21:49Z</time>
      </trkpt>
      <trkpt lat="43.39314" lon="6.67852">
        <ele>72.599998474121</ele>
        <time>2018-10-14T09:21:51Z</time>
      </trkpt>
      <trkpt lat="43.39317" lon="6.6785">
        <ele>72.400001525879</ele>
        <time>2018-10-14T09:21:53Z</time>
      </trkpt>
      <trkpt lat="43.39318" lon="6.67849">
        <ele>72.199996948242</ele>
        <time>2018-10-14T09:21:54Z</time>
      </trkpt>
      <trkpt lat="43.39321" lon="6.67843">
        <ele>71.599998474121</ele>
        <time>2018-10-14T09:21:57Z</time>
      </trkpt>
      <trkpt lat="43.3932" lon="6.67841">
        <ele>71.199996948242</ele>
        <time>2018-10-14T09:21:58Z</time>
      </trkpt>
      <trkpt lat="43.39319" lon="6.67836">
        <ele>70.400001525879</ele>
        <time>2018-10-14T09:22:01Z</time>
      </trkpt>
      <trkpt lat="43.39319" lon="6.67824">
        <ele>67.599998474121</ele>
        <time>2018-10-14T09:22:12Z</time>
      </trkpt>
      <trkpt lat="43.39319" lon="6.67823">
        <ele>67.400001525879</ele>
        <time>2018-10-14T09:22:13Z</time>
      </trkpt>
      <trkpt lat="43.39314" lon="6.67814">
        <ele>65.400001525879</ele>
        <time>2018-10-14T09:22:19Z</time>
      </trkpt>
      <trkpt lat="43.39312" lon="6.6781">
        <ele>65</ele>
        <time>2018-10-14T09:22:21Z</time>
      </trkpt>
      <trkpt lat="43.39313" lon="6.67805">
        <ele>64.199996948242</ele>
        <time>2018-10-14T09:22:23Z</time>
      </trkpt>
      <trkpt lat="43.39315" lon="6.678">
        <ele>63.200000762939</ele>
        <time>2018-10-14T09:22:27Z</time>
      </trkpt>
      <trkpt lat="43.39315" lon="6.67796">
        <ele>62.599998474121</ele>
        <time>2018-10-14T09:22:29Z</time>
      </trkpt>
      <trkpt lat="43.39316" lon="6.67792">
        <ele>62</ele>
        <time>2018-10-14T09:22:32Z</time>
      </trkpt>
      <trkpt lat="43.39319" lon="6.67786">
        <ele>60.799999237061</ele>
        <time>2018-10-14T09:22:37Z</time>
      </trkpt>
      <trkpt lat="43.3932" lon="6.67785">
        <ele>60.599998474121</ele>
        <time>2018-10-14T09:22:38Z</time>
      </trkpt>
      <trkpt lat="43.39323" lon="6.67781">
        <ele>59.799999237061</ele>
        <time>2018-10-14T09:22:42Z</time>
      </trkpt>
      <trkpt lat="43.39324" lon="6.6778">
        <ele>59.400001525879</ele>
        <time>2018-10-14T09:22:43Z</time>
      </trkpt>
      <trkpt lat="43.39328" lon="6.67775">
        <ele>58.200000762939</ele>
        <time>2018-10-14T09:22:47Z</time>
      </trkpt>
      <trkpt lat="43.39327" lon="6.67772">
        <ele>58</ele>
        <time>2018-10-14T09:22:48Z</time>
      </trkpt>
      <trkpt lat="43.3933" lon="6.67761">
        <ele>57.200000762939</ele>
        <time>2018-10-14T09:22:52Z</time>
      </trkpt>
      <trkpt lat="43.39334" lon="6.67748">
        <ele>56.200000762939</ele>
        <time>2018-10-14T09:22:57Z</time>
      </trkpt>
      <trkpt lat="43.39333" lon="6.67746">
        <ele>56</ele>
        <time>2018-10-14T09:22:58Z</time>
      </trkpt>
      <trkpt lat="43.3933" lon="6.67744">
        <ele>55.400001525879</ele>
        <time>2018-10-14T09:23:01Z</time>
      </trkpt>
      <trkpt lat="43.39328" lon="6.67739">
        <ele>54.599998474121</ele>
        <time>2018-10-14T09:23:06Z</time>
      </trkpt>
      <trkpt lat="43.39328" lon="6.67735">
        <ele>54</ele>
        <time>2018-10-14T09:23:09Z</time>
      </trkpt>
      <trkpt lat="43.39328" lon="6.67731">
        <ele>53.599998474121</ele>
        <time>2018-10-14T09:23:11Z</time>
      </trkpt>
      <trkpt lat="43.39328" lon="6.6773">
        <ele>53</ele>
        <time>2018-10-14T09:23:13Z</time>
      </trkpt>
      <trkpt lat="43.39322" lon="6.6772">
        <ele>50.799999237061</ele>
        <time>2018-10-14T09:23:23Z</time>
      </trkpt>
      <trkpt lat="43.39319" lon="6.67718">
        <ele>50.200000762939</ele>
        <time>2018-10-14T09:23:25Z</time>
      </trkpt>
      <trkpt lat="43.39313" lon="6.67711">
        <ele>48.799999237061</ele>
        <time>2018-10-14T09:23:30Z</time>
      </trkpt>
      <trkpt lat="43.39304" lon="6.67703">
        <ele>47</ele>
        <time>2018-10-14T09:23:36Z</time>
      </trkpt>
      <trkpt lat="43.39299" lon="6.67703">
        <ele>46.200000762939</ele>
        <time>2018-10-14T09:23:40Z</time>
      </trkpt>
      <trkpt lat="43.39292" lon="6.67704">
        <ele>44.599998474121</ele>
        <time>2018-10-14T09:23:45Z</time>
      </trkpt>
      <trkpt lat="43.39291" lon="6.67703">
        <ele>44.400001525879</ele>
        <time>2018-10-14T09:23:46Z</time>
      </trkpt>
      <trkpt lat="43.39291" lon="6.67703">
        <ele>44.200000762939</ele>
        <time>2018-10-14T09:23:47Z</time>
      </trkpt>
      <trkpt lat="43.39288" lon="6.67699">
        <ele>43.400001525879</ele>
        <time>2018-10-14T09:23:49Z</time>
      </trkpt>
      <trkpt lat="43.39286" lon="6.67697">
        <ele>43.200000762939</ele>
        <time>2018-10-14T09:23:50Z</time>
      </trkpt>
      <trkpt lat="43.39281" lon="6.67689">
        <ele>41.799999237061</ele>
        <time>2018-10-14T09:23:54Z</time>
      </trkpt>
      <trkpt lat="43.39279" lon="6.67689">
        <ele>41</ele>
        <time>2018-10-14T09:23:56Z</time>
      </trkpt>
      <trkpt lat="43.39275" lon="6.67687">
        <ele>40.200000762939</ele>
        <time>2018-10-14T09:23:58Z</time>
      </trkpt>
      <trkpt lat="43.39273" lon="6.67685">
        <ele>39.799999237061</ele>
        <time>2018-10-14T09:23:59Z</time>
      </trkpt>
      <trkpt lat="43.39271" lon="6.67679">
        <ele>39.200000762939</ele>
        <time>2018-10-14T09:24:01Z</time>
      </trkpt>
      <trkpt lat="43.39268" lon="6.67663">
        <ele>37.599998474121</ele>
        <time>2018-10-14T09:24:05Z</time>
      </trkpt>
      <trkpt lat="43.3926" lon="6.67662">
        <ele>36.599998474121</ele>
        <time>2018-10-14T09:24:08Z</time>
      </trkpt>
      <trkpt lat="43.39249" lon="6.67665">
        <ele>35.400001525879</ele>
        <time>2018-10-14T09:24:13Z</time>
      </trkpt>
      <trkpt lat="43.3924" lon="6.6767">
        <ele>34.799999237061</ele>
        <time>2018-10-14T09:24:16Z</time>
      </trkpt>
      <trkpt lat="43.39237" lon="6.67669">
        <ele>34.599998474121</ele>
        <time>2018-10-14T09:24:17Z</time>
      </trkpt>
      <trkpt lat="43.39232" lon="6.6767">
        <ele>34.200000762939</ele>
        <time>2018-10-14T09:24:18Z</time>
      </trkpt>
      <trkpt lat="43.39227" lon="6.6767">
        <ele>34</ele>
        <time>2018-10-14T09:24:19Z</time>
      </trkpt>
      <trkpt lat="43.39223" lon="6.67669">
        <ele>33.799999237061</ele>
        <time>2018-10-14T09:24:20Z</time>
      </trkpt>
      <trkpt lat="43.39219" lon="6.67661">
        <ele>33.200000762939</ele>
        <time>2018-10-14T09:24:22Z</time>
      </trkpt>
      <trkpt lat="43.39224" lon="6.67651">
        <ele>32.400001525879</ele>
        <time>2018-10-14T09:24:25Z</time>
      </trkpt>
      <trkpt lat="43.39225" lon="6.67647">
        <ele>32.200000762939</ele>
        <time>2018-10-14T09:24:26Z</time>
      </trkpt>
      <trkpt lat="43.39223" lon="6.67643">
        <ele>31.799999237061</ele>
        <time>2018-10-14T09:24:27Z</time>
      </trkpt>
      <trkpt lat="43.39217" lon="6.67642">
        <ele>30.799999237061</ele>
        <time>2018-10-14T09:24:30Z</time>
      </trkpt>
      <trkpt lat="43.39217" lon="6.6764">
        <ele>30.60000038147</ele>
        <time>2018-10-14T09:24:31Z</time>
      </trkpt>
      <trkpt lat="43.39217" lon="6.67631">
        <ele>29.799999237061</ele>
        <time>2018-10-14T09:24:34Z</time>
      </trkpt>
      <trkpt lat="43.39217" lon="6.67628">
        <ele>29.60000038147</ele>
        <time>2018-10-14T09:24:35Z</time>
      </trkpt>
      <trkpt lat="43.3922" lon="6.67625">
        <ele>29.200000762939</ele>
        <time>2018-10-14T09:24:37Z</time>
      </trkpt>
      <trkpt lat="43.39234" lon="6.67627">
        <ele>28.200000762939</ele>
        <time>2018-10-14T09:24:42Z</time>
      </trkpt>
      <trkpt lat="43.39247" lon="6.67625">
        <ele>27.39999961853</ele>
        <time>2018-10-14T09:24:47Z</time>
      </trkpt>
      <trkpt lat="43.39266" lon="6.67626">
        <ele>26.39999961853</ele>
        <time>2018-10-14T09:24:53Z</time>
      </trkpt>
      <trkpt lat="43.39278" lon="6.67621">
        <ele>26</ele>
        <time>2018-10-14T09:24:57Z</time>
      </trkpt>
      <trkpt lat="43.39297" lon="6.67619">
        <ele>24.799999237061</ele>
        <time>2018-10-14T09:25:03Z</time>
      </trkpt>
      <trkpt lat="43.39316" lon="6.67617">
        <ele>24</ele>
        <time>2018-10-14T09:25:08Z</time>
      </trkpt>
      <trkpt lat="43.3934" lon="6.67614">
        <ele>23.200000762939</ele>
        <time>2018-10-14T09:25:14Z</time>
      </trkpt>
      <trkpt lat="43.39349" lon="6.6761">
        <ele>23</ele>
        <time>2018-10-14T09:25:16Z</time>
      </trkpt>
      <trkpt lat="43.39356" lon="6.67604">
        <ele>22.799999237061</ele>
        <time>2018-10-14T09:25:18Z</time>
      </trkpt>
      <trkpt lat="43.39363" lon="6.676">
        <ele>22.60000038147</ele>
        <time>2018-10-14T09:25:20Z</time>
      </trkpt>
      <trkpt lat="43.39371" lon="6.67596">
        <ele>22.39999961853</ele>
        <time>2018-10-14T09:25:22Z</time>
      </trkpt>
      <trkpt lat="43.39389" lon="6.67588">
        <ele>21.60000038147</ele>
        <time>2018-10-14T09:25:27Z</time>
      </trkpt>
      <trkpt lat="43.39403" lon="6.67574">
        <ele>21</ele>
        <time>2018-10-14T09:25:32Z</time>
      </trkpt>
      <trkpt lat="43.39414" lon="6.67573">
        <ele>20.799999237061</ele>
        <time>2018-10-14T09:25:35Z</time>
      </trkpt>
      <trkpt lat="43.39417" lon="6.67574">
        <ele>20.799999237061</ele>
        <time>2018-10-14T09:25:36Z</time>
      </trkpt>
      <trkpt lat="43.3943" lon="6.67581">
        <ele>20.60000038147</ele>
        <time>2018-10-14T09:25:40Z</time>
      </trkpt>
      <trkpt lat="43.39434" lon="6.67581">
        <ele>20.39999961853</ele>
        <time>2018-10-14T09:25:41Z</time>
      </trkpt>
      <trkpt lat="43.39438" lon="6.67579">
        <ele>20.39999961853</ele>
        <time>2018-10-14T09:25:42Z</time>
      </trkpt>
      <trkpt lat="43.39447" lon="6.67578">
        <ele>20.200000762939</ele>
        <time>2018-10-14T09:25:44Z</time>
      </trkpt>
      <trkpt lat="43.39452" lon="6.6758">
        <ele>20.200000762939</ele>
        <time>2018-10-14T09:25:45Z</time>
      </trkpt>
      <trkpt lat="43.39456" lon="6.67581">
        <ele>20</ele>
        <time>2018-10-14T09:25:46Z</time>
      </trkpt>
      <trkpt lat="43.39466" lon="6.67577">
        <ele>19.799999237061</ele>
        <time>2018-10-14T09:25:48Z</time>
      </trkpt>
      <trkpt lat="43.39475" lon="6.67572">
        <ele>19.799999237061</ele>
        <time>2018-10-14T09:25:50Z</time>
      </trkpt>
      <trkpt lat="43.39481" lon="6.67563">
        <ele>19.799999237061</ele>
        <time>2018-10-14T09:25:52Z</time>
      </trkpt>
      <trkpt lat="43.39485" lon="6.67559">
        <ele>19.799999237061</ele>
        <time>2018-10-14T09:25:53Z</time>
      </trkpt>
      <trkpt lat="43.39493" lon="6.67554">
        <ele>19.799999237061</ele>
        <time>2018-10-14T09:25:55Z</time>
      </trkpt>
      <trkpt lat="43.39506" lon="6.67553">
        <ele>19.200000762939</ele>
        <time>2018-10-14T09:26:00Z</time>
      </trkpt>
      <trkpt lat="43.39513" lon="6.67554">
        <ele>19.39999961853</ele>
        <time>2018-10-14T09:26:03Z</time>
      </trkpt>
      <trkpt lat="43.39514" lon="6.67553">
        <ele>19.39999961853</ele>
        <time>2018-10-14T09:26:04Z</time>
      </trkpt>
      <trkpt lat="43.39526" lon="6.67533">
        <ele>19.200000762939</ele>
        <time>2018-10-14T09:26:10Z</time>
      </trkpt>
      <trkpt lat="43.39535" lon="6.67524">
        <ele>19</ele>
        <time>2018-10-14T09:26:13Z</time>
      </trkpt>
      <trkpt lat="43.39546" lon="6.67517">
        <ele>19</ele>
        <time>2018-10-14T09:26:16Z</time>
      </trkpt>
      <trkpt lat="43.3955" lon="6.67514">
        <ele>18.799999237061</ele>
        <time>2018-10-14T09:26:17Z</time>
      </trkpt>
      <trkpt lat="43.39563" lon="6.67507">
        <ele>18.799999237061</ele>
        <time>2018-10-14T09:26:21Z</time>
      </trkpt>
      <trkpt lat="43.39584" lon="6.67498">
        <ele>18.200000762939</ele>
        <time>2018-10-14T09:26:27Z</time>
      </trkpt>
      <trkpt lat="43.39608" lon="6.67489">
        <ele>18</ele>
        <time>2018-10-14T09:26:33Z</time>
      </trkpt>
      <trkpt lat="43.39634" lon="6.67483">
        <ele>17.799999237061</ele>
        <time>2018-10-14T09:26:39Z</time>
      </trkpt>
      <trkpt lat="43.39664" lon="6.67476">
        <ele>17.60000038147</ele>
        <time>2018-10-14T09:26:46Z</time>
      </trkpt>
      <trkpt lat="43.39672" lon="6.67472">
        <ele>17.39999961853</ele>
        <time>2018-10-14T09:26:48Z</time>
      </trkpt>
      <trkpt lat="43.39677" lon="6.67464">
        <ele>17.39999961853</ele>
        <time>2018-10-14T09:26:50Z</time>
      </trkpt>
      <trkpt lat="43.39684" lon="6.67445">
        <ele>17.799999237061</ele>
        <time>2018-10-14T09:26:54Z</time>
      </trkpt>
      <trkpt lat="43.3969" lon="6.67436">
        <ele>17.799999237061</ele>
        <time>2018-10-14T09:26:56Z</time>
      </trkpt>
      <trkpt lat="43.397" lon="6.67429">
        <ele>18</ele>
        <time>2018-10-14T09:26:58Z</time>
      </trkpt>
      <trkpt lat="43.39719" lon="6.67426">
        <ele>17.799999237061</ele>
        <time>2018-10-14T09:27:01Z</time>
      </trkpt>
      <trkpt lat="43.39725" lon="6.67423">
        <ele>17.799999237061</ele>
        <time>2018-10-14T09:27:02Z</time>
      </trkpt>
      <trkpt lat="43.3973" lon="6.67419">
        <ele>17.799999237061</ele>
        <time>2018-10-14T09:27:03Z</time>
      </trkpt>
      <trkpt lat="43.39738" lon="6.67405">
        <ele>17.799999237061</ele>
        <time>2018-10-14T09:27:05Z</time>
      </trkpt>
      <trkpt lat="43.39746" lon="6.6738">
        <ele>17.799999237061</ele>
        <time>2018-10-14T09:27:08Z</time>
      </trkpt>
      <trkpt lat="43.39747" lon="6.67362">
        <ele>17.799999237061</ele>
        <time>2018-10-14T09:27:10Z</time>
      </trkpt>
      <trkpt lat="43.39748" lon="6.67336">
        <ele>17.799999237061</ele>
        <time>2018-10-14T09:27:13Z</time>
      </trkpt>
      <trkpt lat="43.39746" lon="6.67321">
        <ele>17.799999237061</ele>
        <time>2018-10-14T09:27:15Z</time>
      </trkpt>
      <trkpt lat="43.39742" lon="6.67299">
        <ele>17.799999237061</ele>
        <time>2018-10-14T09:27:18Z</time>
      </trkpt>
      <trkpt lat="43.39741" lon="6.67292">
        <ele>17.799999237061</ele>
        <time>2018-10-14T09:27:19Z</time>
      </trkpt>
      <trkpt lat="43.39735" lon="6.67274">
        <ele>18</ele>
        <time>2018-10-14T09:27:22Z</time>
      </trkpt>
      <trkpt lat="43.3973" lon="6.67264">
        <ele>18</ele>
        <time>2018-10-14T09:27:24Z</time>
      </trkpt>
      <trkpt lat="43.39725" lon="6.67255">
        <ele>18</ele>
        <time>2018-10-14T09:27:26Z</time>
      </trkpt>
      <trkpt lat="43.39717" lon="6.67249">
        <ele>18.200000762939</ele>
        <time>2018-10-14T09:27:28Z</time>
      </trkpt>
      <trkpt lat="43.39708" lon="6.67244">
        <ele>18.200000762939</ele>
        <time>2018-10-14T09:27:32Z</time>
      </trkpt>
      <trkpt lat="43.39707" lon="6.67243">
        <ele>18</ele>
        <time>2018-10-14T09:27:34Z</time>
      </trkpt>
      <trkpt lat="43.39701" lon="6.67232">
        <ele>18</ele>
        <time>2018-10-14T09:30:59Z</time>
      </trkpt>
      <trkpt lat="43.39687" lon="6.67216">
        <ele>17.799999237061</ele>
        <time>2018-10-14T09:31:05Z</time>
      </trkpt>
      <trkpt lat="43.39674" lon="6.67204">
        <ele>17.200000762939</ele>
        <time>2018-10-14T09:31:09Z</time>
      </trkpt>
      <trkpt lat="43.3967" lon="6.672">
        <ele>17.200000762939</ele>
        <time>2018-10-14T09:31:10Z</time>
      </trkpt>
      <trkpt lat="43.39661" lon="6.67196">
        <ele>17</ele>
        <time>2018-10-14T09:31:12Z</time>
      </trkpt>
      <trkpt lat="43.39657" lon="6.67195">
        <ele>17</ele>
        <time>2018-10-14T09:31:13Z</time>
      </trkpt>
      <trkpt lat="43.39652" lon="6.67195">
        <ele>16.799999237061</ele>
        <time>2018-10-14T09:31:14Z</time>
      </trkpt>
      <trkpt lat="43.39637" lon="6.67198">
        <ele>16.799999237061</ele>
        <time>2018-10-14T09:31:17Z</time>
      </trkpt>
      <trkpt lat="43.39632" lon="6.672">
        <ele>16.60000038147</ele>
        <time>2018-10-14T09:31:18Z</time>
      </trkpt>
      <trkpt lat="43.39618" lon="6.67208">
        <ele>16.200000762939</ele>
        <time>2018-10-14T09:31:21Z</time>
      </trkpt>
      <trkpt lat="43.39595" lon="6.67218">
        <ele>15.60000038147</ele>
        <time>2018-10-14T09:31:26Z</time>
      </trkpt>
      <trkpt lat="43.39582" lon="6.67225">
        <ele>15.39999961853</ele>
        <time>2018-10-14T09:31:29Z</time>
      </trkpt>
      <trkpt lat="43.39577" lon="6.67225">
        <ele>15.199999809265</ele>
        <time>2018-10-14T09:31:30Z</time>
      </trkpt>
      <trkpt lat="43.39573" lon="6.67224">
        <ele>15.199999809265</ele>
        <time>2018-10-14T09:31:31Z</time>
      </trkpt>
      <trkpt lat="43.39565" lon="6.67217">
        <ele>15.199999809265</ele>
        <time>2018-10-14T09:31:33Z</time>
      </trkpt>
      <trkpt lat="43.39558" lon="6.67208">
        <ele>15.199999809265</ele>
        <time>2018-10-14T09:31:35Z</time>
      </trkpt>
      <trkpt lat="43.39551" lon="6.67193">
        <ele>15.199999809265</ele>
        <time>2018-10-14T09:31:38Z</time>
      </trkpt>
      <trkpt lat="43.39546" lon="6.67184">
        <ele>15.199999809265</ele>
        <time>2018-10-14T09:31:40Z</time>
      </trkpt>
      <trkpt lat="43.39536" lon="6.67165">
        <ele>15.199999809265</ele>
        <time>2018-10-14T09:31:44Z</time>
      </trkpt>
      <trkpt lat="43.3953" lon="6.67156">
        <ele>15.199999809265</ele>
        <time>2018-10-14T09:31:46Z</time>
      </trkpt>
      <trkpt lat="43.39519" lon="6.67146">
        <ele>15.199999809265</ele>
        <time>2018-10-14T09:31:49Z</time>
      </trkpt>
      <trkpt lat="43.39515" lon="6.67144">
        <ele>15.199999809265</ele>
        <time>2018-10-14T09:31:50Z</time>
      </trkpt>
      <trkpt lat="43.39497" lon="6.67133">
        <ele>14.800000190735</ele>
        <time>2018-10-14T09:31:55Z</time>
      </trkpt>
      <trkpt lat="43.39491" lon="6.67118">
        <ele>14.800000190735</ele>
        <time>2018-10-14T09:31:58Z</time>
      </trkpt>
      <trkpt lat="43.39489" lon="6.67112">
        <ele>15</ele>
        <time>2018-10-14T09:31:59Z</time>
      </trkpt>
      <trkpt lat="43.39486" lon="6.67107">
        <ele>15</ele>
        <time>2018-10-14T09:32:00Z</time>
      </trkpt>
      <trkpt lat="43.3948" lon="6.67102">
        <ele>15.199999809265</ele>
        <time>2018-10-14T09:32:02Z</time>
      </trkpt>
      <trkpt lat="43.3946" lon="6.67094">
        <ele>15.199999809265</ele>
        <time>2018-10-14T09:32:08Z</time>
      </trkpt>
      <trkpt lat="43.39447" lon="6.67078">
        <ele>15.39999961853</ele>
        <time>2018-10-14T09:32:13Z</time>
      </trkpt>
      <trkpt lat="43.39434" lon="6.67055">
        <ele>15.800000190735</ele>
        <time>2018-10-14T09:32:18Z</time>
      </trkpt>
      <trkpt lat="43.39431" lon="6.67046">
        <ele>16</ele>
        <time>2018-10-14T09:32:20Z</time>
      </trkpt>
      <trkpt lat="43.39426" lon="6.67038">
        <ele>16</ele>
        <time>2018-10-14T09:32:22Z</time>
      </trkpt>
      <trkpt lat="43.3942" lon="6.67028">
        <ele>16</ele>
        <time>2018-10-14T09:32:24Z</time>
      </trkpt>
      <trkpt lat="43.39408" lon="6.67002">
        <ele>16.200000762939</ele>
        <time>2018-10-14T09:32:29Z</time>
      </trkpt>
      <trkpt lat="43.394" lon="6.6698">
        <ele>16.200000762939</ele>
        <time>2018-10-14T09:32:33Z</time>
      </trkpt>
      <trkpt lat="43.39384" lon="6.66961">
        <ele>16.200000762939</ele>
        <time>2018-10-14T09:32:37Z</time>
      </trkpt>
      <trkpt lat="43.39374" lon="6.66953">
        <ele>16.200000762939</ele>
        <time>2018-10-14T09:32:39Z</time>
      </trkpt>
      <trkpt lat="43.39365" lon="6.66946">
        <ele>16.39999961853</ele>
        <time>2018-10-14T09:32:41Z</time>
      </trkpt>
      <trkpt lat="43.39342" lon="6.66929">
        <ele>16.60000038147</ele>
        <time>2018-10-14T09:32:46Z</time>
      </trkpt>
      <trkpt lat="43.39338" lon="6.66926">
        <ele>16.60000038147</ele>
        <time>2018-10-14T09:32:47Z</time>
      </trkpt>
      <trkpt lat="43.39311" lon="6.66907">
        <ele>16.60000038147</ele>
        <time>2018-10-14T09:32:53Z</time>
      </trkpt>
      <trkpt lat="43.39302" lon="6.669">
        <ele>16.60000038147</ele>
        <time>2018-10-14T09:32:55Z</time>
      </trkpt>
      <trkpt lat="43.39291" lon="6.66897">
        <ele>16.60000038147</ele>
        <time>2018-10-14T09:32:57Z</time>
      </trkpt>
      <trkpt lat="43.39285" lon="6.66894">
        <ele>16.60000038147</ele>
        <time>2018-10-14T09:32:58Z</time>
      </trkpt>
      <trkpt lat="43.39274" lon="6.66885">
        <ele>16.39999961853</ele>
        <time>2018-10-14T09:33:00Z</time>
      </trkpt>
      <trkpt lat="43.39265" lon="6.66871">
        <ele>16.200000762939</ele>
        <time>2018-10-14T09:33:02Z</time>
      </trkpt>
      <trkpt lat="43.39262" lon="6.66864">
        <ele>16.200000762939</ele>
        <time>2018-10-14T09:33:03Z</time>
      </trkpt>
      <trkpt lat="43.39253" lon="6.66841">
        <ele>16</ele>
        <time>2018-10-14T09:33:07Z</time>
      </trkpt>
      <trkpt lat="43.39246" lon="6.66824">
        <ele>16</ele>
        <time>2018-10-14T09:33:11Z</time>
      </trkpt>
      <trkpt lat="43.39241" lon="6.66812">
        <ele>16.39999961853</ele>
        <time>2018-10-14T09:33:15Z</time>
      </trkpt>
      <trkpt lat="43.39242" lon="6.66809">
        <ele>16.799999237061</ele>
        <time>2018-10-14T09:33:16Z</time>
      </trkpt>
      <trkpt lat="43.39253" lon="6.66795">
        <ele>17</ele>
        <time>2018-10-14T09:33:21Z</time>
      </trkpt>
      <trkpt lat="43.3926" lon="6.66778">
        <ele>17</ele>
        <time>2018-10-14T09:33:25Z</time>
      </trkpt>
      <trkpt lat="43.39267" lon="6.6676">
        <ele>17</ele>
        <time>2018-10-14T09:33:29Z</time>
      </trkpt>
      <trkpt lat="43.39274" lon="6.6674">
        <ele>17.200000762939</ele>
        <time>2018-10-14T09:33:34Z</time>
      </trkpt>
      <trkpt lat="43.3928" lon="6.66723">
        <ele>17.799999237061</ele>
        <time>2018-10-14T09:33:40Z</time>
      </trkpt>
      <trkpt lat="43.39281" lon="6.6671">
        <ele>18.39999961853</ele>
        <time>2018-10-14T09:33:46Z</time>
      </trkpt>
      <trkpt lat="43.3928" lon="6.66698">
        <ele>19.200000762939</ele>
        <time>2018-10-14T09:33:53Z</time>
      </trkpt>
      <trkpt lat="43.39278" lon="6.6669">
        <ele>19.60000038147</ele>
        <time>2018-10-14T09:33:57Z</time>
      </trkpt>
      <trkpt lat="43.39278" lon="6.66687">
        <ele>20</ele>
        <time>2018-10-14T09:33:59Z</time>
      </trkpt>
      <trkpt lat="43.39274" lon="6.6668">
        <ele>20.60000038147</ele>
        <time>2018-10-14T09:34:04Z</time>
      </trkpt>
      <trkpt lat="43.39268" lon="6.66669">
        <ele>21.799999237061</ele>
        <time>2018-10-14T09:34:11Z</time>
      </trkpt>
      <trkpt lat="43.39265" lon="6.66661">
        <ele>22.200000762939</ele>
        <time>2018-10-14T09:34:15Z</time>
      </trkpt>
      <trkpt lat="43.39268" lon="6.66644">
        <ele>22.39999961853</ele>
        <time>2018-10-14T09:34:19Z</time>
      </trkpt>
      <trkpt lat="43.39275" lon="6.66629">
        <ele>22.799999237061</ele>
        <time>2018-10-14T09:34:23Z</time>
      </trkpt>
      <trkpt lat="43.39285" lon="6.66607">
        <ele>23.39999961853</ele>
        <time>2018-10-14T09:34:29Z</time>
      </trkpt>
      <trkpt lat="43.39292" lon="6.6659">
        <ele>23.799999237061</ele>
        <time>2018-10-14T09:34:33Z</time>
      </trkpt>
      <trkpt lat="43.39302" lon="6.66572">
        <ele>24</ele>
        <time>2018-10-14T09:34:37Z</time>
      </trkpt>
      <trkpt lat="43.39306" lon="6.66561">
        <ele>23.799999237061</ele>
        <time>2018-10-14T09:34:39Z</time>
      </trkpt>
      <trkpt lat="43.39312" lon="6.66541">
        <ele>23.799999237061</ele>
        <time>2018-10-14T09:34:44Z</time>
      </trkpt>
      <trkpt lat="43.39314" lon="6.6654">
        <ele>23.799999237061</ele>
        <time>2018-10-14T09:34:45Z</time>
      </trkpt>
      <trkpt lat="43.39319" lon="6.66539">
        <ele>23.799999237061</ele>
        <time>2018-10-14T09:34:47Z</time>
      </trkpt>
      <trkpt lat="43.39321" lon="6.66537">
        <ele>24</ele>
        <time>2018-10-14T09:34:48Z</time>
      </trkpt>
      <trkpt lat="43.39325" lon="6.66526">
        <ele>24.39999961853</ele>
        <time>2018-10-14T09:34:53Z</time>
      </trkpt>
      <trkpt lat="43.39329" lon="6.66512">
        <ele>25.39999961853</ele>
        <time>2018-10-14T09:35:00Z</time>
      </trkpt>
      <trkpt lat="43.39336" lon="6.66505">
        <ele>26</ele>
        <time>2018-10-14T09:35:06Z</time>
      </trkpt>
      <trkpt lat="43.39347" lon="6.66501">
        <ele>26.799999237061</ele>
        <time>2018-10-14T09:35:13Z</time>
      </trkpt>
      <trkpt lat="43.39355" lon="6.66501">
        <ele>27.60000038147</ele>
        <time>2018-10-14T09:35:20Z</time>
      </trkpt>
      <trkpt lat="43.39363" lon="6.665">
        <ele>28.200000762939</ele>
        <time>2018-10-14T09:35:26Z</time>
      </trkpt>
      <trkpt lat="43.39379" lon="6.66494">
        <ele>29.39999961853</ele>
        <time>2018-10-14T09:35:36Z</time>
      </trkpt>
      <trkpt lat="43.39392" lon="6.66488">
        <ele>30.39999961853</ele>
        <time>2018-10-14T09:35:44Z</time>
      </trkpt>
      <trkpt lat="43.39405" lon="6.66483">
        <ele>31.200000762939</ele>
        <time>2018-10-14T09:35:51Z</time>
      </trkpt>
      <trkpt lat="43.3942" lon="6.66477">
        <ele>31.799999237061</ele>
        <time>2018-10-14T09:35:58Z</time>
      </trkpt>
      <trkpt lat="43.39432" lon="6.66472">
        <ele>32.400001525879</ele>
        <time>2018-10-14T09:36:04Z</time>
      </trkpt>
      <trkpt lat="43.39445" lon="6.66466">
        <ele>33.599998474121</ele>
        <time>2018-10-14T09:36:11Z</time>
      </trkpt>
      <trkpt lat="43.39454" lon="6.66462">
        <ele>34.200000762939</ele>
        <time>2018-10-14T09:36:17Z</time>
      </trkpt>
      <trkpt lat="43.39467" lon="6.66457">
        <ele>35.200000762939</ele>
        <time>2018-10-14T09:36:25Z</time>
      </trkpt>
      <trkpt lat="43.39477" lon="6.66453">
        <ele>36</ele>
        <time>2018-10-14T09:36:31Z</time>
      </trkpt>
      <trkpt lat="43.39492" lon="6.6645">
        <ele>37.200000762939</ele>
        <time>2018-10-14T09:36:40Z</time>
      </trkpt>
      <trkpt lat="43.39502" lon="6.66446">
        <ele>38</ele>
        <time>2018-10-14T09:36:46Z</time>
      </trkpt>
      <trkpt lat="43.39515" lon="6.66443">
        <ele>38.799999237061</ele>
        <time>2018-10-14T09:36:53Z</time>
      </trkpt>
      <trkpt lat="43.3953" lon="6.6644">
        <ele>39.799999237061</ele>
        <time>2018-10-14T09:37:01Z</time>
      </trkpt>
      <trkpt lat="43.39543" lon="6.66436">
        <ele>41</ele>
        <time>2018-10-14T09:37:08Z</time>
      </trkpt>
      <trkpt lat="43.39557" lon="6.66435">
        <ele>41.799999237061</ele>
        <time>2018-10-14T09:37:14Z</time>
      </trkpt>
      <trkpt lat="43.3957" lon="6.66438">
        <ele>42.400001525879</ele>
        <time>2018-10-14T09:37:19Z</time>
      </trkpt>
      <trkpt lat="43.39585" lon="6.66443">
        <ele>43</ele>
        <time>2018-10-14T09:37:24Z</time>
      </trkpt>
      <trkpt lat="43.39608" lon="6.66444">
        <ele>43.400001525879</ele>
        <time>2018-10-14T09:37:30Z</time>
      </trkpt>
      <trkpt lat="43.39621" lon="6.66441">
        <ele>43.799999237061</ele>
        <time>2018-10-14T09:37:34Z</time>
      </trkpt>
      <trkpt lat="43.39645" lon="6.66434">
        <ele>45.200000762939</ele>
        <time>2018-10-14T09:37:43Z</time>
      </trkpt>
      <trkpt lat="43.39657" lon="6.66426">
        <ele>46</ele>
        <time>2018-10-14T09:37:49Z</time>
      </trkpt>
      <trkpt lat="43.39668" lon="6.6642">
        <ele>47</ele>
        <time>2018-10-14T09:37:55Z</time>
      </trkpt>
      <trkpt lat="43.39681" lon="6.66419">
        <ele>47.599998474121</ele>
        <time>2018-10-14T09:37:59Z</time>
      </trkpt>
      <trkpt lat="43.39689" lon="6.66431">
        <ele>48.400001525879</ele>
        <time>2018-10-14T09:38:03Z</time>
      </trkpt>
      <trkpt lat="43.39696" lon="6.66445">
        <ele>49.400001525879</ele>
        <time>2018-10-14T09:38:08Z</time>
      </trkpt>
      <trkpt lat="43.397" lon="6.66448">
        <ele>49.599998474121</ele>
        <time>2018-10-14T09:38:10Z</time>
      </trkpt>
      <trkpt lat="43.39702" lon="6.66444">
        <ele>50</ele>
        <time>2018-10-14T09:38:12Z</time>
      </trkpt>
      <trkpt lat="43.39701" lon="6.66433">
        <ele>50.599998474121</ele>
        <time>2018-10-14T09:38:16Z</time>
      </trkpt>
      <trkpt lat="43.39698" lon="6.66414">
        <ele>51.400001525879</ele>
        <time>2018-10-14T09:38:22Z</time>
      </trkpt>
      <trkpt lat="43.39702" lon="6.66399">
        <ele>52.400001525879</ele>
        <time>2018-10-14T09:38:27Z</time>
      </trkpt>
      <trkpt lat="43.39714" lon="6.66389">
        <ele>53.599998474121</ele>
        <time>2018-10-14T09:38:34Z</time>
      </trkpt>
      <trkpt lat="43.39718" lon="6.66389">
        <ele>53.799999237061</ele>
        <time>2018-10-14T09:38:36Z</time>
      </trkpt>
      <trkpt lat="43.39724" lon="6.6639">
        <ele>54.400001525879</ele>
        <time>2018-10-14T09:38:39Z</time>
      </trkpt>
      <trkpt lat="43.39735" lon="6.66396">
        <ele>55.200000762939</ele>
        <time>2018-10-14T09:38:45Z</time>
      </trkpt>
      <trkpt lat="43.39747" lon="6.66403">
        <ele>56.400001525879</ele>
        <time>2018-10-14T09:38:52Z</time>
      </trkpt>
      <trkpt lat="43.39757" lon="6.66409">
        <ele>57.599998474121</ele>
        <time>2018-10-14T09:38:58Z</time>
      </trkpt>
      <trkpt lat="43.39768" lon="6.66414">
        <ele>58.599998474121</ele>
        <time>2018-10-14T09:39:04Z</time>
      </trkpt>
      <trkpt lat="43.39781" lon="6.66409">
        <ele>59.799999237061</ele>
        <time>2018-10-14T09:39:11Z</time>
      </trkpt>
      <trkpt lat="43.39788" lon="6.66401">
        <ele>60.799999237061</ele>
        <time>2018-10-14T09:39:16Z</time>
      </trkpt>
      <trkpt lat="43.3979" lon="6.66396">
        <ele>61.200000762939</ele>
        <time>2018-10-14T09:39:18Z</time>
      </trkpt>
      <trkpt lat="43.39795" lon="6.66379">
        <ele>62.200000762939</ele>
        <time>2018-10-14T09:39:24Z</time>
      </trkpt>
      <trkpt lat="43.39798" lon="6.6636">
        <ele>63.400001525879</ele>
        <time>2018-10-14T09:39:30Z</time>
      </trkpt>
      <trkpt lat="43.398" lon="6.6634">
        <ele>64.599998474121</ele>
        <time>2018-10-14T09:39:36Z</time>
      </trkpt>
      <trkpt lat="43.39797" lon="6.66317">
        <ele>65.199996948242</ele>
        <time>2018-10-14T09:39:41Z</time>
      </trkpt>
      <trkpt lat="43.39787" lon="6.66301">
        <ele>66.199996948242</ele>
        <time>2018-10-14T09:39:46Z</time>
      </trkpt>
      <trkpt lat="43.39776" lon="6.66289">
        <ele>67.199996948242</ele>
        <time>2018-10-14T09:39:52Z</time>
      </trkpt>
      <trkpt lat="43.39767" lon="6.66272">
        <ele>68.800003051758</ele>
        <time>2018-10-14T09:40:00Z</time>
      </trkpt>
      <trkpt lat="43.39767" lon="6.6627">
        <ele>69</ele>
        <time>2018-10-14T09:40:01Z</time>
      </trkpt>
      <trkpt lat="43.39773" lon="6.66266">
        <ele>69.599998474121</ele>
        <time>2018-10-14T09:40:04Z</time>
      </trkpt>
      <trkpt lat="43.39782" lon="6.6627">
        <ele>70.599998474121</ele>
        <time>2018-10-14T09:40:09Z</time>
      </trkpt>
      <trkpt lat="43.39791" lon="6.66267">
        <ele>72</ele>
        <time>2018-10-14T09:40:15Z</time>
      </trkpt>
      <trkpt lat="43.39793" lon="6.66263">
        <ele>72.400001525879</ele>
        <time>2018-10-14T09:40:17Z</time>
      </trkpt>
      <trkpt lat="43.39793" lon="6.66256">
        <ele>73</ele>
        <time>2018-10-14T09:40:20Z</time>
      </trkpt>
      <trkpt lat="43.39786" lon="6.66243">
        <ele>74</ele>
        <time>2018-10-14T09:40:26Z</time>
      </trkpt>
      <trkpt lat="43.39777" lon="6.66232">
        <ele>75</ele>
        <time>2018-10-14T09:40:32Z</time>
      </trkpt>
      <trkpt lat="43.3977" lon="6.66213">
        <ele>76.400001525879</ele>
        <time>2018-10-14T09:40:40Z</time>
      </trkpt>
      <trkpt lat="43.39772" lon="6.66205">
        <ele>77</ele>
        <time>2018-10-14T09:40:43Z</time>
      </trkpt>
      <trkpt lat="43.39774" lon="6.66204">
        <ele>77.199996948242</ele>
        <time>2018-10-14T09:40:44Z</time>
      </trkpt>
      <trkpt lat="43.39786" lon="6.66208">
        <ele>78.199996948242</ele>
        <time>2018-10-14T09:40:50Z</time>
      </trkpt>
      <trkpt lat="43.39796" lon="6.66213">
        <ele>79.400001525879</ele>
        <time>2018-10-14T09:40:56Z</time>
      </trkpt>
      <trkpt lat="43.39806" lon="6.66209">
        <ele>80.400001525879</ele>
        <time>2018-10-14T09:41:02Z</time>
      </trkpt>
      <trkpt lat="43.39811" lon="6.66194">
        <ele>81.599998474121</ele>
        <time>2018-10-14T09:41:08Z</time>
      </trkpt>
      <trkpt lat="43.39818" lon="6.66178">
        <ele>83</ele>
        <time>2018-10-14T09:41:15Z</time>
      </trkpt>
      <trkpt lat="43.39827" lon="6.66166">
        <ele>84.400001525879</ele>
        <time>2018-10-14T09:41:22Z</time>
      </trkpt>
      <trkpt lat="43.39834" lon="6.66154">
        <ele>85.599998474121</ele>
        <time>2018-10-14T09:41:28Z</time>
      </trkpt>
      <trkpt lat="43.39844" lon="6.66141">
        <ele>86.800003051758</ele>
        <time>2018-10-14T09:41:35Z</time>
      </trkpt>
      <trkpt lat="43.39854" lon="6.66128">
        <ele>87.800003051758</ele>
        <time>2018-10-14T09:41:42Z</time>
      </trkpt>
      <trkpt lat="43.39864" lon="6.66118">
        <ele>88.800003051758</ele>
        <time>2018-10-14T09:41:48Z</time>
      </trkpt>
      <trkpt lat="43.39871" lon="6.66108">
        <ele>90</ele>
        <time>2018-10-14T09:41:54Z</time>
      </trkpt>
      <trkpt lat="43.39879" lon="6.66095">
        <ele>91.400001525879</ele>
        <time>2018-10-14T09:42:02Z</time>
      </trkpt>
      <trkpt lat="43.39885" lon="6.66082">
        <ele>92.400001525879</ele>
        <time>2018-10-14T09:42:08Z</time>
      </trkpt>
      <trkpt lat="43.39891" lon="6.66072">
        <ele>93.199996948242</ele>
        <time>2018-10-14T09:42:14Z</time>
      </trkpt>
      <trkpt lat="43.39897" lon="6.66058">
        <ele>94.599998474121</ele>
        <time>2018-10-14T09:42:22Z</time>
      </trkpt>
      <trkpt lat="43.39898" lon="6.66051">
        <ele>95.400001525879</ele>
        <time>2018-10-14T09:42:26Z</time>
      </trkpt>
      <trkpt lat="43.39899" lon="6.66047">
        <ele>95.800003051758</ele>
        <time>2018-10-14T09:42:28Z</time>
      </trkpt>
      <trkpt lat="43.39902" lon="6.66034">
        <ele>96.599998474121</ele>
        <time>2018-10-14T09:42:34Z</time>
      </trkpt>
      <trkpt lat="43.39905" lon="6.66022">
        <ele>97.400001525879</ele>
        <time>2018-10-14T09:42:40Z</time>
      </trkpt>
      <trkpt lat="43.3991" lon="6.66004">
        <ele>98.199996948242</ele>
        <time>2018-10-14T09:42:47Z</time>
      </trkpt>
      <trkpt lat="43.39914" lon="6.65987">
        <ele>99.199996948242</ele>
        <time>2018-10-14T09:42:53Z</time>
      </trkpt>
      <trkpt lat="43.39915" lon="6.65969">
        <ele>100</ele>
        <time>2018-10-14T09:42:59Z</time>
      </trkpt>
      <trkpt lat="43.39916" lon="6.65956">
        <ele>100.80000305176</ele>
        <time>2018-10-14T09:43:04Z</time>
      </trkpt>
      <trkpt lat="43.39917" lon="6.65937">
        <ele>101.80000305176</ele>
        <time>2018-10-14T09:43:12Z</time>
      </trkpt>
      <trkpt lat="43.39916" lon="6.6592">
        <ele>102.80000305176</ele>
        <time>2018-10-14T09:43:19Z</time>
      </trkpt>
      <trkpt lat="43.39914" lon="6.65901">
        <ele>103.80000305176</ele>
        <time>2018-10-14T09:43:27Z</time>
      </trkpt>
      <trkpt lat="43.39912" lon="6.65881">
        <ele>105</ele>
        <time>2018-10-14T09:43:35Z</time>
      </trkpt>
      <trkpt lat="43.3991" lon="6.65861">
        <ele>106.19999694824</ele>
        <time>2018-10-14T09:43:43Z</time>
      </trkpt>
      <trkpt lat="43.39914" lon="6.65845">
        <ele>107.19999694824</ele>
        <time>2018-10-14T09:43:49Z</time>
      </trkpt>
      <trkpt lat="43.3992" lon="6.65834">
        <ele>108.19999694824</ele>
        <time>2018-10-14T09:43:54Z</time>
      </trkpt>
      <trkpt lat="43.39931" lon="6.65824">
        <ele>109.40000152588</ele>
        <time>2018-10-14T09:44:01Z</time>
      </trkpt>
      <trkpt lat="43.3994" lon="6.65817">
        <ele>110.59999847412</ele>
        <time>2018-10-14T09:44:07Z</time>
      </trkpt>
      <trkpt lat="43.39953" lon="6.65808">
        <ele>112</ele>
        <time>2018-10-14T09:44:15Z</time>
      </trkpt>
      <trkpt lat="43.39968" lon="6.65799">
        <ele>113.40000152588</ele>
        <time>2018-10-14T09:44:24Z</time>
      </trkpt>
      <trkpt lat="43.3998" lon="6.65797">
        <ele>114.19999694824</ele>
        <time>2018-10-14T09:44:30Z</time>
      </trkpt>
      <trkpt lat="43.3999" lon="6.65792">
        <ele>115.19999694824</ele>
        <time>2018-10-14T09:44:36Z</time>
      </trkpt>
      <trkpt lat="43.40001" lon="6.65784">
        <ele>116.40000152588</ele>
        <time>2018-10-14T09:44:43Z</time>
      </trkpt>
      <trkpt lat="43.40008" lon="6.65776">
        <ele>117.19999694824</ele>
        <time>2018-10-14T09:44:48Z</time>
      </trkpt>
      <trkpt lat="43.4001" lon="6.65773">
        <ele>117.59999847412</ele>
        <time>2018-10-14T09:44:50Z</time>
      </trkpt>
      <trkpt lat="43.40018" lon="6.65755">
        <ele>118.80000305176</ele>
        <time>2018-10-14T09:44:58Z</time>
      </trkpt>
      <trkpt lat="43.40023" lon="6.65736">
        <ele>120.19999694824</ele>
        <time>2018-10-14T09:45:06Z</time>
      </trkpt>
      <trkpt lat="43.40029" lon="6.65711">
        <ele>122.19999694824</ele>
        <time>2018-10-14T09:45:16Z</time>
      </trkpt>
      <trkpt lat="43.40029" lon="6.65706">
        <ele>122.59999847412</ele>
        <time>2018-10-14T09:45:18Z</time>
      </trkpt>
      <trkpt lat="43.40032" lon="6.65696">
        <ele>123.40000152588</ele>
        <time>2018-10-14T09:45:22Z</time>
      </trkpt>
      <trkpt lat="43.40035" lon="6.65678">
        <ele>124.40000152588</ele>
        <time>2018-10-14T09:45:29Z</time>
      </trkpt>
      <trkpt lat="43.40036" lon="6.65664">
        <ele>125.19999694824</ele>
        <time>2018-10-14T09:45:35Z</time>
      </trkpt>
      <trkpt lat="43.40033" lon="6.65647">
        <ele>126.40000152588</ele>
        <time>2018-10-14T09:45:43Z</time>
      </trkpt>
      <trkpt lat="43.40032" lon="6.65633">
        <ele>127</ele>
        <time>2018-10-14T09:45:49Z</time>
      </trkpt>
      <trkpt lat="43.4003" lon="6.65617">
        <ele>127.80000305176</ele>
        <time>2018-10-14T09:45:56Z</time>
      </trkpt>
      <trkpt lat="43.40027" lon="6.65604">
        <ele>128.80000305176</ele>
        <time>2018-10-14T09:46:02Z</time>
      </trkpt>
      <trkpt lat="43.40025" lon="6.6559">
        <ele>129.80000305176</ele>
        <time>2018-10-14T09:46:08Z</time>
      </trkpt>
      <trkpt lat="43.4002" lon="6.65574">
        <ele>131.19999694824</ele>
        <time>2018-10-14T09:46:15Z</time>
      </trkpt>
      <trkpt lat="43.40016" lon="6.65562">
        <ele>132.39999389648</ele>
        <time>2018-10-14T09:46:21Z</time>
      </trkpt>
      <trkpt lat="43.40008" lon="6.65543">
        <ele>134.39999389648</ele>
        <time>2018-10-14T09:46:30Z</time>
      </trkpt>
      <trkpt lat="43.40002" lon="6.65526">
        <ele>136</ele>
        <time>2018-10-14T09:46:38Z</time>
      </trkpt>
      <trkpt lat="43.3999" lon="6.65512">
        <ele>137.60000610352</ele>
        <time>2018-10-14T09:46:47Z</time>
      </trkpt>
      <trkpt lat="43.39979" lon="6.65503">
        <ele>139</ele>
        <time>2018-10-14T09:46:54Z</time>
      </trkpt>
      <trkpt lat="43.39969" lon="6.65496">
        <ele>140.19999694824</ele>
        <time>2018-10-14T09:47:00Z</time>
      </trkpt>
      <trkpt lat="43.39959" lon="6.65491">
        <ele>141.39999389648</ele>
        <time>2018-10-14T09:47:06Z</time>
      </trkpt>
      <trkpt lat="43.39944" lon="6.65485">
        <ele>143.19999694824</ele>
        <time>2018-10-14T09:47:14Z</time>
      </trkpt>
      <trkpt lat="43.39933" lon="6.65481">
        <ele>144.39999389648</ele>
        <time>2018-10-14T09:47:20Z</time>
      </trkpt>
      <trkpt lat="43.39919" lon="6.65475">
        <ele>145.80000305176</ele>
        <time>2018-10-14T09:47:27Z</time>
      </trkpt>
      <trkpt lat="43.39909" lon="6.65465">
        <ele>147.19999694824</ele>
        <time>2018-10-14T09:47:33Z</time>
      </trkpt>
      <trkpt lat="43.39897" lon="6.65451">
        <ele>148.80000305176</ele>
        <time>2018-10-14T09:47:41Z</time>
      </trkpt>
      <trkpt lat="43.39892" lon="6.65435">
        <ele>149.80000305176</ele>
        <time>2018-10-14T09:47:47Z</time>
      </trkpt>
      <trkpt lat="43.3989" lon="6.65415">
        <ele>151</ele>
        <time>2018-10-14T09:47:54Z</time>
      </trkpt>
      <trkpt lat="43.39889" lon="6.65392">
        <ele>152.19999694824</ele>
        <time>2018-10-14T09:48:01Z</time>
      </trkpt>
      <trkpt lat="43.39885" lon="6.65373">
        <ele>153.19999694824</ele>
        <time>2018-10-14T09:48:07Z</time>
      </trkpt>
      <trkpt lat="43.39881" lon="6.65356">
        <ele>154</ele>
        <time>2018-10-14T09:48:12Z</time>
      </trkpt>
      <trkpt lat="43.39879" lon="6.65354">
        <ele>154.19999694824</ele>
        <time>2018-10-14T09:48:13Z</time>
      </trkpt>
      <trkpt lat="43.39867" lon="6.65348">
        <ele>155.19999694824</ele>
        <time>2018-10-14T09:48:19Z</time>
      </trkpt>
      <trkpt lat="43.39852" lon="6.65346">
        <ele>156.39999389648</ele>
        <time>2018-10-14T09:48:26Z</time>
      </trkpt>
      <trkpt lat="43.39838" lon="6.65336">
        <ele>157.60000610352</ele>
        <time>2018-10-14T09:48:34Z</time>
      </trkpt>
      <trkpt lat="43.39828" lon="6.65322">
        <ele>158.80000305176</ele>
        <time>2018-10-14T09:48:41Z</time>
      </trkpt>
      <trkpt lat="43.39823" lon="6.65304">
        <ele>159.80000305176</ele>
        <time>2018-10-14T09:48:48Z</time>
      </trkpt>
      <trkpt lat="43.39815" lon="6.65294">
        <ele>160.39999389648</ele>
        <time>2018-10-14T09:48:53Z</time>
      </trkpt>
      <trkpt lat="43.39804" lon="6.65292">
        <ele>161.19999694824</ele>
        <time>2018-10-14T09:48:58Z</time>
      </trkpt>
      <trkpt lat="43.39802" lon="6.65293">
        <ele>161.19999694824</ele>
        <time>2018-10-14T09:48:59Z</time>
      </trkpt>
      <trkpt lat="43.39797" lon="6.65297">
        <ele>161.60000610352</ele>
        <time>2018-10-14T09:49:01Z</time>
      </trkpt>
      <trkpt lat="43.39786" lon="6.65315">
        <ele>162.80000305176</ele>
        <time>2018-10-14T09:49:09Z</time>
      </trkpt>
      <trkpt lat="43.39776" lon="6.65324">
        <ele>163.39999389648</ele>
        <time>2018-10-14T09:49:14Z</time>
      </trkpt>
      <trkpt lat="43.39759" lon="6.65334">
        <ele>164.19999694824</ele>
        <time>2018-10-14T09:49:20Z</time>
      </trkpt>
      <trkpt lat="43.39736" lon="6.65347">
        <ele>165.39999389648</ele>
        <time>2018-10-14T09:49:28Z</time>
      </trkpt>
      <trkpt lat="43.39724" lon="6.65358">
        <ele>166.19999694824</ele>
        <time>2018-10-14T09:49:33Z</time>
      </trkpt>
      <trkpt lat="43.39718" lon="6.65373">
        <ele>166.60000610352</ele>
        <time>2018-10-14T09:49:37Z</time>
      </trkpt>
      <trkpt lat="43.39707" lon="6.6539">
        <ele>167.39999389648</ele>
        <time>2018-10-14T09:49:43Z</time>
      </trkpt>
      <trkpt lat="43.3969" lon="6.65404">
        <ele>168.60000610352</ele>
        <time>2018-10-14T09:49:50Z</time>
      </trkpt>
      <trkpt lat="43.39672" lon="6.65413">
        <ele>169.60000610352</ele>
        <time>2018-10-14T09:49:57Z</time>
      </trkpt>
      <trkpt lat="43.39651" lon="6.65405">
        <ele>170.80000305176</ele>
        <time>2018-10-14T09:50:05Z</time>
      </trkpt>
      <trkpt lat="43.39633" lon="6.65387">
        <ele>172</ele>
        <time>2018-10-14T09:50:13Z</time>
      </trkpt>
      <trkpt lat="43.39617" lon="6.65368">
        <ele>173</ele>
        <time>2018-10-14T09:50:20Z</time>
      </trkpt>
      <trkpt lat="43.39597" lon="6.65344">
        <ele>173.80000305176</ele>
        <time>2018-10-14T09:50:27Z</time>
      </trkpt>
      <trkpt lat="43.39575" lon="6.65319">
        <ele>174.39999389648</ele>
        <time>2018-10-14T09:50:33Z</time>
      </trkpt>
      <trkpt lat="43.39546" lon="6.653">
        <ele>175</ele>
        <time>2018-10-14T09:50:40Z</time>
      </trkpt>
      <trkpt lat="43.39531" lon="6.65291">
        <ele>175.39999389648</ele>
        <time>2018-10-14T09:50:45Z</time>
      </trkpt>
      <trkpt lat="43.39514" lon="6.65279">
        <ele>176.39999389648</ele>
        <time>2018-10-14T09:50:52Z</time>
      </trkpt>
      <trkpt lat="43.39499" lon="6.6527">
        <ele>177.39999389648</ele>
        <time>2018-10-14T09:50:59Z</time>
      </trkpt>
      <trkpt lat="43.39484" lon="6.6526">
        <ele>178.39999389648</ele>
        <time>2018-10-14T09:51:06Z</time>
      </trkpt>
      <trkpt lat="43.39472" lon="6.65249">
        <ele>179.39999389648</ele>
        <time>2018-10-14T09:51:13Z</time>
      </trkpt>
      <trkpt lat="43.39463" lon="6.65241">
        <ele>180.19999694824</ele>
        <time>2018-10-14T09:51:18Z</time>
      </trkpt>
      <trkpt lat="43.39456" lon="6.6523">
        <ele>180.80000305176</ele>
        <time>2018-10-14T09:51:24Z</time>
      </trkpt>
      <trkpt lat="43.39456" lon="6.65226">
        <ele>181</ele>
        <time>2018-10-14T09:51:26Z</time>
      </trkpt>
      <trkpt lat="43.39458" lon="6.65221">
        <ele>181.60000610352</ele>
        <time>2018-10-14T09:51:29Z</time>
      </trkpt>
      <trkpt lat="43.39467" lon="6.65216">
        <ele>182.60000610352</ele>
        <time>2018-10-14T09:51:36Z</time>
      </trkpt>
      <trkpt lat="43.39479" lon="6.65216">
        <ele>183.80000305176</ele>
        <time>2018-10-14T09:51:45Z</time>
      </trkpt>
      <trkpt lat="43.39489" lon="6.65217">
        <ele>185</ele>
        <time>2018-10-14T09:51:53Z</time>
      </trkpt>
      <trkpt lat="43.39499" lon="6.65217">
        <ele>186.19999694824</ele>
        <time>2018-10-14T09:52:01Z</time>
      </trkpt>
      <trkpt lat="43.39501" lon="6.65216">
        <ele>186.60000610352</ele>
        <time>2018-10-14T09:52:03Z</time>
      </trkpt>
      <trkpt lat="43.39505" lon="6.65216">
        <ele>187.39999389648</ele>
        <time>2018-10-14T09:52:07Z</time>
      </trkpt>
      <trkpt lat="43.39514" lon="6.65215">
        <ele>188.80000305176</ele>
        <time>2018-10-14T09:52:15Z</time>
      </trkpt>
      <trkpt lat="43.39524" lon="6.65213">
        <ele>190</ele>
        <time>2018-10-14T09:52:23Z</time>
      </trkpt>
      <trkpt lat="43.39533" lon="6.65213">
        <ele>191.19999694824</ele>
        <time>2018-10-14T09:52:30Z</time>
      </trkpt>
      <trkpt lat="43.39541" lon="6.65212">
        <ele>192</ele>
        <time>2018-10-14T09:52:36Z</time>
      </trkpt>
      <trkpt lat="43.39547" lon="6.65213">
        <ele>193.19999694824</ele>
        <time>2018-10-14T09:52:42Z</time>
      </trkpt>
      <trkpt lat="43.39554" lon="6.65214">
        <ele>193.80000305176</ele>
        <time>2018-10-14T09:52:48Z</time>
      </trkpt>
      <trkpt lat="43.39564" lon="6.65215">
        <ele>194.80000305176</ele>
        <time>2018-10-14T09:52:57Z</time>
      </trkpt>
      <trkpt lat="43.39575" lon="6.65215">
        <ele>196.19999694824</ele>
        <time>2018-10-14T09:53:06Z</time>
      </trkpt>
      <trkpt lat="43.39589" lon="6.65215">
        <ele>198</ele>
        <time>2018-10-14T09:53:16Z</time>
      </trkpt>
      <trkpt lat="43.39601" lon="6.65215">
        <ele>199.60000610352</ele>
        <time>2018-10-14T09:53:25Z</time>
      </trkpt>
      <trkpt lat="43.39605" lon="6.65215">
        <ele>200.19999694824</ele>
        <time>2018-10-14T09:53:29Z</time>
      </trkpt>
      <trkpt lat="43.39608" lon="6.65214">
        <ele>200.80000305176</ele>
        <time>2018-10-14T09:53:32Z</time>
      </trkpt>
      <trkpt lat="43.39616" lon="6.65213">
        <ele>202.19999694824</ele>
        <time>2018-10-14T09:53:39Z</time>
      </trkpt>
      <trkpt lat="43.39625" lon="6.65211">
        <ele>204</ele>
        <time>2018-10-14T09:53:47Z</time>
      </trkpt>
      <trkpt lat="43.39633" lon="6.65209">
        <ele>205.60000610352</ele>
        <time>2018-10-14T09:53:55Z</time>
      </trkpt>
      <trkpt lat="43.39634" lon="6.65209">
        <ele>205.80000305176</ele>
        <time>2018-10-14T09:53:56Z</time>
      </trkpt>
      <trkpt lat="43.39636" lon="6.65207">
        <ele>206.19999694824</ele>
        <time>2018-10-14T09:53:58Z</time>
      </trkpt>
      <trkpt lat="43.39638" lon="6.65206">
        <ele>206.80000305176</ele>
        <time>2018-10-14T09:54:00Z</time>
      </trkpt>
      <trkpt lat="43.39646" lon="6.65201">
        <ele>208.39999389648</ele>
        <time>2018-10-14T09:54:08Z</time>
      </trkpt>
      <trkpt lat="43.39651" lon="6.65194">
        <ele>209.80000305176</ele>
        <time>2018-10-14T09:54:14Z</time>
      </trkpt>
      <trkpt lat="43.39655" lon="6.65189">
        <ele>210.80000305176</ele>
        <time>2018-10-14T09:54:19Z</time>
      </trkpt>
      <trkpt lat="43.39657" lon="6.65187">
        <ele>211.39999389648</ele>
        <time>2018-10-14T09:54:21Z</time>
      </trkpt>
      <trkpt lat="43.39661" lon="6.65176">
        <ele>213.19999694824</ele>
        <time>2018-10-14T09:54:29Z</time>
      </trkpt>
      <trkpt lat="43.39667" lon="6.65159">
        <ele>215.39999389648</ele>
        <time>2018-10-14T09:54:40Z</time>
      </trkpt>
      <trkpt lat="43.39672" lon="6.65149">
        <ele>216.80000305176</ele>
        <time>2018-10-14T09:54:47Z</time>
      </trkpt>
      <trkpt lat="43.39677" lon="6.65136">
        <ele>218.39999389648</ele>
        <time>2018-10-14T09:54:55Z</time>
      </trkpt>
      <trkpt lat="43.39683" lon="6.65123">
        <ele>220.39999389648</ele>
        <time>2018-10-14T09:55:03Z</time>
      </trkpt>
      <trkpt lat="43.39688" lon="6.65106">
        <ele>222</ele>
        <time>2018-10-14T09:55:12Z</time>
      </trkpt>
      <trkpt lat="43.39693" lon="6.65092">
        <ele>223.19999694824</ele>
        <time>2018-10-14T09:55:19Z</time>
      </trkpt>
      <trkpt lat="43.39698" lon="6.65078">
        <ele>224.39999389648</ele>
        <time>2018-10-14T09:55:26Z</time>
      </trkpt>
      <trkpt lat="43.39706" lon="6.6506">
        <ele>226</ele>
        <time>2018-10-14T09:55:35Z</time>
      </trkpt>
      <trkpt lat="43.39717" lon="6.65047">
        <ele>227.39999389648</ele>
        <time>2018-10-14T09:55:43Z</time>
      </trkpt>
      <trkpt lat="43.39729" lon="6.6504">
        <ele>228.60000610352</ele>
        <time>2018-10-14T09:55:51Z</time>
      </trkpt>
      <trkpt lat="43.39741" lon="6.65036">
        <ele>229.80000305176</ele>
        <time>2018-10-14T09:55:59Z</time>
      </trkpt>
      <trkpt lat="43.39751" lon="6.65032">
        <ele>231.19999694824</ele>
        <time>2018-10-14T09:56:06Z</time>
      </trkpt>
      <trkpt lat="43.3976" lon="6.65024">
        <ele>232.19999694824</ele>
        <time>2018-10-14T09:56:13Z</time>
      </trkpt>
      <trkpt lat="43.39769" lon="6.65015">
        <ele>233.39999389648</ele>
        <time>2018-10-14T09:56:21Z</time>
      </trkpt>
      <trkpt lat="43.3978" lon="6.65011">
        <ele>234.60000610352</ele>
        <time>2018-10-14T09:56:29Z</time>
      </trkpt>
      <trkpt lat="43.39789" lon="6.65009">
        <ele>235.80000305176</ele>
        <time>2018-10-14T09:56:36Z</time>
      </trkpt>
      <trkpt lat="43.39794" lon="6.65008">
        <ele>236.39999389648</ele>
        <time>2018-10-14T09:56:40Z</time>
      </trkpt>
      <trkpt lat="43.39797" lon="6.65008">
        <ele>236.80000305176</ele>
        <time>2018-10-14T09:56:42Z</time>
      </trkpt>
      <trkpt lat="43.39805" lon="6.65005">
        <ele>237.80000305176</ele>
        <time>2018-10-14T09:56:48Z</time>
      </trkpt>
      <trkpt lat="43.39812" lon="6.65004">
        <ele>238.80000305176</ele>
        <time>2018-10-14T09:56:53Z</time>
      </trkpt>
      <trkpt lat="43.39814" lon="6.65004">
        <ele>239.19999694824</ele>
        <time>2018-10-14T09:56:55Z</time>
      </trkpt>
      <trkpt lat="43.39824" lon="6.65002">
        <ele>240.80000305176</ele>
        <time>2018-10-14T09:57:03Z</time>
      </trkpt>
      <trkpt lat="43.39833" lon="6.64999">
        <ele>242.19999694824</ele>
        <time>2018-10-14T09:57:11Z</time>
      </trkpt>
      <trkpt lat="43.39841" lon="6.64993">
        <ele>243.39999389648</ele>
        <time>2018-10-14T09:57:18Z</time>
      </trkpt>
      <trkpt lat="43.3985" lon="6.64987">
        <ele>245</ele>
        <time>2018-10-14T09:57:27Z</time>
      </trkpt>
      <trkpt lat="43.39852" lon="6.64985">
        <ele>245.39999389648</ele>
        <time>2018-10-14T09:57:29Z</time>
      </trkpt>
      <trkpt lat="43.39857" lon="6.64981">
        <ele>246.39999389648</ele>
        <time>2018-10-14T09:57:34Z</time>
      </trkpt>
      <trkpt lat="43.39865" lon="6.64975">
        <ele>247.19999694824</ele>
        <time>2018-10-14T09:57:41Z</time>
      </trkpt>
      <trkpt lat="43.39872" lon="6.6497">
        <ele>248.39999389648</ele>
        <time>2018-10-14T09:57:48Z</time>
      </trkpt>
      <trkpt lat="43.39883" lon="6.64967">
        <ele>250</ele>
        <time>2018-10-14T09:57:57Z</time>
      </trkpt>
      <trkpt lat="43.39892" lon="6.64963">
        <ele>251.60000610352</ele>
        <time>2018-10-14T09:58:05Z</time>
      </trkpt>
      <trkpt lat="43.39893" lon="6.64962">
        <ele>251.80000305176</ele>
        <time>2018-10-14T09:58:06Z</time>
      </trkpt>
      <trkpt lat="43.39897" lon="6.64962">
        <ele>252.39999389648</ele>
        <time>2018-10-14T09:58:10Z</time>
      </trkpt>
      <trkpt lat="43.39905" lon="6.6496">
        <ele>253.39999389648</ele>
        <time>2018-10-14T09:58:16Z</time>
      </trkpt>
      <trkpt lat="43.39907" lon="6.6496">
        <ele>253.60000610352</ele>
        <time>2018-10-14T09:58:17Z</time>
      </trkpt>
      <trkpt lat="43.39915" lon="6.64956">
        <ele>255</ele>
        <time>2018-10-14T09:58:25Z</time>
      </trkpt>
      <trkpt lat="43.39922" lon="6.64953">
        <ele>256.20001220703</ele>
        <time>2018-10-14T09:58:32Z</time>
      </trkpt>
      <trkpt lat="43.39928" lon="6.64946">
        <ele>257.60000610352</ele>
        <time>2018-10-14T09:58:38Z</time>
      </trkpt>
      <trkpt lat="43.3993" lon="6.64944">
        <ele>258</ele>
        <time>2018-10-14T09:58:41Z</time>
      </trkpt>
      <trkpt lat="43.39933" lon="6.64941">
        <ele>258.60000610352</ele>
        <time>2018-10-14T09:58:44Z</time>
      </trkpt>
      <trkpt lat="43.3994" lon="6.64938">
        <ele>260</ele>
        <time>2018-10-14T09:58:51Z</time>
      </trkpt>
      <trkpt lat="43.39946" lon="6.64935">
        <ele>261.20001220703</ele>
        <time>2018-10-14T09:58:58Z</time>
      </trkpt>
      <trkpt lat="43.39955" lon="6.64936">
        <ele>262.79998779297</ele>
        <time>2018-10-14T09:59:06Z</time>
      </trkpt>
      <trkpt lat="43.39961" lon="6.64936">
        <ele>263.79998779297</ele>
        <time>2018-10-14T09:59:12Z</time>
      </trkpt>
      <trkpt lat="43.39962" lon="6.64935">
        <ele>264</ele>
        <time>2018-10-14T09:59:13Z</time>
      </trkpt>
      <trkpt lat="43.39969" lon="6.64935">
        <ele>265.39999389648</ele>
        <time>2018-10-14T09:59:20Z</time>
      </trkpt>
      <trkpt lat="43.39978" lon="6.64936">
        <ele>266.79998779297</ele>
        <time>2018-10-14T09:59:27Z</time>
      </trkpt>
      <trkpt lat="43.39985" lon="6.64939">
        <ele>268.39999389648</ele>
        <time>2018-10-14T09:59:35Z</time>
      </trkpt>
      <trkpt lat="43.39992" lon="6.64941">
        <ele>269.60000610352</ele>
        <time>2018-10-14T09:59:41Z</time>
      </trkpt>
      <trkpt lat="43.39999" lon="6.64942">
        <ele>271</ele>
        <time>2018-10-14T09:59:47Z</time>
      </trkpt>
      <trkpt lat="43.40001" lon="6.64942">
        <ele>271.39999389648</ele>
        <time>2018-10-14T09:59:49Z</time>
      </trkpt>
      <trkpt lat="43.4001" lon="6.6494">
        <ele>273.20001220703</ele>
        <time>2018-10-14T09:59:57Z</time>
      </trkpt>
      <trkpt lat="43.40017" lon="6.64937">
        <ele>275</ele>
        <time>2018-10-14T10:00:05Z</time>
      </trkpt>
      <trkpt lat="43.40022" lon="6.64936">
        <ele>276.20001220703</ele>
        <time>2018-10-14T10:00:09Z</time>
      </trkpt>
      <trkpt lat="43.40025" lon="6.64935">
        <ele>276.79998779297</ele>
        <time>2018-10-14T10:00:12Z</time>
      </trkpt>
      <trkpt lat="43.40026" lon="6.64935">
        <ele>277</ele>
        <time>2018-10-14T10:00:13Z</time>
      </trkpt>
      <trkpt lat="43.40032" lon="6.64932">
        <ele>278.39999389648</ele>
        <time>2018-10-14T10:00:19Z</time>
      </trkpt>
      <trkpt lat="43.40039" lon="6.64924">
        <ele>280.20001220703</ele>
        <time>2018-10-14T10:00:28Z</time>
      </trkpt>
      <trkpt lat="43.40041" lon="6.64922">
        <ele>280.79998779297</ele>
        <time>2018-10-14T10:00:30Z</time>
      </trkpt>
      <trkpt lat="43.40045" lon="6.64919">
        <ele>281.60000610352</ele>
        <time>2018-10-14T10:00:34Z</time>
      </trkpt>
      <trkpt lat="43.40048" lon="6.64916">
        <ele>282.39999389648</ele>
        <time>2018-10-14T10:00:37Z</time>
      </trkpt>
      <trkpt lat="43.4005" lon="6.64912">
        <ele>283</ele>
        <time>2018-10-14T10:00:40Z</time>
      </trkpt>
      <trkpt lat="43.40055" lon="6.64905">
        <ele>284.60000610352</ele>
        <time>2018-10-14T10:00:47Z</time>
      </trkpt>
      <trkpt lat="43.4006" lon="6.64899">
        <ele>286.39999389648</ele>
        <time>2018-10-14T10:00:54Z</time>
      </trkpt>
      <trkpt lat="43.40067" lon="6.64894">
        <ele>288.39999389648</ele>
        <time>2018-10-14T10:01:01Z</time>
      </trkpt>
      <trkpt lat="43.40074" lon="6.64886">
        <ele>290</ele>
        <time>2018-10-14T10:01:08Z</time>
      </trkpt>
      <trkpt lat="43.4008" lon="6.64881">
        <ele>291.20001220703</ele>
        <time>2018-10-14T10:01:14Z</time>
      </trkpt>
      <trkpt lat="43.40092" lon="6.64876">
        <ele>292.79998779297</ele>
        <time>2018-10-14T10:01:22Z</time>
      </trkpt>
      <trkpt lat="43.40104" lon="6.6487">
        <ele>294.20001220703</ele>
        <time>2018-10-14T10:01:29Z</time>
      </trkpt>
      <trkpt lat="43.40114" lon="6.6486">
        <ele>295.79998779297</ele>
        <time>2018-10-14T10:01:36Z</time>
      </trkpt>
      <trkpt lat="43.40121" lon="6.64848">
        <ele>297</ele>
        <time>2018-10-14T10:01:42Z</time>
      </trkpt>
      <trkpt lat="43.40128" lon="6.64835">
        <ele>297.79998779297</ele>
        <time>2018-10-14T10:01:47Z</time>
      </trkpt>
      <trkpt lat="43.4014" lon="6.64812">
        <ele>298.39999389648</ele>
        <time>2018-10-14T10:01:53Z</time>
      </trkpt>
      <trkpt lat="43.40158" lon="6.64785">
        <ele>299</ele>
        <time>2018-10-14T10:01:58Z</time>
      </trkpt>
      <trkpt lat="43.40173" lon="6.6477">
        <ele>299.20001220703</ele>
        <time>2018-10-14T10:02:01Z</time>
      </trkpt>
      <trkpt lat="43.4018" lon="6.64766">
        <ele>299.20001220703</ele>
        <time>2018-10-14T10:02:02Z</time>
      </trkpt>
      <trkpt lat="43.40188" lon="6.64763">
        <ele>299.39999389648</ele>
        <time>2018-10-14T10:02:03Z</time>
      </trkpt>
      <trkpt lat="43.40205" lon="6.6476">
        <ele>299.39999389648</ele>
        <time>2018-10-14T10:02:05Z</time>
      </trkpt>
      <trkpt lat="43.40256" lon="6.64755">
        <ele>299.39999389648</ele>
        <time>2018-10-14T10:02:11Z</time>
      </trkpt>
      <trkpt lat="43.40291" lon="6.64748">
        <ele>299.39999389648</ele>
        <time>2018-10-14T10:02:16Z</time>
      </trkpt>
      <trkpt lat="43.40309" lon="6.64743">
        <ele>299.39999389648</ele>
        <time>2018-10-14T10:02:20Z</time>
      </trkpt>
      <trkpt lat="43.40329" lon="6.64742">
        <ele>299.39999389648</ele>
        <time>2018-10-14T10:02:25Z</time>
      </trkpt>
      <trkpt lat="43.4034" lon="6.64745">
        <ele>299.20001220703</ele>
        <time>2018-10-14T10:02:27Z</time>
      </trkpt>
      <trkpt lat="43.40352" lon="6.6475">
        <ele>299.20001220703</ele>
        <time>2018-10-14T10:02:29Z</time>
      </trkpt>
      <trkpt lat="43.40387" lon="6.64763">
        <ele>298.79998779297</ele>
        <time>2018-10-14T10:02:34Z</time>
      </trkpt>
      <trkpt lat="43.40403" lon="6.6477">
        <ele>298.60000610352</ele>
        <time>2018-10-14T10:02:37Z</time>
      </trkpt>
      <trkpt lat="43.40413" lon="6.64772">
        <ele>298.60000610352</ele>
        <time>2018-10-14T10:02:39Z</time>
      </trkpt>
      <trkpt lat="43.40429" lon="6.64774">
        <ele>298.20001220703</ele>
        <time>2018-10-14T10:02:43Z</time>
      </trkpt>
      <trkpt lat="43.40434" lon="6.64775">
        <ele>298.20001220703</ele>
        <time>2018-10-14T10:02:44Z</time>
      </trkpt>
      <trkpt lat="43.40465" lon="6.64782">
        <ele>298.20001220703</ele>
        <time>2018-10-14T10:02:49Z</time>
      </trkpt>
      <trkpt lat="43.40511" lon="6.6479">
        <ele>297.60000610352</ele>
        <time>2018-10-14T10:02:55Z</time>
      </trkpt>
      <trkpt lat="43.40554" lon="6.64798">
        <ele>297.20001220703</ele>
        <time>2018-10-14T10:03:00Z</time>
      </trkpt>
      <trkpt lat="43.40594" lon="6.64806">
        <ele>296.60000610352</ele>
        <time>2018-10-14T10:03:05Z</time>
      </trkpt>
      <trkpt lat="43.40617" lon="6.64812">
        <ele>296.39999389648</ele>
        <time>2018-10-14T10:03:09Z</time>
      </trkpt>
      <trkpt lat="43.40652" lon="6.64817">
        <ele>296.20001220703</ele>
        <time>2018-10-14T10:03:16Z</time>
      </trkpt>
      <trkpt lat="43.40677" lon="6.64825">
        <ele>296.20001220703</ele>
        <time>2018-10-14T10:03:22Z</time>
      </trkpt>
      <trkpt lat="43.40695" lon="6.64831">
        <ele>296.20001220703</ele>
        <time>2018-10-14T10:03:27Z</time>
      </trkpt>
      <trkpt lat="43.4072" lon="6.6484">
        <ele>296</ele>
        <time>2018-10-14T10:03:35Z</time>
      </trkpt>
      <trkpt lat="43.40728" lon="6.64845">
        <ele>295.79998779297</ele>
        <time>2018-10-14T10:03:37Z</time>
      </trkpt>
      <trkpt lat="43.40735" lon="6.64851">
        <ele>295.60000610352</ele>
        <time>2018-10-14T10:03:39Z</time>
      </trkpt>
      <trkpt lat="43.40739" lon="6.64855">
        <ele>295.60000610352</ele>
        <time>2018-10-14T10:03:40Z</time>
      </trkpt>
      <trkpt lat="43.40748" lon="6.64866">
        <ele>295.60000610352</ele>
        <time>2018-10-14T10:03:45Z</time>
      </trkpt>
      <trkpt lat="43.40755" lon="6.64879">
        <ele>295.60000610352</ele>
        <time>2018-10-14T10:03:51Z</time>
      </trkpt>
      <trkpt lat="43.40765" lon="6.64893">
        <ele>295.60000610352</ele>
        <time>2018-10-14T10:03:58Z</time>
      </trkpt>
      <trkpt lat="43.40774" lon="6.6491">
        <ele>296</ele>
        <time>2018-10-14T10:04:07Z</time>
      </trkpt>
      <trkpt lat="43.40776" lon="6.64917">
        <ele>296.20001220703</ele>
        <time>2018-10-14T10:04:11Z</time>
      </trkpt>
      <trkpt lat="43.40778" lon="6.64921">
        <ele>296.39999389648</ele>
        <time>2018-10-14T10:04:13Z</time>
      </trkpt>
      <trkpt lat="43.4078" lon="6.64934">
        <ele>297.20001220703</ele>
        <time>2018-10-14T10:04:20Z</time>
      </trkpt>
      <trkpt lat="43.40782" lon="6.64945">
        <ele>297.60000610352</ele>
        <time>2018-10-14T10:04:26Z</time>
      </trkpt>
      <trkpt lat="43.40782" lon="6.64947">
        <ele>297.79998779297</ele>
        <time>2018-10-14T10:04:27Z</time>
      </trkpt>
      <trkpt lat="43.40785" lon="6.6496">
        <ele>298.20001220703</ele>
        <time>2018-10-14T10:04:34Z</time>
      </trkpt>
      <trkpt lat="43.40786" lon="6.64971">
        <ele>298.79998779297</ele>
        <time>2018-10-14T10:04:40Z</time>
      </trkpt>
      <trkpt lat="43.40785" lon="6.64987">
        <ele>299.39999389648</ele>
        <time>2018-10-14T10:04:47Z</time>
      </trkpt>
      <trkpt lat="43.40787" lon="6.65006">
        <ele>300</ele>
        <time>2018-10-14T10:04:54Z</time>
      </trkpt>
      <trkpt lat="43.40788" lon="6.65025">
        <ele>300.20001220703</ele>
        <time>2018-10-14T10:05:00Z</time>
      </trkpt>
      <trkpt lat="43.4079" lon="6.6505">
        <ele>300.60000610352</ele>
        <time>2018-10-14T10:05:07Z</time>
      </trkpt>
      <trkpt lat="43.40793" lon="6.65074">
        <ele>300.79998779297</ele>
        <time>2018-10-14T10:05:14Z</time>
      </trkpt>
      <trkpt lat="43.40795" lon="6.65107">
        <ele>301</ele>
        <time>2018-10-14T10:05:21Z</time>
      </trkpt>
      <trkpt lat="43.40796" lon="6.65139">
        <ele>301</ele>
        <time>2018-10-14T10:05:25Z</time>
      </trkpt>
      <trkpt lat="43.40797" lon="6.65148">
        <ele>300.79998779297</ele>
        <time>2018-10-14T10:05:26Z</time>
      </trkpt>
      <trkpt lat="43.40799" lon="6.65171">
        <ele>300.79998779297</ele>
        <time>2018-10-14T10:05:29Z</time>
      </trkpt>
      <trkpt lat="43.4081" lon="6.65185">
        <ele>300.60000610352</ele>
        <time>2018-10-14T10:05:32Z</time>
      </trkpt>
      <trkpt lat="43.40821" lon="6.6519">
        <ele>300.79998779297</ele>
        <time>2018-10-14T10:05:36Z</time>
      </trkpt>
      <trkpt lat="43.40827" lon="6.65185">
        <ele>301</ele>
        <time>2018-10-14T10:05:40Z</time>
      </trkpt>
      <trkpt lat="43.40828" lon="6.65184">
        <ele>301</ele>
        <time>2018-10-14T10:05:41Z</time>
      </trkpt>
      <trkpt lat="43.40828" lon="6.65178">
        <ele>301.20001220703</ele>
        <time>2018-10-14T10:05:45Z</time>
      </trkpt>
      <trkpt lat="43.40827" lon="6.65174">
        <ele>301.39999389648</ele>
        <time>2018-10-14T10:05:48Z</time>
      </trkpt>
      <trkpt lat="43.40825" lon="6.65169">
        <ele>301.60000610352</ele>
        <time>2018-10-14T10:05:52Z</time>
      </trkpt>
      <trkpt lat="43.40825" lon="6.65166">
        <ele>301.79998779297</ele>
        <time>2018-10-14T10:05:54Z</time>
      </trkpt>
      <trkpt lat="43.40824" lon="6.65164">
        <ele>301.79998779297</ele>
        <time>2018-10-14T10:05:56Z</time>
      </trkpt>
      <trkpt lat="43.40823" lon="6.65161">
        <ele>301.79998779297</ele>
        <time>2018-10-14T10:05:58Z</time>
      </trkpt>
      <trkpt lat="43.40822" lon="6.65149">
        <ele>302.39999389648</ele>
        <time>2018-10-14T10:06:05Z</time>
      </trkpt>
      <trkpt lat="43.40822" lon="6.65147">
        <ele>302.60000610352</ele>
        <time>2018-10-14T10:06:07Z</time>
      </trkpt>
      <trkpt lat="43.40823" lon="6.65144">
        <ele>302.60000610352</ele>
        <time>2018-10-14T10:06:09Z</time>
      </trkpt>
      <trkpt lat="43.40822" lon="6.65141">
        <ele>302.79998779297</ele>
        <time>2018-10-14T10:06:11Z</time>
      </trkpt>
      <trkpt lat="43.40823" lon="6.65137">
        <ele>303.20001220703</ele>
        <time>2018-10-14T10:06:14Z</time>
      </trkpt>
      <trkpt lat="43.40825" lon="6.65133">
        <ele>303.60000610352</ele>
        <time>2018-10-14T10:06:17Z</time>
      </trkpt>
      <trkpt lat="43.4083" lon="6.65126">
        <ele>304.39999389648</ele>
        <time>2018-10-14T10:06:23Z</time>
      </trkpt>
      <trkpt lat="43.40833" lon="6.65119">
        <ele>305.39999389648</ele>
        <time>2018-10-14T10:06:29Z</time>
      </trkpt>
      <trkpt lat="43.40835" lon="6.6511">
        <ele>306.20001220703</ele>
        <time>2018-10-14T10:06:35Z</time>
      </trkpt>
      <trkpt lat="43.40837" lon="6.65101">
        <ele>307.20001220703</ele>
        <time>2018-10-14T10:06:43Z</time>
      </trkpt>
      <trkpt lat="43.4084" lon="6.65091">
        <ele>308.39999389648</ele>
        <time>2018-10-14T10:06:51Z</time>
      </trkpt>
      <trkpt lat="43.40843" lon="6.65083">
        <ele>309.60000610352</ele>
        <time>2018-10-14T10:06:58Z</time>
      </trkpt>
      <trkpt lat="43.40845" lon="6.65082">
        <ele>309.79998779297</ele>
        <time>2018-10-14T10:07:00Z</time>
      </trkpt>
      <trkpt lat="43.40847" lon="6.65076">
        <ele>310.39999389648</ele>
        <time>2018-10-14T10:07:04Z</time>
      </trkpt>
      <trkpt lat="43.40848" lon="6.65068">
        <ele>311.60000610352</ele>
        <time>2018-10-14T10:07:10Z</time>
      </trkpt>
      <trkpt lat="43.40849" lon="6.65057">
        <ele>313</ele>
        <time>2018-10-14T10:07:18Z</time>
      </trkpt>
      <trkpt lat="43.40849" lon="6.65045">
        <ele>313.79998779297</ele>
        <time>2018-10-14T10:07:25Z</time>
      </trkpt>
      <trkpt lat="43.40848" lon="6.65032">
        <ele>315</ele>
        <time>2018-10-14T10:07:33Z</time>
      </trkpt>
      <trkpt lat="43.40844" lon="6.65015">
        <ele>315.39999389648</ele>
        <time>2018-10-14T10:07:38Z</time>
      </trkpt>
      <trkpt lat="43.40843" lon="6.6501">
        <ele>315.60000610352</ele>
        <time>2018-10-14T10:07:39Z</time>
      </trkpt>
      <trkpt lat="43.4084" lon="6.64995">
        <ele>315.60000610352</ele>
        <time>2018-10-14T10:07:41Z</time>
      </trkpt>
      <trkpt lat="43.4084" lon="6.64986">
        <ele>315.60000610352</ele>
        <time>2018-10-14T10:07:42Z</time>
      </trkpt>
      <trkpt lat="43.40842" lon="6.64969">
        <ele>315.60000610352</ele>
        <time>2018-10-14T10:07:44Z</time>
      </trkpt>
      <trkpt lat="43.4085" lon="6.64949">
        <ele>315.60000610352</ele>
        <time>2018-10-14T10:07:47Z</time>
      </trkpt>
      <trkpt lat="43.40848" lon="6.64938">
        <ele>315.39999389648</ele>
        <time>2018-10-14T10:07:49Z</time>
      </trkpt>
      <trkpt lat="43.40838" lon="6.64931">
        <ele>315.39999389648</ele>
        <time>2018-10-14T10:07:51Z</time>
      </trkpt>
      <trkpt lat="43.40833" lon="6.64928">
        <ele>315.39999389648</ele>
        <time>2018-10-14T10:07:52Z</time>
      </trkpt>
      <trkpt lat="43.40818" lon="6.64921">
        <ele>315.20001220703</ele>
        <time>2018-10-14T10:07:55Z</time>
      </trkpt>
      <trkpt lat="43.40813" lon="6.64917">
        <ele>315</ele>
        <time>2018-10-14T10:07:56Z</time>
      </trkpt>
      <trkpt lat="43.40806" lon="6.64905">
        <ele>314.79998779297</ele>
        <time>2018-10-14T10:07:58Z</time>
      </trkpt>
      <trkpt lat="43.40799" lon="6.64889">
        <ele>314.60000610352</ele>
        <time>2018-10-14T10:08:00Z</time>
      </trkpt>
      <trkpt lat="43.40799" lon="6.6487">
        <ele>314.39999389648</ele>
        <time>2018-10-14T10:08:02Z</time>
      </trkpt>
      <trkpt lat="43.408" lon="6.64862">
        <ele>314.39999389648</ele>
        <time>2018-10-14T10:08:03Z</time>
      </trkpt>
      <trkpt lat="43.40802" lon="6.64856">
        <ele>314.39999389648</ele>
        <time>2018-10-14T10:08:04Z</time>
      </trkpt>
      <trkpt lat="43.40804" lon="6.64839">
        <ele>314.20001220703</ele>
        <time>2018-10-14T10:08:07Z</time>
      </trkpt>
      <trkpt lat="43.40805" lon="6.6482">
        <ele>313.60000610352</ele>
        <time>2018-10-14T10:08:10Z</time>
      </trkpt>
      <trkpt lat="43.40804" lon="6.64813">
        <ele>313.39999389648</ele>
        <time>2018-10-14T10:08:11Z</time>
      </trkpt>
      <trkpt lat="43.40802" lon="6.64806">
        <ele>313.39999389648</ele>
        <time>2018-10-14T10:08:12Z</time>
      </trkpt>
      <trkpt lat="43.40793" lon="6.648">
        <ele>313</ele>
        <time>2018-10-14T10:08:14Z</time>
      </trkpt>
      <trkpt lat="43.40773" lon="6.64785">
        <ele>312.39999389648</ele>
        <time>2018-10-14T10:08:19Z</time>
      </trkpt>
      <trkpt lat="43.4075" lon="6.64763">
        <ele>312</ele>
        <time>2018-10-14T10:08:26Z</time>
      </trkpt>
      <trkpt lat="43.40746" lon="6.6476">
        <ele>312</ele>
        <time>2018-10-14T10:08:27Z</time>
      </trkpt>
      <trkpt lat="43.40735" lon="6.6475">
        <ele>311.79998779297</ele>
        <time>2018-10-14T10:08:30Z</time>
      </trkpt>
      <trkpt lat="43.40732" lon="6.64746">
        <ele>311.79998779297</ele>
        <time>2018-10-14T10:08:31Z</time>
      </trkpt>
      <trkpt lat="43.40711" lon="6.64714">
        <ele>311.20001220703</ele>
        <time>2018-10-14T10:08:38Z</time>
      </trkpt>
      <trkpt lat="43.40707" lon="6.64711">
        <ele>311.20001220703</ele>
        <time>2018-10-14T10:08:39Z</time>
      </trkpt>
      <trkpt lat="43.40704" lon="6.64711">
        <ele>311</ele>
        <time>2018-10-14T10:08:40Z</time>
      </trkpt>
      <trkpt lat="43.40696" lon="6.64716">
        <ele>310.79998779297</ele>
        <time>2018-10-14T10:08:42Z</time>
      </trkpt>
      <trkpt lat="43.40689" lon="6.64728">
        <ele>310.60000610352</ele>
        <time>2018-10-14T10:08:44Z</time>
      </trkpt>
      <trkpt lat="43.40681" lon="6.64739">
        <ele>310.20001220703</ele>
        <time>2018-10-14T10:08:46Z</time>
      </trkpt>
      <trkpt lat="43.40659" lon="6.64764">
        <ele>309.39999389648</ele>
        <time>2018-10-14T10:08:51Z</time>
      </trkpt>
      <trkpt lat="43.40648" lon="6.64768">
        <ele>308.79998779297</ele>
        <time>2018-10-14T10:08:53Z</time>
      </trkpt>
      <trkpt lat="43.40641" lon="6.64768">
        <ele>308.60000610352</ele>
        <time>2018-10-14T10:08:54Z</time>
      </trkpt>
      <trkpt lat="43.40634" lon="6.64765">
        <ele>308.20001220703</ele>
        <time>2018-10-14T10:08:55Z</time>
      </trkpt>
      <trkpt lat="43.40624" lon="6.64754">
        <ele>307.79998779297</ele>
        <time>2018-10-14T10:08:57Z</time>
      </trkpt>
      <trkpt lat="43.40615" lon="6.6474">
        <ele>307.39999389648</ele>
        <time>2018-10-14T10:08:59Z</time>
      </trkpt>
      <trkpt lat="43.40605" lon="6.64731">
        <ele>306.79998779297</ele>
        <time>2018-10-14T10:09:01Z</time>
      </trkpt>
      <trkpt lat="43.40593" lon="6.64736">
        <ele>306</ele>
        <time>2018-10-14T10:09:03Z</time>
      </trkpt>
      <trkpt lat="43.40584" lon="6.64748">
        <ele>305.39999389648</ele>
        <time>2018-10-14T10:09:05Z</time>
      </trkpt>
      <trkpt lat="43.40579" lon="6.64752">
        <ele>305</ele>
        <time>2018-10-14T10:09:06Z</time>
      </trkpt>
      <trkpt lat="43.40574" lon="6.64754">
        <ele>304.79998779297</ele>
        <time>2018-10-14T10:09:07Z</time>
      </trkpt>
      <trkpt lat="43.40568" lon="6.64751">
        <ele>304.20001220703</ele>
        <time>2018-10-14T10:09:09Z</time>
      </trkpt>
      <trkpt lat="43.4056" lon="6.64741">
        <ele>303.20001220703</ele>
        <time>2018-10-14T10:09:15Z</time>
      </trkpt>
      <trkpt lat="43.40552" lon="6.64734">
        <ele>303</ele>
        <time>2018-10-14T10:09:21Z</time>
      </trkpt>
      <trkpt lat="43.40544" lon="6.64729">
        <ele>302.39999389648</ele>
        <time>2018-10-14T10:09:27Z</time>
      </trkpt>
      <trkpt lat="43.40533" lon="6.64724">
        <ele>302.20001220703</ele>
        <time>2018-10-14T10:09:34Z</time>
      </trkpt>
      <trkpt lat="43.40524" lon="6.6472">
        <ele>302</ele>
        <time>2018-10-14T10:09:41Z</time>
      </trkpt>
      <trkpt lat="43.4052" lon="6.64717">
        <ele>301.79998779297</ele>
        <time>2018-10-14T10:09:45Z</time>
      </trkpt>
      <trkpt lat="43.40517" lon="6.64716">
        <ele>302</ele>
        <time>2018-10-14T10:09:47Z</time>
      </trkpt>
      <trkpt lat="43.40508" lon="6.64708">
        <ele>302.20001220703</ele>
        <time>2018-10-14T10:09:55Z</time>
      </trkpt>
      <trkpt lat="43.405" lon="6.64701">
        <ele>302.20001220703</ele>
        <time>2018-10-14T10:10:02Z</time>
      </trkpt>
      <trkpt lat="43.405" lon="6.647">
        <ele>302.20001220703</ele>
        <time>2018-10-14T10:10:05Z</time>
      </trkpt>
      <trkpt lat="43.40497" lon="6.64699">
        <ele>302.39999389648</ele>
        <time>2018-10-14T10:10:10Z</time>
      </trkpt>
      <trkpt lat="43.40485" lon="6.64695">
        <ele>302.39999389648</ele>
        <time>2018-10-14T10:10:16Z</time>
      </trkpt>
      <trkpt lat="43.40469" lon="6.64693">
        <ele>302.39999389648</ele>
        <time>2018-10-14T10:10:24Z</time>
      </trkpt>
      <trkpt lat="43.40458" lon="6.64691">
        <ele>302.39999389648</ele>
        <time>2018-10-14T10:10:30Z</time>
      </trkpt>
      <trkpt lat="43.40447" lon="6.64683">
        <ele>302.79998779297</ele>
        <time>2018-10-14T10:10:38Z</time>
      </trkpt>
      <trkpt lat="43.40438" lon="6.64675">
        <ele>303.79998779297</ele>
        <time>2018-10-14T10:10:46Z</time>
      </trkpt>
      <trkpt lat="43.40429" lon="6.6467">
        <ele>304.39999389648</ele>
        <time>2018-10-14T10:10:54Z</time>
      </trkpt>
      <trkpt lat="43.40419" lon="6.64667">
        <ele>305.39999389648</ele>
        <time>2018-10-14T10:11:03Z</time>
      </trkpt>
      <trkpt lat="43.40416" lon="6.64666">
        <ele>305.60000610352</ele>
        <time>2018-10-14T10:11:05Z</time>
      </trkpt>
      <trkpt lat="43.4041" lon="6.64666">
        <ele>305.79998779297</ele>
        <time>2018-10-14T10:11:08Z</time>
      </trkpt>
      <trkpt lat="43.40394" lon="6.64661">
        <ele>306.60000610352</ele>
        <time>2018-10-14T10:11:16Z</time>
      </trkpt>
      <trkpt lat="43.40385" lon="6.64659">
        <ele>307</ele>
        <time>2018-10-14T10:11:22Z</time>
      </trkpt>
      <trkpt lat="43.40376" lon="6.6466">
        <ele>307.60000610352</ele>
        <time>2018-10-14T10:11:30Z</time>
      </trkpt>
      <trkpt lat="43.40365" lon="6.64662">
        <ele>308.39999389648</ele>
        <time>2018-10-14T10:11:38Z</time>
      </trkpt>
      <trkpt lat="43.40355" lon="6.64665">
        <ele>309.20001220703</ele>
        <time>2018-10-14T10:11:46Z</time>
      </trkpt>
      <trkpt lat="43.40341" lon="6.64673">
        <ele>309.79998779297</ele>
        <time>2018-10-14T10:11:53Z</time>
      </trkpt>
      <trkpt lat="43.40323" lon="6.64677">
        <ele>310</ele>
        <time>2018-10-14T10:11:58Z</time>
      </trkpt>
      <trkpt lat="43.40313" lon="6.64677">
        <ele>310.39999389648</ele>
        <time>2018-10-14T10:12:04Z</time>
      </trkpt>
      <trkpt lat="43.40303" lon="6.64673">
        <ele>311.60000610352</ele>
        <time>2018-10-14T10:12:12Z</time>
      </trkpt>
      <trkpt lat="43.40294" lon="6.64671">
        <ele>312.39999389648</ele>
        <time>2018-10-14T10:12:18Z</time>
      </trkpt>
      <trkpt lat="43.40282" lon="6.64665">
        <ele>313.60000610352</ele>
        <time>2018-10-14T10:12:27Z</time>
      </trkpt>
      <trkpt lat="43.40274" lon="6.64659">
        <ele>314.60000610352</ele>
        <time>2018-10-14T10:12:34Z</time>
      </trkpt>
      <trkpt lat="43.40263" lon="6.64652">
        <ele>315.60000610352</ele>
        <time>2018-10-14T10:12:41Z</time>
      </trkpt>
      <trkpt lat="43.40249" lon="6.64648">
        <ele>316</ele>
        <time>2018-10-14T10:12:46Z</time>
      </trkpt>
      <trkpt lat="43.40228" lon="6.64649">
        <ele>316.60000610352</ele>
        <time>2018-10-14T10:12:52Z</time>
      </trkpt>
      <trkpt lat="43.402" lon="6.64649">
        <ele>317.20001220703</ele>
        <time>2018-10-14T10:12:59Z</time>
      </trkpt>
      <trkpt lat="43.40175" lon="6.64651">
        <ele>318</ele>
        <time>2018-10-14T10:13:06Z</time>
      </trkpt>
      <trkpt lat="43.40157" lon="6.64658">
        <ele>318.60000610352</ele>
        <time>2018-10-14T10:13:11Z</time>
      </trkpt>
      <trkpt lat="43.40151" lon="6.64661">
        <ele>318.60000610352</ele>
        <time>2018-10-14T10:13:12Z</time>
      </trkpt>
      <trkpt lat="43.40137" lon="6.64676">
        <ele>318.79998779297</ele>
        <time>2018-10-14T10:13:15Z</time>
      </trkpt>
      <trkpt lat="43.40125" lon="6.64695">
        <ele>319.20001220703</ele>
        <time>2018-10-14T10:13:19Z</time>
      </trkpt>
      <trkpt lat="43.40122" lon="6.64699">
        <ele>319.39999389648</ele>
        <time>2018-10-14T10:13:20Z</time>
      </trkpt>
      <trkpt lat="43.40113" lon="6.64706">
        <ele>319.60000610352</ele>
        <time>2018-10-14T10:13:22Z</time>
      </trkpt>
      <trkpt lat="43.40109" lon="6.64708">
        <ele>319.60000610352</ele>
        <time>2018-10-14T10:13:23Z</time>
      </trkpt>
      <trkpt lat="43.40105" lon="6.64709">
        <ele>319.79998779297</ele>
        <time>2018-10-14T10:13:24Z</time>
      </trkpt>
      <trkpt lat="43.40092" lon="6.64719">
        <ele>320</ele>
        <time>2018-10-14T10:13:28Z</time>
      </trkpt>
      <trkpt lat="43.40067" lon="6.64749">
        <ele>320.60000610352</ele>
        <time>2018-10-14T10:13:36Z</time>
      </trkpt>
      <trkpt lat="43.40053" lon="6.64773">
        <ele>321.20001220703</ele>
        <time>2018-10-14T10:13:42Z</time>
      </trkpt>
      <trkpt lat="43.4004" lon="6.64801">
        <ele>321.39999389648</ele>
        <time>2018-10-14T10:13:49Z</time>
      </trkpt>
      <trkpt lat="43.40038" lon="6.64807">
        <ele>321.39999389648</ele>
        <time>2018-10-14T10:13:50Z</time>
      </trkpt>
      <trkpt lat="43.40037" lon="6.64819">
        <ele>321.20001220703</ele>
        <time>2018-10-14T10:13:52Z</time>
      </trkpt>
      <trkpt lat="43.40034" lon="6.64824">
        <ele>321.20001220703</ele>
        <time>2018-10-14T10:13:53Z</time>
      </trkpt>
      <trkpt lat="43.40031" lon="6.64827">
        <ele>321</ele>
        <time>2018-10-14T10:13:54Z</time>
      </trkpt>
      <trkpt lat="43.4002" lon="6.64827">
        <ele>320.79998779297</ele>
        <time>2018-10-14T10:13:56Z</time>
      </trkpt>
      <trkpt lat="43.39999" lon="6.64821">
        <ele>319.79998779297</ele>
        <time>2018-10-14T10:14:00Z</time>
      </trkpt>
      <trkpt lat="43.39993" lon="6.6482">
        <ele>319.60000610352</ele>
        <time>2018-10-14T10:14:01Z</time>
      </trkpt>
      <trkpt lat="43.39987" lon="6.6482">
        <ele>319.20001220703</ele>
        <time>2018-10-14T10:14:02Z</time>
      </trkpt>
      <trkpt lat="43.39976" lon="6.64826">
        <ele>318.39999389648</ele>
        <time>2018-10-14T10:14:04Z</time>
      </trkpt>
      <trkpt lat="43.39958" lon="6.64835">
        <ele>316.39999389648</ele>
        <time>2018-10-14T10:14:08Z</time>
      </trkpt>
      <trkpt lat="43.39948" lon="6.64837">
        <ele>315.39999389648</ele>
        <time>2018-10-14T10:14:10Z</time>
      </trkpt>
      <trkpt lat="43.39939" lon="6.64838">
        <ele>314.39999389648</ele>
        <time>2018-10-14T10:14:12Z</time>
      </trkpt>
      <trkpt lat="43.39935" lon="6.6484">
        <ele>314</ele>
        <time>2018-10-14T10:14:13Z</time>
      </trkpt>
      <trkpt lat="43.39924" lon="6.64842">
        <ele>312.39999389648</ele>
        <time>2018-10-14T10:14:16Z</time>
      </trkpt>
      <trkpt lat="43.39914" lon="6.6484">
        <ele>311.39999389648</ele>
        <time>2018-10-14T10:14:18Z</time>
      </trkpt>
      <trkpt lat="43.39907" lon="6.64839">
        <ele>310.79998779297</ele>
        <time>2018-10-14T10:14:19Z</time>
      </trkpt>
      <trkpt lat="43.399" lon="6.6484">
        <ele>310.39999389648</ele>
        <time>2018-10-14T10:14:20Z</time>
      </trkpt>
      <trkpt lat="43.39887" lon="6.64847">
        <ele>309.39999389648</ele>
        <time>2018-10-14T10:14:22Z</time>
      </trkpt>
      <trkpt lat="43.39883" lon="6.6485">
        <ele>309</ele>
        <time>2018-10-14T10:14:23Z</time>
      </trkpt>
      <trkpt lat="43.39876" lon="6.6486">
        <ele>307.60000610352</ele>
        <time>2018-10-14T10:14:26Z</time>
      </trkpt>
      <trkpt lat="43.39874" lon="6.64877">
        <ele>305.79998779297</ele>
        <time>2018-10-14T10:14:30Z</time>
      </trkpt>
      <trkpt lat="43.39872" lon="6.64879">
        <ele>305.39999389648</ele>
        <time>2018-10-14T10:14:31Z</time>
      </trkpt>
      <trkpt lat="43.39866" lon="6.64882">
        <ele>304.39999389648</ele>
        <time>2018-10-14T10:14:33Z</time>
      </trkpt>
      <trkpt lat="43.3986" lon="6.64882">
        <ele>303.39999389648</ele>
        <time>2018-10-14T10:14:35Z</time>
      </trkpt>
      <trkpt lat="43.39853" lon="6.64889">
        <ele>302.39999389648</ele>
        <time>2018-10-14T10:14:37Z</time>
      </trkpt>
      <trkpt lat="43.39851" lon="6.64894">
        <ele>301.79998779297</ele>
        <time>2018-10-14T10:14:38Z</time>
      </trkpt>
      <trkpt lat="43.39847" lon="6.64907">
        <ele>300.79998779297</ele>
        <time>2018-10-14T10:14:40Z</time>
      </trkpt>
      <trkpt lat="43.3984" lon="6.64918">
        <ele>299.79998779297</ele>
        <time>2018-10-14T10:14:42Z</time>
      </trkpt>
      <trkpt lat="43.39831" lon="6.64925">
        <ele>298.60000610352</ele>
        <time>2018-10-14T10:14:44Z</time>
      </trkpt>
      <trkpt lat="43.39822" lon="6.64929">
        <ele>297.20001220703</ele>
        <time>2018-10-14T10:14:46Z</time>
      </trkpt>
      <trkpt lat="43.39817" lon="6.64932">
        <ele>296.60000610352</ele>
        <time>2018-10-14T10:14:47Z</time>
      </trkpt>
      <trkpt lat="43.39808" lon="6.64943">
        <ele>295.39999389648</ele>
        <time>2018-10-14T10:14:49Z</time>
      </trkpt>
      <trkpt lat="43.39801" lon="6.64955">
        <ele>294.20001220703</ele>
        <time>2018-10-14T10:14:51Z</time>
      </trkpt>
      <trkpt lat="43.39796" lon="6.64959">
        <ele>293.60000610352</ele>
        <time>2018-10-14T10:14:52Z</time>
      </trkpt>
      <trkpt lat="43.39782" lon="6.64965">
        <ele>291.60000610352</ele>
        <time>2018-10-14T10:14:55Z</time>
      </trkpt>
      <trkpt lat="43.39774" lon="6.64965">
        <ele>290.20001220703</ele>
        <time>2018-10-14T10:14:57Z</time>
      </trkpt>
      <trkpt lat="43.39763" lon="6.64963">
        <ele>288.39999389648</ele>
        <time>2018-10-14T10:15:00Z</time>
      </trkpt>
      <trkpt lat="43.39754" lon="6.64965">
        <ele>287</ele>
        <time>2018-10-14T10:15:02Z</time>
      </trkpt>
      <trkpt lat="43.39746" lon="6.64969">
        <ele>285.79998779297</ele>
        <time>2018-10-14T10:15:04Z</time>
      </trkpt>
      <trkpt lat="43.39738" lon="6.64975">
        <ele>284.60000610352</ele>
        <time>2018-10-14T10:15:06Z</time>
      </trkpt>
      <trkpt lat="43.39733" lon="6.64979">
        <ele>284</ele>
        <time>2018-10-14T10:15:07Z</time>
      </trkpt>
      <trkpt lat="43.39714" lon="6.64997">
        <ele>281.39999389648</ele>
        <time>2018-10-14T10:15:11Z</time>
      </trkpt>
      <trkpt lat="43.39696" lon="6.65008">
        <ele>279.79998779297</ele>
        <time>2018-10-14T10:15:14Z</time>
      </trkpt>
      <trkpt lat="43.39686" lon="6.65019">
        <ele>278.60000610352</ele>
        <time>2018-10-14T10:15:16Z</time>
      </trkpt>
      <trkpt lat="43.39682" lon="6.65026">
        <ele>278</ele>
        <time>2018-10-14T10:15:17Z</time>
      </trkpt>
      <trkpt lat="43.39675" lon="6.65034">
        <ele>276.79998779297</ele>
        <time>2018-10-14T10:15:19Z</time>
      </trkpt>
      <trkpt lat="43.39668" lon="6.65042">
        <ele>275.60000610352</ele>
        <time>2018-10-14T10:15:21Z</time>
      </trkpt>
      <trkpt lat="43.39657" lon="6.65056">
        <ele>273.79998779297</ele>
        <time>2018-10-14T10:15:24Z</time>
      </trkpt>
      <trkpt lat="43.39649" lon="6.65064">
        <ele>272.79998779297</ele>
        <time>2018-10-14T10:15:26Z</time>
      </trkpt>
      <trkpt lat="43.39643" lon="6.65068">
        <ele>271.79998779297</ele>
        <time>2018-10-14T10:15:28Z</time>
      </trkpt>
      <trkpt lat="43.39635" lon="6.65066">
        <ele>268.79998779297</ele>
        <time>2018-10-14T10:15:33Z</time>
      </trkpt>
      <trkpt lat="43.39629" lon="6.65063">
        <ele>266.79998779297</ele>
        <time>2018-10-14T10:15:37Z</time>
      </trkpt>
      <trkpt lat="43.39626" lon="6.65063">
        <ele>265.79998779297</ele>
        <time>2018-10-14T10:15:39Z</time>
      </trkpt>
      <trkpt lat="43.39625" lon="6.65062">
        <ele>263.20001220703</ele>
        <time>2018-10-14T10:15:44Z</time>
      </trkpt>
      <trkpt lat="43.39624" lon="6.65062">
        <ele>262.39999389648</ele>
        <time>2018-10-14T10:15:46Z</time>
      </trkpt>
      <trkpt lat="43.39543" lon="6.65102">
        <ele>219.60000610352</ele>
        <time>2018-10-14T10:29:35Z</time>
      </trkpt>
      <trkpt lat="43.39541" lon="6.65105">
        <ele>219.39999389648</ele>
        <time>2018-10-14T10:29:36Z</time>
      </trkpt>
      <trkpt lat="43.39528" lon="6.65112">
        <ele>218.80000305176</ele>
        <time>2018-10-14T10:29:40Z</time>
      </trkpt>
      <trkpt lat="43.39523" lon="6.65111">
        <ele>218.60000610352</ele>
        <time>2018-10-14T10:29:41Z</time>
      </trkpt>
      <trkpt lat="43.39508" lon="6.65104">
        <ele>218.19999694824</ele>
        <time>2018-10-14T10:29:44Z</time>
      </trkpt>
      <trkpt lat="43.39499" lon="6.65097">
        <ele>217.80000305176</ele>
        <time>2018-10-14T10:29:46Z</time>
      </trkpt>
      <trkpt lat="43.39487" lon="6.6509">
        <ele>217.19999694824</ele>
        <time>2018-10-14T10:29:50Z</time>
      </trkpt>
      <trkpt lat="43.39484" lon="6.65088">
        <ele>217</ele>
        <time>2018-10-14T10:29:52Z</time>
      </trkpt>
      <trkpt lat="43.39481" lon="6.65084">
        <ele>216.60000610352</ele>
        <time>2018-10-14T10:29:55Z</time>
      </trkpt>
      <trkpt lat="43.39474" lon="6.65077">
        <ele>215.19999694824</ele>
        <time>2018-10-14T10:30:01Z</time>
      </trkpt>
      <trkpt lat="43.39465" lon="6.65069">
        <ele>214</ele>
        <time>2018-10-14T10:30:05Z</time>
      </trkpt>
      <trkpt lat="43.39459" lon="6.6507">
        <ele>213</ele>
        <time>2018-10-14T10:30:09Z</time>
      </trkpt>
      <trkpt lat="43.39454" lon="6.65078">
        <ele>211.60000610352</ele>
        <time>2018-10-14T10:30:15Z</time>
      </trkpt>
      <trkpt lat="43.39446" lon="6.65081">
        <ele>210.19999694824</ele>
        <time>2018-10-14T10:30:22Z</time>
      </trkpt>
      <trkpt lat="43.39442" lon="6.6508">
        <ele>209.60000610352</ele>
        <time>2018-10-14T10:30:24Z</time>
      </trkpt>
      <trkpt lat="43.39438" lon="6.65084">
        <ele>209</ele>
        <time>2018-10-14T10:30:26Z</time>
      </trkpt>
      <trkpt lat="43.39431" lon="6.65088">
        <ele>207.80000305176</ele>
        <time>2018-10-14T10:30:30Z</time>
      </trkpt>
      <trkpt lat="43.39426" lon="6.6509">
        <ele>207</ele>
        <time>2018-10-14T10:30:32Z</time>
      </trkpt>
      <trkpt lat="43.39423" lon="6.65093">
        <ele>206.60000610352</ele>
        <time>2018-10-14T10:30:33Z</time>
      </trkpt>
      <trkpt lat="43.3942" lon="6.65098">
        <ele>206.19999694824</ele>
        <time>2018-10-14T10:30:34Z</time>
      </trkpt>
      <trkpt lat="43.39414" lon="6.65111">
        <ele>205.60000610352</ele>
        <time>2018-10-14T10:30:36Z</time>
      </trkpt>
      <trkpt lat="43.39411" lon="6.65118">
        <ele>205.19999694824</ele>
        <time>2018-10-14T10:30:37Z</time>
      </trkpt>
      <trkpt lat="43.39403" lon="6.65142">
        <ele>204.19999694824</ele>
        <time>2018-10-14T10:30:40Z</time>
      </trkpt>
      <trkpt lat="43.39402" lon="6.6515">
        <ele>204</ele>
        <time>2018-10-14T10:30:41Z</time>
      </trkpt>
      <trkpt lat="43.39403" lon="6.65164">
        <ele>203.39999389648</ele>
        <time>2018-10-14T10:30:43Z</time>
      </trkpt>
      <trkpt lat="43.39401" lon="6.65174">
        <ele>203</ele>
        <time>2018-10-14T10:30:45Z</time>
      </trkpt>
      <trkpt lat="43.39399" lon="6.65175">
        <ele>202.60000610352</ele>
        <time>2018-10-14T10:30:46Z</time>
      </trkpt>
      <trkpt lat="43.39394" lon="6.65167">
        <ele>202</ele>
        <time>2018-10-14T10:30:48Z</time>
      </trkpt>
      <trkpt lat="43.39392" lon="6.65162">
        <ele>201.80000305176</ele>
        <time>2018-10-14T10:30:49Z</time>
      </trkpt>
      <trkpt lat="43.39383" lon="6.65146">
        <ele>200.60000610352</ele>
        <time>2018-10-14T10:30:52Z</time>
      </trkpt>
      <trkpt lat="43.39373" lon="6.65144">
        <ele>200</ele>
        <time>2018-10-14T10:30:54Z</time>
      </trkpt>
      <trkpt lat="43.39369" lon="6.65148">
        <ele>199.60000610352</ele>
        <time>2018-10-14T10:30:55Z</time>
      </trkpt>
      <trkpt lat="43.39366" lon="6.65153">
        <ele>199.19999694824</ele>
        <time>2018-10-14T10:30:56Z</time>
      </trkpt>
      <trkpt lat="43.39359" lon="6.65161">
        <ele>198.60000610352</ele>
        <time>2018-10-14T10:30:58Z</time>
      </trkpt>
      <trkpt lat="43.3935" lon="6.65168">
        <ele>198</ele>
        <time>2018-10-14T10:31:00Z</time>
      </trkpt>
      <trkpt lat="43.39344" lon="6.65181">
        <ele>197.39999389648</ele>
        <time>2018-10-14T10:31:02Z</time>
      </trkpt>
      <trkpt lat="43.39335" lon="6.65203">
        <ele>196.60000610352</ele>
        <time>2018-10-14T10:31:05Z</time>
      </trkpt>
      <trkpt lat="43.39329" lon="6.65214">
        <ele>196</ele>
        <time>2018-10-14T10:31:07Z</time>
      </trkpt>
      <trkpt lat="43.3932" lon="6.65232">
        <ele>195</ele>
        <time>2018-10-14T10:31:11Z</time>
      </trkpt>
      <trkpt lat="43.39309" lon="6.65241">
        <ele>194</ele>
        <time>2018-10-14T10:31:16Z</time>
      </trkpt>
      <trkpt lat="43.39307" lon="6.65238">
        <ele>193</ele>
        <time>2018-10-14T10:31:20Z</time>
      </trkpt>
      <trkpt lat="43.39304" lon="6.65246">
        <ele>182.60000610352</ele>
        <time>2018-10-14T10:33:14Z</time>
      </trkpt>
      <trkpt lat="43.39302" lon="6.6525">
        <ele>182.39999389648</ele>
        <time>2018-10-14T10:33:15Z</time>
      </trkpt>
      <trkpt lat="43.39299" lon="6.65255">
        <ele>182.39999389648</ele>
        <time>2018-10-14T10:33:16Z</time>
      </trkpt>
      <trkpt lat="43.39297" lon="6.65268">
        <ele>182</ele>
        <time>2018-10-14T10:33:18Z</time>
      </trkpt>
      <trkpt lat="43.39297" lon="6.65274">
        <ele>181.80000305176</ele>
        <time>2018-10-14T10:33:19Z</time>
      </trkpt>
      <trkpt lat="43.39299" lon="6.65293">
        <ele>181</ele>
        <time>2018-10-14T10:33:22Z</time>
      </trkpt>
      <trkpt lat="43.393" lon="6.653">
        <ele>180.60000610352</ele>
        <time>2018-10-14T10:33:23Z</time>
      </trkpt>
      <trkpt lat="43.39297" lon="6.65315">
        <ele>180</ele>
        <time>2018-10-14T10:33:25Z</time>
      </trkpt>
      <trkpt lat="43.39291" lon="6.65328">
        <ele>179</ele>
        <time>2018-10-14T10:33:27Z</time>
      </trkpt>
      <trkpt lat="43.39286" lon="6.65344">
        <ele>178</ele>
        <time>2018-10-14T10:33:29Z</time>
      </trkpt>
      <trkpt lat="43.39278" lon="6.65372">
        <ele>176.39999389648</ele>
        <time>2018-10-14T10:33:32Z</time>
      </trkpt>
      <trkpt lat="43.39274" lon="6.6538">
        <ele>175.80000305176</ele>
        <time>2018-10-14T10:33:33Z</time>
      </trkpt>
      <trkpt lat="43.39266" lon="6.65394">
        <ele>174.80000305176</ele>
        <time>2018-10-14T10:33:35Z</time>
      </trkpt>
      <trkpt lat="43.39264" lon="6.65403">
        <ele>174.19999694824</ele>
        <time>2018-10-14T10:33:36Z</time>
      </trkpt>
      <trkpt lat="43.39261" lon="6.65412">
        <ele>173.60000610352</ele>
        <time>2018-10-14T10:33:37Z</time>
      </trkpt>
      <trkpt lat="43.39253" lon="6.65439">
        <ele>172.19999694824</ele>
        <time>2018-10-14T10:33:40Z</time>
      </trkpt>
      <trkpt lat="43.39248" lon="6.65454">
        <ele>171.19999694824</ele>
        <time>2018-10-14T10:33:42Z</time>
      </trkpt>
      <trkpt lat="43.39243" lon="6.65459">
        <ele>170.80000305176</ele>
        <time>2018-10-14T10:33:43Z</time>
      </trkpt>
      <trkpt lat="43.39216" lon="6.65484">
        <ele>168.60000610352</ele>
        <time>2018-10-14T10:33:48Z</time>
      </trkpt>
      <trkpt lat="43.39212" lon="6.65489">
        <ele>168.19999694824</ele>
        <time>2018-10-14T10:33:49Z</time>
      </trkpt>
      <trkpt lat="43.39203" lon="6.655">
        <ele>167.60000610352</ele>
        <time>2018-10-14T10:33:51Z</time>
      </trkpt>
      <trkpt lat="43.39199" lon="6.65503">
        <ele>167.19999694824</ele>
        <time>2018-10-14T10:33:52Z</time>
      </trkpt>
      <trkpt lat="43.39186" lon="6.65511">
        <ele>165.80000305176</ele>
        <time>2018-10-14T10:33:56Z</time>
      </trkpt>
      <trkpt lat="43.39175" lon="6.65521">
        <ele>164.39999389648</ele>
        <time>2018-10-14T10:34:02Z</time>
      </trkpt>
      <trkpt lat="43.39166" lon="6.65533">
        <ele>163.19999694824</ele>
        <time>2018-10-14T10:34:09Z</time>
      </trkpt>
      <trkpt lat="43.39155" lon="6.65542">
        <ele>162.60000610352</ele>
        <time>2018-10-14T10:34:17Z</time>
      </trkpt>
      <trkpt lat="43.39153" lon="6.65546">
        <ele>162.60000610352</ele>
        <time>2018-10-14T10:34:20Z</time>
      </trkpt>
      <trkpt lat="43.3915" lon="6.65552">
        <ele>162.19999694824</ele>
        <time>2018-10-14T10:34:24Z</time>
      </trkpt>
      <trkpt lat="43.3915" lon="6.65555">
        <ele>162.19999694824</ele>
        <time>2018-10-14T10:34:25Z</time>
      </trkpt>
      <trkpt lat="43.39157" lon="6.65567">
        <ele>162</ele>
        <time>2018-10-14T10:34:30Z</time>
      </trkpt>
      <trkpt lat="43.39166" lon="6.65582">
        <ele>161.80000305176</ele>
        <time>2018-10-14T10:34:36Z</time>
      </trkpt>
      <trkpt lat="43.3917" lon="6.65602">
        <ele>161.80000305176</ele>
        <time>2018-10-14T10:34:42Z</time>
      </trkpt>
      <trkpt lat="43.39168" lon="6.65618">
        <ele>162</ele>
        <time>2018-10-14T10:34:47Z</time>
      </trkpt>
      <trkpt lat="43.39163" lon="6.65635">
        <ele>162</ele>
        <time>2018-10-14T10:34:53Z</time>
      </trkpt>
      <trkpt lat="43.39157" lon="6.65656">
        <ele>162</ele>
        <time>2018-10-14T10:34:59Z</time>
      </trkpt>
      <trkpt lat="43.39156" lon="6.65672">
        <ele>162</ele>
        <time>2018-10-14T10:35:03Z</time>
      </trkpt>
      <trkpt lat="43.39154" lon="6.65678">
        <ele>162</ele>
        <time>2018-10-14T10:35:04Z</time>
      </trkpt>
      <trkpt lat="43.39151" lon="6.65689">
        <ele>162</ele>
        <time>2018-10-14T10:35:06Z</time>
      </trkpt>
      <trkpt lat="43.39151" lon="6.65695">
        <ele>161.80000305176</ele>
        <time>2018-10-14T10:35:07Z</time>
      </trkpt>
      <trkpt lat="43.39149" lon="6.65706">
        <ele>161.60000610352</ele>
        <time>2018-10-14T10:35:09Z</time>
      </trkpt>
      <trkpt lat="43.39144" lon="6.6571">
        <ele>161.39999389648</ele>
        <time>2018-10-14T10:35:10Z</time>
      </trkpt>
      <trkpt lat="43.39138" lon="6.65711">
        <ele>161.39999389648</ele>
        <time>2018-10-14T10:35:11Z</time>
      </trkpt>
      <trkpt lat="43.39125" lon="6.65712">
        <ele>161</ele>
        <time>2018-10-14T10:35:13Z</time>
      </trkpt>
      <trkpt lat="43.39113" lon="6.65712">
        <ele>160.60000610352</ele>
        <time>2018-10-14T10:35:15Z</time>
      </trkpt>
      <trkpt lat="43.39108" lon="6.65711">
        <ele>160.39999389648</ele>
        <time>2018-10-14T10:35:16Z</time>
      </trkpt>
      <trkpt lat="43.39102" lon="6.65712">
        <ele>160.19999694824</ele>
        <time>2018-10-14T10:35:17Z</time>
      </trkpt>
      <trkpt lat="43.39091" lon="6.65712">
        <ele>160</ele>
        <time>2018-10-14T10:35:19Z</time>
      </trkpt>
      <trkpt lat="43.39085" lon="6.65712">
        <ele>159.80000305176</ele>
        <time>2018-10-14T10:35:20Z</time>
      </trkpt>
      <trkpt lat="43.39067" lon="6.65715">
        <ele>159.19999694824</ele>
        <time>2018-10-14T10:35:23Z</time>
      </trkpt>
      <trkpt lat="43.39062" lon="6.65715">
        <ele>159</ele>
        <time>2018-10-14T10:35:24Z</time>
      </trkpt>
      <trkpt lat="43.39051" lon="6.65714">
        <ele>158.60000610352</ele>
        <time>2018-10-14T10:35:26Z</time>
      </trkpt>
      <trkpt lat="43.39045" lon="6.65714">
        <ele>158.19999694824</ele>
        <time>2018-10-14T10:35:27Z</time>
      </trkpt>
      <trkpt lat="43.39035" lon="6.65715">
        <ele>157.80000305176</ele>
        <time>2018-10-14T10:35:29Z</time>
      </trkpt>
      <trkpt lat="43.3903" lon="6.65715">
        <ele>157.60000610352</ele>
        <time>2018-10-14T10:35:30Z</time>
      </trkpt>
      <trkpt lat="43.39016" lon="6.65713">
        <ele>156.80000305176</ele>
        <time>2018-10-14T10:35:33Z</time>
      </trkpt>
      <trkpt lat="43.39006" lon="6.6571">
        <ele>156.39999389648</ele>
        <time>2018-10-14T10:35:35Z</time>
      </trkpt>
      <trkpt lat="43.38985" lon="6.65708">
        <ele>155.19999694824</ele>
        <time>2018-10-14T10:35:40Z</time>
      </trkpt>
      <trkpt lat="43.38981" lon="6.65708">
        <ele>154.80000305176</ele>
        <time>2018-10-14T10:35:41Z</time>
      </trkpt>
      <trkpt lat="43.38968" lon="6.65706">
        <ele>153.60000610352</ele>
        <time>2018-10-14T10:35:44Z</time>
      </trkpt>
      <trkpt lat="43.38954" lon="6.65704">
        <ele>152.60000610352</ele>
        <time>2018-10-14T10:35:47Z</time>
      </trkpt>
      <trkpt lat="43.38949" lon="6.65703">
        <ele>152.19999694824</ele>
        <time>2018-10-14T10:35:48Z</time>
      </trkpt>
      <trkpt lat="43.3894" lon="6.65701">
        <ele>151.19999694824</ele>
        <time>2018-10-14T10:35:50Z</time>
      </trkpt>
      <trkpt lat="43.38932" lon="6.657">
        <ele>150.39999389648</ele>
        <time>2018-10-14T10:35:52Z</time>
      </trkpt>
      <trkpt lat="43.38929" lon="6.65699">
        <ele>149.80000305176</ele>
        <time>2018-10-14T10:35:53Z</time>
      </trkpt>
      <trkpt lat="43.38915" lon="6.65687">
        <ele>148</ele>
        <time>2018-10-14T10:35:57Z</time>
      </trkpt>
      <trkpt lat="43.38906" lon="6.65685">
        <ele>147</ele>
        <time>2018-10-14T10:35:59Z</time>
      </trkpt>
      <trkpt lat="43.38897" lon="6.65685">
        <ele>146.19999694824</ele>
        <time>2018-10-14T10:36:01Z</time>
      </trkpt>
      <trkpt lat="43.38893" lon="6.65683">
        <ele>145.60000610352</ele>
        <time>2018-10-14T10:36:02Z</time>
      </trkpt>
      <trkpt lat="43.3888" lon="6.6568">
        <ele>144.39999389648</ele>
        <time>2018-10-14T10:36:05Z</time>
      </trkpt>
      <trkpt lat="43.38866" lon="6.65676">
        <ele>143</ele>
        <time>2018-10-14T10:36:08Z</time>
      </trkpt>
      <trkpt lat="43.38861" lon="6.65676">
        <ele>142.39999389648</ele>
        <time>2018-10-14T10:36:09Z</time>
      </trkpt>
      <trkpt lat="43.38856" lon="6.65675">
        <ele>142</ele>
        <time>2018-10-14T10:36:10Z</time>
      </trkpt>
      <trkpt lat="43.38839" lon="6.6567">
        <ele>140.60000610352</ele>
        <time>2018-10-14T10:36:13Z</time>
      </trkpt>
      <trkpt lat="43.38813" lon="6.65663">
        <ele>138.80000305176</ele>
        <time>2018-10-14T10:36:17Z</time>
      </trkpt>
      <trkpt lat="43.38807" lon="6.65664">
        <ele>138.19999694824</ele>
        <time>2018-10-14T10:36:18Z</time>
      </trkpt>
      <trkpt lat="43.38801" lon="6.65668">
        <ele>138</ele>
        <time>2018-10-14T10:36:19Z</time>
      </trkpt>
      <trkpt lat="43.3879" lon="6.65679">
        <ele>137</ele>
        <time>2018-10-14T10:36:21Z</time>
      </trkpt>
      <trkpt lat="43.38783" lon="6.65684">
        <ele>136.60000610352</ele>
        <time>2018-10-14T10:36:22Z</time>
      </trkpt>
      <trkpt lat="43.3877" lon="6.65689">
        <ele>136</ele>
        <time>2018-10-14T10:36:24Z</time>
      </trkpt>
      <trkpt lat="43.38757" lon="6.65688">
        <ele>135.19999694824</ele>
        <time>2018-10-14T10:36:26Z</time>
      </trkpt>
      <trkpt lat="43.38751" lon="6.65687">
        <ele>134.80000305176</ele>
        <time>2018-10-14T10:36:27Z</time>
      </trkpt>
      <trkpt lat="43.38732" lon="6.65689">
        <ele>133.80000305176</ele>
        <time>2018-10-14T10:36:30Z</time>
      </trkpt>
      <trkpt lat="43.38722" lon="6.65696">
        <ele>133</ele>
        <time>2018-10-14T10:36:32Z</time>
      </trkpt>
      <trkpt lat="43.38699" lon="6.6572">
        <ele>131.19999694824</ele>
        <time>2018-10-14T10:36:37Z</time>
      </trkpt>
      <trkpt lat="43.38691" lon="6.65728">
        <ele>130.60000610352</ele>
        <time>2018-10-14T10:36:39Z</time>
      </trkpt>
      <trkpt lat="43.38685" lon="6.65736">
        <ele>130.19999694824</ele>
        <time>2018-10-14T10:36:41Z</time>
      </trkpt>
      <trkpt lat="43.3868" lon="6.65746">
        <ele>129.60000610352</ele>
        <time>2018-10-14T10:36:43Z</time>
      </trkpt>
      <trkpt lat="43.38676" lon="6.65757">
        <ele>129.19999694824</ele>
        <time>2018-10-14T10:36:45Z</time>
      </trkpt>
      <trkpt lat="43.38675" lon="6.65764">
        <ele>128.80000305176</ele>
        <time>2018-10-14T10:36:46Z</time>
      </trkpt>
      <trkpt lat="43.3867" lon="6.65797">
        <ele>127.80000305176</ele>
        <time>2018-10-14T10:36:50Z</time>
      </trkpt>
      <trkpt lat="43.3867" lon="6.65806">
        <ele>127.40000152588</ele>
        <time>2018-10-14T10:36:51Z</time>
      </trkpt>
      <trkpt lat="43.38669" lon="6.65822">
        <ele>126.80000305176</ele>
        <time>2018-10-14T10:36:53Z</time>
      </trkpt>
      <trkpt lat="43.38668" lon="6.65829">
        <ele>126.40000152588</ele>
        <time>2018-10-14T10:36:54Z</time>
      </trkpt>
      <trkpt lat="43.38665" lon="6.65848">
        <ele>125</ele>
        <time>2018-10-14T10:36:57Z</time>
      </trkpt>
      <trkpt lat="43.38664" lon="6.65864">
        <ele>124.19999694824</ele>
        <time>2018-10-14T10:36:59Z</time>
      </trkpt>
      <trkpt lat="43.38663" lon="6.65871">
        <ele>123.59999847412</ele>
        <time>2018-10-14T10:37:00Z</time>
      </trkpt>
      <trkpt lat="43.38659" lon="6.65888">
        <ele>122.80000305176</ele>
        <time>2018-10-14T10:37:02Z</time>
      </trkpt>
      <trkpt lat="43.38658" lon="6.65897">
        <ele>122.19999694824</ele>
        <time>2018-10-14T10:37:03Z</time>
      </trkpt>
      <trkpt lat="43.38655" lon="6.65915">
        <ele>121.19999694824</ele>
        <time>2018-10-14T10:37:05Z</time>
      </trkpt>
      <trkpt lat="43.38654" lon="6.65935">
        <ele>120.19999694824</ele>
        <time>2018-10-14T10:37:07Z</time>
      </trkpt>
      <trkpt lat="43.38654" lon="6.65943">
        <ele>119.80000305176</ele>
        <time>2018-10-14T10:37:08Z</time>
      </trkpt>
      <trkpt lat="43.3865" lon="6.65957">
        <ele>118.80000305176</ele>
        <time>2018-10-14T10:37:10Z</time>
      </trkpt>
      <trkpt lat="43.3865" lon="6.65973">
        <ele>117.80000305176</ele>
        <time>2018-10-14T10:37:12Z</time>
      </trkpt>
      <trkpt lat="43.38648" lon="6.65981">
        <ele>117.40000152588</ele>
        <time>2018-10-14T10:37:13Z</time>
      </trkpt>
      <trkpt lat="43.38643" lon="6.65987">
        <ele>117</ele>
        <time>2018-10-14T10:37:14Z</time>
      </trkpt>
      <trkpt lat="43.38639" lon="6.6599">
        <ele>116.59999847412</ele>
        <time>2018-10-14T10:37:15Z</time>
      </trkpt>
      <trkpt lat="43.3863" lon="6.65992">
        <ele>115.19999694824</ele>
        <time>2018-10-14T10:37:18Z</time>
      </trkpt>
      <trkpt lat="43.38623" lon="6.65994">
        <ele>114.40000152588</ele>
        <time>2018-10-14T10:37:20Z</time>
      </trkpt>
      <trkpt lat="43.38615" lon="6.65995">
        <ele>113.40000152588</ele>
        <time>2018-10-14T10:37:22Z</time>
      </trkpt>
      <trkpt lat="43.3861" lon="6.65994">
        <ele>112.80000305176</ele>
        <time>2018-10-14T10:37:23Z</time>
      </trkpt>
      <trkpt lat="43.38605" lon="6.65993">
        <ele>112.19999694824</ele>
        <time>2018-10-14T10:37:24Z</time>
      </trkpt>
      <trkpt lat="43.38596" lon="6.65996">
        <ele>111.19999694824</ele>
        <time>2018-10-14T10:37:26Z</time>
      </trkpt>
      <trkpt lat="43.38589" lon="6.66002">
        <ele>109.59999847412</ele>
        <time>2018-10-14T10:37:29Z</time>
      </trkpt>
      <trkpt lat="43.38585" lon="6.6601">
        <ele>107</ele>
        <time>2018-10-14T10:37:34Z</time>
      </trkpt>
      <trkpt lat="43.38583" lon="6.66027">
        <ele>104</ele>
        <time>2018-10-14T10:37:40Z</time>
      </trkpt>
      <trkpt lat="43.38578" lon="6.66048">
        <ele>101.40000152588</ele>
        <time>2018-10-14T10:37:45Z</time>
      </trkpt>
      <trkpt lat="43.3857" lon="6.66049">
        <ele>100.59999847412</ele>
        <time>2018-10-14T10:37:47Z</time>
      </trkpt>
      <trkpt lat="43.38567" lon="6.66045">
        <ele>100</ele>
        <time>2018-10-14T10:37:48Z</time>
      </trkpt>
      <trkpt lat="43.3856" lon="6.66037">
        <ele>99.199996948242</ele>
        <time>2018-10-14T10:37:50Z</time>
      </trkpt>
      <trkpt lat="43.38552" lon="6.66031">
        <ele>98.199996948242</ele>
        <time>2018-10-14T10:37:52Z</time>
      </trkpt>
      <trkpt lat="43.38531" lon="6.66007">
        <ele>96.199996948242</ele>
        <time>2018-10-14T10:37:58Z</time>
      </trkpt>
      <trkpt lat="43.38523" lon="6.65997">
        <ele>95.599998474121</ele>
        <time>2018-10-14T10:38:00Z</time>
      </trkpt>
      <trkpt lat="43.38503" lon="6.65976">
        <ele>94</ele>
        <time>2018-10-14T10:38:04Z</time>
      </trkpt>
      <trkpt lat="43.38498" lon="6.65969">
        <ele>93.599998474121</ele>
        <time>2018-10-14T10:38:05Z</time>
      </trkpt>
      <trkpt lat="43.38491" lon="6.65951">
        <ele>92.800003051758</ele>
        <time>2018-10-14T10:38:07Z</time>
      </trkpt>
      <trkpt lat="43.38487" lon="6.65931">
        <ele>92</ele>
        <time>2018-10-14T10:38:09Z</time>
      </trkpt>
      <trkpt lat="43.38486" lon="6.65909">
        <ele>91.199996948242</ele>
        <time>2018-10-14T10:38:11Z</time>
      </trkpt>
      <trkpt lat="43.38484" lon="6.65888">
        <ele>90.599998474121</ele>
        <time>2018-10-14T10:38:13Z</time>
      </trkpt>
      <trkpt lat="43.38485" lon="6.65878">
        <ele>90.199996948242</ele>
        <time>2018-10-14T10:38:14Z</time>
      </trkpt>
      <trkpt lat="43.38488" lon="6.6587">
        <ele>90</ele>
        <time>2018-10-14T10:38:15Z</time>
      </trkpt>
      <trkpt lat="43.38499" lon="6.65857">
        <ele>89.199996948242</ele>
        <time>2018-10-14T10:38:17Z</time>
      </trkpt>
      <trkpt lat="43.38515" lon="6.65847">
        <ele>88.199996948242</ele>
        <time>2018-10-14T10:38:20Z</time>
      </trkpt>
      <trkpt lat="43.38518" lon="6.65835">
        <ele>87.599998474121</ele>
        <time>2018-10-14T10:38:22Z</time>
      </trkpt>
      <trkpt lat="43.38512" lon="6.65826">
        <ele>86.800003051758</ele>
        <time>2018-10-14T10:38:24Z</time>
      </trkpt>
      <trkpt lat="43.38503" lon="6.65823">
        <ele>86.199996948242</ele>
        <time>2018-10-14T10:38:26Z</time>
      </trkpt>
      <trkpt lat="43.3849" lon="6.6582">
        <ele>85.400001525879</ele>
        <time>2018-10-14T10:38:29Z</time>
      </trkpt>
      <trkpt lat="43.38478" lon="6.65816">
        <ele>84.800003051758</ele>
        <time>2018-10-14T10:38:32Z</time>
      </trkpt>
      <trkpt lat="43.38469" lon="6.65814">
        <ele>84.400001525879</ele>
        <time>2018-10-14T10:38:34Z</time>
      </trkpt>
      <trkpt lat="43.38459" lon="6.65814">
        <ele>84</ele>
        <time>2018-10-14T10:38:36Z</time>
      </trkpt>
      <trkpt lat="43.38449" lon="6.65815">
        <ele>83.400001525879</ele>
        <time>2018-10-14T10:38:38Z</time>
      </trkpt>
      <trkpt lat="43.3844" lon="6.65808">
        <ele>82.800003051758</ele>
        <time>2018-10-14T10:38:40Z</time>
      </trkpt>
      <trkpt lat="43.38439" lon="6.65802">
        <ele>82.599998474121</ele>
        <time>2018-10-14T10:38:41Z</time>
      </trkpt>
      <trkpt lat="43.38438" lon="6.65796">
        <ele>82.199996948242</ele>
        <time>2018-10-14T10:38:42Z</time>
      </trkpt>
      <trkpt lat="43.3844" lon="6.65779">
        <ele>81.599998474121</ele>
        <time>2018-10-14T10:38:44Z</time>
      </trkpt>
      <trkpt lat="43.38441" lon="6.65771">
        <ele>81.199996948242</ele>
        <time>2018-10-14T10:38:45Z</time>
      </trkpt>
      <trkpt lat="43.38441" lon="6.65754">
        <ele>80.599998474121</ele>
        <time>2018-10-14T10:38:47Z</time>
      </trkpt>
      <trkpt lat="43.38445" lon="6.65738">
        <ele>80</ele>
        <time>2018-10-14T10:38:49Z</time>
      </trkpt>
      <trkpt lat="43.38448" lon="6.6573">
        <ele>79.599998474121</ele>
        <time>2018-10-14T10:38:50Z</time>
      </trkpt>
      <trkpt lat="43.38457" lon="6.65717">
        <ele>79</ele>
        <time>2018-10-14T10:38:52Z</time>
      </trkpt>
      <trkpt lat="43.3847" lon="6.657">
        <ele>78.199996948242</ele>
        <time>2018-10-14T10:38:55Z</time>
      </trkpt>
      <trkpt lat="43.38481" lon="6.6568">
        <ele>77.199996948242</ele>
        <time>2018-10-14T10:38:58Z</time>
      </trkpt>
      <trkpt lat="43.38484" lon="6.65673">
        <ele>77</ele>
        <time>2018-10-14T10:38:59Z</time>
      </trkpt>
      <trkpt lat="43.38489" lon="6.65657">
        <ele>76.599998474121</ele>
        <time>2018-10-14T10:39:01Z</time>
      </trkpt>
      <trkpt lat="43.38491" lon="6.65642">
        <ele>76.199996948242</ele>
        <time>2018-10-14T10:39:03Z</time>
      </trkpt>
      <trkpt lat="43.38494" lon="6.65609">
        <ele>75.199996948242</ele>
        <time>2018-10-14T10:39:07Z</time>
      </trkpt>
      <trkpt lat="43.38493" lon="6.656">
        <ele>75</ele>
        <time>2018-10-14T10:39:08Z</time>
      </trkpt>
      <trkpt lat="43.38493" lon="6.65572">
        <ele>74.199996948242</ele>
        <time>2018-10-14T10:39:11Z</time>
      </trkpt>
      <trkpt lat="43.38494" lon="6.65563">
        <ele>74</ele>
        <time>2018-10-14T10:39:12Z</time>
      </trkpt>
      <trkpt lat="43.38497" lon="6.65555">
        <ele>73.599998474121</ele>
        <time>2018-10-14T10:39:13Z</time>
      </trkpt>
      <trkpt lat="43.38507" lon="6.65535">
        <ele>72.800003051758</ele>
        <time>2018-10-14T10:39:16Z</time>
      </trkpt>
      <trkpt lat="43.3851" lon="6.65531">
        <ele>72.599998474121</ele>
        <time>2018-10-14T10:39:17Z</time>
      </trkpt>
      <trkpt lat="43.38518" lon="6.65524">
        <ele>71.800003051758</ele>
        <time>2018-10-14T10:39:20Z</time>
      </trkpt>
      <trkpt lat="43.38516" lon="6.65515">
        <ele>71.199996948242</ele>
        <time>2018-10-14T10:39:23Z</time>
      </trkpt>
      <trkpt lat="43.38514" lon="6.65513">
        <ele>71.199996948242</ele>
        <time>2018-10-14T10:39:24Z</time>
      </trkpt>
      <trkpt lat="43.38506" lon="6.65515">
        <ele>70.400001525879</ele>
        <time>2018-10-14T10:39:27Z</time>
      </trkpt>
      <trkpt lat="43.38489" lon="6.65518">
        <ele>69.400001525879</ele>
        <time>2018-10-14T10:39:33Z</time>
      </trkpt>
      <trkpt lat="43.38474" lon="6.6552">
        <ele>68.599998474121</ele>
        <time>2018-10-14T10:39:39Z</time>
      </trkpt>
      <trkpt lat="43.38463" lon="6.65518">
        <ele>68.199996948242</ele>
        <time>2018-10-14T10:39:44Z</time>
      </trkpt>
      <trkpt lat="43.38461" lon="6.65516">
        <ele>68.199996948242</ele>
        <time>2018-10-14T10:39:45Z</time>
      </trkpt>
      <trkpt lat="43.38459" lon="6.65509">
        <ele>68.199996948242</ele>
        <time>2018-10-14T10:39:47Z</time>
      </trkpt>
      <trkpt lat="43.3846" lon="6.65503">
        <ele>68.199996948242</ele>
        <time>2018-10-14T10:39:49Z</time>
      </trkpt>
      <trkpt lat="43.38467" lon="6.65494">
        <ele>68</ele>
        <time>2018-10-14T10:39:53Z</time>
      </trkpt>
      <trkpt lat="43.38481" lon="6.65481">
        <ele>67.800003051758</ele>
        <time>2018-10-14T10:40:00Z</time>
      </trkpt>
      <trkpt lat="43.38493" lon="6.65465">
        <ele>67.800003051758</ele>
        <time>2018-10-14T10:40:08Z</time>
      </trkpt>
      <trkpt lat="43.38502" lon="6.65454">
        <ele>67.800003051758</ele>
        <time>2018-10-14T10:40:14Z</time>
      </trkpt>
      <trkpt lat="43.38511" lon="6.65446">
        <ele>67.800003051758</ele>
        <time>2018-10-14T10:40:19Z</time>
      </trkpt>
      <trkpt lat="43.38519" lon="6.65434">
        <ele>67.800003051758</ele>
        <time>2018-10-14T10:40:22Z</time>
      </trkpt>
      <trkpt lat="43.38521" lon="6.65429">
        <ele>67.800003051758</ele>
        <time>2018-10-14T10:40:23Z</time>
      </trkpt>
      <trkpt lat="43.38523" lon="6.65424">
        <ele>67.599998474121</ele>
        <time>2018-10-14T10:40:24Z</time>
      </trkpt>
      <trkpt lat="43.38523" lon="6.65418">
        <ele>67.599998474121</ele>
        <time>2018-10-14T10:40:25Z</time>
      </trkpt>
      <trkpt lat="43.38522" lon="6.65412">
        <ele>67.599998474121</ele>
        <time>2018-10-14T10:40:26Z</time>
      </trkpt>
      <trkpt lat="43.38518" lon="6.65403">
        <ele>67.599998474121</ele>
        <time>2018-10-14T10:40:28Z</time>
      </trkpt>
      <trkpt lat="43.38512" lon="6.65397">
        <ele>67.599998474121</ele>
        <time>2018-10-14T10:40:30Z</time>
      </trkpt>
      <trkpt lat="43.38505" lon="6.65392">
        <ele>67.599998474121</ele>
        <time>2018-10-14T10:40:32Z</time>
      </trkpt>
      <trkpt lat="43.38494" lon="6.65384">
        <ele>67.599998474121</ele>
        <time>2018-10-14T10:40:35Z</time>
      </trkpt>
      <trkpt lat="43.38478" lon="6.65371">
        <ele>67.599998474121</ele>
        <time>2018-10-14T10:40:40Z</time>
      </trkpt>
      <trkpt lat="43.3847" lon="6.65362">
        <ele>67.599998474121</ele>
        <time>2018-10-14T10:40:42Z</time>
      </trkpt>
      <trkpt lat="43.38464" lon="6.6535">
        <ele>67.599998474121</ele>
        <time>2018-10-14T10:40:44Z</time>
      </trkpt>
      <trkpt lat="43.38451" lon="6.65309">
        <ele>67.199996948242</ele>
        <time>2018-10-14T10:40:49Z</time>
      </trkpt>
      <trkpt lat="43.38441" lon="6.65264">
        <ele>66.599998474121</ele>
        <time>2018-10-14T10:40:54Z</time>
      </trkpt>
      <trkpt lat="43.38438" lon="6.65257">
        <ele>66.599998474121</ele>
        <time>2018-10-14T10:40:55Z</time>
      </trkpt>
      <trkpt lat="43.38432" lon="6.65243">
        <ele>66.599998474121</ele>
        <time>2018-10-14T10:40:57Z</time>
      </trkpt>
      <trkpt lat="43.38429" lon="6.65229">
        <ele>66.400001525879</ele>
        <time>2018-10-14T10:40:59Z</time>
      </trkpt>
      <trkpt lat="43.38429" lon="6.65222">
        <ele>66.400001525879</ele>
        <time>2018-10-14T10:41:00Z</time>
      </trkpt>
      <trkpt lat="43.38428" lon="6.65199">
        <ele>66.199996948242</ele>
        <time>2018-10-14T10:41:03Z</time>
      </trkpt>
      <trkpt lat="43.38426" lon="6.65184">
        <ele>66</ele>
        <time>2018-10-14T10:41:05Z</time>
      </trkpt>
      <trkpt lat="43.38424" lon="6.65168">
        <ele>65.800003051758</ele>
        <time>2018-10-14T10:41:07Z</time>
      </trkpt>
      <trkpt lat="43.38419" lon="6.65145">
        <ele>65.800003051758</ele>
        <time>2018-10-14T10:41:10Z</time>
      </trkpt>
      <trkpt lat="43.38419" lon="6.65108">
        <ele>65.400001525879</ele>
        <time>2018-10-14T10:41:14Z</time>
      </trkpt>
      <trkpt lat="43.38419" lon="6.65098">
        <ele>65.199996948242</ele>
        <time>2018-10-14T10:41:15Z</time>
      </trkpt>
      <trkpt lat="43.38416" lon="6.6508">
        <ele>64.599998474121</ele>
        <time>2018-10-14T10:41:17Z</time>
      </trkpt>
      <trkpt lat="43.38406" lon="6.65061">
        <ele>64</ele>
        <time>2018-10-14T10:41:20Z</time>
      </trkpt>
      <trkpt lat="43.38403" lon="6.65046">
        <ele>63.599998474121</ele>
        <time>2018-10-14T10:41:22Z</time>
      </trkpt>
      <trkpt lat="43.384" lon="6.65031">
        <ele>63.200000762939</ele>
        <time>2018-10-14T10:41:24Z</time>
      </trkpt>
      <trkpt lat="43.38395" lon="6.65019">
        <ele>62.799999237061</ele>
        <time>2018-10-14T10:41:26Z</time>
      </trkpt>
      <trkpt lat="43.38388" lon="6.65008">
        <ele>62.599998474121</ele>
        <time>2018-10-14T10:41:28Z</time>
      </trkpt>
      <trkpt lat="43.38381" lon="6.64998">
        <ele>62.400001525879</ele>
        <time>2018-10-14T10:41:30Z</time>
      </trkpt>
      <trkpt lat="43.38368" lon="6.64984">
        <ele>62</ele>
        <time>2018-10-14T10:41:33Z</time>
      </trkpt>
      <trkpt lat="43.38362" lon="6.64974">
        <ele>61.599998474121</ele>
        <time>2018-10-14T10:41:35Z</time>
      </trkpt>
      <trkpt lat="43.38358" lon="6.6496">
        <ele>61.200000762939</ele>
        <time>2018-10-14T10:41:37Z</time>
      </trkpt>
      <trkpt lat="43.38351" lon="6.64924">
        <ele>60.599998474121</ele>
        <time>2018-10-14T10:41:41Z</time>
      </trkpt>
      <trkpt lat="43.38343" lon="6.64915">
        <ele>60.200000762939</ele>
        <time>2018-10-14T10:41:43Z</time>
      </trkpt>
      <trkpt lat="43.38337" lon="6.64914">
        <ele>60</ele>
        <time>2018-10-14T10:41:44Z</time>
      </trkpt>
      <trkpt lat="43.38332" lon="6.64913">
        <ele>59.799999237061</ele>
        <time>2018-10-14T10:41:45Z</time>
      </trkpt>
      <trkpt lat="43.38323" lon="6.64905">
        <ele>59.400001525879</ele>
        <time>2018-10-14T10:41:47Z</time>
      </trkpt>
      <trkpt lat="43.38318" lon="6.64893">
        <ele>59.200000762939</ele>
        <time>2018-10-14T10:41:49Z</time>
      </trkpt>
      <trkpt lat="43.38316" lon="6.64881">
        <ele>58.799999237061</ele>
        <time>2018-10-14T10:41:51Z</time>
      </trkpt>
      <trkpt lat="43.38314" lon="6.64857">
        <ele>58.400001525879</ele>
        <time>2018-10-14T10:41:56Z</time>
      </trkpt>
      <trkpt lat="43.38312" lon="6.64844">
        <ele>57.599998474121</ele>
        <time>2018-10-14T10:42:00Z</time>
      </trkpt>
      <trkpt lat="43.38309" lon="6.64837">
        <ele>56.599998474121</ele>
        <time>2018-10-14T10:42:06Z</time>
      </trkpt>
      <trkpt lat="43.38309" lon="6.64835">
        <ele>56.400001525879</ele>
        <time>2018-10-14T10:42:08Z</time>
      </trkpt>
      <trkpt lat="43.38309" lon="6.64834">
        <ele>56</ele>
        <time>2018-10-14T10:42:10Z</time>
      </trkpt>
      <trkpt lat="43.38307" lon="6.64826">
        <ele>53.799999237061</ele>
        <time>2018-10-14T10:42:33Z</time>
      </trkpt>
      <trkpt lat="43.38308" lon="6.6482">
        <ele>53.599998474121</ele>
        <time>2018-10-14T10:42:36Z</time>
      </trkpt>
      <trkpt lat="43.38308" lon="6.64817">
        <ele>53.400001525879</ele>
        <time>2018-10-14T10:42:38Z</time>
      </trkpt>
      <trkpt lat="43.38308" lon="6.64815">
        <ele>53.400001525879</ele>
        <time>2018-10-14T10:42:39Z</time>
      </trkpt>
      <trkpt lat="43.38307" lon="6.64812">
        <ele>53.200000762939</ele>
        <time>2018-10-14T10:42:41Z</time>
      </trkpt>
      <trkpt lat="43.38306" lon="6.64812">
        <ele>53.200000762939</ele>
        <time>2018-10-14T10:42:42Z</time>
      </trkpt>
      <trkpt lat="43.38301" lon="6.64811">
        <ele>53</ele>
        <time>2018-10-14T10:42:46Z</time>
      </trkpt>
      <trkpt lat="43.38298" lon="6.6481">
        <ele>52.799999237061</ele>
        <time>2018-10-14T10:42:48Z</time>
      </trkpt>
      <trkpt lat="43.38295" lon="6.64808">
        <ele>53</ele>
        <time>2018-10-14T10:42:51Z</time>
      </trkpt>
      <trkpt lat="43.38293" lon="6.64807">
        <ele>53</ele>
        <time>2018-10-14T10:42:54Z</time>
      </trkpt>
      <trkpt lat="43.38293" lon="6.64807">
        <ele>53</ele>
        <time>2018-10-14T10:42:55Z</time>
      </trkpt>
      <trkpt lat="43.38272" lon="6.64788">
        <ele>53.599998474121</ele>
        <time>2018-10-14T10:43:29Z</time>
      </trkpt>
      <trkpt lat="43.3827" lon="6.64786">
        <ele>53.799999237061</ele>
        <time>2018-10-14T10:43:31Z</time>
      </trkpt>
      <trkpt lat="43.3826" lon="6.64779">
        <ele>53.799999237061</ele>
        <time>2018-10-14T10:43:39Z</time>
      </trkpt>
      <trkpt lat="43.38243" lon="6.64772">
        <ele>53.799999237061</ele>
        <time>2018-10-14T10:43:46Z</time>
      </trkpt>
      <trkpt lat="43.38227" lon="6.64768">
        <ele>54</ele>
        <time>2018-10-14T10:43:53Z</time>
      </trkpt>
      <trkpt lat="43.38216" lon="6.64769">
        <ele>54.200000762939</ele>
        <time>2018-10-14T10:43:59Z</time>
      </trkpt>
      <trkpt lat="43.38216" lon="6.64768">
        <ele>54.200000762939</ele>
        <time>2018-10-14T10:44:01Z</time>
      </trkpt>
      <trkpt lat="43.38204" lon="6.64769">
        <ele>55.200000762939</ele>
        <time>2018-10-14T10:44:12Z</time>
      </trkpt>
      <trkpt lat="43.38201" lon="6.64769">
        <ele>55.400001525879</ele>
        <time>2018-10-14T10:44:14Z</time>
      </trkpt>
      <trkpt lat="43.38194" lon="6.64767">
        <ele>55.799999237061</ele>
        <time>2018-10-14T10:44:21Z</time>
      </trkpt>
      <trkpt lat="43.38183" lon="6.64766">
        <ele>56.400001525879</ele>
        <time>2018-10-14T10:44:30Z</time>
      </trkpt>
      <trkpt lat="43.38179" lon="6.64768">
        <ele>56.599998474121</ele>
        <time>2018-10-14T10:44:34Z</time>
      </trkpt>
      <trkpt lat="43.38175" lon="6.64766">
        <ele>57.400001525879</ele>
        <time>2018-10-14T10:44:41Z</time>
      </trkpt>
      <trkpt lat="43.38172" lon="6.64765">
        <ele>57.799999237061</ele>
        <time>2018-10-14T10:44:47Z</time>
      </trkpt>
      <trkpt lat="43.3817" lon="6.64764">
        <ele>58.200000762939</ele>
        <time>2018-10-14T10:44:50Z</time>
      </trkpt>
      <trkpt lat="43.3817" lon="6.64764">
        <ele>58.200000762939</ele>
        <time>2018-10-14T10:44:51Z</time>
      </trkpt>
      <trkpt lat="43.38166" lon="6.64764">
        <ele>58.799999237061</ele>
        <time>2018-10-14T10:44:56Z</time>
      </trkpt>
      <trkpt lat="43.38161" lon="6.64764">
        <ele>59.799999237061</ele>
        <time>2018-10-14T10:45:03Z</time>
      </trkpt>
      <trkpt lat="43.3816" lon="6.64764">
        <ele>59.799999237061</ele>
        <time>2018-10-14T10:45:04Z</time>
      </trkpt>
      <trkpt lat="43.38152" lon="6.6476">
        <ele>60.799999237061</ele>
        <time>2018-10-14T10:45:12Z</time>
      </trkpt>
      <trkpt lat="43.38148" lon="6.64756">
        <ele>61.400001525879</ele>
        <time>2018-10-14T10:45:17Z</time>
      </trkpt>
      <trkpt lat="43.38147" lon="6.64755">
        <ele>61.400001525879</ele>
        <time>2018-10-14T10:45:18Z</time>
      </trkpt>
      <trkpt lat="43.38138" lon="6.64753">
        <ele>62.200000762939</ele>
        <time>2018-10-14T10:45:26Z</time>
      </trkpt>
      <trkpt lat="43.38133" lon="6.64751">
        <ele>62.599998474121</ele>
        <time>2018-10-14T10:45:32Z</time>
      </trkpt>
      <trkpt lat="43.38124" lon="6.64751">
        <ele>63.599998474121</ele>
        <time>2018-10-14T10:45:43Z</time>
      </trkpt>
      <trkpt lat="43.38121" lon="6.64752">
        <ele>63.799999237061</ele>
        <time>2018-10-14T10:45:46Z</time>
      </trkpt>
      <trkpt lat="43.38118" lon="6.64753">
        <ele>64</ele>
        <time>2018-10-14T10:45:49Z</time>
      </trkpt>
      <trkpt lat="43.38112" lon="6.64754">
        <ele>64.800003051758</ele>
        <time>2018-10-14T10:45:56Z</time>
      </trkpt>
      <trkpt lat="43.38105" lon="6.64756">
        <ele>65.400001525879</ele>
        <time>2018-10-14T10:46:03Z</time>
      </trkpt>
      <trkpt lat="43.38097" lon="6.64756">
        <ele>66.400001525879</ele>
        <time>2018-10-14T10:46:09Z</time>
      </trkpt>
      <trkpt lat="43.38089" lon="6.64746">
        <ele>67</ele>
        <time>2018-10-14T10:46:14Z</time>
      </trkpt>
      <trkpt lat="43.3808" lon="6.64722">
        <ele>67.800003051758</ele>
        <time>2018-10-14T10:46:21Z</time>
      </trkpt>
      <trkpt lat="43.38077" lon="6.64707">
        <ele>68.199996948242</ele>
        <time>2018-10-14T10:46:24Z</time>
      </trkpt>
      <trkpt lat="43.38078" lon="6.64695">
        <ele>68.400001525879</ele>
        <time>2018-10-14T10:46:26Z</time>
      </trkpt>
      <trkpt lat="43.38083" lon="6.6467">
        <ele>68.599998474121</ele>
        <time>2018-10-14T10:46:30Z</time>
      </trkpt>
      <trkpt lat="43.38086" lon="6.64658">
        <ele>68.599998474121</ele>
        <time>2018-10-14T10:46:32Z</time>
      </trkpt>
      <trkpt lat="43.3809" lon="6.64648">
        <ele>68.800003051758</ele>
        <time>2018-10-14T10:46:34Z</time>
      </trkpt>
      <trkpt lat="43.38095" lon="6.64633">
        <ele>69.199996948242</ele>
        <time>2018-10-14T10:46:39Z</time>
      </trkpt>
      <trkpt lat="43.38095" lon="6.64625">
        <ele>69.599998474121</ele>
        <time>2018-10-14T10:46:42Z</time>
      </trkpt>
      <trkpt lat="43.38096" lon="6.64622">
        <ele>69.800003051758</ele>
        <time>2018-10-14T10:46:43Z</time>
      </trkpt>
      <trkpt lat="43.38098" lon="6.64605">
        <ele>70</ele>
        <time>2018-10-14T10:46:48Z</time>
      </trkpt>
      <trkpt lat="43.38103" lon="6.6459">
        <ele>70.199996948242</ele>
        <time>2018-10-14T10:46:52Z</time>
      </trkpt>
      <trkpt lat="43.38112" lon="6.64588">
        <ele>70.400001525879</ele>
        <time>2018-10-14T10:46:56Z</time>
      </trkpt>
      <trkpt lat="43.38115" lon="6.64588">
        <ele>70.599998474121</ele>
        <time>2018-10-14T10:46:58Z</time>
      </trkpt>
      <trkpt lat="43.38122" lon="6.64591">
        <ele>71.199996948242</ele>
        <time>2018-10-14T10:47:02Z</time>
      </trkpt>
      <trkpt lat="43.38127" lon="6.64593">
        <ele>71.800003051758</ele>
        <time>2018-10-14T10:47:06Z</time>
      </trkpt>
      <trkpt lat="43.3813" lon="6.64591">
        <ele>72</ele>
        <time>2018-10-14T10:47:08Z</time>
      </trkpt>
      <trkpt lat="43.38131" lon="6.64589">
        <ele>72.199996948242</ele>
        <time>2018-10-14T10:47:10Z</time>
      </trkpt>
      <trkpt lat="43.38134" lon="6.64581">
        <ele>72.400001525879</ele>
        <time>2018-10-14T10:47:14Z</time>
      </trkpt>
      <trkpt lat="43.38136" lon="6.6458">
        <ele>72.400001525879</ele>
        <time>2018-10-14T10:47:15Z</time>
      </trkpt>
      <trkpt lat="43.38143" lon="6.64579">
        <ele>72.800003051758</ele>
        <time>2018-10-14T10:47:19Z</time>
      </trkpt>
      <trkpt lat="43.38151" lon="6.64574">
        <ele>73.599998474121</ele>
        <time>2018-10-14T10:47:26Z</time>
      </trkpt>
      <trkpt lat="43.38158" lon="6.64565">
        <ele>74.400001525879</ele>
        <time>2018-10-14T10:47:33Z</time>
      </trkpt>
      <trkpt lat="43.38165" lon="6.64558">
        <ele>75.599998474121</ele>
        <time>2018-10-14T10:47:40Z</time>
      </trkpt>
      <trkpt lat="43.38171" lon="6.64552">
        <ele>76.400001525879</ele>
        <time>2018-10-14T10:47:47Z</time>
      </trkpt>
      <trkpt lat="43.38172" lon="6.64549">
        <ele>76.800003051758</ele>
        <time>2018-10-14T10:47:49Z</time>
      </trkpt>
      <trkpt lat="43.38172" lon="6.64541">
        <ele>77</ele>
        <time>2018-10-14T10:47:52Z</time>
      </trkpt>
      <trkpt lat="43.38175" lon="6.64531">
        <ele>77.800003051758</ele>
        <time>2018-10-14T10:47:57Z</time>
      </trkpt>
      <trkpt lat="43.38182" lon="6.64525">
        <ele>78.800003051758</ele>
        <time>2018-10-14T10:48:03Z</time>
      </trkpt>
      <trkpt lat="43.38184" lon="6.64524">
        <ele>79</ele>
        <time>2018-10-14T10:48:05Z</time>
      </trkpt>
      <trkpt lat="43.38185" lon="6.64518">
        <ele>79.400001525879</ele>
        <time>2018-10-14T10:48:08Z</time>
      </trkpt>
      <trkpt lat="43.38186" lon="6.64505">
        <ele>80.800003051758</ele>
        <time>2018-10-14T10:48:16Z</time>
      </trkpt>
      <trkpt lat="43.38191" lon="6.64497">
        <ele>82.199996948242</ele>
        <time>2018-10-14T10:48:23Z</time>
      </trkpt>
      <trkpt lat="43.38198" lon="6.64495">
        <ele>83.400001525879</ele>
        <time>2018-10-14T10:48:29Z</time>
      </trkpt>
      <trkpt lat="43.38201" lon="6.64492">
        <ele>83.800003051758</ele>
        <time>2018-10-14T10:48:32Z</time>
      </trkpt>
      <trkpt lat="43.38203" lon="6.64485">
        <ele>84.400001525879</ele>
        <time>2018-10-14T10:48:35Z</time>
      </trkpt>
      <trkpt lat="43.38208" lon="6.64463">
        <ele>85.199996948242</ele>
        <time>2018-10-14T10:48:41Z</time>
      </trkpt>
      <trkpt lat="43.38207" lon="6.64444">
        <ele>86</ele>
        <time>2018-10-14T10:48:46Z</time>
      </trkpt>
      <trkpt lat="43.38201" lon="6.64418">
        <ele>87</ele>
        <time>2018-10-14T10:48:53Z</time>
      </trkpt>
      <trkpt lat="43.382" lon="6.64402">
        <ele>87.400001525879</ele>
        <time>2018-10-14T10:48:56Z</time>
      </trkpt>
      <trkpt lat="43.38201" lon="6.64395">
        <ele>87.400001525879</ele>
        <time>2018-10-14T10:48:57Z</time>
      </trkpt>
      <trkpt lat="43.3821" lon="6.6437">
        <ele>87.599998474121</ele>
        <time>2018-10-14T10:49:01Z</time>
      </trkpt>
      <trkpt lat="43.38213" lon="6.64362">
        <ele>87.800003051758</ele>
        <time>2018-10-14T10:49:02Z</time>
      </trkpt>
      <trkpt lat="43.38218" lon="6.64355">
        <ele>87.800003051758</ele>
        <time>2018-10-14T10:49:03Z</time>
      </trkpt>
      <trkpt lat="43.38231" lon="6.64334">
        <ele>88</ele>
        <time>2018-10-14T10:49:06Z</time>
      </trkpt>
      <trkpt lat="43.38234" lon="6.64328">
        <ele>88.199996948242</ele>
        <time>2018-10-14T10:49:07Z</time>
      </trkpt>
      <trkpt lat="43.38235" lon="6.64321">
        <ele>88.400001525879</ele>
        <time>2018-10-14T10:49:08Z</time>
      </trkpt>
      <trkpt lat="43.38235" lon="6.64309">
        <ele>88.599998474121</ele>
        <time>2018-10-14T10:49:10Z</time>
      </trkpt>
      <trkpt lat="43.38234" lon="6.64282">
        <ele>89</ele>
        <time>2018-10-14T10:49:15Z</time>
      </trkpt>
      <trkpt lat="43.38239" lon="6.6427">
        <ele>89.199996948242</ele>
        <time>2018-10-14T10:49:19Z</time>
      </trkpt>
      <trkpt lat="43.38247" lon="6.64259">
        <ele>90</ele>
        <time>2018-10-14T10:49:25Z</time>
      </trkpt>
      <trkpt lat="43.38254" lon="6.64248">
        <ele>90.599998474121</ele>
        <time>2018-10-14T10:49:31Z</time>
      </trkpt>
      <trkpt lat="43.38265" lon="6.64234">
        <ele>91.599998474121</ele>
        <time>2018-10-14T10:49:39Z</time>
      </trkpt>
      <trkpt lat="43.3827" lon="6.64219">
        <ele>92.199996948242</ele>
        <time>2018-10-14T10:49:45Z</time>
      </trkpt>
      <trkpt lat="43.38266" lon="6.64202">
        <ele>92.800003051758</ele>
        <time>2018-10-14T10:49:50Z</time>
      </trkpt>
      <trkpt lat="43.38259" lon="6.64194">
        <ele>93</ele>
        <time>2018-10-14T10:49:52Z</time>
      </trkpt>
      <trkpt lat="43.3825" lon="6.64185">
        <ele>93</ele>
        <time>2018-10-14T10:49:54Z</time>
      </trkpt>
      <trkpt lat="43.3824" lon="6.64176">
        <ele>93.199996948242</ele>
        <time>2018-10-14T10:49:56Z</time>
      </trkpt>
      <trkpt lat="43.38229" lon="6.64168">
        <ele>93.199996948242</ele>
        <time>2018-10-14T10:49:58Z</time>
      </trkpt>
      <trkpt lat="43.38224" lon="6.64164">
        <ele>93.199996948242</ele>
        <time>2018-10-14T10:49:59Z</time>
      </trkpt>
      <trkpt lat="43.3822" lon="6.64158">
        <ele>93.199996948242</ele>
        <time>2018-10-14T10:50:00Z</time>
      </trkpt>
      <trkpt lat="43.38218" lon="6.64151">
        <ele>93.199996948242</ele>
        <time>2018-10-14T10:50:01Z</time>
      </trkpt>
      <trkpt lat="43.38219" lon="6.64144">
        <ele>93</ele>
        <time>2018-10-14T10:50:02Z</time>
      </trkpt>
      <trkpt lat="43.38226" lon="6.64131">
        <ele>93</ele>
        <time>2018-10-14T10:50:04Z</time>
      </trkpt>
      <trkpt lat="43.38247" lon="6.6411">
        <ele>93</ele>
        <time>2018-10-14T10:50:09Z</time>
      </trkpt>
      <trkpt lat="43.38264" lon="6.64091">
        <ele>93</ele>
        <time>2018-10-14T10:50:14Z</time>
      </trkpt>
      <trkpt lat="43.38278" lon="6.64075">
        <ele>93.400001525879</ele>
        <time>2018-10-14T10:50:19Z</time>
      </trkpt>
      <trkpt lat="43.38293" lon="6.64054">
        <ele>94</ele>
        <time>2018-10-14T10:50:26Z</time>
      </trkpt>
      <trkpt lat="43.38302" lon="6.64032">
        <ele>94.400001525879</ele>
        <time>2018-10-14T10:50:33Z</time>
      </trkpt>
      <trkpt lat="43.38305" lon="6.6401">
        <ele>94.800003051758</ele>
        <time>2018-10-14T10:50:39Z</time>
      </trkpt>
      <trkpt lat="43.38302" lon="6.63976">
        <ele>95.199996948242</ele>
        <time>2018-10-14T10:50:48Z</time>
      </trkpt>
      <trkpt lat="43.38298" lon="6.63946">
        <ele>96</ele>
        <time>2018-10-14T10:50:56Z</time>
      </trkpt>
      <trkpt lat="43.38291" lon="6.6392">
        <ele>96.400001525879</ele>
        <time>2018-10-14T10:51:02Z</time>
      </trkpt>
      <trkpt lat="43.38277" lon="6.63906">
        <ele>96.599998474121</ele>
        <time>2018-10-14T10:51:07Z</time>
      </trkpt>
      <trkpt lat="43.38255" lon="6.6389">
        <ele>96.800003051758</ele>
        <time>2018-10-14T10:51:14Z</time>
      </trkpt>
      <trkpt lat="43.3824" lon="6.63873">
        <ele>97.199996948242</ele>
        <time>2018-10-14T10:51:20Z</time>
      </trkpt>
      <trkpt lat="43.38227" lon="6.63858">
        <ele>97.599998474121</ele>
        <time>2018-10-14T10:51:26Z</time>
      </trkpt>
      <trkpt lat="43.38214" lon="6.63847">
        <ele>98.400001525879</ele>
        <time>2018-10-14T10:51:33Z</time>
      </trkpt>
      <trkpt lat="43.38202" lon="6.63839">
        <ele>99.199996948242</ele>
        <time>2018-10-14T10:51:40Z</time>
      </trkpt>
      <trkpt lat="43.38192" lon="6.63831">
        <ele>99.800003051758</ele>
        <time>2018-10-14T10:51:47Z</time>
      </trkpt>
      <trkpt lat="43.38182" lon="6.63825">
        <ele>100.80000305176</ele>
        <time>2018-10-14T10:51:54Z</time>
      </trkpt>
      <trkpt lat="43.38174" lon="6.63823">
        <ele>101.59999847412</ele>
        <time>2018-10-14T10:52:01Z</time>
      </trkpt>
      <trkpt lat="43.3817" lon="6.63822">
        <ele>101.80000305176</ele>
        <time>2018-10-14T10:52:05Z</time>
      </trkpt>
      <trkpt lat="43.38167" lon="6.63822">
        <ele>102</ele>
        <time>2018-10-14T10:52:07Z</time>
      </trkpt>
      <trkpt lat="43.38155" lon="6.63816">
        <ele>103</ele>
        <time>2018-10-14T10:52:15Z</time>
      </trkpt>
      <trkpt lat="43.38154" lon="6.63815">
        <ele>103.19999694824</ele>
        <time>2018-10-14T10:52:16Z</time>
      </trkpt>
      <trkpt lat="43.38149" lon="6.63811">
        <ele>103.59999847412</ele>
        <time>2018-10-14T10:52:19Z</time>
      </trkpt>
      <trkpt lat="43.38148" lon="6.63811">
        <ele>103.59999847412</ele>
        <time>2018-10-14T10:52:20Z</time>
      </trkpt>
      <trkpt lat="43.38138" lon="6.63809">
        <ele>104.59999847412</ele>
        <time>2018-10-14T10:52:26Z</time>
      </trkpt>
      <trkpt lat="43.38128" lon="6.63805">
        <ele>105.19999694824</ele>
        <time>2018-10-14T10:52:32Z</time>
      </trkpt>
      <trkpt lat="43.38114" lon="6.638">
        <ele>106.40000152588</ele>
        <time>2018-10-14T10:52:40Z</time>
      </trkpt>
      <trkpt lat="43.38105" lon="6.63799">
        <ele>107.19999694824</ele>
        <time>2018-10-14T10:52:46Z</time>
      </trkpt>
      <trkpt lat="43.38099" lon="6.63796">
        <ele>108</ele>
        <time>2018-10-14T10:52:50Z</time>
      </trkpt>
      <trkpt lat="43.38096" lon="6.63795">
        <ele>108.19999694824</ele>
        <time>2018-10-14T10:52:52Z</time>
      </trkpt>
      <trkpt lat="43.38089" lon="6.63792">
        <ele>109</ele>
        <time>2018-10-14T10:52:58Z</time>
      </trkpt>
      <trkpt lat="43.38082" lon="6.63789">
        <ele>109.59999847412</ele>
        <time>2018-10-14T10:53:03Z</time>
      </trkpt>
      <trkpt lat="43.38072" lon="6.63783">
        <ele>110.59999847412</ele>
        <time>2018-10-14T10:53:10Z</time>
      </trkpt>
      <trkpt lat="43.38071" lon="6.6378">
        <ele>110.59999847412</ele>
        <time>2018-10-14T10:53:12Z</time>
      </trkpt>
      <trkpt lat="43.38068" lon="6.63776">
        <ele>111</ele>
        <time>2018-10-14T10:53:15Z</time>
      </trkpt>
      <trkpt lat="43.3806" lon="6.63774">
        <ele>111.80000305176</ele>
        <time>2018-10-14T10:53:21Z</time>
      </trkpt>
      <trkpt lat="43.38049" lon="6.63775">
        <ele>112.59999847412</ele>
        <time>2018-10-14T10:53:27Z</time>
      </trkpt>
      <trkpt lat="43.38038" lon="6.63773">
        <ele>113.59999847412</ele>
        <time>2018-10-14T10:53:34Z</time>
      </trkpt>
      <trkpt lat="43.3803" lon="6.63769">
        <ele>114.40000152588</ele>
        <time>2018-10-14T10:53:40Z</time>
      </trkpt>
      <trkpt lat="43.38018" lon="6.63763">
        <ele>115.40000152588</ele>
        <time>2018-10-14T10:53:48Z</time>
      </trkpt>
      <trkpt lat="43.38017" lon="6.63762">
        <ele>115.40000152588</ele>
        <time>2018-10-14T10:53:49Z</time>
      </trkpt>
      <trkpt lat="43.38011" lon="6.63758">
        <ele>116</ele>
        <time>2018-10-14T10:53:53Z</time>
      </trkpt>
      <trkpt lat="43.38009" lon="6.63756">
        <ele>116.19999694824</ele>
        <time>2018-10-14T10:53:54Z</time>
      </trkpt>
      <trkpt lat="43.38005" lon="6.63757">
        <ele>116.59999847412</ele>
        <time>2018-10-14T10:53:57Z</time>
      </trkpt>
      <trkpt lat="43.37993" lon="6.63755">
        <ele>118</ele>
        <time>2018-10-14T10:54:05Z</time>
      </trkpt>
      <trkpt lat="43.37981" lon="6.63754">
        <ele>119</ele>
        <time>2018-10-14T10:54:12Z</time>
      </trkpt>
      <trkpt lat="43.3797" lon="6.63756">
        <ele>119.80000305176</ele>
        <time>2018-10-14T10:54:19Z</time>
      </trkpt>
      <trkpt lat="43.37966" lon="6.63755">
        <ele>120.19999694824</ele>
        <time>2018-10-14T10:54:22Z</time>
      </trkpt>
      <trkpt lat="43.37963" lon="6.63756">
        <ele>120.40000152588</ele>
        <time>2018-10-14T10:54:24Z</time>
      </trkpt>
      <trkpt lat="43.37953" lon="6.63756">
        <ele>121.19999694824</ele>
        <time>2018-10-14T10:54:30Z</time>
      </trkpt>
      <trkpt lat="43.37943" lon="6.63758">
        <ele>122</ele>
        <time>2018-10-14T10:54:36Z</time>
      </trkpt>
      <trkpt lat="43.37932" lon="6.6376">
        <ele>123</ele>
        <time>2018-10-14T10:54:43Z</time>
      </trkpt>
      <trkpt lat="43.37921" lon="6.63763">
        <ele>124</ele>
        <time>2018-10-14T10:54:50Z</time>
      </trkpt>
      <trkpt lat="43.37911" lon="6.63764">
        <ele>124.80000305176</ele>
        <time>2018-10-14T10:54:56Z</time>
      </trkpt>
      <trkpt lat="43.37901" lon="6.63766">
        <ele>125.59999847412</ele>
        <time>2018-10-14T10:55:02Z</time>
      </trkpt>
      <trkpt lat="43.37888" lon="6.63766">
        <ele>126.40000152588</ele>
        <time>2018-10-14T10:55:09Z</time>
      </trkpt>
      <trkpt lat="43.37876" lon="6.63765">
        <ele>127.40000152588</ele>
        <time>2018-10-14T10:55:16Z</time>
      </trkpt>
      <trkpt lat="43.37865" lon="6.63764">
        <ele>128.19999694824</ele>
        <time>2018-10-14T10:55:22Z</time>
      </trkpt>
      <trkpt lat="43.3786" lon="6.63761">
        <ele>129</ele>
        <time>2018-10-14T10:55:26Z</time>
      </trkpt>
      <trkpt lat="43.37857" lon="6.6376">
        <ele>129.19999694824</ele>
        <time>2018-10-14T10:55:28Z</time>
      </trkpt>
      <trkpt lat="43.37847" lon="6.63757">
        <ele>130.39999389648</ele>
        <time>2018-10-14T10:55:34Z</time>
      </trkpt>
      <trkpt lat="43.37837" lon="6.63758">
        <ele>131</ele>
        <time>2018-10-14T10:55:40Z</time>
      </trkpt>
      <trkpt lat="43.37829" lon="6.63758">
        <ele>131.60000610352</ele>
        <time>2018-10-14T10:55:45Z</time>
      </trkpt>
      <trkpt lat="43.37822" lon="6.63759">
        <ele>132.39999389648</ele>
        <time>2018-10-14T10:55:49Z</time>
      </trkpt>
      <trkpt lat="43.37813" lon="6.63758">
        <ele>133.39999389648</ele>
        <time>2018-10-14T10:55:55Z</time>
      </trkpt>
      <trkpt lat="43.37805" lon="6.63755">
        <ele>134.19999694824</ele>
        <time>2018-10-14T10:56:01Z</time>
      </trkpt>
      <trkpt lat="43.37799" lon="6.63751">
        <ele>134.60000610352</ele>
        <time>2018-10-14T10:56:05Z</time>
      </trkpt>
      <trkpt lat="43.37791" lon="6.6375">
        <ele>135.39999389648</ele>
        <time>2018-10-14T10:56:11Z</time>
      </trkpt>
      <trkpt lat="43.37783" lon="6.6375">
        <ele>136.19999694824</ele>
        <time>2018-10-14T10:56:17Z</time>
      </trkpt>
      <trkpt lat="43.37773" lon="6.63749">
        <ele>137.39999389648</ele>
        <time>2018-10-14T10:56:24Z</time>
      </trkpt>
      <trkpt lat="43.37769" lon="6.63749">
        <ele>137.80000305176</ele>
        <time>2018-10-14T10:56:27Z</time>
      </trkpt>
      <trkpt lat="43.37767" lon="6.63748">
        <ele>138.19999694824</ele>
        <time>2018-10-14T10:56:29Z</time>
      </trkpt>
      <trkpt lat="43.37756" lon="6.63745">
        <ele>139</ele>
        <time>2018-10-14T10:56:36Z</time>
      </trkpt>
      <trkpt lat="43.37751" lon="6.63741">
        <ele>139.39999389648</ele>
        <time>2018-10-14T10:56:39Z</time>
      </trkpt>
      <trkpt lat="43.3775" lon="6.63739">
        <ele>139.60000610352</ele>
        <time>2018-10-14T10:56:40Z</time>
      </trkpt>
      <trkpt lat="43.37749" lon="6.63732">
        <ele>140</ele>
        <time>2018-10-14T10:56:43Z</time>
      </trkpt>
      <trkpt lat="43.3775" lon="6.63715">
        <ele>141</ele>
        <time>2018-10-14T10:56:50Z</time>
      </trkpt>
      <trkpt lat="43.37749" lon="6.63712">
        <ele>141.19999694824</ele>
        <time>2018-10-14T10:56:51Z</time>
      </trkpt>
      <trkpt lat="43.37747" lon="6.63702">
        <ele>141.39999389648</ele>
        <time>2018-10-14T10:56:55Z</time>
      </trkpt>
      <trkpt lat="43.37745" lon="6.637">
        <ele>141.60000610352</ele>
        <time>2018-10-14T10:56:56Z</time>
      </trkpt>
      <trkpt lat="43.37731" lon="6.63688">
        <ele>142</ele>
        <time>2018-10-14T10:57:02Z</time>
      </trkpt>
      <trkpt lat="43.37723" lon="6.6367">
        <ele>142.60000610352</ele>
        <time>2018-10-14T10:57:08Z</time>
      </trkpt>
      <trkpt lat="43.37714" lon="6.63651">
        <ele>143</ele>
        <time>2018-10-14T10:57:14Z</time>
      </trkpt>
      <trkpt lat="43.37706" lon="6.63637">
        <ele>143.39999389648</ele>
        <time>2018-10-14T10:57:20Z</time>
      </trkpt>
      <trkpt lat="43.37703" lon="6.63627">
        <ele>143.80000305176</ele>
        <time>2018-10-14T10:57:24Z</time>
      </trkpt>
      <trkpt lat="43.37705" lon="6.6361">
        <ele>144.19999694824</ele>
        <time>2018-10-14T10:57:28Z</time>
      </trkpt>
      <trkpt lat="43.37717" lon="6.63599">
        <ele>144.80000305176</ele>
        <time>2018-10-14T10:57:33Z</time>
      </trkpt>
      <trkpt lat="43.37726" lon="6.63582">
        <ele>145.39999389648</ele>
        <time>2018-10-14T10:57:38Z</time>
      </trkpt>
      <trkpt lat="43.37726" lon="6.63563">
        <ele>145.80000305176</ele>
        <time>2018-10-14T10:57:43Z</time>
      </trkpt>
      <trkpt lat="43.37725" lon="6.63541">
        <ele>146.19999694824</ele>
        <time>2018-10-14T10:57:49Z</time>
      </trkpt>
      <trkpt lat="43.3773" lon="6.63519">
        <ele>147</ele>
        <time>2018-10-14T10:57:55Z</time>
      </trkpt>
      <trkpt lat="43.37734" lon="6.63501">
        <ele>147.39999389648</ele>
        <time>2018-10-14T10:58:01Z</time>
      </trkpt>
      <trkpt lat="43.37739" lon="6.63477">
        <ele>148</ele>
        <time>2018-10-14T10:58:08Z</time>
      </trkpt>
      <trkpt lat="43.3774" lon="6.63458">
        <ele>148.60000610352</ele>
        <time>2018-10-14T10:58:14Z</time>
      </trkpt>
      <trkpt lat="43.37739" lon="6.63445">
        <ele>149</ele>
        <time>2018-10-14T10:58:19Z</time>
      </trkpt>
      <trkpt lat="43.37733" lon="6.6343">
        <ele>149.80000305176</ele>
        <time>2018-10-14T10:58:27Z</time>
      </trkpt>
      <trkpt lat="43.37727" lon="6.63418">
        <ele>150.60000610352</ele>
        <time>2018-10-14T10:58:34Z</time>
      </trkpt>
      <trkpt lat="43.37725" lon="6.63414">
        <ele>150.80000305176</ele>
        <time>2018-10-14T10:58:36Z</time>
      </trkpt>
      <trkpt lat="43.37725" lon="6.63408">
        <ele>150.80000305176</ele>
        <time>2018-10-14T10:58:39Z</time>
      </trkpt>
      <trkpt lat="43.37725" lon="6.63406">
        <ele>150.80000305176</ele>
        <time>2018-10-14T10:58:40Z</time>
      </trkpt>
      <trkpt lat="43.37722" lon="6.63395">
        <ele>151.19999694824</ele>
        <time>2018-10-14T10:58:45Z</time>
      </trkpt>
      <trkpt lat="43.37717" lon="6.63378">
        <ele>152.19999694824</ele>
        <time>2018-10-14T10:58:53Z</time>
      </trkpt>
      <trkpt lat="43.37712" lon="6.63369">
        <ele>152.80000305176</ele>
        <time>2018-10-14T10:58:58Z</time>
      </trkpt>
      <trkpt lat="43.37711" lon="6.63367">
        <ele>152.80000305176</ele>
        <time>2018-10-14T10:58:59Z</time>
      </trkpt>
      <trkpt lat="43.37707" lon="6.63364">
        <ele>153</ele>
        <time>2018-10-14T10:59:02Z</time>
      </trkpt>
      <trkpt lat="43.37697" lon="6.63361">
        <ele>153.80000305176</ele>
        <time>2018-10-14T10:59:09Z</time>
      </trkpt>
      <trkpt lat="43.37687" lon="6.63361">
        <ele>154.60000610352</ele>
        <time>2018-10-14T10:59:15Z</time>
      </trkpt>
      <trkpt lat="43.37676" lon="6.63363">
        <ele>155.60000610352</ele>
        <time>2018-10-14T10:59:22Z</time>
      </trkpt>
      <trkpt lat="43.37665" lon="6.63364">
        <ele>156.19999694824</ele>
        <time>2018-10-14T10:59:29Z</time>
      </trkpt>
      <trkpt lat="43.37653" lon="6.63364">
        <ele>156.80000305176</ele>
        <time>2018-10-14T10:59:36Z</time>
      </trkpt>
      <trkpt lat="43.37643" lon="6.63366">
        <ele>157.39999389648</ele>
        <time>2018-10-14T10:59:42Z</time>
      </trkpt>
      <trkpt lat="43.37641" lon="6.6337">
        <ele>157.60000610352</ele>
        <time>2018-10-14T10:59:44Z</time>
      </trkpt>
      <trkpt lat="43.37641" lon="6.63375">
        <ele>157.80000305176</ele>
        <time>2018-10-14T10:59:46Z</time>
      </trkpt>
      <trkpt lat="43.37642" lon="6.63377">
        <ele>158</ele>
        <time>2018-10-14T10:59:47Z</time>
      </trkpt>
      <trkpt lat="43.37644" lon="6.63379">
        <ele>158.19999694824</ele>
        <time>2018-10-14T10:59:49Z</time>
      </trkpt>
      <trkpt lat="43.37646" lon="6.63381">
        <ele>158.39999389648</ele>
        <time>2018-10-14T10:59:51Z</time>
      </trkpt>
      <trkpt lat="43.37653" lon="6.63386">
        <ele>159</ele>
        <time>2018-10-14T10:59:57Z</time>
      </trkpt>
      <trkpt lat="43.37659" lon="6.63391">
        <ele>159.39999389648</ele>
        <time>2018-10-14T11:00:02Z</time>
      </trkpt>
      <trkpt lat="43.3766" lon="6.63393">
        <ele>159.39999389648</ele>
        <time>2018-10-14T11:00:03Z</time>
      </trkpt>
      <trkpt lat="43.37661" lon="6.63397">
        <ele>159.80000305176</ele>
        <time>2018-10-14T11:00:05Z</time>
      </trkpt>
      <trkpt lat="43.37664" lon="6.634">
        <ele>159.80000305176</ele>
        <time>2018-10-14T11:00:08Z</time>
      </trkpt>
      <trkpt lat="43.37667" lon="6.63407">
        <ele>160</ele>
        <time>2018-10-14T11:00:12Z</time>
      </trkpt>
      <trkpt lat="43.37669" lon="6.6341">
        <ele>160</ele>
        <time>2018-10-14T11:00:14Z</time>
      </trkpt>
      <trkpt lat="43.37671" lon="6.63413">
        <ele>160.19999694824</ele>
        <time>2018-10-14T11:00:16Z</time>
      </trkpt>
      <trkpt lat="43.37673" lon="6.63417">
        <ele>160.19999694824</ele>
        <time>2018-10-14T11:00:18Z</time>
      </trkpt>
      <trkpt lat="43.37678" lon="6.63431">
        <ele>161</ele>
        <time>2018-10-14T11:00:25Z</time>
      </trkpt>
      <trkpt lat="43.37679" lon="6.63443">
        <ele>161.60000610352</ele>
        <time>2018-10-14T11:00:30Z</time>
      </trkpt>
      <trkpt lat="43.37677" lon="6.63457">
        <ele>162.19999694824</ele>
        <time>2018-10-14T11:00:37Z</time>
      </trkpt>
      <trkpt lat="43.37676" lon="6.6347">
        <ele>162.80000305176</ele>
        <time>2018-10-14T11:00:43Z</time>
      </trkpt>
      <trkpt lat="43.37676" lon="6.63472">
        <ele>163</ele>
        <time>2018-10-14T11:00:44Z</time>
      </trkpt>
      <trkpt lat="43.37676" lon="6.63474">
        <ele>163</ele>
        <time>2018-10-14T11:00:45Z</time>
      </trkpt>
      <trkpt lat="43.37675" lon="6.63482">
        <ele>163.39999389648</ele>
        <time>2018-10-14T11:00:48Z</time>
      </trkpt>
      <trkpt lat="43.37672" lon="6.63496">
        <ele>163.80000305176</ele>
        <time>2018-10-14T11:00:53Z</time>
      </trkpt>
      <trkpt lat="43.37666" lon="6.63513">
        <ele>164.39999389648</ele>
        <time>2018-10-14T11:00:58Z</time>
      </trkpt>
      <trkpt lat="43.37657" lon="6.63532">
        <ele>164.80000305176</ele>
        <time>2018-10-14T11:01:04Z</time>
      </trkpt>
      <trkpt lat="43.37649" lon="6.63546">
        <ele>165.39999389648</ele>
        <time>2018-10-14T11:01:10Z</time>
      </trkpt>
      <trkpt lat="43.37641" lon="6.6356">
        <ele>166</ele>
        <time>2018-10-14T11:01:16Z</time>
      </trkpt>
      <trkpt lat="43.37634" lon="6.63574">
        <ele>166.80000305176</ele>
        <time>2018-10-14T11:01:23Z</time>
      </trkpt>
      <trkpt lat="43.37624" lon="6.63584">
        <ele>167.19999694824</ele>
        <time>2018-10-14T11:01:29Z</time>
      </trkpt>
      <trkpt lat="43.37613" lon="6.63594">
        <ele>168</ele>
        <time>2018-10-14T11:01:35Z</time>
      </trkpt>
      <trkpt lat="43.37604" lon="6.63609">
        <ele>168.39999389648</ele>
        <time>2018-10-14T11:01:41Z</time>
      </trkpt>
      <trkpt lat="43.37602" lon="6.63625">
        <ele>168.80000305176</ele>
        <time>2018-10-14T11:01:47Z</time>
      </trkpt>
      <trkpt lat="43.37604" lon="6.6364">
        <ele>169.39999389648</ele>
        <time>2018-10-14T11:01:53Z</time>
      </trkpt>
      <trkpt lat="43.37605" lon="6.63649">
        <ele>170</ele>
        <time>2018-10-14T11:01:57Z</time>
      </trkpt>
      <trkpt lat="43.37607" lon="6.63653">
        <ele>170.39999389648</ele>
        <time>2018-10-14T11:01:59Z</time>
      </trkpt>
      <trkpt lat="43.37611" lon="6.63665">
        <ele>171.39999389648</ele>
        <time>2018-10-14T11:02:05Z</time>
      </trkpt>
      <trkpt lat="43.37616" lon="6.63678">
        <ele>172.39999389648</ele>
        <time>2018-10-14T11:02:11Z</time>
      </trkpt>
      <trkpt lat="43.37622" lon="6.63689">
        <ele>173.19999694824</ele>
        <time>2018-10-14T11:02:18Z</time>
      </trkpt>
      <trkpt lat="43.37627" lon="6.637">
        <ele>174</ele>
        <time>2018-10-14T11:02:24Z</time>
      </trkpt>
      <trkpt lat="43.37627" lon="6.63702">
        <ele>174.19999694824</ele>
        <time>2018-10-14T11:02:25Z</time>
      </trkpt>
      <trkpt lat="43.37628" lon="6.63705">
        <ele>174.60000610352</ele>
        <time>2018-10-14T11:02:27Z</time>
      </trkpt>
      <trkpt lat="43.3763" lon="6.63708">
        <ele>175</ele>
        <time>2018-10-14T11:02:29Z</time>
      </trkpt>
      <trkpt lat="43.37631" lon="6.6371">
        <ele>175.19999694824</ele>
        <time>2018-10-14T11:02:30Z</time>
      </trkpt>
      <trkpt lat="43.37632" lon="6.63714">
        <ele>175.80000305176</ele>
        <time>2018-10-14T11:02:33Z</time>
      </trkpt>
      <trkpt lat="43.37632" lon="6.63718">
        <ele>176</ele>
        <time>2018-10-14T11:02:35Z</time>
      </trkpt>
      <trkpt lat="43.37633" lon="6.63719">
        <ele>176.19999694824</ele>
        <time>2018-10-14T11:02:36Z</time>
      </trkpt>
      <trkpt lat="43.37633" lon="6.63731">
        <ele>177.39999389648</ele>
        <time>2018-10-14T11:02:43Z</time>
      </trkpt>
      <trkpt lat="43.3763" lon="6.63739">
        <ele>177.80000305176</ele>
        <time>2018-10-14T11:02:48Z</time>
      </trkpt>
      <trkpt lat="43.37625" lon="6.63748">
        <ele>178.80000305176</ele>
        <time>2018-10-14T11:02:54Z</time>
      </trkpt>
      <trkpt lat="43.37624" lon="6.63749">
        <ele>179</ele>
        <time>2018-10-14T11:02:55Z</time>
      </trkpt>
      <trkpt lat="43.37622" lon="6.63759">
        <ele>179.39999389648</ele>
        <time>2018-10-14T11:02:59Z</time>
      </trkpt>
      <trkpt lat="43.37625" lon="6.63767">
        <ele>180.19999694824</ele>
        <time>2018-10-14T11:03:03Z</time>
      </trkpt>
      <trkpt lat="43.37625" lon="6.6377">
        <ele>180.39999389648</ele>
        <time>2018-10-14T11:03:05Z</time>
      </trkpt>
      <trkpt lat="43.37629" lon="6.63777">
        <ele>181.19999694824</ele>
        <time>2018-10-14T11:03:10Z</time>
      </trkpt>
      <trkpt lat="43.3763" lon="6.63779">
        <ele>181.19999694824</ele>
        <time>2018-10-14T11:03:11Z</time>
      </trkpt>
      <trkpt lat="43.37635" lon="6.63789">
        <ele>182.19999694824</ele>
        <time>2018-10-14T11:03:18Z</time>
      </trkpt>
      <trkpt lat="43.37639" lon="6.63798">
        <ele>182.80000305176</ele>
        <time>2018-10-14T11:03:24Z</time>
      </trkpt>
      <trkpt lat="43.37644" lon="6.63807">
        <ele>183.60000610352</ele>
        <time>2018-10-14T11:03:30Z</time>
      </trkpt>
      <trkpt lat="43.37644" lon="6.63808">
        <ele>183.80000305176</ele>
        <time>2018-10-14T11:03:31Z</time>
      </trkpt>
      <trkpt lat="43.37649" lon="6.63819">
        <ele>185</ele>
        <time>2018-10-14T11:03:39Z</time>
      </trkpt>
      <trkpt lat="43.37653" lon="6.63828">
        <ele>185.60000610352</ele>
        <time>2018-10-14T11:03:45Z</time>
      </trkpt>
      <trkpt lat="43.37658" lon="6.63835">
        <ele>186.19999694824</ele>
        <time>2018-10-14T11:03:50Z</time>
      </trkpt>
      <trkpt lat="43.37659" lon="6.6384">
        <ele>186.60000610352</ele>
        <time>2018-10-14T11:03:53Z</time>
      </trkpt>
      <trkpt lat="43.3766" lon="6.63843">
        <ele>187</ele>
        <time>2018-10-14T11:03:55Z</time>
      </trkpt>
      <trkpt lat="43.37664" lon="6.63852">
        <ele>187.80000305176</ele>
        <time>2018-10-14T11:04:01Z</time>
      </trkpt>
      <trkpt lat="43.37665" lon="6.63856">
        <ele>188</ele>
        <time>2018-10-14T11:04:03Z</time>
      </trkpt>
      <trkpt lat="43.37667" lon="6.63863">
        <ele>188.60000610352</ele>
        <time>2018-10-14T11:04:07Z</time>
      </trkpt>
      <trkpt lat="43.37668" lon="6.63866">
        <ele>188.80000305176</ele>
        <time>2018-10-14T11:04:09Z</time>
      </trkpt>
      <trkpt lat="43.37668" lon="6.63879">
        <ele>189.80000305176</ele>
        <time>2018-10-14T11:04:16Z</time>
      </trkpt>
      <trkpt lat="43.37669" lon="6.63881">
        <ele>189.80000305176</ele>
        <time>2018-10-14T11:04:17Z</time>
      </trkpt>
      <trkpt lat="43.37672" lon="6.63896">
        <ele>191</ele>
        <time>2018-10-14T11:04:25Z</time>
      </trkpt>
      <trkpt lat="43.37674" lon="6.63901">
        <ele>191.39999389648</ele>
        <time>2018-10-14T11:04:28Z</time>
      </trkpt>
      <trkpt lat="43.37676" lon="6.63906">
        <ele>191.80000305176</ele>
        <time>2018-10-14T11:04:31Z</time>
      </trkpt>
      <trkpt lat="43.3768" lon="6.63919">
        <ele>193.19999694824</ele>
        <time>2018-10-14T11:04:39Z</time>
      </trkpt>
      <trkpt lat="43.37683" lon="6.63923">
        <ele>193.80000305176</ele>
        <time>2018-10-14T11:04:42Z</time>
      </trkpt>
      <trkpt lat="43.37688" lon="6.63926">
        <ele>194.19999694824</ele>
        <time>2018-10-14T11:04:45Z</time>
      </trkpt>
      <trkpt lat="43.37691" lon="6.63928">
        <ele>194.39999389648</ele>
        <time>2018-10-14T11:04:47Z</time>
      </trkpt>
      <trkpt lat="43.37694" lon="6.63929">
        <ele>194.80000305176</ele>
        <time>2018-10-14T11:04:50Z</time>
      </trkpt>
      <trkpt lat="43.37696" lon="6.63933">
        <ele>202.39999389648</ele>
        <time>2018-10-14T11:06:21Z</time>
      </trkpt>
      <trkpt lat="43.377" lon="6.63938">
        <ele>202.39999389648</ele>
        <time>2018-10-14T11:06:23Z</time>
      </trkpt>
      <trkpt lat="43.37711" lon="6.63944">
        <ele>202.19999694824</ele>
        <time>2018-10-14T11:06:27Z</time>
      </trkpt>
      <trkpt lat="43.37729" lon="6.63945">
        <ele>202.19999694824</ele>
        <time>2018-10-14T11:06:32Z</time>
      </trkpt>
      <trkpt lat="43.37744" lon="6.63955">
        <ele>201.60000610352</ele>
        <time>2018-10-14T11:06:37Z</time>
      </trkpt>
      <trkpt lat="43.37746" lon="6.63958">
        <ele>201.39999389648</ele>
        <time>2018-10-14T11:06:38Z</time>
      </trkpt>
      <trkpt lat="43.37745" lon="6.63967">
        <ele>201</ele>
        <time>2018-10-14T11:06:40Z</time>
      </trkpt>
      <trkpt lat="43.37739" lon="6.63975">
        <ele>200.60000610352</ele>
        <time>2018-10-14T11:06:42Z</time>
      </trkpt>
      <trkpt lat="43.37737" lon="6.6398">
        <ele>200.39999389648</ele>
        <time>2018-10-14T11:06:43Z</time>
      </trkpt>
      <trkpt lat="43.37729" lon="6.63996">
        <ele>200</ele>
        <time>2018-10-14T11:06:46Z</time>
      </trkpt>
      <trkpt lat="43.37721" lon="6.64005">
        <ele>199.80000305176</ele>
        <time>2018-10-14T11:06:48Z</time>
      </trkpt>
      <trkpt lat="43.37707" lon="6.6401">
        <ele>199.39999389648</ele>
        <time>2018-10-14T11:06:51Z</time>
      </trkpt>
      <trkpt lat="43.37697" lon="6.64012">
        <ele>199</ele>
        <time>2018-10-14T11:06:54Z</time>
      </trkpt>
      <trkpt lat="43.37681" lon="6.64021">
        <ele>198</ele>
        <time>2018-10-14T11:06:59Z</time>
      </trkpt>
      <trkpt lat="43.37675" lon="6.64026">
        <ele>197.39999389648</ele>
        <time>2018-10-14T11:07:01Z</time>
      </trkpt>
      <trkpt lat="43.37675" lon="6.64028">
        <ele>197.19999694824</ele>
        <time>2018-10-14T11:07:02Z</time>
      </trkpt>
      <trkpt lat="43.37674" lon="6.6403">
        <ele>196.80000305176</ele>
        <time>2018-10-14T11:07:03Z</time>
      </trkpt>
      <trkpt lat="43.37674" lon="6.64034">
        <ele>195.80000305176</ele>
        <time>2018-10-14T11:07:06Z</time>
      </trkpt>
      <trkpt lat="43.37678" lon="6.64042">
        <ele>194.39999389648</ele>
        <time>2018-10-14T11:07:12Z</time>
      </trkpt>
      <trkpt lat="43.37682" lon="6.64046">
        <ele>193.80000305176</ele>
        <time>2018-10-14T11:07:15Z</time>
      </trkpt>
      <trkpt lat="43.37683" lon="6.64051">
        <ele>193</ele>
        <time>2018-10-14T11:07:17Z</time>
      </trkpt>
      <trkpt lat="43.37683" lon="6.64057">
        <ele>192.39999389648</ele>
        <time>2018-10-14T11:07:19Z</time>
      </trkpt>
      <trkpt lat="43.3768" lon="6.6406">
        <ele>192.19999694824</ele>
        <time>2018-10-14T11:07:20Z</time>
      </trkpt>
      <trkpt lat="43.37664" lon="6.64074">
        <ele>190.80000305176</ele>
        <time>2018-10-14T11:07:24Z</time>
      </trkpt>
      <trkpt lat="43.37655" lon="6.64084">
        <ele>190</ele>
        <time>2018-10-14T11:07:26Z</time>
      </trkpt>
      <trkpt lat="43.37646" lon="6.64093">
        <ele>189.19999694824</ele>
        <time>2018-10-14T11:07:28Z</time>
      </trkpt>
      <trkpt lat="43.37641" lon="6.64097">
        <ele>188.80000305176</ele>
        <time>2018-10-14T11:07:29Z</time>
      </trkpt>
      <trkpt lat="43.37631" lon="6.64104">
        <ele>187.80000305176</ele>
        <time>2018-10-14T11:07:32Z</time>
      </trkpt>
      <trkpt lat="43.37627" lon="6.64111">
        <ele>187</ele>
        <time>2018-10-14T11:07:34Z</time>
      </trkpt>
      <trkpt lat="43.37628" lon="6.64115">
        <ele>186.80000305176</ele>
        <time>2018-10-14T11:07:35Z</time>
      </trkpt>
      <trkpt lat="43.37637" lon="6.64119">
        <ele>186.19999694824</ele>
        <time>2018-10-14T11:07:37Z</time>
      </trkpt>
      <trkpt lat="43.37642" lon="6.64119">
        <ele>186</ele>
        <time>2018-10-14T11:07:38Z</time>
      </trkpt>
      <trkpt lat="43.37652" lon="6.6412">
        <ele>185.19999694824</ele>
        <time>2018-10-14T11:07:40Z</time>
      </trkpt>
      <trkpt lat="43.37661" lon="6.64122">
        <ele>184.60000610352</ele>
        <time>2018-10-14T11:07:42Z</time>
      </trkpt>
      <trkpt lat="43.37673" lon="6.64123">
        <ele>183.60000610352</ele>
        <time>2018-10-14T11:07:45Z</time>
      </trkpt>
      <trkpt lat="43.37681" lon="6.64119">
        <ele>183</ele>
        <time>2018-10-14T11:07:47Z</time>
      </trkpt>
      <trkpt lat="43.37699" lon="6.64105">
        <ele>181</ele>
        <time>2018-10-14T11:07:52Z</time>
      </trkpt>
      <trkpt lat="43.37707" lon="6.64105">
        <ele>180</ele>
        <time>2018-10-14T11:07:54Z</time>
      </trkpt>
      <trkpt lat="43.37716" lon="6.64103">
        <ele>179.19999694824</ele>
        <time>2018-10-14T11:07:56Z</time>
      </trkpt>
      <trkpt lat="43.37741" lon="6.641">
        <ele>177.19999694824</ele>
        <time>2018-10-14T11:08:02Z</time>
      </trkpt>
      <trkpt lat="43.3776" lon="6.64092">
        <ele>175.60000610352</ele>
        <time>2018-10-14T11:08:06Z</time>
      </trkpt>
      <trkpt lat="43.37764" lon="6.64091">
        <ele>175.19999694824</ele>
        <time>2018-10-14T11:08:07Z</time>
      </trkpt>
      <trkpt lat="43.3777" lon="6.6409">
        <ele>174.80000305176</ele>
        <time>2018-10-14T11:08:08Z</time>
      </trkpt>
      <trkpt lat="43.3778" lon="6.64092">
        <ele>174</ele>
        <time>2018-10-14T11:08:10Z</time>
      </trkpt>
      <trkpt lat="43.3779" lon="6.64092">
        <ele>173.19999694824</ele>
        <time>2018-10-14T11:08:12Z</time>
      </trkpt>
      <trkpt lat="43.37794" lon="6.64091">
        <ele>172.80000305176</ele>
        <time>2018-10-14T11:08:13Z</time>
      </trkpt>
      <trkpt lat="43.37799" lon="6.64089">
        <ele>172.19999694824</ele>
        <time>2018-10-14T11:08:14Z</time>
      </trkpt>
      <trkpt lat="43.37819" lon="6.64084">
        <ele>170.80000305176</ele>
        <time>2018-10-14T11:08:18Z</time>
      </trkpt>
      <trkpt lat="43.37824" lon="6.64084">
        <ele>170.39999389648</ele>
        <time>2018-10-14T11:08:19Z</time>
      </trkpt>
      <trkpt lat="43.37834" lon="6.64082">
        <ele>169.60000610352</ele>
        <time>2018-10-14T11:08:21Z</time>
      </trkpt>
      <trkpt lat="43.37844" lon="6.64078">
        <ele>168.80000305176</ele>
        <time>2018-10-14T11:08:23Z</time>
      </trkpt>
      <trkpt lat="43.37853" lon="6.64073">
        <ele>168</ele>
        <time>2018-10-14T11:08:25Z</time>
      </trkpt>
      <trkpt lat="43.37861" lon="6.64071">
        <ele>167</ele>
        <time>2018-10-14T11:08:27Z</time>
      </trkpt>
      <trkpt lat="43.37863" lon="6.64071">
        <ele>166.60000610352</ele>
        <time>2018-10-14T11:08:28Z</time>
      </trkpt>
      <trkpt lat="43.37875" lon="6.64078">
        <ele>165.19999694824</ele>
        <time>2018-10-14T11:08:33Z</time>
      </trkpt>
      <trkpt lat="43.37877" lon="6.64079">
        <ele>164.80000305176</ele>
        <time>2018-10-14T11:08:34Z</time>
      </trkpt>
      <trkpt lat="43.37882" lon="6.64081">
        <ele>163.80000305176</ele>
        <time>2018-10-14T11:08:37Z</time>
      </trkpt>
      <trkpt lat="43.37894" lon="6.64083">
        <ele>162.39999389648</ele>
        <time>2018-10-14T11:08:41Z</time>
      </trkpt>
      <trkpt lat="43.37907" lon="6.64084">
        <ele>160.39999389648</ele>
        <time>2018-10-14T11:08:46Z</time>
      </trkpt>
      <trkpt lat="43.37912" lon="6.64085">
        <ele>160</ele>
        <time>2018-10-14T11:08:47Z</time>
      </trkpt>
      <trkpt lat="43.37924" lon="6.64091">
        <ele>159</ele>
        <time>2018-10-14T11:08:50Z</time>
      </trkpt>
      <trkpt lat="43.37932" lon="6.64095">
        <ele>158.39999389648</ele>
        <time>2018-10-14T11:08:52Z</time>
      </trkpt>
      <trkpt lat="43.37937" lon="6.64097">
        <ele>157.80000305176</ele>
        <time>2018-10-14T11:08:54Z</time>
      </trkpt>
      <trkpt lat="43.37947" lon="6.641">
        <ele>156</ele>
        <time>2018-10-14T11:08:59Z</time>
      </trkpt>
      <trkpt lat="43.3795" lon="6.641">
        <ele>155.60000610352</ele>
        <time>2018-10-14T11:09:00Z</time>
      </trkpt>
      <trkpt lat="43.37957" lon="6.64103">
        <ele>154.80000305176</ele>
        <time>2018-10-14T11:09:02Z</time>
      </trkpt>
      <trkpt lat="43.37975" lon="6.64114">
        <ele>153.19999694824</ele>
        <time>2018-10-14T11:09:06Z</time>
      </trkpt>
      <trkpt lat="43.37983" lon="6.64122">
        <ele>152.60000610352</ele>
        <time>2018-10-14T11:09:08Z</time>
      </trkpt>
      <trkpt lat="43.37988" lon="6.64125">
        <ele>152.19999694824</ele>
        <time>2018-10-14T11:09:09Z</time>
      </trkpt>
      <trkpt lat="43.37998" lon="6.64131">
        <ele>151.60000610352</ele>
        <time>2018-10-14T11:09:11Z</time>
      </trkpt>
      <trkpt lat="43.38006" lon="6.64138">
        <ele>151</ele>
        <time>2018-10-14T11:09:13Z</time>
      </trkpt>
      <trkpt lat="43.38017" lon="6.64145">
        <ele>150.19999694824</ele>
        <time>2018-10-14T11:09:15Z</time>
      </trkpt>
      <trkpt lat="43.38021" lon="6.64149">
        <ele>149.80000305176</ele>
        <time>2018-10-14T11:09:16Z</time>
      </trkpt>
      <trkpt lat="43.38025" lon="6.64153">
        <ele>149.39999389648</ele>
        <time>2018-10-14T11:09:17Z</time>
      </trkpt>
      <trkpt lat="43.38033" lon="6.64159">
        <ele>148.80000305176</ele>
        <time>2018-10-14T11:09:19Z</time>
      </trkpt>
      <trkpt lat="43.38044" lon="6.6417">
        <ele>147.39999389648</ele>
        <time>2018-10-14T11:09:23Z</time>
      </trkpt>
      <trkpt lat="43.38051" lon="6.64178">
        <ele>146.39999389648</ele>
        <time>2018-10-14T11:09:26Z</time>
      </trkpt>
      <trkpt lat="43.38055" lon="6.64187">
        <ele>145</ele>
        <time>2018-10-14T11:09:30Z</time>
      </trkpt>
      <trkpt lat="43.38056" lon="6.6419">
        <ele>144</ele>
        <time>2018-10-14T11:09:33Z</time>
      </trkpt>
      <trkpt lat="43.38058" lon="6.64198">
        <ele>141.80000305176</ele>
        <time>2018-10-14T11:09:40Z</time>
      </trkpt>
      <trkpt lat="43.38059" lon="6.64204">
        <ele>141</ele>
        <time>2018-10-14T11:09:42Z</time>
      </trkpt>
      <trkpt lat="43.38059" lon="6.64211">
        <ele>140.39999389648</ele>
        <time>2018-10-14T11:09:44Z</time>
      </trkpt>
      <trkpt lat="43.3806" lon="6.64214">
        <ele>140</ele>
        <time>2018-10-14T11:09:45Z</time>
      </trkpt>
      <trkpt lat="43.38063" lon="6.64221">
        <ele>139.19999694824</ele>
        <time>2018-10-14T11:09:47Z</time>
      </trkpt>
      <trkpt lat="43.38064" lon="6.64223">
        <ele>138.39999389648</ele>
        <time>2018-10-14T11:09:50Z</time>
      </trkpt>
      <trkpt lat="43.38065" lon="6.64228">
        <ele>137</ele>
        <time>2018-10-14T11:09:55Z</time>
      </trkpt>
      <trkpt lat="43.38064" lon="6.64235">
        <ele>135.60000610352</ele>
        <time>2018-10-14T11:09:59Z</time>
      </trkpt>
      <trkpt lat="43.38065" lon="6.64235">
        <ele>135.39999389648</ele>
        <time>2018-10-14T11:10:00Z</time>
      </trkpt>
      <trkpt lat="43.38064" lon="6.64237">
        <ele>134.60000610352</ele>
        <time>2018-10-14T11:10:03Z</time>
      </trkpt>
      <trkpt lat="43.38063" lon="6.64244">
        <ele>131.60000610352</ele>
        <time>2018-10-14T11:10:15Z</time>
      </trkpt>
      <trkpt lat="43.38063" lon="6.64246">
        <ele>131.39999389648</ele>
        <time>2018-10-14T11:10:16Z</time>
      </trkpt>
      <trkpt lat="43.38061" lon="6.6425">
        <ele>130.60000610352</ele>
        <time>2018-10-14T11:10:20Z</time>
      </trkpt>
      <trkpt lat="43.38061" lon="6.64251">
        <ele>130</ele>
        <time>2018-10-14T11:10:22Z</time>
      </trkpt>
      <trkpt lat="43.38061" lon="6.64257">
        <ele>129.39999389648</ele>
        <time>2018-10-14T11:10:26Z</time>
      </trkpt>
      <trkpt lat="43.38061" lon="6.64259">
        <ele>129.39999389648</ele>
        <time>2018-10-14T11:10:27Z</time>
      </trkpt>
      <trkpt lat="43.38061" lon="6.64261">
        <ele>129.19999694824</ele>
        <time>2018-10-14T11:10:28Z</time>
      </trkpt>
      <trkpt lat="43.38062" lon="6.64262">
        <ele>128.80000305176</ele>
        <time>2018-10-14T11:10:30Z</time>
      </trkpt>
      <trkpt lat="43.38067" lon="6.6427">
        <ele>126</ele>
        <time>2018-10-14T11:10:47Z</time>
      </trkpt>
      <trkpt lat="43.38071" lon="6.64275">
        <ele>125.80000305176</ele>
        <time>2018-10-14T11:10:50Z</time>
      </trkpt>
      <trkpt lat="43.38075" lon="6.64277">
        <ele>125.59999847412</ele>
        <time>2018-10-14T11:10:53Z</time>
      </trkpt>
      <trkpt lat="43.38076" lon="6.64277">
        <ele>125.40000152588</ele>
        <time>2018-10-14T11:10:55Z</time>
      </trkpt>
      <trkpt lat="43.38082" lon="6.64279">
        <ele>123.59999847412</ele>
        <time>2018-10-14T11:11:09Z</time>
      </trkpt>
      <trkpt lat="43.38085" lon="6.64281">
        <ele>123.19999694824</ele>
        <time>2018-10-14T11:11:11Z</time>
      </trkpt>
      <trkpt lat="43.38093" lon="6.64282">
        <ele>122.59999847412</ele>
        <time>2018-10-14T11:11:16Z</time>
      </trkpt>
      <trkpt lat="43.38096" lon="6.64281">
        <ele>122</ele>
        <time>2018-10-14T11:11:20Z</time>
      </trkpt>
      <trkpt lat="43.38097" lon="6.64281">
        <ele>121.80000305176</ele>
        <time>2018-10-14T11:11:21Z</time>
      </trkpt>
      <trkpt lat="43.381" lon="6.64279">
        <ele>121.59999847412</ele>
        <time>2018-10-14T11:11:24Z</time>
      </trkpt>
      <trkpt lat="43.38101" lon="6.64278">
        <ele>121.40000152588</ele>
        <time>2018-10-14T11:11:25Z</time>
      </trkpt>
      <trkpt lat="43.38103" lon="6.64275">
        <ele>121.19999694824</ele>
        <time>2018-10-14T11:11:28Z</time>
      </trkpt>
      <trkpt lat="43.38111" lon="6.64269">
        <ele>120.19999694824</ele>
        <time>2018-10-14T11:11:34Z</time>
      </trkpt>
      <trkpt lat="43.38117" lon="6.64266">
        <ele>119.59999847412</ele>
        <time>2018-10-14T11:11:37Z</time>
      </trkpt>
      <trkpt lat="43.38126" lon="6.64264">
        <ele>118.59999847412</ele>
        <time>2018-10-14T11:11:41Z</time>
      </trkpt>
      <trkpt lat="43.38138" lon="6.64267">
        <ele>117.59999847412</ele>
        <time>2018-10-14T11:11:45Z</time>
      </trkpt>
      <trkpt lat="43.38151" lon="6.64261">
        <ele>116.59999847412</ele>
        <time>2018-10-14T11:11:49Z</time>
      </trkpt>
      <trkpt lat="43.3816" lon="6.64255">
        <ele>116</ele>
        <time>2018-10-14T11:11:54Z</time>
      </trkpt>
      <trkpt lat="43.38161" lon="6.64254">
        <ele>115.40000152588</ele>
        <time>2018-10-14T11:11:57Z</time>
      </trkpt>
      <trkpt lat="43.38164" lon="6.6425">
        <ele>113</ele>
        <time>2018-10-14T11:12:11Z</time>
      </trkpt>
      <trkpt lat="43.38177" lon="6.64244">
        <ele>112.19999694824</ele>
        <time>2018-10-14T11:12:16Z</time>
      </trkpt>
      <trkpt lat="43.38186" lon="6.64239">
        <ele>111.80000305176</ele>
        <time>2018-10-14T11:12:19Z</time>
      </trkpt>
      <trkpt lat="43.38195" lon="6.64224">
        <ele>110.80000305176</ele>
        <time>2018-10-14T11:12:23Z</time>
      </trkpt>
      <trkpt lat="43.38198" lon="6.64222">
        <ele>110.59999847412</ele>
        <time>2018-10-14T11:12:24Z</time>
      </trkpt>
      <trkpt lat="43.38204" lon="6.64221">
        <ele>110.19999694824</ele>
        <time>2018-10-14T11:12:26Z</time>
      </trkpt>
      <trkpt lat="43.38208" lon="6.64222">
        <ele>109.80000305176</ele>
        <time>2018-10-14T11:12:28Z</time>
      </trkpt>
      <trkpt lat="43.38209" lon="6.64223">
        <ele>109.40000152588</ele>
        <time>2018-10-14T11:12:29Z</time>
      </trkpt>
      <trkpt lat="43.3821" lon="6.64225">
        <ele>109.19999694824</ele>
        <time>2018-10-14T11:12:30Z</time>
      </trkpt>
      <trkpt lat="43.38214" lon="6.64229">
        <ele>109</ele>
        <time>2018-10-14T11:12:32Z</time>
      </trkpt>
      <trkpt lat="43.38221" lon="6.6424">
        <ele>108.40000152588</ele>
        <time>2018-10-14T11:12:35Z</time>
      </trkpt>
      <trkpt lat="43.38222" lon="6.64244">
        <ele>108.19999694824</ele>
        <time>2018-10-14T11:12:36Z</time>
      </trkpt>
      <trkpt lat="43.38221" lon="6.64257">
        <ele>107.40000152588</ele>
        <time>2018-10-14T11:12:39Z</time>
      </trkpt>
      <trkpt lat="43.38221" lon="6.64268">
        <ele>106.19999694824</ele>
        <time>2018-10-14T11:12:43Z</time>
      </trkpt>
      <trkpt lat="43.38222" lon="6.64278">
        <ele>105.59999847412</ele>
        <time>2018-10-14T11:12:47Z</time>
      </trkpt>
      <trkpt lat="43.38224" lon="6.64284">
        <ele>104.59999847412</ele>
        <time>2018-10-14T11:12:52Z</time>
      </trkpt>
      <trkpt lat="43.38226" lon="6.64296">
        <ele>103.80000305176</ele>
        <time>2018-10-14T11:12:56Z</time>
      </trkpt>
      <trkpt lat="43.38223" lon="6.64304">
        <ele>103.59999847412</ele>
        <time>2018-10-14T11:12:58Z</time>
      </trkpt>
      <trkpt lat="43.3822" lon="6.64309">
        <ele>103.40000152588</ele>
        <time>2018-10-14T11:12:59Z</time>
      </trkpt>
      <trkpt lat="43.38218" lon="6.64315">
        <ele>103.19999694824</ele>
        <time>2018-10-14T11:13:00Z</time>
      </trkpt>
      <trkpt lat="43.38211" lon="6.64327">
        <ele>102.80000305176</ele>
        <time>2018-10-14T11:13:02Z</time>
      </trkpt>
      <trkpt lat="43.38206" lon="6.64332">
        <ele>102.40000152588</ele>
        <time>2018-10-14T11:13:03Z</time>
      </trkpt>
      <trkpt lat="43.38193" lon="6.6434">
        <ele>102</ele>
        <time>2018-10-14T11:13:05Z</time>
      </trkpt>
      <trkpt lat="43.38179" lon="6.64351">
        <ele>101.19999694824</ele>
        <time>2018-10-14T11:13:07Z</time>
      </trkpt>
      <trkpt lat="43.3816" lon="6.64366">
        <ele>100.40000152588</ele>
        <time>2018-10-14T11:13:10Z</time>
      </trkpt>
      <trkpt lat="43.38155" lon="6.64373">
        <ele>100</ele>
        <time>2018-10-14T11:13:11Z</time>
      </trkpt>
      <trkpt lat="43.38151" lon="6.6438">
        <ele>99.800003051758</ele>
        <time>2018-10-14T11:13:12Z</time>
      </trkpt>
      <trkpt lat="43.38144" lon="6.64398">
        <ele>99.400001525879</ele>
        <time>2018-10-14T11:13:14Z</time>
      </trkpt>
      <trkpt lat="43.38141" lon="6.64407">
        <ele>99.199996948242</ele>
        <time>2018-10-14T11:13:15Z</time>
      </trkpt>
      <trkpt lat="43.38138" lon="6.64416">
        <ele>99</ele>
        <time>2018-10-14T11:13:16Z</time>
      </trkpt>
      <trkpt lat="43.38123" lon="6.64438">
        <ele>98.199996948242</ele>
        <time>2018-10-14T11:13:19Z</time>
      </trkpt>
      <trkpt lat="43.3811" lon="6.64442">
        <ele>97.800003051758</ele>
        <time>2018-10-14T11:13:21Z</time>
      </trkpt>
      <trkpt lat="43.38097" lon="6.64434">
        <ele>97.199996948242</ele>
        <time>2018-10-14T11:13:23Z</time>
      </trkpt>
      <trkpt lat="43.3809" lon="6.64428">
        <ele>97</ele>
        <time>2018-10-14T11:13:24Z</time>
      </trkpt>
      <trkpt lat="43.38083" lon="6.64424">
        <ele>96.599998474121</ele>
        <time>2018-10-14T11:13:25Z</time>
      </trkpt>
      <trkpt lat="43.38067" lon="6.64421">
        <ele>96</ele>
        <time>2018-10-14T11:13:27Z</time>
      </trkpt>
      <trkpt lat="43.38052" lon="6.64426">
        <ele>95.400001525879</ele>
        <time>2018-10-14T11:13:29Z</time>
      </trkpt>
      <trkpt lat="43.38047" lon="6.6443">
        <ele>95.199996948242</ele>
        <time>2018-10-14T11:13:30Z</time>
      </trkpt>
      <trkpt lat="43.38031" lon="6.64448">
        <ele>94.400001525879</ele>
        <time>2018-10-14T11:13:33Z</time>
      </trkpt>
      <trkpt lat="43.38019" lon="6.64455">
        <ele>93.800003051758</ele>
        <time>2018-10-14T11:13:35Z</time>
      </trkpt>
      <trkpt lat="43.38001" lon="6.64454">
        <ele>93.400001525879</ele>
        <time>2018-10-14T11:13:38Z</time>
      </trkpt>
      <trkpt lat="43.37961" lon="6.64445">
        <ele>91.800003051758</ele>
        <time>2018-10-14T11:13:45Z</time>
      </trkpt>
      <trkpt lat="43.37951" lon="6.64445">
        <ele>91.400001525879</ele>
        <time>2018-10-14T11:13:47Z</time>
      </trkpt>
      <trkpt lat="43.3794" lon="6.64447">
        <ele>90.800003051758</ele>
        <time>2018-10-14T11:13:49Z</time>
      </trkpt>
      <trkpt lat="43.37908" lon="6.64454">
        <ele>90</ele>
        <time>2018-10-14T11:13:55Z</time>
      </trkpt>
      <trkpt lat="43.37903" lon="6.64455">
        <ele>89.800003051758</ele>
        <time>2018-10-14T11:13:56Z</time>
      </trkpt>
      <trkpt lat="43.37881" lon="6.64455">
        <ele>88.800003051758</ele>
        <time>2018-10-14T11:14:01Z</time>
      </trkpt>
      <trkpt lat="43.37874" lon="6.64455">
        <ele>88.400001525879</ele>
        <time>2018-10-14T11:14:04Z</time>
      </trkpt>
      <trkpt lat="43.37872" lon="6.64457">
        <ele>88.199996948242</ele>
        <time>2018-10-14T11:14:05Z</time>
      </trkpt>
      <trkpt lat="43.37864" lon="6.64461">
        <ele>88</ele>
        <time>2018-10-14T11:14:09Z</time>
      </trkpt>
      <trkpt lat="43.37853" lon="6.64469">
        <ele>87.599998474121</ele>
        <time>2018-10-14T11:14:13Z</time>
      </trkpt>
      <trkpt lat="43.37838" lon="6.64482">
        <ele>87</ele>
        <time>2018-10-14T11:14:18Z</time>
      </trkpt>
      <trkpt lat="43.37823" lon="6.64492">
        <ele>86.599998474121</ele>
        <time>2018-10-14T11:14:23Z</time>
      </trkpt>
      <trkpt lat="43.37804" lon="6.64503">
        <ele>86.199996948242</ele>
        <time>2018-10-14T11:14:31Z</time>
      </trkpt>
      <trkpt lat="43.37795" lon="6.64509">
        <ele>86</ele>
        <time>2018-10-14T11:14:35Z</time>
      </trkpt>
      <trkpt lat="43.37781" lon="6.64514">
        <ele>85.800003051758</ele>
        <time>2018-10-14T11:14:41Z</time>
      </trkpt>
      <trkpt lat="43.37768" lon="6.6452">
        <ele>85.199996948242</ele>
        <time>2018-10-14T11:14:47Z</time>
      </trkpt>
      <trkpt lat="43.37765" lon="6.64526">
        <ele>85.199996948242</ele>
        <time>2018-10-14T11:14:49Z</time>
      </trkpt>
      <trkpt lat="43.37759" lon="6.64537">
        <ele>85.199996948242</ele>
        <time>2018-10-14T11:14:54Z</time>
      </trkpt>
      <trkpt lat="43.37753" lon="6.64548">
        <ele>85.199996948242</ele>
        <time>2018-10-14T11:14:59Z</time>
      </trkpt>
      <trkpt lat="43.37753" lon="6.64549">
        <ele>85.400001525879</ele>
        <time>2018-10-14T11:15:00Z</time>
      </trkpt>
      <trkpt lat="43.37752" lon="6.64556">
        <ele>85.599998474121</ele>
        <time>2018-10-14T11:15:04Z</time>
      </trkpt>
      <trkpt lat="43.37752" lon="6.64558">
        <ele>85.599998474121</ele>
        <time>2018-10-14T11:15:05Z</time>
      </trkpt>
      <trkpt lat="43.37749" lon="6.64564">
        <ele>85.800003051758</ele>
        <time>2018-10-14T11:15:08Z</time>
      </trkpt>
      <trkpt lat="43.37747" lon="6.64567">
        <ele>85.800003051758</ele>
        <time>2018-10-14T11:15:10Z</time>
      </trkpt>
      <trkpt lat="43.37743" lon="6.64572">
        <ele>85.800003051758</ele>
        <time>2018-10-14T11:15:14Z</time>
      </trkpt>
      <trkpt lat="43.37736" lon="6.64581">
        <ele>86.199996948242</ele>
        <time>2018-10-14T11:15:20Z</time>
      </trkpt>
      <trkpt lat="43.37726" lon="6.64588">
        <ele>86.400001525879</ele>
        <time>2018-10-14T11:15:26Z</time>
      </trkpt>
      <trkpt lat="43.37713" lon="6.64594">
        <ele>86.599998474121</ele>
        <time>2018-10-14T11:15:32Z</time>
      </trkpt>
      <trkpt lat="43.37695" lon="6.64599">
        <ele>86.800003051758</ele>
        <time>2018-10-14T11:15:39Z</time>
      </trkpt>
      <trkpt lat="43.37677" lon="6.64599">
        <ele>87</ele>
        <time>2018-10-14T11:15:46Z</time>
      </trkpt>
      <trkpt lat="43.37665" lon="6.64594">
        <ele>87.400001525879</ele>
        <time>2018-10-14T11:15:52Z</time>
      </trkpt>
      <trkpt lat="43.37653" lon="6.64588">
        <ele>88</ele>
        <time>2018-10-14T11:15:58Z</time>
      </trkpt>
      <trkpt lat="43.37638" lon="6.64578">
        <ele>88.199996948242</ele>
        <time>2018-10-14T11:16:03Z</time>
      </trkpt>
      <trkpt lat="43.3763" lon="6.64577">
        <ele>88.400001525879</ele>
        <time>2018-10-14T11:16:05Z</time>
      </trkpt>
      <trkpt lat="43.37621" lon="6.64578">
        <ele>88.400001525879</ele>
        <time>2018-10-14T11:16:07Z</time>
      </trkpt>
      <trkpt lat="43.37613" lon="6.64579">
        <ele>88.400001525879</ele>
        <time>2018-10-14T11:16:09Z</time>
      </trkpt>
      <trkpt lat="43.376" lon="6.64582">
        <ele>88.400001525879</ele>
        <time>2018-10-14T11:16:12Z</time>
      </trkpt>
      <trkpt lat="43.37591" lon="6.64585">
        <ele>88.400001525879</ele>
        <time>2018-10-14T11:16:14Z</time>
      </trkpt>
      <trkpt lat="43.37578" lon="6.64591">
        <ele>88.400001525879</ele>
        <time>2018-10-14T11:16:17Z</time>
      </trkpt>
      <trkpt lat="43.37574" lon="6.64594">
        <ele>88.599998474121</ele>
        <time>2018-10-14T11:16:18Z</time>
      </trkpt>
      <trkpt lat="43.37554" lon="6.6461">
        <ele>88.599998474121</ele>
        <time>2018-10-14T11:16:23Z</time>
      </trkpt>
      <trkpt lat="43.37547" lon="6.64614">
        <ele>88.599998474121</ele>
        <time>2018-10-14T11:16:25Z</time>
      </trkpt>
      <trkpt lat="43.3754" lon="6.64621">
        <ele>88.599998474121</ele>
        <time>2018-10-14T11:16:27Z</time>
      </trkpt>
      <trkpt lat="43.37529" lon="6.6463">
        <ele>88.599998474121</ele>
        <time>2018-10-14T11:16:30Z</time>
      </trkpt>
      <trkpt lat="43.37517" lon="6.64639">
        <ele>88.800003051758</ele>
        <time>2018-10-14T11:16:33Z</time>
      </trkpt>
      <trkpt lat="43.37494" lon="6.64657">
        <ele>88.800003051758</ele>
        <time>2018-10-14T11:16:40Z</time>
      </trkpt>
      <trkpt lat="43.37478" lon="6.6467">
        <ele>89.199996948242</ele>
        <time>2018-10-14T11:16:46Z</time>
      </trkpt>
      <trkpt lat="43.37462" lon="6.64682">
        <ele>89.800003051758</ele>
        <time>2018-10-14T11:16:52Z</time>
      </trkpt>
      <trkpt lat="43.37443" lon="6.64698">
        <ele>90</ele>
        <time>2018-10-14T11:16:59Z</time>
      </trkpt>
      <trkpt lat="43.37428" lon="6.6471">
        <ele>90.199996948242</ele>
        <time>2018-10-14T11:17:05Z</time>
      </trkpt>
      <trkpt lat="43.37415" lon="6.64721">
        <ele>90.599998474121</ele>
        <time>2018-10-14T11:17:10Z</time>
      </trkpt>
      <trkpt lat="43.37398" lon="6.64735">
        <ele>91</ele>
        <time>2018-10-14T11:17:16Z</time>
      </trkpt>
      <trkpt lat="43.37381" lon="6.64751">
        <ele>91.199996948242</ele>
        <time>2018-10-14T11:17:22Z</time>
      </trkpt>
      <trkpt lat="43.37361" lon="6.64765">
        <ele>91.599998474121</ele>
        <time>2018-10-14T11:17:28Z</time>
      </trkpt>
      <trkpt lat="43.37342" lon="6.64768">
        <ele>91.800003051758</ele>
        <time>2018-10-14T11:17:33Z</time>
      </trkpt>
      <trkpt lat="43.37323" lon="6.64767">
        <ele>92.400001525879</ele>
        <time>2018-10-14T11:17:38Z</time>
      </trkpt>
      <trkpt lat="43.37302" lon="6.6477">
        <ele>92.800003051758</ele>
        <time>2018-10-14T11:17:44Z</time>
      </trkpt>
      <trkpt lat="43.37289" lon="6.64771">
        <ele>92.800003051758</ele>
        <time>2018-10-14T11:17:49Z</time>
      </trkpt>
      <trkpt lat="43.37279" lon="6.64769">
        <ele>93</ele>
        <time>2018-10-14T11:17:54Z</time>
      </trkpt>
      <trkpt lat="43.3727" lon="6.64759">
        <ele>93.400001525879</ele>
        <time>2018-10-14T11:17:59Z</time>
      </trkpt>
      <trkpt lat="43.37261" lon="6.64749">
        <ele>93.800003051758</ele>
        <time>2018-10-14T11:18:04Z</time>
      </trkpt>
      <trkpt lat="43.37249" lon="6.64731">
        <ele>94.199996948242</ele>
        <time>2018-10-14T11:18:11Z</time>
      </trkpt>
      <trkpt lat="43.37237" lon="6.64711">
        <ele>94.400001525879</ele>
        <time>2018-10-14T11:18:17Z</time>
      </trkpt>
      <trkpt lat="43.37225" lon="6.64695">
        <ele>94.599998474121</ele>
        <time>2018-10-14T11:18:22Z</time>
      </trkpt>
      <trkpt lat="43.3721" lon="6.64696">
        <ele>95</ele>
        <time>2018-10-14T11:18:27Z</time>
      </trkpt>
      <trkpt lat="43.37188" lon="6.64702">
        <ele>95.199996948242</ele>
        <time>2018-10-14T11:18:34Z</time>
      </trkpt>
      <trkpt lat="43.37175" lon="6.64709">
        <ele>95.400001525879</ele>
        <time>2018-10-14T11:18:39Z</time>
      </trkpt>
      <trkpt lat="43.37162" lon="6.64716">
        <ele>95.800003051758</ele>
        <time>2018-10-14T11:18:44Z</time>
      </trkpt>
      <trkpt lat="43.37147" lon="6.64724">
        <ele>96</ele>
        <time>2018-10-14T11:18:49Z</time>
      </trkpt>
      <trkpt lat="43.37127" lon="6.64731">
        <ele>96.599998474121</ele>
        <time>2018-10-14T11:18:55Z</time>
      </trkpt>
      <trkpt lat="43.37105" lon="6.6474">
        <ele>96.800003051758</ele>
        <time>2018-10-14T11:19:01Z</time>
      </trkpt>
      <trkpt lat="43.37083" lon="6.64755">
        <ele>97.400001525879</ele>
        <time>2018-10-14T11:19:08Z</time>
      </trkpt>
      <trkpt lat="43.3706" lon="6.64766">
        <ele>97.800003051758</ele>
        <time>2018-10-14T11:19:15Z</time>
      </trkpt>
      <trkpt lat="43.37041" lon="6.64775">
        <ele>98</ele>
        <time>2018-10-14T11:19:21Z</time>
      </trkpt>
      <trkpt lat="43.37018" lon="6.64774">
        <ele>98.400001525879</ele>
        <time>2018-10-14T11:19:28Z</time>
      </trkpt>
      <trkpt lat="43.36993" lon="6.64764">
        <ele>99</ele>
        <time>2018-10-14T11:19:35Z</time>
      </trkpt>
      <trkpt lat="43.36968" lon="6.64758">
        <ele>99.400001525879</ele>
        <time>2018-10-14T11:19:42Z</time>
      </trkpt>
      <trkpt lat="43.36951" lon="6.64759">
        <ele>99.800003051758</ele>
        <time>2018-10-14T11:19:47Z</time>
      </trkpt>
      <trkpt lat="43.36934" lon="6.64763">
        <ele>100.19999694824</ele>
        <time>2018-10-14T11:19:52Z</time>
      </trkpt>
      <trkpt lat="43.36914" lon="6.64771">
        <ele>100.80000305176</ele>
        <time>2018-10-14T11:19:58Z</time>
      </trkpt>
      <trkpt lat="43.36896" lon="6.64783">
        <ele>101.40000152588</ele>
        <time>2018-10-14T11:20:04Z</time>
      </trkpt>
      <trkpt lat="43.36882" lon="6.64799">
        <ele>101.80000305176</ele>
        <time>2018-10-14T11:20:10Z</time>
      </trkpt>
      <trkpt lat="43.36878" lon="6.64806">
        <ele>102</ele>
        <time>2018-10-14T11:20:12Z</time>
      </trkpt>
      <trkpt lat="43.36874" lon="6.64812">
        <ele>102.19999694824</ele>
        <time>2018-10-14T11:20:14Z</time>
      </trkpt>
      <trkpt lat="43.36873" lon="6.64827">
        <ele>102.59999847412</ele>
        <time>2018-10-14T11:20:18Z</time>
      </trkpt>
      <trkpt lat="43.36873" lon="6.64831">
        <ele>102.80000305176</ele>
        <time>2018-10-14T11:20:20Z</time>
      </trkpt>
      <trkpt lat="43.36872" lon="6.64836">
        <ele>102.80000305176</ele>
        <time>2018-10-14T11:20:22Z</time>
      </trkpt>
      <trkpt lat="43.3687" lon="6.64842">
        <ele>103</ele>
        <time>2018-10-14T11:20:25Z</time>
      </trkpt>
      <trkpt lat="43.36869" lon="6.64845">
        <ele>103.19999694824</ele>
        <time>2018-10-14T11:20:26Z</time>
      </trkpt>
      <trkpt lat="43.36863" lon="6.64857">
        <ele>103.40000152588</ele>
        <time>2018-10-14T11:20:32Z</time>
      </trkpt>
      <trkpt lat="43.36853" lon="6.64863">
        <ele>103.80000305176</ele>
        <time>2018-10-14T11:20:37Z</time>
      </trkpt>
      <trkpt lat="43.3684" lon="6.64863">
        <ele>104.19999694824</ele>
        <time>2018-10-14T11:20:42Z</time>
      </trkpt>
      <trkpt lat="43.36826" lon="6.64868">
        <ele>104.40000152588</ele>
        <time>2018-10-14T11:20:47Z</time>
      </trkpt>
      <trkpt lat="43.36809" lon="6.64872">
        <ele>105</ele>
        <time>2018-10-14T11:20:53Z</time>
      </trkpt>
      <trkpt lat="43.36795" lon="6.64876">
        <ele>105.19999694824</ele>
        <time>2018-10-14T11:20:58Z</time>
      </trkpt>
      <trkpt lat="43.36781" lon="6.64878">
        <ele>105.40000152588</ele>
        <time>2018-10-14T11:21:03Z</time>
      </trkpt>
      <trkpt lat="43.36764" lon="6.6488">
        <ele>105.80000305176</ele>
        <time>2018-10-14T11:21:09Z</time>
      </trkpt>
      <trkpt lat="43.36741" lon="6.64879">
        <ele>106.19999694824</ele>
        <time>2018-10-14T11:21:16Z</time>
      </trkpt>
      <trkpt lat="43.36717" lon="6.64886">
        <ele>106.80000305176</ele>
        <time>2018-10-14T11:21:24Z</time>
      </trkpt>
      <trkpt lat="43.36702" lon="6.64892">
        <ele>107.40000152588</ele>
        <time>2018-10-14T11:21:30Z</time>
      </trkpt>
      <trkpt lat="43.36688" lon="6.64899">
        <ele>108</ele>
        <time>2018-10-14T11:21:36Z</time>
      </trkpt>
      <trkpt lat="43.36675" lon="6.64905">
        <ele>108.80000305176</ele>
        <time>2018-10-14T11:21:42Z</time>
      </trkpt>
      <trkpt lat="43.36661" lon="6.64913">
        <ele>109.59999847412</ele>
        <time>2018-10-14T11:21:48Z</time>
      </trkpt>
      <trkpt lat="43.36647" lon="6.6492">
        <ele>110.40000152588</ele>
        <time>2018-10-14T11:21:54Z</time>
      </trkpt>
      <trkpt lat="43.36631" lon="6.64927">
        <ele>110.80000305176</ele>
        <time>2018-10-14T11:22:00Z</time>
      </trkpt>
      <trkpt lat="43.36607" lon="6.6494">
        <ele>111.59999847412</ele>
        <time>2018-10-14T11:22:08Z</time>
      </trkpt>
      <trkpt lat="43.36592" lon="6.64953">
        <ele>112.19999694824</ele>
        <time>2018-10-14T11:22:14Z</time>
      </trkpt>
      <trkpt lat="43.36579" lon="6.64964">
        <ele>112.80000305176</ele>
        <time>2018-10-14T11:22:21Z</time>
      </trkpt>
      <trkpt lat="43.3657" lon="6.64979">
        <ele>113.40000152588</ele>
        <time>2018-10-14T11:22:28Z</time>
      </trkpt>
      <trkpt lat="43.36565" lon="6.64993">
        <ele>114</ele>
        <time>2018-10-14T11:22:33Z</time>
      </trkpt>
      <trkpt lat="43.36565" lon="6.6501">
        <ele>114.40000152588</ele>
        <time>2018-10-14T11:22:38Z</time>
      </trkpt>
      <trkpt lat="43.36566" lon="6.65037">
        <ele>115</ele>
        <time>2018-10-14T11:22:45Z</time>
      </trkpt>
      <trkpt lat="43.36569" lon="6.65061">
        <ele>115.59999847412</ele>
        <time>2018-10-14T11:22:51Z</time>
      </trkpt>
      <trkpt lat="43.36569" lon="6.6508">
        <ele>116</ele>
        <time>2018-10-14T11:22:56Z</time>
      </trkpt>
      <trkpt lat="43.3657" lon="6.65084">
        <ele>116</ele>
        <time>2018-10-14T11:22:57Z</time>
      </trkpt>
      <trkpt lat="43.36575" lon="6.65104">
        <ele>116.40000152588</ele>
        <time>2018-10-14T11:23:02Z</time>
      </trkpt>
      <trkpt lat="43.36581" lon="6.65123">
        <ele>116.80000305176</ele>
        <time>2018-10-14T11:23:07Z</time>
      </trkpt>
      <trkpt lat="43.36586" lon="6.65153">
        <ele>117.40000152588</ele>
        <time>2018-10-14T11:23:15Z</time>
      </trkpt>
      <trkpt lat="43.36586" lon="6.65173">
        <ele>118</ele>
        <time>2018-10-14T11:23:20Z</time>
      </trkpt>
      <trkpt lat="43.36588" lon="6.65194">
        <ele>118.59999847412</ele>
        <time>2018-10-14T11:23:26Z</time>
      </trkpt>
      <trkpt lat="43.36587" lon="6.65215">
        <ele>119</ele>
        <time>2018-10-14T11:23:31Z</time>
      </trkpt>
      <trkpt lat="43.36586" lon="6.65239">
        <ele>119.19999694824</ele>
        <time>2018-10-14T11:23:37Z</time>
      </trkpt>
      <trkpt lat="43.36584" lon="6.65257">
        <ele>119.59999847412</ele>
        <time>2018-10-14T11:23:42Z</time>
      </trkpt>
      <trkpt lat="43.36582" lon="6.65282">
        <ele>120.19999694824</ele>
        <time>2018-10-14T11:23:49Z</time>
      </trkpt>
      <trkpt lat="43.36584" lon="6.65302">
        <ele>120.59999847412</ele>
        <time>2018-10-14T11:23:55Z</time>
      </trkpt>
      <trkpt lat="43.3659" lon="6.65321">
        <ele>121.19999694824</ele>
        <time>2018-10-14T11:24:01Z</time>
      </trkpt>
      <trkpt lat="43.36596" lon="6.65338">
        <ele>121.80000305176</ele>
        <time>2018-10-14T11:24:06Z</time>
      </trkpt>
      <trkpt lat="43.36596" lon="6.65355">
        <ele>122.19999694824</ele>
        <time>2018-10-14T11:24:11Z</time>
      </trkpt>
      <trkpt lat="43.36596" lon="6.65377">
        <ele>122.59999847412</ele>
        <time>2018-10-14T11:24:17Z</time>
      </trkpt>
      <trkpt lat="43.36596" lon="6.65389">
        <ele>123</ele>
        <time>2018-10-14T11:24:21Z</time>
      </trkpt>
      <trkpt lat="43.36597" lon="6.65405">
        <ele>123.40000152588</ele>
        <time>2018-10-14T11:24:26Z</time>
      </trkpt>
      <trkpt lat="43.36598" lon="6.6543">
        <ele>124</ele>
        <time>2018-10-14T11:24:33Z</time>
      </trkpt>
      <trkpt lat="43.36597" lon="6.65454">
        <ele>124.19999694824</ele>
        <time>2018-10-14T11:24:39Z</time>
      </trkpt>
      <trkpt lat="43.36602" lon="6.65476">
        <ele>124.40000152588</ele>
        <time>2018-10-14T11:24:45Z</time>
      </trkpt>
      <trkpt lat="43.36605" lon="6.65488">
        <ele>124.80000305176</ele>
        <time>2018-10-14T11:24:49Z</time>
      </trkpt>
      <trkpt lat="43.36609" lon="6.65502">
        <ele>125.40000152588</ele>
        <time>2018-10-14T11:24:55Z</time>
      </trkpt>
      <trkpt lat="43.36613" lon="6.65516">
        <ele>126.19999694824</ele>
        <time>2018-10-14T11:25:02Z</time>
      </trkpt>
      <trkpt lat="43.36616" lon="6.65526">
        <ele>126.59999847412</ele>
        <time>2018-10-14T11:25:06Z</time>
      </trkpt>
      <trkpt lat="43.36615" lon="6.65531">
        <ele>127</ele>
        <time>2018-10-14T11:25:08Z</time>
      </trkpt>
      <trkpt lat="43.36614" lon="6.65535">
        <ele>127</ele>
        <time>2018-10-14T11:25:10Z</time>
      </trkpt>
      <trkpt lat="43.36613" lon="6.65541">
        <ele>127.19999694824</ele>
        <time>2018-10-14T11:25:12Z</time>
      </trkpt>
      <trkpt lat="43.3661" lon="6.65562">
        <ele>127.59999847412</ele>
        <time>2018-10-14T11:25:18Z</time>
      </trkpt>
      <trkpt lat="43.36611" lon="6.65587">
        <ele>128.19999694824</ele>
        <time>2018-10-14T11:25:25Z</time>
      </trkpt>
      <trkpt lat="43.36613" lon="6.65599">
        <ele>128.39999389648</ele>
        <time>2018-10-14T11:25:29Z</time>
      </trkpt>
      <trkpt lat="43.36621" lon="6.65614">
        <ele>129.39999389648</ele>
        <time>2018-10-14T11:25:36Z</time>
      </trkpt>
      <trkpt lat="43.36626" lon="6.65623">
        <ele>130.39999389648</ele>
        <time>2018-10-14T11:25:41Z</time>
      </trkpt>
      <trkpt lat="43.36632" lon="6.65641">
        <ele>131.39999389648</ele>
        <time>2018-10-14T11:25:49Z</time>
      </trkpt>
      <trkpt lat="43.36635" lon="6.65655">
        <ele>132</ele>
        <time>2018-10-14T11:25:55Z</time>
      </trkpt>
      <trkpt lat="43.36637" lon="6.6566">
        <ele>132.19999694824</ele>
        <time>2018-10-14T11:25:57Z</time>
      </trkpt>
      <trkpt lat="43.36638" lon="6.65665">
        <ele>132.39999389648</ele>
        <time>2018-10-14T11:25:59Z</time>
      </trkpt>
      <trkpt lat="43.36642" lon="6.65673">
        <ele>132.80000305176</ele>
        <time>2018-10-14T11:26:03Z</time>
      </trkpt>
      <trkpt lat="43.36643" lon="6.65674">
        <ele>132.80000305176</ele>
        <time>2018-10-14T11:26:04Z</time>
      </trkpt>
      <trkpt lat="43.36647" lon="6.65685">
        <ele>133.39999389648</ele>
        <time>2018-10-14T11:26:09Z</time>
      </trkpt>
      <trkpt lat="43.36655" lon="6.657">
        <ele>133.80000305176</ele>
        <time>2018-10-14T11:26:15Z</time>
      </trkpt>
      <trkpt lat="43.36661" lon="6.65715">
        <ele>134.39999389648</ele>
        <time>2018-10-14T11:26:21Z</time>
      </trkpt>
      <trkpt lat="43.36669" lon="6.65726">
        <ele>134.80000305176</ele>
        <time>2018-10-14T11:26:26Z</time>
      </trkpt>
      <trkpt lat="43.36675" lon="6.65735">
        <ele>135.19999694824</ele>
        <time>2018-10-14T11:26:30Z</time>
      </trkpt>
      <trkpt lat="43.36681" lon="6.6575">
        <ele>136.19999694824</ele>
        <time>2018-10-14T11:26:38Z</time>
      </trkpt>
      <trkpt lat="43.36682" lon="6.65763">
        <ele>137</ele>
        <time>2018-10-14T11:26:44Z</time>
      </trkpt>
      <trkpt lat="43.3668" lon="6.65779">
        <ele>138</ele>
        <time>2018-10-14T11:26:51Z</time>
      </trkpt>
      <trkpt lat="43.36673" lon="6.65796">
        <ele>138.80000305176</ele>
        <time>2018-10-14T11:26:59Z</time>
      </trkpt>
      <trkpt lat="43.36669" lon="6.65801">
        <ele>139.19999694824</ele>
        <time>2018-10-14T11:27:02Z</time>
      </trkpt>
      <trkpt lat="43.36667" lon="6.65807">
        <ele>139.80000305176</ele>
        <time>2018-10-14T11:27:05Z</time>
      </trkpt>
      <trkpt lat="43.36662" lon="6.65811">
        <ele>140.19999694824</ele>
        <time>2018-10-14T11:27:08Z</time>
      </trkpt>
      <trkpt lat="43.36659" lon="6.65811">
        <ele>140.19999694824</ele>
        <time>2018-10-14T11:27:09Z</time>
      </trkpt>
      <trkpt lat="43.36657" lon="6.65815">
        <ele>140.39999389648</ele>
        <time>2018-10-14T11:27:11Z</time>
      </trkpt>
      <trkpt lat="43.36655" lon="6.65819">
        <ele>140.80000305176</ele>
        <time>2018-10-14T11:27:13Z</time>
      </trkpt>
      <trkpt lat="43.36655" lon="6.65831">
        <ele>141.39999389648</ele>
        <time>2018-10-14T11:27:18Z</time>
      </trkpt>
      <trkpt lat="43.36651" lon="6.65849">
        <ele>142</ele>
        <time>2018-10-14T11:27:24Z</time>
      </trkpt>
      <trkpt lat="43.36652" lon="6.65867">
        <ele>142.80000305176</ele>
        <time>2018-10-14T11:27:30Z</time>
      </trkpt>
      <trkpt lat="43.36656" lon="6.65874">
        <ele>143.39999389648</ele>
        <time>2018-10-14T11:27:34Z</time>
      </trkpt>
      <trkpt lat="43.36658" lon="6.65875">
        <ele>143.60000610352</ele>
        <time>2018-10-14T11:27:36Z</time>
      </trkpt>
      <trkpt lat="43.36667" lon="6.65873">
        <ele>144.60000610352</ele>
        <time>2018-10-14T11:27:42Z</time>
      </trkpt>
      <trkpt lat="43.3668" lon="6.65867">
        <ele>145.60000610352</ele>
        <time>2018-10-14T11:27:51Z</time>
      </trkpt>
      <trkpt lat="43.3669" lon="6.65861">
        <ele>146.39999389648</ele>
        <time>2018-10-14T11:27:58Z</time>
      </trkpt>
      <trkpt lat="43.36699" lon="6.65857">
        <ele>147</ele>
        <time>2018-10-14T11:28:04Z</time>
      </trkpt>
      <trkpt lat="43.36706" lon="6.65859">
        <ele>147.80000305176</ele>
        <time>2018-10-14T11:28:09Z</time>
      </trkpt>
      <trkpt lat="43.36713" lon="6.65868">
        <ele>148.80000305176</ele>
        <time>2018-10-14T11:28:16Z</time>
      </trkpt>
      <trkpt lat="43.36715" lon="6.65871">
        <ele>149</ele>
        <time>2018-10-14T11:28:18Z</time>
      </trkpt>
      <trkpt lat="43.36718" lon="6.65878">
        <ele>149.60000610352</ele>
        <time>2018-10-14T11:28:22Z</time>
      </trkpt>
      <trkpt lat="43.36722" lon="6.65888">
        <ele>150.39999389648</ele>
        <time>2018-10-14T11:28:28Z</time>
      </trkpt>
      <trkpt lat="43.36725" lon="6.65901">
        <ele>151.39999389648</ele>
        <time>2018-10-14T11:28:35Z</time>
      </trkpt>
      <trkpt lat="43.36729" lon="6.65915">
        <ele>152.39999389648</ele>
        <time>2018-10-14T11:28:42Z</time>
      </trkpt>
      <trkpt lat="43.36732" lon="6.65925">
        <ele>153.39999389648</ele>
        <time>2018-10-14T11:28:48Z</time>
      </trkpt>
      <trkpt lat="43.36734" lon="6.65936">
        <ele>154.60000610352</ele>
        <time>2018-10-14T11:28:55Z</time>
      </trkpt>
      <trkpt lat="43.36738" lon="6.6595">
        <ele>155.80000305176</ele>
        <time>2018-10-14T11:29:03Z</time>
      </trkpt>
      <trkpt lat="43.3674" lon="6.65961">
        <ele>157.19999694824</ele>
        <time>2018-10-14T11:29:10Z</time>
      </trkpt>
      <trkpt lat="43.36741" lon="6.65965">
        <ele>157.60000610352</ele>
        <time>2018-10-14T11:29:12Z</time>
      </trkpt>
      <trkpt lat="43.36742" lon="6.65968">
        <ele>158</ele>
        <time>2018-10-14T11:29:14Z</time>
      </trkpt>
      <trkpt lat="43.36742" lon="6.6597">
        <ele>158</ele>
        <time>2018-10-14T11:29:15Z</time>
      </trkpt>
      <trkpt lat="43.36747" lon="6.65983">
        <ele>158.60000610352</ele>
        <time>2018-10-14T11:29:21Z</time>
      </trkpt>
      <trkpt lat="43.36749" lon="6.65994">
        <ele>159</ele>
        <time>2018-10-14T11:29:26Z</time>
      </trkpt>
      <trkpt lat="43.36751" lon="6.66009">
        <ele>159.80000305176</ele>
        <time>2018-10-14T11:29:32Z</time>
      </trkpt>
      <trkpt lat="43.36752" lon="6.66018">
        <ele>160.39999389648</ele>
        <time>2018-10-14T11:29:37Z</time>
      </trkpt>
      <trkpt lat="43.36753" lon="6.6602">
        <ele>160.60000610352</ele>
        <time>2018-10-14T11:29:38Z</time>
      </trkpt>
      <trkpt lat="43.36755" lon="6.66027">
        <ele>161</ele>
        <time>2018-10-14T11:29:42Z</time>
      </trkpt>
      <trkpt lat="43.36758" lon="6.66045">
        <ele>162.19999694824</ele>
        <time>2018-10-14T11:29:50Z</time>
      </trkpt>
      <trkpt lat="43.36758" lon="6.66059">
        <ele>163.19999694824</ele>
        <time>2018-10-14T11:29:56Z</time>
      </trkpt>
      <trkpt lat="43.36757" lon="6.66077">
        <ele>164</ele>
        <time>2018-10-14T11:30:02Z</time>
      </trkpt>
      <trkpt lat="43.36757" lon="6.66091">
        <ele>164.39999389648</ele>
        <time>2018-10-14T11:30:07Z</time>
      </trkpt>
      <trkpt lat="43.36759" lon="6.66109">
        <ele>165.60000610352</ele>
        <time>2018-10-14T11:30:14Z</time>
      </trkpt>
      <trkpt lat="43.36761" lon="6.66122">
        <ele>166.80000305176</ele>
        <time>2018-10-14T11:30:20Z</time>
      </trkpt>
      <trkpt lat="43.36764" lon="6.66137">
        <ele>167.80000305176</ele>
        <time>2018-10-14T11:30:26Z</time>
      </trkpt>
      <trkpt lat="43.36765" lon="6.66154">
        <ele>168.60000610352</ele>
        <time>2018-10-14T11:30:32Z</time>
      </trkpt>
      <trkpt lat="43.36761" lon="6.66172">
        <ele>169.39999389648</ele>
        <time>2018-10-14T11:30:38Z</time>
      </trkpt>
      <trkpt lat="43.36756" lon="6.66189">
        <ele>170.39999389648</ele>
        <time>2018-10-14T11:30:44Z</time>
      </trkpt>
      <trkpt lat="43.36749" lon="6.66205">
        <ele>171.19999694824</ele>
        <time>2018-10-14T11:30:50Z</time>
      </trkpt>
      <trkpt lat="43.36739" lon="6.66222">
        <ele>172.39999389648</ele>
        <time>2018-10-14T11:30:57Z</time>
      </trkpt>
      <trkpt lat="43.36737" lon="6.66224">
        <ele>172.60000610352</ele>
        <time>2018-10-14T11:30:59Z</time>
      </trkpt>
      <trkpt lat="43.36735" lon="6.66227">
        <ele>173</ele>
        <time>2018-10-14T11:31:01Z</time>
      </trkpt>
      <trkpt lat="43.36734" lon="6.66228">
        <ele>173</ele>
        <time>2018-10-14T11:31:02Z</time>
      </trkpt>
      <trkpt lat="43.36728" lon="6.66239">
        <ele>173.80000305176</ele>
        <time>2018-10-14T11:31:09Z</time>
      </trkpt>
      <trkpt lat="43.36728" lon="6.66241">
        <ele>173.80000305176</ele>
        <time>2018-10-14T11:31:10Z</time>
      </trkpt>
      <trkpt lat="43.36728" lon="6.66245">
        <ele>174.19999694824</ele>
        <time>2018-10-14T11:31:12Z</time>
      </trkpt>
      <trkpt lat="43.36727" lon="6.66246">
        <ele>174.39999389648</ele>
        <time>2018-10-14T11:31:13Z</time>
      </trkpt>
      <trkpt lat="43.36727" lon="6.66249">
        <ele>174.80000305176</ele>
        <time>2018-10-14T11:31:17Z</time>
      </trkpt>
      <trkpt lat="43.36727" lon="6.66249">
        <ele>174.80000305176</ele>
        <time>2018-10-14T11:31:18Z</time>
      </trkpt>
      <trkpt lat="43.36723" lon="6.66246">
        <ele>182.19999694824</ele>
        <time>2018-10-14T11:33:56Z</time>
      </trkpt>
      <trkpt lat="43.36718" lon="6.66247">
        <ele>182.19999694824</ele>
        <time>2018-10-14T11:33:58Z</time>
      </trkpt>
      <trkpt lat="43.36703" lon="6.66248">
        <ele>182</ele>
        <time>2018-10-14T11:34:03Z</time>
      </trkpt>
      <trkpt lat="43.36698" lon="6.66251">
        <ele>181.80000305176</ele>
        <time>2018-10-14T11:34:06Z</time>
      </trkpt>
      <trkpt lat="43.36697" lon="6.66253">
        <ele>181.80000305176</ele>
        <time>2018-10-14T11:34:07Z</time>
      </trkpt>
      <trkpt lat="43.36695" lon="6.66264">
        <ele>182</ele>
        <time>2018-10-14T11:34:12Z</time>
      </trkpt>
      <trkpt lat="43.36694" lon="6.66271">
        <ele>181.60000610352</ele>
        <time>2018-10-14T11:34:15Z</time>
      </trkpt>
      <trkpt lat="43.36694" lon="6.66274">
        <ele>181.60000610352</ele>
        <time>2018-10-14T11:34:16Z</time>
      </trkpt>
      <trkpt lat="43.36693" lon="6.66284">
        <ele>181.19999694824</ele>
        <time>2018-10-14T11:34:19Z</time>
      </trkpt>
      <trkpt lat="43.36692" lon="6.66286">
        <ele>181.19999694824</ele>
        <time>2018-10-14T11:34:20Z</time>
      </trkpt>
      <trkpt lat="43.3669" lon="6.66287">
        <ele>181</ele>
        <time>2018-10-14T11:34:24Z</time>
      </trkpt>
      <trkpt lat="43.36689" lon="6.66288">
        <ele>180.80000305176</ele>
        <time>2018-10-14T11:34:25Z</time>
      </trkpt>
      <trkpt lat="43.36685" lon="6.66287">
        <ele>180.60000610352</ele>
        <time>2018-10-14T11:34:28Z</time>
      </trkpt>
      <trkpt lat="43.36677" lon="6.66288">
        <ele>180.19999694824</ele>
        <time>2018-10-14T11:34:33Z</time>
      </trkpt>
      <trkpt lat="43.36675" lon="6.6629">
        <ele>179.80000305176</ele>
        <time>2018-10-14T11:34:34Z</time>
      </trkpt>
      <trkpt lat="43.36672" lon="6.66297">
        <ele>179.39999389648</ele>
        <time>2018-10-14T11:34:36Z</time>
      </trkpt>
      <trkpt lat="43.36672" lon="6.66307">
        <ele>179</ele>
        <time>2018-10-14T11:34:39Z</time>
      </trkpt>
      <trkpt lat="43.36672" lon="6.66311">
        <ele>178.60000610352</ele>
        <time>2018-10-14T11:34:40Z</time>
      </trkpt>
      <trkpt lat="43.3667" lon="6.66327">
        <ele>178</ele>
        <time>2018-10-14T11:34:44Z</time>
      </trkpt>
      <trkpt lat="43.3667" lon="6.66351">
        <ele>177.60000610352</ele>
        <time>2018-10-14T11:34:48Z</time>
      </trkpt>
      <trkpt lat="43.3667" lon="6.66358">
        <ele>177.60000610352</ele>
        <time>2018-10-14T11:34:49Z</time>
      </trkpt>
      <trkpt lat="43.3667" lon="6.66373">
        <ele>177.39999389648</ele>
        <time>2018-10-14T11:34:51Z</time>
      </trkpt>
      <trkpt lat="43.3667" lon="6.6638">
        <ele>177.39999389648</ele>
        <time>2018-10-14T11:34:52Z</time>
      </trkpt>
      <trkpt lat="43.36674" lon="6.664">
        <ele>177.19999694824</ele>
        <time>2018-10-14T11:34:56Z</time>
      </trkpt>
      <trkpt lat="43.36675" lon="6.66412">
        <ele>177</ele>
        <time>2018-10-14T11:35:00Z</time>
      </trkpt>
      <trkpt lat="43.36675" lon="6.66418">
        <ele>176.80000305176</ele>
        <time>2018-10-14T11:35:02Z</time>
      </trkpt>
      <trkpt lat="43.36675" lon="6.66422">
        <ele>176.60000610352</ele>
        <time>2018-10-14T11:35:04Z</time>
      </trkpt>
      <trkpt lat="43.36678" lon="6.66428">
        <ele>176</ele>
        <time>2018-10-14T11:35:07Z</time>
      </trkpt>
      <trkpt lat="43.36679" lon="6.66431">
        <ele>175.80000305176</ele>
        <time>2018-10-14T11:35:09Z</time>
      </trkpt>
      <trkpt lat="43.3668" lon="6.66434">
        <ele>175.19999694824</ele>
        <time>2018-10-14T11:35:11Z</time>
      </trkpt>
      <trkpt lat="43.3668" lon="6.66436">
        <ele>175</ele>
        <time>2018-10-14T11:35:12Z</time>
      </trkpt>
      <trkpt lat="43.3668" lon="6.66439">
        <ele>174.60000610352</ele>
        <time>2018-10-14T11:35:13Z</time>
      </trkpt>
      <trkpt lat="43.36681" lon="6.66443">
        <ele>174.19999694824</ele>
        <time>2018-10-14T11:35:15Z</time>
      </trkpt>
      <trkpt lat="43.36681" lon="6.66445">
        <ele>173.80000305176</ele>
        <time>2018-10-14T11:35:16Z</time>
      </trkpt>
      <trkpt lat="43.36682" lon="6.66448">
        <ele>173.39999389648</ele>
        <time>2018-10-14T11:35:17Z</time>
      </trkpt>
      <trkpt lat="43.36683" lon="6.66453">
        <ele>172.80000305176</ele>
        <time>2018-10-14T11:35:19Z</time>
      </trkpt>
      <trkpt lat="43.36683" lon="6.66457">
        <ele>172.19999694824</ele>
        <time>2018-10-14T11:35:22Z</time>
      </trkpt>
      <trkpt lat="43.36684" lon="6.6646">
        <ele>171.80000305176</ele>
        <time>2018-10-14T11:35:24Z</time>
      </trkpt>
      <trkpt lat="43.36684" lon="6.66461">
        <ele>171.60000610352</ele>
        <time>2018-10-14T11:35:25Z</time>
      </trkpt>
      <trkpt lat="43.36685" lon="6.66463">
        <ele>171.19999694824</ele>
        <time>2018-10-14T11:35:28Z</time>
      </trkpt>
      <trkpt lat="43.36684" lon="6.66464">
        <ele>171</ele>
        <time>2018-10-14T11:35:29Z</time>
      </trkpt>
      <trkpt lat="43.36684" lon="6.66471">
        <ele>170.19999694824</ele>
        <time>2018-10-14T11:35:35Z</time>
      </trkpt>
      <trkpt lat="43.36683" lon="6.66472">
        <ele>170</ele>
        <time>2018-10-14T11:35:36Z</time>
      </trkpt>
      <trkpt lat="43.36683" lon="6.66474">
        <ele>169.60000610352</ele>
        <time>2018-10-14T11:35:38Z</time>
      </trkpt>
      <trkpt lat="43.36684" lon="6.66479">
        <ele>168.60000610352</ele>
        <time>2018-10-14T11:35:42Z</time>
      </trkpt>
      <trkpt lat="43.36684" lon="6.66481">
        <ele>168.19999694824</ele>
        <time>2018-10-14T11:35:43Z</time>
      </trkpt>
      <trkpt lat="43.36684" lon="6.66482">
        <ele>167.80000305176</ele>
        <time>2018-10-14T11:35:46Z</time>
      </trkpt>
      <trkpt lat="43.36691" lon="6.66518">
        <ele>161.39999389648</ele>
        <time>2018-10-14T11:36:21Z</time>
      </trkpt>
      <trkpt lat="43.36694" lon="6.66528">
        <ele>160.39999389648</ele>
        <time>2018-10-14T11:36:26Z</time>
      </trkpt>
      <trkpt lat="43.36696" lon="6.66534">
        <ele>159.60000610352</ele>
        <time>2018-10-14T11:36:30Z</time>
      </trkpt>
      <trkpt lat="43.36698" lon="6.66542">
        <ele>159</ele>
        <time>2018-10-14T11:36:34Z</time>
      </trkpt>
      <trkpt lat="43.36699" lon="6.66546">
        <ele>158.60000610352</ele>
        <time>2018-10-14T11:36:36Z</time>
      </trkpt>
      <trkpt lat="43.36698" lon="6.66551">
        <ele>158</ele>
        <time>2018-10-14T11:36:39Z</time>
      </trkpt>
      <trkpt lat="43.36702" lon="6.6656">
        <ele>157.39999389648</ele>
        <time>2018-10-14T11:36:43Z</time>
      </trkpt>
      <trkpt lat="43.36703" lon="6.66567">
        <ele>157</ele>
        <time>2018-10-14T11:36:46Z</time>
      </trkpt>
      <trkpt lat="43.36704" lon="6.66573">
        <ele>156.80000305176</ele>
        <time>2018-10-14T11:36:48Z</time>
      </trkpt>
      <trkpt lat="43.36707" lon="6.66582">
        <ele>156.19999694824</ele>
        <time>2018-10-14T11:36:51Z</time>
      </trkpt>
      <trkpt lat="43.36708" lon="6.66585">
        <ele>156</ele>
        <time>2018-10-14T11:36:52Z</time>
      </trkpt>
      <trkpt lat="43.36712" lon="6.66594">
        <ele>155.19999694824</ele>
        <time>2018-10-14T11:36:56Z</time>
      </trkpt>
      <trkpt lat="43.36716" lon="6.66597">
        <ele>154.60000610352</ele>
        <time>2018-10-14T11:37:00Z</time>
      </trkpt>
      <trkpt lat="43.36716" lon="6.66598">
        <ele>154.39999389648</ele>
        <time>2018-10-14T11:37:01Z</time>
      </trkpt>
      <trkpt lat="43.36717" lon="6.66599">
        <ele>154.19999694824</ele>
        <time>2018-10-14T11:37:02Z</time>
      </trkpt>
      <trkpt lat="43.36719" lon="6.66604">
        <ele>153.60000610352</ele>
        <time>2018-10-14T11:37:05Z</time>
      </trkpt>
      <trkpt lat="43.36721" lon="6.66611">
        <ele>152.80000305176</ele>
        <time>2018-10-14T11:37:09Z</time>
      </trkpt>
      <trkpt lat="43.36721" lon="6.66614">
        <ele>152.39999389648</ele>
        <time>2018-10-14T11:37:10Z</time>
      </trkpt>
      <trkpt lat="43.36721" lon="6.66618">
        <ele>152</ele>
        <time>2018-10-14T11:37:12Z</time>
      </trkpt>
      <trkpt lat="43.36722" lon="6.66621">
        <ele>151.80000305176</ele>
        <time>2018-10-14T11:37:13Z</time>
      </trkpt>
      <trkpt lat="43.36724" lon="6.6663">
        <ele>150.80000305176</ele>
        <time>2018-10-14T11:37:16Z</time>
      </trkpt>
      <trkpt lat="43.36724" lon="6.66634">
        <ele>150.19999694824</ele>
        <time>2018-10-14T11:37:18Z</time>
      </trkpt>
      <trkpt lat="43.36724" lon="6.66636">
        <ele>149.80000305176</ele>
        <time>2018-10-14T11:37:19Z</time>
      </trkpt>
      <trkpt lat="43.36725" lon="6.66639">
        <ele>149.19999694824</ele>
        <time>2018-10-14T11:37:21Z</time>
      </trkpt>
      <trkpt lat="43.36725" lon="6.6664">
        <ele>148.80000305176</ele>
        <time>2018-10-14T11:37:22Z</time>
      </trkpt>
      <trkpt lat="43.36725" lon="6.66641">
        <ele>148.39999389648</ele>
        <time>2018-10-14T11:37:23Z</time>
      </trkpt>
      <trkpt lat="43.36724" lon="6.66647">
        <ele>146.60000610352</ele>
        <time>2018-10-14T11:37:30Z</time>
      </trkpt>
      <trkpt lat="43.36725" lon="6.6665">
        <ele>146.19999694824</ele>
        <time>2018-10-14T11:37:32Z</time>
      </trkpt>
      <trkpt lat="43.36725" lon="6.66653">
        <ele>145.19999694824</ele>
        <time>2018-10-14T11:37:36Z</time>
      </trkpt>
      <trkpt lat="43.36729" lon="6.66672">
        <ele>139.39999389648</ele>
        <time>2018-10-14T11:37:58Z</time>
      </trkpt>
      <trkpt lat="43.3673" lon="6.66677">
        <ele>139</ele>
        <time>2018-10-14T11:38:00Z</time>
      </trkpt>
      <trkpt lat="43.36731" lon="6.66682">
        <ele>138.19999694824</ele>
        <time>2018-10-14T11:38:03Z</time>
      </trkpt>
      <trkpt lat="43.3673" lon="6.66688">
        <ele>137.19999694824</ele>
        <time>2018-10-14T11:38:06Z</time>
      </trkpt>
      <trkpt lat="43.36733" lon="6.66703">
        <ele>135.60000610352</ele>
        <time>2018-10-14T11:38:11Z</time>
      </trkpt>
      <trkpt lat="43.36735" lon="6.6671">
        <ele>135.19999694824</ele>
        <time>2018-10-14T11:38:13Z</time>
      </trkpt>
      <trkpt lat="43.36731" lon="6.66726">
        <ele>134.39999389648</ele>
        <time>2018-10-14T11:38:18Z</time>
      </trkpt>
      <trkpt lat="43.36729" lon="6.66735">
        <ele>133.19999694824</ele>
        <time>2018-10-14T11:38:23Z</time>
      </trkpt>
      <trkpt lat="43.36729" lon="6.66737">
        <ele>133</ele>
        <time>2018-10-14T11:38:24Z</time>
      </trkpt>
      <trkpt lat="43.3673" lon="6.66745">
        <ele>132.39999389648</ele>
        <time>2018-10-14T11:38:27Z</time>
      </trkpt>
      <trkpt lat="43.36729" lon="6.66763">
        <ele>131.60000610352</ele>
        <time>2018-10-14T11:38:31Z</time>
      </trkpt>
      <trkpt lat="43.36725" lon="6.66782">
        <ele>130.60000610352</ele>
        <time>2018-10-14T11:38:35Z</time>
      </trkpt>
      <trkpt lat="43.36726" lon="6.66792">
        <ele>130.19999694824</ele>
        <time>2018-10-14T11:38:37Z</time>
      </trkpt>
      <trkpt lat="43.36728" lon="6.66798">
        <ele>129.80000305176</ele>
        <time>2018-10-14T11:38:38Z</time>
      </trkpt>
      <trkpt lat="43.36732" lon="6.66817">
        <ele>129</ele>
        <time>2018-10-14T11:38:42Z</time>
      </trkpt>
      <trkpt lat="43.36732" lon="6.66821">
        <ele>128.80000305176</ele>
        <time>2018-10-14T11:38:43Z</time>
      </trkpt>
      <trkpt lat="43.36733" lon="6.66836">
        <ele>128.19999694824</ele>
        <time>2018-10-14T11:38:46Z</time>
      </trkpt>
      <trkpt lat="43.36733" lon="6.66845">
        <ele>127.80000305176</ele>
        <time>2018-10-14T11:38:48Z</time>
      </trkpt>
      <trkpt lat="43.36731" lon="6.66849">
        <ele>127.59999847412</ele>
        <time>2018-10-14T11:38:49Z</time>
      </trkpt>
      <trkpt lat="43.36726" lon="6.66863">
        <ele>127</ele>
        <time>2018-10-14T11:38:52Z</time>
      </trkpt>
      <trkpt lat="43.36723" lon="6.66867">
        <ele>126.80000305176</ele>
        <time>2018-10-14T11:38:53Z</time>
      </trkpt>
      <trkpt lat="43.36719" lon="6.6687">
        <ele>126.59999847412</ele>
        <time>2018-10-14T11:38:54Z</time>
      </trkpt>
      <trkpt lat="43.36713" lon="6.66869">
        <ele>126</ele>
        <time>2018-10-14T11:38:56Z</time>
      </trkpt>
      <trkpt lat="43.36704" lon="6.66865">
        <ele>125.19999694824</ele>
        <time>2018-10-14T11:39:00Z</time>
      </trkpt>
      <trkpt lat="43.367" lon="6.66866">
        <ele>124.80000305176</ele>
        <time>2018-10-14T11:39:02Z</time>
      </trkpt>
      <trkpt lat="43.36698" lon="6.6687">
        <ele>124.19999694824</ele>
        <time>2018-10-14T11:39:04Z</time>
      </trkpt>
      <trkpt lat="43.36696" lon="6.66875">
        <ele>123</ele>
        <time>2018-10-14T11:39:08Z</time>
      </trkpt>
      <trkpt lat="43.36696" lon="6.66876">
        <ele>122.80000305176</ele>
        <time>2018-10-14T11:39:09Z</time>
      </trkpt>
      <trkpt lat="43.36698" lon="6.66881">
        <ele>122.19999694824</ele>
        <time>2018-10-14T11:39:13Z</time>
      </trkpt>
      <trkpt lat="43.367" lon="6.66888">
        <ele>121.40000152588</ele>
        <time>2018-10-14T11:39:19Z</time>
      </trkpt>
      <trkpt lat="43.36702" lon="6.66895">
        <ele>120.80000305176</ele>
        <time>2018-10-14T11:39:25Z</time>
      </trkpt>
      <trkpt lat="43.36705" lon="6.66902">
        <ele>120.40000152588</ele>
        <time>2018-10-14T11:39:31Z</time>
      </trkpt>
      <trkpt lat="43.36705" lon="6.66903">
        <ele>120.19999694824</ele>
        <time>2018-10-14T11:39:32Z</time>
      </trkpt>
      <trkpt lat="43.36707" lon="6.6691">
        <ele>120</ele>
        <time>2018-10-14T11:39:36Z</time>
      </trkpt>
      <trkpt lat="43.36708" lon="6.6692">
        <ele>119.59999847412</ele>
        <time>2018-10-14T11:39:42Z</time>
      </trkpt>
      <trkpt lat="43.3671" lon="6.66932">
        <ele>119.59999847412</ele>
        <time>2018-10-14T11:39:49Z</time>
      </trkpt>
      <trkpt lat="43.3671" lon="6.66933">
        <ele>119.59999847412</ele>
        <time>2018-10-14T11:39:50Z</time>
      </trkpt>
      <trkpt lat="43.3671" lon="6.66936">
        <ele>119.59999847412</ele>
        <time>2018-10-14T11:39:52Z</time>
      </trkpt>
      <trkpt lat="43.36711" lon="6.66944">
        <ele>119.59999847412</ele>
        <time>2018-10-14T11:39:56Z</time>
      </trkpt>
      <trkpt lat="43.36711" lon="6.66944">
        <ele>119.59999847412</ele>
        <time>2018-10-14T11:39:58Z</time>
      </trkpt>
      <trkpt lat="43.36712" lon="6.66949">
        <ele>119.59999847412</ele>
        <time>2018-10-14T11:40:09Z</time>
      </trkpt>
      <trkpt lat="43.36712" lon="6.66952">
        <ele>119.59999847412</ele>
        <time>2018-10-14T11:40:10Z</time>
      </trkpt>
      <trkpt lat="43.36712" lon="6.66968">
        <ele>119.80000305176</ele>
        <time>2018-10-14T11:40:16Z</time>
      </trkpt>
      <trkpt lat="43.36712" lon="6.66971">
        <ele>120</ele>
        <time>2018-10-14T11:40:17Z</time>
      </trkpt>
      <trkpt lat="43.36712" lon="6.66979">
        <ele>120</ele>
        <time>2018-10-14T11:40:20Z</time>
      </trkpt>
      <trkpt lat="43.36709" lon="6.67">
        <ele>120.40000152588</ele>
        <time>2018-10-14T11:40:27Z</time>
      </trkpt>
      <trkpt lat="43.36704" lon="6.67016">
        <ele>120.19999694824</ele>
        <time>2018-10-14T11:40:32Z</time>
      </trkpt>
      <trkpt lat="43.367" lon="6.6704">
        <ele>120.19999694824</ele>
        <time>2018-10-14T11:40:37Z</time>
      </trkpt>
      <trkpt lat="43.36696" lon="6.67047">
        <ele>120</ele>
        <time>2018-10-14T11:40:39Z</time>
      </trkpt>
      <trkpt lat="43.36694" lon="6.67052">
        <ele>119.80000305176</ele>
        <time>2018-10-14T11:40:40Z</time>
      </trkpt>
      <trkpt lat="43.36692" lon="6.67058">
        <ele>119.59999847412</ele>
        <time>2018-10-14T11:40:41Z</time>
      </trkpt>
      <trkpt lat="43.36688" lon="6.67073">
        <ele>119.40000152588</ele>
        <time>2018-10-14T11:40:44Z</time>
      </trkpt>
      <trkpt lat="43.36688" lon="6.6708">
        <ele>119.19999694824</ele>
        <time>2018-10-14T11:40:46Z</time>
      </trkpt>
      <trkpt lat="43.36685" lon="6.67088">
        <ele>119</ele>
        <time>2018-10-14T11:40:48Z</time>
      </trkpt>
      <trkpt lat="43.36684" lon="6.67092">
        <ele>119</ele>
        <time>2018-10-14T11:40:49Z</time>
      </trkpt>
      <trkpt lat="43.36687" lon="6.67102">
        <ele>118.59999847412</ele>
        <time>2018-10-14T11:40:52Z</time>
      </trkpt>
      <trkpt lat="43.36689" lon="6.67106">
        <ele>118.59999847412</ele>
        <time>2018-10-14T11:40:53Z</time>
      </trkpt>
      <trkpt lat="43.3669" lon="6.67114">
        <ele>118.40000152588</ele>
        <time>2018-10-14T11:40:55Z</time>
      </trkpt>
      <trkpt lat="43.36695" lon="6.67129">
        <ele>117.80000305176</ele>
        <time>2018-10-14T11:40:59Z</time>
      </trkpt>
      <trkpt lat="43.36696" lon="6.67148">
        <ele>117.19999694824</ele>
        <time>2018-10-14T11:41:03Z</time>
      </trkpt>
      <trkpt lat="43.36695" lon="6.67162">
        <ele>116.80000305176</ele>
        <time>2018-10-14T11:41:05Z</time>
      </trkpt>
      <trkpt lat="43.36694" lon="6.67182">
        <ele>116.40000152588</ele>
        <time>2018-10-14T11:41:08Z</time>
      </trkpt>
      <trkpt lat="43.36694" lon="6.67188">
        <ele>116.19999694824</ele>
        <time>2018-10-14T11:41:09Z</time>
      </trkpt>
      <trkpt lat="43.36693" lon="6.67207">
        <ele>115.80000305176</ele>
        <time>2018-10-14T11:41:12Z</time>
      </trkpt>
      <trkpt lat="43.36691" lon="6.67212">
        <ele>115.59999847412</ele>
        <time>2018-10-14T11:41:13Z</time>
      </trkpt>
      <trkpt lat="43.36688" lon="6.67217">
        <ele>115.59999847412</ele>
        <time>2018-10-14T11:41:14Z</time>
      </trkpt>
      <trkpt lat="43.3668" lon="6.67221">
        <ele>115.40000152588</ele>
        <time>2018-10-14T11:41:16Z</time>
      </trkpt>
      <trkpt lat="43.36672" lon="6.67222">
        <ele>115</ele>
        <time>2018-10-14T11:41:18Z</time>
      </trkpt>
      <trkpt lat="43.36666" lon="6.67225">
        <ele>114.59999847412</ele>
        <time>2018-10-14T11:41:20Z</time>
      </trkpt>
      <trkpt lat="43.36666" lon="6.67236">
        <ele>114.19999694824</ele>
        <time>2018-10-14T11:41:22Z</time>
      </trkpt>
      <trkpt lat="43.36665" lon="6.67241">
        <ele>114</ele>
        <time>2018-10-14T11:41:23Z</time>
      </trkpt>
      <trkpt lat="43.3666" lon="6.67259">
        <ele>113.40000152588</ele>
        <time>2018-10-14T11:41:27Z</time>
      </trkpt>
      <trkpt lat="43.36662" lon="6.67263">
        <ele>113.19999694824</ele>
        <time>2018-10-14T11:41:28Z</time>
      </trkpt>
      <trkpt lat="43.36662" lon="6.67276">
        <ele>113</ele>
        <time>2018-10-14T11:41:31Z</time>
      </trkpt>
      <trkpt lat="43.36657" lon="6.67289">
        <ele>112.40000152588</ele>
        <time>2018-10-14T11:41:35Z</time>
      </trkpt>
      <trkpt lat="43.36657" lon="6.67309">
        <ele>111.59999847412</ele>
        <time>2018-10-14T11:41:40Z</time>
      </trkpt>
      <trkpt lat="43.36667" lon="6.6732">
        <ele>111.19999694824</ele>
        <time>2018-10-14T11:41:44Z</time>
      </trkpt>
      <trkpt lat="43.36686" lon="6.67333">
        <ele>110.59999847412</ele>
        <time>2018-10-14T11:41:52Z</time>
      </trkpt>
      <trkpt lat="43.36697" lon="6.67346">
        <ele>110.59999847412</ele>
        <time>2018-10-14T11:41:59Z</time>
      </trkpt>
      <trkpt lat="43.36703" lon="6.67359">
        <ele>110.40000152588</ele>
        <time>2018-10-14T11:42:04Z</time>
      </trkpt>
      <trkpt lat="43.36707" lon="6.67375">
        <ele>110.59999847412</ele>
        <time>2018-10-14T11:42:09Z</time>
      </trkpt>
      <trkpt lat="43.36708" lon="6.67403">
        <ele>110.59999847412</ele>
        <time>2018-10-14T11:42:18Z</time>
      </trkpt>
      <trkpt lat="43.3671" lon="6.67425">
        <ele>110.80000305176</ele>
        <time>2018-10-14T11:42:24Z</time>
      </trkpt>
      <trkpt lat="43.36712" lon="6.6743">
        <ele>110.59999847412</ele>
        <time>2018-10-14T11:42:25Z</time>
      </trkpt>
      <trkpt lat="43.36715" lon="6.67438">
        <ele>110.80000305176</ele>
        <time>2018-10-14T11:42:27Z</time>
      </trkpt>
      <trkpt lat="43.36723" lon="6.6746">
        <ele>110.80000305176</ele>
        <time>2018-10-14T11:42:32Z</time>
      </trkpt>
      <trkpt lat="43.3673" lon="6.6749">
        <ele>110.59999847412</ele>
        <time>2018-10-14T11:42:38Z</time>
      </trkpt>
      <trkpt lat="43.36739" lon="6.67512">
        <ele>110.19999694824</ele>
        <time>2018-10-14T11:42:43Z</time>
      </trkpt>
      <trkpt lat="43.36747" lon="6.67531">
        <ele>110.19999694824</ele>
        <time>2018-10-14T11:42:48Z</time>
      </trkpt>
      <trkpt lat="43.36755" lon="6.67551">
        <ele>110.19999694824</ele>
        <time>2018-10-14T11:42:54Z</time>
      </trkpt>
      <trkpt lat="43.36763" lon="6.6758">
        <ele>110.40000152588</ele>
        <time>2018-10-14T11:43:01Z</time>
      </trkpt>
      <trkpt lat="43.36766" lon="6.67595">
        <ele>110.40000152588</ele>
        <time>2018-10-14T11:43:06Z</time>
      </trkpt>
      <trkpt lat="43.36763" lon="6.67613">
        <ele>110.80000305176</ele>
        <time>2018-10-14T11:43:13Z</time>
      </trkpt>
      <trkpt lat="43.36761" lon="6.67624">
        <ele>111.40000152588</ele>
        <time>2018-10-14T11:43:18Z</time>
      </trkpt>
      <trkpt lat="43.36759" lon="6.67629">
        <ele>111.80000305176</ele>
        <time>2018-10-14T11:43:21Z</time>
      </trkpt>
      <trkpt lat="43.36756" lon="6.67632">
        <ele>112</ele>
        <time>2018-10-14T11:43:23Z</time>
      </trkpt>
      <trkpt lat="43.36755" lon="6.67634">
        <ele>112</ele>
        <time>2018-10-14T11:43:24Z</time>
      </trkpt>
      <trkpt lat="43.36754" lon="6.67641">
        <ele>112.19999694824</ele>
        <time>2018-10-14T11:43:27Z</time>
      </trkpt>
      <trkpt lat="43.36751" lon="6.67655">
        <ele>112.80000305176</ele>
        <time>2018-10-14T11:43:33Z</time>
      </trkpt>
      <trkpt lat="43.3675" lon="6.67668">
        <ele>113.19999694824</ele>
        <time>2018-10-14T11:43:39Z</time>
      </trkpt>
      <trkpt lat="43.3675" lon="6.67682">
        <ele>114</ele>
        <time>2018-10-14T11:43:45Z</time>
      </trkpt>
      <trkpt lat="43.36745" lon="6.67692">
        <ele>114.59999847412</ele>
        <time>2018-10-14T11:43:50Z</time>
      </trkpt>
      <trkpt lat="43.36746" lon="6.67701">
        <ele>115</ele>
        <time>2018-10-14T11:43:54Z</time>
      </trkpt>
      <trkpt lat="43.36747" lon="6.67705">
        <ele>115.19999694824</ele>
        <time>2018-10-14T11:43:56Z</time>
      </trkpt>
      <trkpt lat="43.36747" lon="6.67707">
        <ele>115.40000152588</ele>
        <time>2018-10-14T11:43:57Z</time>
      </trkpt>
      <trkpt lat="43.36748" lon="6.67712">
        <ele>115.80000305176</ele>
        <time>2018-10-14T11:44:00Z</time>
      </trkpt>
      <trkpt lat="43.36749" lon="6.67725">
        <ele>116.80000305176</ele>
        <time>2018-10-14T11:44:07Z</time>
      </trkpt>
      <trkpt lat="43.36752" lon="6.67738">
        <ele>118</ele>
        <time>2018-10-14T11:44:15Z</time>
      </trkpt>
      <trkpt lat="43.36753" lon="6.67751">
        <ele>119.40000152588</ele>
        <time>2018-10-14T11:44:23Z</time>
      </trkpt>
      <trkpt lat="43.36756" lon="6.6776">
        <ele>120.19999694824</ele>
        <time>2018-10-14T11:44:29Z</time>
      </trkpt>
      <trkpt lat="43.36758" lon="6.6777">
        <ele>121.19999694824</ele>
        <time>2018-10-14T11:44:35Z</time>
      </trkpt>
      <trkpt lat="43.3676" lon="6.67783">
        <ele>122.40000152588</ele>
        <time>2018-10-14T11:44:42Z</time>
      </trkpt>
      <trkpt lat="43.36761" lon="6.67791">
        <ele>123.19999694824</ele>
        <time>2018-10-14T11:44:47Z</time>
      </trkpt>
      <trkpt lat="43.36762" lon="6.67794">
        <ele>123.40000152588</ele>
        <time>2018-10-14T11:44:49Z</time>
      </trkpt>
      <trkpt lat="43.36762" lon="6.67796">
        <ele>123.59999847412</ele>
        <time>2018-10-14T11:44:50Z</time>
      </trkpt>
      <trkpt lat="43.36764" lon="6.67805">
        <ele>124.40000152588</ele>
        <time>2018-10-14T11:44:56Z</time>
      </trkpt>
      <trkpt lat="43.36764" lon="6.67815">
        <ele>125.40000152588</ele>
        <time>2018-10-14T11:45:02Z</time>
      </trkpt>
      <trkpt lat="43.36765" lon="6.67816">
        <ele>125.59999847412</ele>
        <time>2018-10-14T11:45:03Z</time>
      </trkpt>
      <trkpt lat="43.36767" lon="6.67827">
        <ele>127</ele>
        <time>2018-10-14T11:45:11Z</time>
      </trkpt>
      <trkpt lat="43.36767" lon="6.67838">
        <ele>128.39999389648</ele>
        <time>2018-10-14T11:45:18Z</time>
      </trkpt>
      <trkpt lat="43.36767" lon="6.67839">
        <ele>128.60000610352</ele>
        <time>2018-10-14T11:45:19Z</time>
      </trkpt>
      <trkpt lat="43.36768" lon="6.67845">
        <ele>129.19999694824</ele>
        <time>2018-10-14T11:45:23Z</time>
      </trkpt>
      <trkpt lat="43.36768" lon="6.67846">
        <ele>129.39999389648</ele>
        <time>2018-10-14T11:45:24Z</time>
      </trkpt>
      <trkpt lat="43.36768" lon="6.67851">
        <ele>130</ele>
        <time>2018-10-14T11:45:28Z</time>
      </trkpt>
      <trkpt lat="43.36767" lon="6.67854">
        <ele>130.39999389648</ele>
        <time>2018-10-14T11:45:30Z</time>
      </trkpt>
      <trkpt lat="43.36766" lon="6.67862">
        <ele>131.60000610352</ele>
        <time>2018-10-14T11:45:36Z</time>
      </trkpt>
      <trkpt lat="43.36765" lon="6.67873">
        <ele>133</ele>
        <time>2018-10-14T11:45:44Z</time>
      </trkpt>
      <trkpt lat="43.36765" lon="6.67874">
        <ele>133.19999694824</ele>
        <time>2018-10-14T11:45:45Z</time>
      </trkpt>
      <trkpt lat="43.36765" lon="6.6788">
        <ele>133.80000305176</ele>
        <time>2018-10-14T11:45:49Z</time>
      </trkpt>
      <trkpt lat="43.36765" lon="6.6789">
        <ele>135.19999694824</ele>
        <time>2018-10-14T11:45:56Z</time>
      </trkpt>
      <trkpt lat="43.36767" lon="6.67902">
        <ele>136.39999389648</ele>
        <time>2018-10-14T11:46:03Z</time>
      </trkpt>
      <trkpt lat="43.36769" lon="6.67913">
        <ele>137.60000610352</ele>
        <time>2018-10-14T11:46:09Z</time>
      </trkpt>
      <trkpt lat="43.3677" lon="6.67922">
        <ele>138.80000305176</ele>
        <time>2018-10-14T11:46:15Z</time>
      </trkpt>
      <trkpt lat="43.36771" lon="6.67934">
        <ele>140</ele>
        <time>2018-10-14T11:46:22Z</time>
      </trkpt>
      <trkpt lat="43.3677" lon="6.67946">
        <ele>141.19999694824</ele>
        <time>2018-10-14T11:46:28Z</time>
      </trkpt>
      <trkpt lat="43.3676" lon="6.67965">
        <ele>142.60000610352</ele>
        <time>2018-10-14T11:46:36Z</time>
      </trkpt>
      <trkpt lat="43.36753" lon="6.67989">
        <ele>143.39999389648</ele>
        <time>2018-10-14T11:46:44Z</time>
      </trkpt>
      <trkpt lat="43.36743" lon="6.67999">
        <ele>144.39999389648</ele>
        <time>2018-10-14T11:46:49Z</time>
      </trkpt>
      <trkpt lat="43.36726" lon="6.68002">
        <ele>145</ele>
        <time>2018-10-14T11:46:55Z</time>
      </trkpt>
      <trkpt lat="43.36704" lon="6.68012">
        <ele>145.60000610352</ele>
        <time>2018-10-14T11:47:02Z</time>
      </trkpt>
      <trkpt lat="43.36697" lon="6.68029">
        <ele>145.80000305176</ele>
        <time>2018-10-14T11:47:06Z</time>
      </trkpt>
      <trkpt lat="43.36697" lon="6.68056">
        <ele>146.39999389648</ele>
        <time>2018-10-14T11:47:12Z</time>
      </trkpt>
      <trkpt lat="43.36706" lon="6.6808">
        <ele>147.19999694824</ele>
        <time>2018-10-14T11:47:18Z</time>
      </trkpt>
      <trkpt lat="43.3672" lon="6.68111">
        <ele>148</ele>
        <time>2018-10-14T11:47:26Z</time>
      </trkpt>
      <trkpt lat="43.36722" lon="6.68136">
        <ele>148.39999389648</ele>
        <time>2018-10-14T11:47:31Z</time>
      </trkpt>
      <trkpt lat="43.36719" lon="6.68152">
        <ele>148.80000305176</ele>
        <time>2018-10-14T11:47:34Z</time>
      </trkpt>
      <trkpt lat="43.36714" lon="6.68168">
        <ele>149</ele>
        <time>2018-10-14T11:47:37Z</time>
      </trkpt>
      <trkpt lat="43.36697" lon="6.68197">
        <ele>149.39999389648</ele>
        <time>2018-10-14T11:47:44Z</time>
      </trkpt>
      <trkpt lat="43.36677" lon="6.68218">
        <ele>150</ele>
        <time>2018-10-14T11:47:50Z</time>
      </trkpt>
      <trkpt lat="43.36657" lon="6.68238">
        <ele>150.39999389648</ele>
        <time>2018-10-14T11:47:56Z</time>
      </trkpt>
      <trkpt lat="43.36653" lon="6.6824">
        <ele>150.39999389648</ele>
        <time>2018-10-14T11:47:57Z</time>
      </trkpt>
      <trkpt lat="43.36644" lon="6.68243">
        <ele>150.39999389648</ele>
        <time>2018-10-14T11:47:59Z</time>
      </trkpt>
      <trkpt lat="43.36635" lon="6.68243">
        <ele>150.39999389648</ele>
        <time>2018-10-14T11:48:01Z</time>
      </trkpt>
      <trkpt lat="43.36627" lon="6.68239">
        <ele>150.39999389648</ele>
        <time>2018-10-14T11:48:03Z</time>
      </trkpt>
      <trkpt lat="43.36615" lon="6.68229">
        <ele>150.39999389648</ele>
        <time>2018-10-14T11:48:06Z</time>
      </trkpt>
      <trkpt lat="43.36585" lon="6.6821">
        <ele>150.80000305176</ele>
        <time>2018-10-14T11:48:13Z</time>
      </trkpt>
      <trkpt lat="43.36576" lon="6.68205">
        <ele>150.80000305176</ele>
        <time>2018-10-14T11:48:15Z</time>
      </trkpt>
      <trkpt lat="43.36559" lon="6.6819">
        <ele>150.80000305176</ele>
        <time>2018-10-14T11:48:19Z</time>
      </trkpt>
      <trkpt lat="43.36549" lon="6.68176">
        <ele>150.80000305176</ele>
        <time>2018-10-14T11:48:22Z</time>
      </trkpt>
      <trkpt lat="43.36541" lon="6.68159">
        <ele>151</ele>
        <time>2018-10-14T11:48:25Z</time>
      </trkpt>
      <trkpt lat="43.36532" lon="6.68143">
        <ele>151</ele>
        <time>2018-10-14T11:48:28Z</time>
      </trkpt>
      <trkpt lat="43.36523" lon="6.68136">
        <ele>151.19999694824</ele>
        <time>2018-10-14T11:48:30Z</time>
      </trkpt>
      <trkpt lat="43.36498" lon="6.68131">
        <ele>151.19999694824</ele>
        <time>2018-10-14T11:48:35Z</time>
      </trkpt>
      <trkpt lat="43.36462" lon="6.68115">
        <ele>151</ele>
        <time>2018-10-14T11:48:42Z</time>
      </trkpt>
      <trkpt lat="43.36451" lon="6.68118">
        <ele>151.19999694824</ele>
        <time>2018-10-14T11:48:44Z</time>
      </trkpt>
      <trkpt lat="43.36447" lon="6.68123">
        <ele>151.19999694824</ele>
        <time>2018-10-14T11:48:45Z</time>
      </trkpt>
      <trkpt lat="43.36444" lon="6.68129">
        <ele>151.19999694824</ele>
        <time>2018-10-14T11:48:46Z</time>
      </trkpt>
      <trkpt lat="43.36441" lon="6.68144">
        <ele>151.19999694824</ele>
        <time>2018-10-14T11:48:48Z</time>
      </trkpt>
      <trkpt lat="43.36442" lon="6.68202">
        <ele>151.60000610352</ele>
        <time>2018-10-14T11:48:56Z</time>
      </trkpt>
      <trkpt lat="43.36449" lon="6.68253">
        <ele>151.80000305176</ele>
        <time>2018-10-14T11:49:03Z</time>
      </trkpt>
      <trkpt lat="43.3645" lon="6.68261">
        <ele>151.80000305176</ele>
        <time>2018-10-14T11:49:04Z</time>
      </trkpt>
      <trkpt lat="43.36448" lon="6.68285">
        <ele>152</ele>
        <time>2018-10-14T11:49:07Z</time>
      </trkpt>
      <trkpt lat="43.36447" lon="6.68292">
        <ele>152</ele>
        <time>2018-10-14T11:49:08Z</time>
      </trkpt>
      <trkpt lat="43.36444" lon="6.68299">
        <ele>152</ele>
        <time>2018-10-14T11:49:09Z</time>
      </trkpt>
      <trkpt lat="43.36434" lon="6.68319">
        <ele>152</ele>
        <time>2018-10-14T11:49:12Z</time>
      </trkpt>
      <trkpt lat="43.3642" lon="6.68334">
        <ele>152</ele>
        <time>2018-10-14T11:49:15Z</time>
      </trkpt>
      <trkpt lat="43.36414" lon="6.68338">
        <ele>152</ele>
        <time>2018-10-14T11:49:16Z</time>
      </trkpt>
      <trkpt lat="43.36397" lon="6.68348">
        <ele>152</ele>
        <time>2018-10-14T11:49:19Z</time>
      </trkpt>
      <trkpt lat="43.3638" lon="6.68354">
        <ele>152</ele>
        <time>2018-10-14T11:49:22Z</time>
      </trkpt>
      <trkpt lat="43.36368" lon="6.68359">
        <ele>152</ele>
        <time>2018-10-14T11:49:24Z</time>
      </trkpt>
      <trkpt lat="43.36358" lon="6.6837">
        <ele>152</ele>
        <time>2018-10-14T11:49:26Z</time>
      </trkpt>
      <trkpt lat="43.36345" lon="6.68402">
        <ele>152</ele>
        <time>2018-10-14T11:49:30Z</time>
      </trkpt>
      <trkpt lat="43.36339" lon="6.68426">
        <ele>151.80000305176</ele>
        <time>2018-10-14T11:49:33Z</time>
      </trkpt>
      <trkpt lat="43.36338" lon="6.68432">
        <ele>151.80000305176</ele>
        <time>2018-10-14T11:49:34Z</time>
      </trkpt>
      <trkpt lat="43.36337" lon="6.68442">
        <ele>151.80000305176</ele>
        <time>2018-10-14T11:49:36Z</time>
      </trkpt>
      <trkpt lat="43.36338" lon="6.68444">
        <ele>152</ele>
        <time>2018-10-14T11:49:39Z</time>
      </trkpt>
      <trkpt lat="43.36342" lon="6.68451">
        <ele>152.19999694824</ele>
        <time>2018-10-14T11:49:49Z</time>
      </trkpt>
      <trkpt lat="43.3635" lon="6.68461">
        <ele>152.60000610352</ele>
        <time>2018-10-14T11:49:55Z</time>
      </trkpt>
      <trkpt lat="43.36351" lon="6.68462">
        <ele>152.80000305176</ele>
        <time>2018-10-14T11:49:56Z</time>
      </trkpt>
      <trkpt lat="43.36365" lon="6.68475">
        <ele>153.19999694824</ele>
        <time>2018-10-14T11:50:02Z</time>
      </trkpt>
      <trkpt lat="43.36376" lon="6.68489">
        <ele>153.60000610352</ele>
        <time>2018-10-14T11:50:07Z</time>
      </trkpt>
      <trkpt lat="43.36389" lon="6.6851">
        <ele>154.19999694824</ele>
        <time>2018-10-14T11:50:14Z</time>
      </trkpt>
      <trkpt lat="43.36401" lon="6.68526">
        <ele>154.80000305176</ele>
        <time>2018-10-14T11:50:20Z</time>
      </trkpt>
      <trkpt lat="43.36412" lon="6.68537">
        <ele>155.19999694824</ele>
        <time>2018-10-14T11:50:25Z</time>
      </trkpt>
      <trkpt lat="43.36432" lon="6.68549">
        <ele>156.19999694824</ele>
        <time>2018-10-14T11:50:33Z</time>
      </trkpt>
      <trkpt lat="43.36444" lon="6.68559">
        <ele>156.60000610352</ele>
        <time>2018-10-14T11:50:38Z</time>
      </trkpt>
      <trkpt lat="43.36459" lon="6.68578">
        <ele>157.19999694824</ele>
        <time>2018-10-14T11:50:45Z</time>
      </trkpt>
      <trkpt lat="43.36469" lon="6.68601">
        <ele>157.60000610352</ele>
        <time>2018-10-14T11:50:50Z</time>
      </trkpt>
      <trkpt lat="43.3648" lon="6.68623">
        <ele>157.80000305176</ele>
        <time>2018-10-14T11:50:54Z</time>
      </trkpt>
      <trkpt lat="43.36483" lon="6.68629">
        <ele>157.60000610352</ele>
        <time>2018-10-14T11:50:55Z</time>
      </trkpt>
      <trkpt lat="43.36498" lon="6.68659">
        <ele>157.60000610352</ele>
        <time>2018-10-14T11:50:59Z</time>
      </trkpt>
      <trkpt lat="43.36513" lon="6.6869">
        <ele>157.39999389648</ele>
        <time>2018-10-14T11:51:03Z</time>
      </trkpt>
      <trkpt lat="43.36517" lon="6.68699">
        <ele>157.39999389648</ele>
        <time>2018-10-14T11:51:04Z</time>
      </trkpt>
      <trkpt lat="43.36522" lon="6.68719">
        <ele>157.19999694824</ele>
        <time>2018-10-14T11:51:06Z</time>
      </trkpt>
      <trkpt lat="43.36522" lon="6.68739">
        <ele>157</ele>
        <time>2018-10-14T11:51:08Z</time>
      </trkpt>
      <trkpt lat="43.36521" lon="6.68755">
        <ele>156.80000305176</ele>
        <time>2018-10-14T11:51:10Z</time>
      </trkpt>
      <trkpt lat="43.36518" lon="6.68769">
        <ele>156.60000610352</ele>
        <time>2018-10-14T11:51:12Z</time>
      </trkpt>
      <trkpt lat="43.36516" lon="6.68777">
        <ele>156.60000610352</ele>
        <time>2018-10-14T11:51:13Z</time>
      </trkpt>
      <trkpt lat="43.36511" lon="6.6879">
        <ele>156.39999389648</ele>
        <time>2018-10-14T11:51:15Z</time>
      </trkpt>
      <trkpt lat="43.36508" lon="6.68796">
        <ele>156.39999389648</ele>
        <time>2018-10-14T11:51:16Z</time>
      </trkpt>
      <trkpt lat="43.36504" lon="6.68801">
        <ele>156.39999389648</ele>
        <time>2018-10-14T11:51:17Z</time>
      </trkpt>
      <trkpt lat="43.36495" lon="6.68807">
        <ele>156.19999694824</ele>
        <time>2018-10-14T11:51:19Z</time>
      </trkpt>
      <trkpt lat="43.36487" lon="6.68806">
        <ele>156</ele>
        <time>2018-10-14T11:51:21Z</time>
      </trkpt>
      <trkpt lat="43.36479" lon="6.68807">
        <ele>155.80000305176</ele>
        <time>2018-10-14T11:51:23Z</time>
      </trkpt>
      <trkpt lat="43.36468" lon="6.68811">
        <ele>155</ele>
        <time>2018-10-14T11:51:26Z</time>
      </trkpt>
      <trkpt lat="43.36465" lon="6.68816">
        <ele>154.60000610352</ele>
        <time>2018-10-14T11:51:27Z</time>
      </trkpt>
      <trkpt lat="43.36459" lon="6.68825">
        <ele>153.60000610352</ele>
        <time>2018-10-14T11:51:30Z</time>
      </trkpt>
      <trkpt lat="43.36458" lon="6.68826">
        <ele>153</ele>
        <time>2018-10-14T11:51:32Z</time>
      </trkpt>
      <trkpt lat="43.36456" lon="6.68829">
        <ele>150</ele>
        <time>2018-10-14T11:51:56Z</time>
      </trkpt>
      <trkpt lat="43.36444" lon="6.68837">
        <ele>149.19999694824</ele>
        <time>2018-10-14T11:52:01Z</time>
      </trkpt>
      <trkpt lat="43.36439" lon="6.68838">
        <ele>149</ele>
        <time>2018-10-14T11:52:04Z</time>
      </trkpt>
      <trkpt lat="43.36436" lon="6.68837">
        <ele>148.80000305176</ele>
        <time>2018-10-14T11:52:06Z</time>
      </trkpt>
      <trkpt lat="43.36431" lon="6.68837">
        <ele>148.60000610352</ele>
        <time>2018-10-14T11:52:09Z</time>
      </trkpt>
      <trkpt lat="43.36425" lon="6.68838">
        <ele>148.39999389648</ele>
        <time>2018-10-14T11:52:11Z</time>
      </trkpt>
      <trkpt lat="43.36421" lon="6.68837">
        <ele>148.19999694824</ele>
        <time>2018-10-14T11:52:14Z</time>
      </trkpt>
      <trkpt lat="43.3641" lon="6.68835">
        <ele>147.80000305176</ele>
        <time>2018-10-14T11:52:19Z</time>
      </trkpt>
      <trkpt lat="43.36408" lon="6.68834">
        <ele>147.80000305176</ele>
        <time>2018-10-14T11:52:20Z</time>
      </trkpt>
      <trkpt lat="43.36404" lon="6.68834">
        <ele>147.60000610352</ele>
        <time>2018-10-14T11:52:22Z</time>
      </trkpt>
      <trkpt lat="43.36402" lon="6.68835">
        <ele>147.60000610352</ele>
        <time>2018-10-14T11:52:23Z</time>
      </trkpt>
      <trkpt lat="43.36394" lon="6.6884">
        <ele>147.19999694824</ele>
        <time>2018-10-14T11:52:29Z</time>
      </trkpt>
      <trkpt lat="43.36384" lon="6.68843">
        <ele>147</ele>
        <time>2018-10-14T11:52:36Z</time>
      </trkpt>
      <trkpt lat="43.36379" lon="6.68847">
        <ele>146.80000305176</ele>
        <time>2018-10-14T11:52:40Z</time>
      </trkpt>
      <trkpt lat="43.36377" lon="6.6885">
        <ele>147</ele>
        <time>2018-10-14T11:52:42Z</time>
      </trkpt>
      <trkpt lat="43.36375" lon="6.68851">
        <ele>147</ele>
        <time>2018-10-14T11:52:43Z</time>
      </trkpt>
      <trkpt lat="43.36371" lon="6.68858">
        <ele>147</ele>
        <time>2018-10-14T11:52:46Z</time>
      </trkpt>
      <trkpt lat="43.36363" lon="6.68882">
        <ele>147.19999694824</ele>
        <time>2018-10-14T11:52:53Z</time>
      </trkpt>
      <trkpt lat="43.36357" lon="6.68901">
        <ele>147.60000610352</ele>
        <time>2018-10-14T11:52:59Z</time>
      </trkpt>
      <trkpt lat="43.36347" lon="6.68916">
        <ele>148</ele>
        <time>2018-10-14T11:53:05Z</time>
      </trkpt>
      <trkpt lat="43.36339" lon="6.68927">
        <ele>148.39999389648</ele>
        <time>2018-10-14T11:53:10Z</time>
      </trkpt>
      <trkpt lat="43.36332" lon="6.68937">
        <ele>148.60000610352</ele>
        <time>2018-10-14T11:53:15Z</time>
      </trkpt>
      <trkpt lat="43.36322" lon="6.68947">
        <ele>148.60000610352</ele>
        <time>2018-10-14T11:53:23Z</time>
      </trkpt>
      <trkpt lat="43.36314" lon="6.68953">
        <ele>148.19999694824</ele>
        <time>2018-10-14T11:53:28Z</time>
      </trkpt>
      <trkpt lat="43.3631" lon="6.68955">
        <ele>148</ele>
        <time>2018-10-14T11:53:29Z</time>
      </trkpt>
      <trkpt lat="43.36302" lon="6.68961">
        <ele>147.60000610352</ele>
        <time>2018-10-14T11:53:31Z</time>
      </trkpt>
      <trkpt lat="43.36299" lon="6.68965">
        <ele>147.39999389648</ele>
        <time>2018-10-14T11:53:32Z</time>
      </trkpt>
      <trkpt lat="43.36297" lon="6.68973">
        <ele>146.80000305176</ele>
        <time>2018-10-14T11:53:36Z</time>
      </trkpt>
      <trkpt lat="43.36296" lon="6.68977">
        <ele>146.80000305176</ele>
        <time>2018-10-14T11:53:39Z</time>
      </trkpt>
      <trkpt lat="43.36295" lon="6.6898">
        <ele>147</ele>
        <time>2018-10-14T11:53:41Z</time>
      </trkpt>
      <trkpt lat="43.36291" lon="6.68988">
        <ele>147</ele>
        <time>2018-10-14T11:53:46Z</time>
      </trkpt>
      <trkpt lat="43.3629" lon="6.68996">
        <ele>147.39999389648</ele>
        <time>2018-10-14T11:53:51Z</time>
      </trkpt>
      <trkpt lat="43.36289" lon="6.68998">
        <ele>147.60000610352</ele>
        <time>2018-10-14T11:53:53Z</time>
      </trkpt>
      <trkpt lat="43.36288" lon="6.69002">
        <ele>147.80000305176</ele>
        <time>2018-10-14T11:53:55Z</time>
      </trkpt>
      <trkpt lat="43.36288" lon="6.69004">
        <ele>148.19999694824</ele>
        <time>2018-10-14T11:53:59Z</time>
      </trkpt>
      <trkpt lat="43.36246" lon="6.69092">
        <ele>167.60000610352</ele>
        <time>2018-10-14T11:56:36Z</time>
      </trkpt>
      <trkpt lat="43.36244" lon="6.69099">
        <ele>168</ele>
        <time>2018-10-14T11:56:39Z</time>
      </trkpt>
      <trkpt lat="43.36241" lon="6.6911">
        <ele>168.60000610352</ele>
        <time>2018-10-14T11:56:45Z</time>
      </trkpt>
      <trkpt lat="43.36238" lon="6.69123">
        <ele>169.60000610352</ele>
        <time>2018-10-14T11:56:52Z</time>
      </trkpt>
      <trkpt lat="43.36237" lon="6.69124">
        <ele>169.80000305176</ele>
        <time>2018-10-14T11:56:53Z</time>
      </trkpt>
      <trkpt lat="43.36237" lon="6.69127">
        <ele>170</ele>
        <time>2018-10-14T11:56:55Z</time>
      </trkpt>
      <trkpt lat="43.36237" lon="6.69131">
        <ele>170.39999389648</ele>
        <time>2018-10-14T11:56:57Z</time>
      </trkpt>
      <trkpt lat="43.36237" lon="6.69133">
        <ele>170.39999389648</ele>
        <time>2018-10-14T11:56:58Z</time>
      </trkpt>
      <trkpt lat="43.36237" lon="6.69141">
        <ele>171.19999694824</ele>
        <time>2018-10-14T11:57:02Z</time>
      </trkpt>
      <trkpt lat="43.36238" lon="6.69151">
        <ele>171.80000305176</ele>
        <time>2018-10-14T11:57:06Z</time>
      </trkpt>
      <trkpt lat="43.36241" lon="6.69165">
        <ele>172.80000305176</ele>
        <time>2018-10-14T11:57:11Z</time>
      </trkpt>
      <trkpt lat="43.36245" lon="6.69181">
        <ele>174</ele>
        <time>2018-10-14T11:57:17Z</time>
      </trkpt>
      <trkpt lat="43.36249" lon="6.69197">
        <ele>175.19999694824</ele>
        <time>2018-10-14T11:57:23Z</time>
      </trkpt>
      <trkpt lat="43.36251" lon="6.69213">
        <ele>176</ele>
        <time>2018-10-14T11:57:28Z</time>
      </trkpt>
      <trkpt lat="43.3625" lon="6.69233">
        <ele>176.60000610352</ele>
        <time>2018-10-14T11:57:35Z</time>
      </trkpt>
      <trkpt lat="43.36249" lon="6.69252">
        <ele>177.60000610352</ele>
        <time>2018-10-14T11:57:41Z</time>
      </trkpt>
      <trkpt lat="43.36252" lon="6.69268">
        <ele>178.39999389648</ele>
        <time>2018-10-14T11:57:47Z</time>
      </trkpt>
      <trkpt lat="43.3626" lon="6.6928">
        <ele>179.19999694824</ele>
        <time>2018-10-14T11:57:52Z</time>
      </trkpt>
      <trkpt lat="43.36271" lon="6.69291">
        <ele>179.80000305176</ele>
        <time>2018-10-14T11:57:57Z</time>
      </trkpt>
      <trkpt lat="43.36286" lon="6.69306">
        <ele>180.80000305176</ele>
        <time>2018-10-14T11:58:04Z</time>
      </trkpt>
      <trkpt lat="43.36294" lon="6.6932">
        <ele>181.39999389648</ele>
        <time>2018-10-14T11:58:10Z</time>
      </trkpt>
      <trkpt lat="43.36304" lon="6.69338">
        <ele>182.19999694824</ele>
        <time>2018-10-14T11:58:18Z</time>
      </trkpt>
      <trkpt lat="43.36312" lon="6.69356">
        <ele>183.19999694824</ele>
        <time>2018-10-14T11:58:25Z</time>
      </trkpt>
      <trkpt lat="43.36317" lon="6.69366">
        <ele>184</ele>
        <time>2018-10-14T11:58:30Z</time>
      </trkpt>
      <trkpt lat="43.36323" lon="6.69381">
        <ele>185</ele>
        <time>2018-10-14T11:58:37Z</time>
      </trkpt>
      <trkpt lat="43.36323" lon="6.69383">
        <ele>185.19999694824</ele>
        <time>2018-10-14T11:58:38Z</time>
      </trkpt>
      <trkpt lat="43.36327" lon="6.69392">
        <ele>185.80000305176</ele>
        <time>2018-10-14T11:58:42Z</time>
      </trkpt>
      <trkpt lat="43.36331" lon="6.69407">
        <ele>186.80000305176</ele>
        <time>2018-10-14T11:58:49Z</time>
      </trkpt>
      <trkpt lat="43.36333" lon="6.69422">
        <ele>187.80000305176</ele>
        <time>2018-10-14T11:58:56Z</time>
      </trkpt>
      <trkpt lat="43.36332" lon="6.69438">
        <ele>188.80000305176</ele>
        <time>2018-10-14T11:59:03Z</time>
      </trkpt>
      <trkpt lat="43.36329" lon="6.6945">
        <ele>189.60000610352</ele>
        <time>2018-10-14T11:59:09Z</time>
      </trkpt>
      <trkpt lat="43.36324" lon="6.69466">
        <ele>190.60000610352</ele>
        <time>2018-10-14T11:59:16Z</time>
      </trkpt>
      <trkpt lat="43.3632" lon="6.69475">
        <ele>191.19999694824</ele>
        <time>2018-10-14T11:59:20Z</time>
      </trkpt>
      <trkpt lat="43.36318" lon="6.69476">
        <ele>191.39999389648</ele>
        <time>2018-10-14T11:59:21Z</time>
      </trkpt>
      <trkpt lat="43.36314" lon="6.69475">
        <ele>191.80000305176</ele>
        <time>2018-10-14T11:59:24Z</time>
      </trkpt>
      <trkpt lat="43.36311" lon="6.69473">
        <ele>192</ele>
        <time>2018-10-14T11:59:26Z</time>
      </trkpt>
      <trkpt lat="43.36306" lon="6.69461">
        <ele>193.19999694824</ele>
        <time>2018-10-14T11:59:33Z</time>
      </trkpt>
      <trkpt lat="43.36299" lon="6.69451">
        <ele>194.19999694824</ele>
        <time>2018-10-14T11:59:40Z</time>
      </trkpt>
      <trkpt lat="43.36294" lon="6.69441">
        <ele>195.19999694824</ele>
        <time>2018-10-14T11:59:47Z</time>
      </trkpt>
      <trkpt lat="43.36286" lon="6.69433">
        <ele>196.19999694824</ele>
        <time>2018-10-14T11:59:54Z</time>
      </trkpt>
      <trkpt lat="43.36278" lon="6.69424">
        <ele>197</ele>
        <time>2018-10-14T12:00:01Z</time>
      </trkpt>
      <trkpt lat="43.36275" lon="6.6942">
        <ele>197.60000610352</ele>
        <time>2018-10-14T12:00:05Z</time>
      </trkpt>
      <trkpt lat="43.36269" lon="6.69412">
        <ele>198.60000610352</ele>
        <time>2018-10-14T12:00:11Z</time>
      </trkpt>
      <trkpt lat="43.36267" lon="6.6941">
        <ele>198.80000305176</ele>
        <time>2018-10-14T12:00:13Z</time>
      </trkpt>
      <trkpt lat="43.36265" lon="6.69406">
        <ele>199.19999694824</ele>
        <time>2018-10-14T12:00:16Z</time>
      </trkpt>
      <trkpt lat="43.36258" lon="6.69393">
        <ele>200.39999389648</ele>
        <time>2018-10-14T12:00:24Z</time>
      </trkpt>
      <trkpt lat="43.36248" lon="6.69383">
        <ele>201.19999694824</ele>
        <time>2018-10-14T12:00:29Z</time>
      </trkpt>
      <trkpt lat="43.36238" lon="6.69378">
        <ele>202.19999694824</ele>
        <time>2018-10-14T12:00:36Z</time>
      </trkpt>
      <trkpt lat="43.36227" lon="6.69373">
        <ele>203.60000610352</ele>
        <time>2018-10-14T12:00:44Z</time>
      </trkpt>
      <trkpt lat="43.3622" lon="6.69368">
        <ele>204.60000610352</ele>
        <time>2018-10-14T12:00:50Z</time>
      </trkpt>
      <trkpt lat="43.3621" lon="6.6936">
        <ele>205.80000305176</ele>
        <time>2018-10-14T12:00:58Z</time>
      </trkpt>
      <trkpt lat="43.36203" lon="6.6935">
        <ele>206.60000610352</ele>
        <time>2018-10-14T12:01:04Z</time>
      </trkpt>
      <trkpt lat="43.36195" lon="6.69338">
        <ele>207.80000305176</ele>
        <time>2018-10-14T12:01:11Z</time>
      </trkpt>
      <trkpt lat="43.36182" lon="6.69322">
        <ele>209.19999694824</ele>
        <time>2018-10-14T12:01:18Z</time>
      </trkpt>
      <trkpt lat="43.36171" lon="6.69313">
        <ele>209.80000305176</ele>
        <time>2018-10-14T12:01:23Z</time>
      </trkpt>
      <trkpt lat="43.36165" lon="6.69311">
        <ele>210.39999389648</ele>
        <time>2018-10-14T12:01:27Z</time>
      </trkpt>
      <trkpt lat="43.36162" lon="6.69309">
        <ele>210.60000610352</ele>
        <time>2018-10-14T12:01:29Z</time>
      </trkpt>
      <trkpt lat="43.3616" lon="6.69307">
        <ele>211</ele>
        <time>2018-10-14T12:01:31Z</time>
      </trkpt>
      <trkpt lat="43.36154" lon="6.69305">
        <ele>212</ele>
        <time>2018-10-14T12:01:35Z</time>
      </trkpt>
      <trkpt lat="43.36148" lon="6.69299">
        <ele>213.19999694824</ele>
        <time>2018-10-14T12:01:42Z</time>
      </trkpt>
      <trkpt lat="43.36143" lon="6.69291">
        <ele>214.60000610352</ele>
        <time>2018-10-14T12:01:48Z</time>
      </trkpt>
      <trkpt lat="43.36143" lon="6.69287">
        <ele>215</ele>
        <time>2018-10-14T12:01:50Z</time>
      </trkpt>
      <trkpt lat="43.3614" lon="6.69283">
        <ele>215.80000305176</ele>
        <time>2018-10-14T12:01:54Z</time>
      </trkpt>
      <trkpt lat="43.36138" lon="6.6928">
        <ele>216.19999694824</ele>
        <time>2018-10-14T12:01:57Z</time>
      </trkpt>
      <trkpt lat="43.36135" lon="6.69275">
        <ele>217</ele>
        <time>2018-10-14T12:02:01Z</time>
      </trkpt>
      <trkpt lat="43.36133" lon="6.69273">
        <ele>217.39999389648</ele>
        <time>2018-10-14T12:02:03Z</time>
      </trkpt>
      <trkpt lat="43.36131" lon="6.69271">
        <ele>218</ele>
        <time>2018-10-14T12:02:06Z</time>
      </trkpt>
      <trkpt lat="43.36125" lon="6.69266">
        <ele>219.19999694824</ele>
        <time>2018-10-14T12:02:12Z</time>
      </trkpt>
      <trkpt lat="43.36121" lon="6.69264">
        <ele>220.39999389648</ele>
        <time>2018-10-14T12:02:17Z</time>
      </trkpt>
      <trkpt lat="43.36114" lon="6.69259">
        <ele>222.19999694824</ele>
        <time>2018-10-14T12:02:24Z</time>
      </trkpt>
      <trkpt lat="43.36108" lon="6.69255">
        <ele>223.19999694824</ele>
        <time>2018-10-14T12:02:31Z</time>
      </trkpt>
      <trkpt lat="43.36103" lon="6.69251">
        <ele>224.19999694824</ele>
        <time>2018-10-14T12:02:36Z</time>
      </trkpt>
      <trkpt lat="43.36101" lon="6.69249">
        <ele>224.60000610352</ele>
        <time>2018-10-14T12:02:38Z</time>
      </trkpt>
      <trkpt lat="43.36094" lon="6.69244">
        <ele>225.39999389648</ele>
        <time>2018-10-14T12:02:43Z</time>
      </trkpt>
      <trkpt lat="43.36092" lon="6.69245">
        <ele>225.60000610352</ele>
        <time>2018-10-14T12:02:44Z</time>
      </trkpt>
      <trkpt lat="43.36083" lon="6.69251">
        <ele>226.19999694824</ele>
        <time>2018-10-14T12:02:48Z</time>
      </trkpt>
      <trkpt lat="43.36079" lon="6.69251">
        <ele>226.19999694824</ele>
        <time>2018-10-14T12:02:49Z</time>
      </trkpt>
      <trkpt lat="43.36074" lon="6.69251">
        <ele>226.39999389648</ele>
        <time>2018-10-14T12:02:50Z</time>
      </trkpt>
      <trkpt lat="43.36065" lon="6.69257">
        <ele>226.60000610352</ele>
        <time>2018-10-14T12:02:52Z</time>
      </trkpt>
      <trkpt lat="43.36057" lon="6.69268">
        <ele>226.80000305176</ele>
        <time>2018-10-14T12:02:54Z</time>
      </trkpt>
      <trkpt lat="43.36048" lon="6.69278">
        <ele>227</ele>
        <time>2018-10-14T12:02:56Z</time>
      </trkpt>
      <trkpt lat="43.36036" lon="6.69284">
        <ele>227.19999694824</ele>
        <time>2018-10-14T12:02:58Z</time>
      </trkpt>
      <trkpt lat="43.36029" lon="6.69289">
        <ele>227.39999389648</ele>
        <time>2018-10-14T12:02:59Z</time>
      </trkpt>
      <trkpt lat="43.36023" lon="6.69293">
        <ele>227.39999389648</ele>
        <time>2018-10-14T12:03:00Z</time>
      </trkpt>
      <trkpt lat="43.36008" lon="6.69294">
        <ele>227.19999694824</ele>
        <time>2018-10-14T12:03:02Z</time>
      </trkpt>
      <trkpt lat="43.3597" lon="6.69297">
        <ele>226.80000305176</ele>
        <time>2018-10-14T12:03:07Z</time>
      </trkpt>
      <trkpt lat="43.35955" lon="6.69299">
        <ele>226.80000305176</ele>
        <time>2018-10-14T12:03:09Z</time>
      </trkpt>
      <trkpt lat="43.35947" lon="6.69301">
        <ele>226.60000610352</ele>
        <time>2018-10-14T12:03:10Z</time>
      </trkpt>
      <trkpt lat="43.35937" lon="6.69304">
        <ele>226.39999389648</ele>
        <time>2018-10-14T12:03:11Z</time>
      </trkpt>
      <trkpt lat="43.35918" lon="6.69313">
        <ele>226.19999694824</ele>
        <time>2018-10-14T12:03:13Z</time>
      </trkpt>
      <trkpt lat="43.35892" lon="6.69324">
        <ele>225.39999389648</ele>
        <time>2018-10-14T12:03:16Z</time>
      </trkpt>
      <trkpt lat="43.35885" lon="6.6933">
        <ele>225.19999694824</ele>
        <time>2018-10-14T12:03:17Z</time>
      </trkpt>
      <trkpt lat="43.35878" lon="6.69336">
        <ele>225.19999694824</ele>
        <time>2018-10-14T12:03:18Z</time>
      </trkpt>
      <trkpt lat="43.35863" lon="6.69347">
        <ele>225</ele>
        <time>2018-10-14T12:03:20Z</time>
      </trkpt>
      <trkpt lat="43.35856" lon="6.69353">
        <ele>224.80000305176</ele>
        <time>2018-10-14T12:03:21Z</time>
      </trkpt>
      <trkpt lat="43.35849" lon="6.6936">
        <ele>224.60000610352</ele>
        <time>2018-10-14T12:03:22Z</time>
      </trkpt>
      <trkpt lat="43.35839" lon="6.69375">
        <ele>224.19999694824</ele>
        <time>2018-10-14T12:03:24Z</time>
      </trkpt>
      <trkpt lat="43.35829" lon="6.69394">
        <ele>223.60000610352</ele>
        <time>2018-10-14T12:03:27Z</time>
      </trkpt>
      <trkpt lat="43.35827" lon="6.694">
        <ele>223.39999389648</ele>
        <time>2018-10-14T12:03:28Z</time>
      </trkpt>
      <trkpt lat="43.35826" lon="6.69406">
        <ele>223.19999694824</ele>
        <time>2018-10-14T12:03:29Z</time>
      </trkpt>
      <trkpt lat="43.35823" lon="6.69419">
        <ele>222.60000610352</ele>
        <time>2018-10-14T12:03:31Z</time>
      </trkpt>
      <trkpt lat="43.3582" lon="6.69426">
        <ele>222.19999694824</ele>
        <time>2018-10-14T12:03:32Z</time>
      </trkpt>
      <trkpt lat="43.35818" lon="6.69433">
        <ele>222</ele>
        <time>2018-10-14T12:03:33Z</time>
      </trkpt>
      <trkpt lat="43.35812" lon="6.69449">
        <ele>221.39999389648</ele>
        <time>2018-10-14T12:03:35Z</time>
      </trkpt>
      <trkpt lat="43.35804" lon="6.69467">
        <ele>220.39999389648</ele>
        <time>2018-10-14T12:03:38Z</time>
      </trkpt>
      <trkpt lat="43.35802" lon="6.69484">
        <ele>219.39999389648</ele>
        <time>2018-10-14T12:03:41Z</time>
      </trkpt>
      <trkpt lat="43.358" lon="6.69488">
        <ele>219</ele>
        <time>2018-10-14T12:03:42Z</time>
      </trkpt>
      <trkpt lat="43.35797" lon="6.69498">
        <ele>217.39999389648</ele>
        <time>2018-10-14T12:03:46Z</time>
      </trkpt>
      <trkpt lat="43.35797" lon="6.695">
        <ele>217.19999694824</ele>
        <time>2018-10-14T12:03:47Z</time>
      </trkpt>
      <trkpt lat="43.35798" lon="6.69503">
        <ele>216.60000610352</ele>
        <time>2018-10-14T12:03:49Z</time>
      </trkpt>
      <trkpt lat="43.35799" lon="6.69515">
        <ele>215.39999389648</ele>
        <time>2018-10-14T12:03:53Z</time>
      </trkpt>
      <trkpt lat="43.35796" lon="6.69532">
        <ele>214</ele>
        <time>2018-10-14T12:03:57Z</time>
      </trkpt>
      <trkpt lat="43.35796" lon="6.69538">
        <ele>213.19999694824</ele>
        <time>2018-10-14T12:03:59Z</time>
      </trkpt>
      <trkpt lat="43.35798" lon="6.69548">
        <ele>212.39999389648</ele>
        <time>2018-10-14T12:04:01Z</time>
      </trkpt>
      <trkpt lat="43.35796" lon="6.69561">
        <ele>211.39999389648</ele>
        <time>2018-10-14T12:04:03Z</time>
      </trkpt>
      <trkpt lat="43.35794" lon="6.69567">
        <ele>211</ele>
        <time>2018-10-14T12:04:04Z</time>
      </trkpt>
      <trkpt lat="43.35792" lon="6.69572">
        <ele>210.60000610352</ele>
        <time>2018-10-14T12:04:05Z</time>
      </trkpt>
      <trkpt lat="43.35786" lon="6.69594">
        <ele>209.19999694824</ele>
        <time>2018-10-14T12:04:09Z</time>
      </trkpt>
      <trkpt lat="43.35784" lon="6.696">
        <ele>208.80000305176</ele>
        <time>2018-10-14T12:04:10Z</time>
      </trkpt>
      <trkpt lat="43.35778" lon="6.69613">
        <ele>208</ele>
        <time>2018-10-14T12:04:12Z</time>
      </trkpt>
      <trkpt lat="43.35774" lon="6.6962">
        <ele>207.60000610352</ele>
        <time>2018-10-14T12:04:13Z</time>
      </trkpt>
      <trkpt lat="43.35771" lon="6.69627">
        <ele>207.39999389648</ele>
        <time>2018-10-14T12:04:14Z</time>
      </trkpt>
      <trkpt lat="43.35766" lon="6.69641">
        <ele>206.60000610352</ele>
        <time>2018-10-14T12:04:16Z</time>
      </trkpt>
      <trkpt lat="43.35765" lon="6.69647">
        <ele>206.19999694824</ele>
        <time>2018-10-14T12:04:17Z</time>
      </trkpt>
      <trkpt lat="43.35762" lon="6.69673">
        <ele>205</ele>
        <time>2018-10-14T12:04:21Z</time>
      </trkpt>
      <trkpt lat="43.3576" lon="6.69686">
        <ele>204.39999389648</ele>
        <time>2018-10-14T12:04:23Z</time>
      </trkpt>
      <trkpt lat="43.35759" lon="6.69704">
        <ele>203.80000305176</ele>
        <time>2018-10-14T12:04:26Z</time>
      </trkpt>
      <trkpt lat="43.35758" lon="6.6971">
        <ele>203.39999389648</ele>
        <time>2018-10-14T12:04:27Z</time>
      </trkpt>
      <trkpt lat="43.35753" lon="6.69722">
        <ele>202.80000305176</ele>
        <time>2018-10-14T12:04:29Z</time>
      </trkpt>
      <trkpt lat="43.3575" lon="6.69725">
        <ele>202.60000610352</ele>
        <time>2018-10-14T12:04:30Z</time>
      </trkpt>
      <trkpt lat="43.35746" lon="6.69727">
        <ele>202.19999694824</ele>
        <time>2018-10-14T12:04:31Z</time>
      </trkpt>
      <trkpt lat="43.35738" lon="6.69726">
        <ele>201.80000305176</ele>
        <time>2018-10-14T12:04:33Z</time>
      </trkpt>
      <trkpt lat="43.35728" lon="6.69719">
        <ele>201</ele>
        <time>2018-10-14T12:04:36Z</time>
      </trkpt>
      <trkpt lat="43.3572" lon="6.69719">
        <ele>200.39999389648</ele>
        <time>2018-10-14T12:04:38Z</time>
      </trkpt>
      <trkpt lat="43.35706" lon="6.69728">
        <ele>199.39999389648</ele>
        <time>2018-10-14T12:04:42Z</time>
      </trkpt>
      <trkpt lat="43.35691" lon="6.69742">
        <ele>198.60000610352</ele>
        <time>2018-10-14T12:04:47Z</time>
      </trkpt>
      <trkpt lat="43.3569" lon="6.69745">
        <ele>198.39999389648</ele>
        <time>2018-10-14T12:04:48Z</time>
      </trkpt>
      <trkpt lat="43.35686" lon="6.69753">
        <ele>198.19999694824</ele>
        <time>2018-10-14T12:04:50Z</time>
      </trkpt>
      <trkpt lat="43.35674" lon="6.69771">
        <ele>197.80000305176</ele>
        <time>2018-10-14T12:04:55Z</time>
      </trkpt>
      <trkpt lat="43.35666" lon="6.69785">
        <ele>197.39999389648</ele>
        <time>2018-10-14T12:04:59Z</time>
      </trkpt>
      <trkpt lat="43.35657" lon="6.69805">
        <ele>196.80000305176</ele>
        <time>2018-10-14T12:05:03Z</time>
      </trkpt>
      <trkpt lat="43.35653" lon="6.69816">
        <ele>196.60000610352</ele>
        <time>2018-10-14T12:05:05Z</time>
      </trkpt>
      <trkpt lat="43.35638" lon="6.69851">
        <ele>195.60000610352</ele>
        <time>2018-10-14T12:05:10Z</time>
      </trkpt>
      <trkpt lat="43.35617" lon="6.69895">
        <ele>194.19999694824</ele>
        <time>2018-10-14T12:05:15Z</time>
      </trkpt>
      <trkpt lat="43.35604" lon="6.69921">
        <ele>193.60000610352</ele>
        <time>2018-10-14T12:05:18Z</time>
      </trkpt>
      <trkpt lat="43.35598" lon="6.69938">
        <ele>193.19999694824</ele>
        <time>2018-10-14T12:05:20Z</time>
      </trkpt>
      <trkpt lat="43.3559" lon="6.69972">
        <ele>192.19999694824</ele>
        <time>2018-10-14T12:05:24Z</time>
      </trkpt>
      <trkpt lat="43.35588" lon="6.69982">
        <ele>192</ele>
        <time>2018-10-14T12:05:25Z</time>
      </trkpt>
      <trkpt lat="43.35586" lon="6.69992">
        <ele>191.60000610352</ele>
        <time>2018-10-14T12:05:26Z</time>
      </trkpt>
      <trkpt lat="43.35579" lon="6.70018">
        <ele>191.19999694824</ele>
        <time>2018-10-14T12:05:29Z</time>
      </trkpt>
      <trkpt lat="43.3557" lon="6.7005">
        <ele>190.60000610352</ele>
        <time>2018-10-14T12:05:33Z</time>
      </trkpt>
      <trkpt lat="43.35569" lon="6.70057">
        <ele>190.39999389648</ele>
        <time>2018-10-14T12:05:34Z</time>
      </trkpt>
      <trkpt lat="43.35569" lon="6.70063">
        <ele>190.19999694824</ele>
        <time>2018-10-14T12:05:35Z</time>
      </trkpt>
      <trkpt lat="43.35573" lon="6.70079">
        <ele>189.80000305176</ele>
        <time>2018-10-14T12:05:38Z</time>
      </trkpt>
      <trkpt lat="43.35575" lon="6.70085">
        <ele>189.60000610352</ele>
        <time>2018-10-14T12:05:39Z</time>
      </trkpt>
      <trkpt lat="43.35583" lon="6.70102">
        <ele>189.19999694824</ele>
        <time>2018-10-14T12:05:42Z</time>
      </trkpt>
      <trkpt lat="43.35599" lon="6.70134">
        <ele>188.39999389648</ele>
        <time>2018-10-14T12:05:48Z</time>
      </trkpt>
      <trkpt lat="43.35611" lon="6.70165">
        <ele>187.60000610352</ele>
        <time>2018-10-14T12:05:53Z</time>
      </trkpt>
      <trkpt lat="43.35613" lon="6.70172">
        <ele>187.60000610352</ele>
        <time>2018-10-14T12:05:54Z</time>
      </trkpt>
      <trkpt lat="43.3562" lon="6.70191">
        <ele>187</ele>
        <time>2018-10-14T12:05:57Z</time>
      </trkpt>
      <trkpt lat="43.35627" lon="6.70214">
        <ele>186.19999694824</ele>
        <time>2018-10-14T12:06:00Z</time>
      </trkpt>
      <trkpt lat="43.35632" lon="6.70229">
        <ele>185.60000610352</ele>
        <time>2018-10-14T12:06:02Z</time>
      </trkpt>
      <trkpt lat="43.35639" lon="6.70243">
        <ele>185.19999694824</ele>
        <time>2018-10-14T12:06:04Z</time>
      </trkpt>
      <trkpt lat="43.35645" lon="6.70258">
        <ele>184.60000610352</ele>
        <time>2018-10-14T12:06:06Z</time>
      </trkpt>
      <trkpt lat="43.35647" lon="6.70266">
        <ele>184.19999694824</ele>
        <time>2018-10-14T12:06:07Z</time>
      </trkpt>
      <trkpt lat="43.35651" lon="6.70281">
        <ele>183.80000305176</ele>
        <time>2018-10-14T12:06:09Z</time>
      </trkpt>
      <trkpt lat="43.35654" lon="6.70287">
        <ele>183.60000610352</ele>
        <time>2018-10-14T12:06:10Z</time>
      </trkpt>
      <trkpt lat="43.35657" lon="6.70293">
        <ele>183.39999389648</ele>
        <time>2018-10-14T12:06:11Z</time>
      </trkpt>
      <trkpt lat="43.35666" lon="6.7031">
        <ele>182.60000610352</ele>
        <time>2018-10-14T12:06:14Z</time>
      </trkpt>
      <trkpt lat="43.3567" lon="6.70314">
        <ele>182.19999694824</ele>
        <time>2018-10-14T12:06:15Z</time>
      </trkpt>
      <trkpt lat="43.35674" lon="6.70319">
        <ele>182</ele>
        <time>2018-10-14T12:06:16Z</time>
      </trkpt>
      <trkpt lat="43.35687" lon="6.70341">
        <ele>181</ele>
        <time>2018-10-14T12:06:20Z</time>
      </trkpt>
      <trkpt lat="43.35692" lon="6.70353">
        <ele>180.39999389648</ele>
        <time>2018-10-14T12:06:22Z</time>
      </trkpt>
      <trkpt lat="43.35696" lon="6.70366">
        <ele>179.80000305176</ele>
        <time>2018-10-14T12:06:24Z</time>
      </trkpt>
      <trkpt lat="43.35698" lon="6.7038">
        <ele>179.39999389648</ele>
        <time>2018-10-14T12:06:26Z</time>
      </trkpt>
      <trkpt lat="43.35697" lon="6.70393">
        <ele>178.80000305176</ele>
        <time>2018-10-14T12:06:28Z</time>
      </trkpt>
      <trkpt lat="43.35696" lon="6.70406">
        <ele>178.19999694824</ele>
        <time>2018-10-14T12:06:30Z</time>
      </trkpt>
      <trkpt lat="43.35696" lon="6.70419">
        <ele>177.60000610352</ele>
        <time>2018-10-14T12:06:32Z</time>
      </trkpt>
      <trkpt lat="43.35699" lon="6.70432">
        <ele>177</ele>
        <time>2018-10-14T12:06:34Z</time>
      </trkpt>
      <trkpt lat="43.35705" lon="6.70442">
        <ele>176.39999389648</ele>
        <time>2018-10-14T12:06:36Z</time>
      </trkpt>
      <trkpt lat="43.35717" lon="6.7046">
        <ele>174.60000610352</ele>
        <time>2018-10-14T12:06:41Z</time>
      </trkpt>
      <trkpt lat="43.35728" lon="6.70472">
        <ele>173</ele>
        <time>2018-10-14T12:06:45Z</time>
      </trkpt>
      <trkpt lat="43.35743" lon="6.70482">
        <ele>170.80000305176</ele>
        <time>2018-10-14T12:06:50Z</time>
      </trkpt>
      <trkpt lat="43.3575" lon="6.70484">
        <ele>169.80000305176</ele>
        <time>2018-10-14T12:06:52Z</time>
      </trkpt>
      <trkpt lat="43.35756" lon="6.70484">
        <ele>169</ele>
        <time>2018-10-14T12:06:54Z</time>
      </trkpt>
      <trkpt lat="43.35772" lon="6.70485">
        <ele>167.19999694824</ele>
        <time>2018-10-14T12:06:58Z</time>
      </trkpt>
      <trkpt lat="43.35777" lon="6.70487">
        <ele>166.80000305176</ele>
        <time>2018-10-14T12:06:59Z</time>
      </trkpt>
      <trkpt lat="43.35782" lon="6.70489">
        <ele>166.19999694824</ele>
        <time>2018-10-14T12:07:00Z</time>
      </trkpt>
      <trkpt lat="43.35796" lon="6.705">
        <ele>164.39999389648</ele>
        <time>2018-10-14T12:07:04Z</time>
      </trkpt>
      <trkpt lat="43.35805" lon="6.7051">
        <ele>162.60000610352</ele>
        <time>2018-10-14T12:07:08Z</time>
      </trkpt>
      <trkpt lat="43.35814" lon="6.70522">
        <ele>160.80000305176</ele>
        <time>2018-10-14T12:07:12Z</time>
      </trkpt>
      <trkpt lat="43.35824" lon="6.70532">
        <ele>158.60000610352</ele>
        <time>2018-10-14T12:07:16Z</time>
      </trkpt>
      <trkpt lat="43.35836" lon="6.70541">
        <ele>156.39999389648</ele>
        <time>2018-10-14T12:07:20Z</time>
      </trkpt>
      <trkpt lat="43.35841" lon="6.70547">
        <ele>155.19999694824</ele>
        <time>2018-10-14T12:07:23Z</time>
      </trkpt>
      <trkpt lat="43.35845" lon="6.70552">
        <ele>154.39999389648</ele>
        <time>2018-10-14T12:07:25Z</time>
      </trkpt>
      <trkpt lat="43.35856" lon="6.70563">
        <ele>152.39999389648</ele>
        <time>2018-10-14T12:07:29Z</time>
      </trkpt>
      <trkpt lat="43.35863" lon="6.70568">
        <ele>151.39999389648</ele>
        <time>2018-10-14T12:07:31Z</time>
      </trkpt>
      <trkpt lat="43.35871" lon="6.70569">
        <ele>150.39999389648</ele>
        <time>2018-10-14T12:07:33Z</time>
      </trkpt>
      <trkpt lat="43.35884" lon="6.70565">
        <ele>148.60000610352</ele>
        <time>2018-10-14T12:07:37Z</time>
      </trkpt>
      <trkpt lat="43.35898" lon="6.70576">
        <ele>147</ele>
        <time>2018-10-14T12:07:41Z</time>
      </trkpt>
      <trkpt lat="43.35906" lon="6.70585">
        <ele>146.19999694824</ele>
        <time>2018-10-14T12:07:43Z</time>
      </trkpt>
      <trkpt lat="43.35912" lon="6.70592">
        <ele>145.19999694824</ele>
        <time>2018-10-14T12:07:45Z</time>
      </trkpt>
      <trkpt lat="43.35918" lon="6.70598">
        <ele>144.19999694824</ele>
        <time>2018-10-14T12:07:47Z</time>
      </trkpt>
      <trkpt lat="43.35926" lon="6.70597">
        <ele>143.19999694824</ele>
        <time>2018-10-14T12:07:49Z</time>
      </trkpt>
      <trkpt lat="43.35937" lon="6.70584">
        <ele>141.39999389648</ele>
        <time>2018-10-14T12:07:53Z</time>
      </trkpt>
      <trkpt lat="43.35949" lon="6.70577">
        <ele>139.80000305176</ele>
        <time>2018-10-14T12:07:57Z</time>
      </trkpt>
      <trkpt lat="43.35958" lon="6.70584">
        <ele>138</ele>
        <time>2018-10-14T12:08:01Z</time>
      </trkpt>
      <trkpt lat="43.35962" lon="6.70588">
        <ele>137.19999694824</ele>
        <time>2018-10-14T12:08:03Z</time>
      </trkpt>
      <trkpt lat="43.35964" lon="6.70587">
        <ele>136.60000610352</ele>
        <time>2018-10-14T12:08:04Z</time>
      </trkpt>
      <trkpt lat="43.35964" lon="6.70582">
        <ele>136</ele>
        <time>2018-10-14T12:08:06Z</time>
      </trkpt>
      <trkpt lat="43.35963" lon="6.7058">
        <ele>135.60000610352</ele>
        <time>2018-10-14T12:08:07Z</time>
      </trkpt>
      <trkpt lat="43.35955" lon="6.70571">
        <ele>134</ele>
        <time>2018-10-14T12:08:13Z</time>
      </trkpt>
      <trkpt lat="43.35949" lon="6.70567">
        <ele>132.39999389648</ele>
        <time>2018-10-14T12:08:18Z</time>
      </trkpt>
      <trkpt lat="43.35947" lon="6.70566">
        <ele>132.19999694824</ele>
        <time>2018-10-14T12:08:19Z</time>
      </trkpt>
      <trkpt lat="43.35936" lon="6.70561">
        <ele>130.39999389648</ele>
        <time>2018-10-14T12:08:26Z</time>
      </trkpt>
      <trkpt lat="43.35925" lon="6.70554">
        <ele>129.39999389648</ele>
        <time>2018-10-14T12:08:34Z</time>
      </trkpt>
      <trkpt lat="43.35916" lon="6.70547">
        <ele>128.60000610352</ele>
        <time>2018-10-14T12:08:41Z</time>
      </trkpt>
      <trkpt lat="43.35908" lon="6.70538">
        <ele>128</ele>
        <time>2018-10-14T12:08:48Z</time>
      </trkpt>
      <trkpt lat="43.359" lon="6.70529">
        <ele>127.40000152588</ele>
        <time>2018-10-14T12:08:55Z</time>
      </trkpt>
      <trkpt lat="43.35893" lon="6.70523">
        <ele>127</ele>
        <time>2018-10-14T12:09:01Z</time>
      </trkpt>
      <trkpt lat="43.35881" lon="6.70521">
        <ele>126.80000305176</ele>
        <time>2018-10-14T12:09:09Z</time>
      </trkpt>
      <trkpt lat="43.35871" lon="6.70518">
        <ele>127</ele>
        <time>2018-10-14T12:09:16Z</time>
      </trkpt>
      <trkpt lat="43.35861" lon="6.70513">
        <ele>127</ele>
        <time>2018-10-14T12:09:23Z</time>
      </trkpt>
      <trkpt lat="43.35853" lon="6.70505">
        <ele>127.19999694824</ele>
        <time>2018-10-14T12:09:30Z</time>
      </trkpt>
      <trkpt lat="43.35845" lon="6.70496">
        <ele>127.40000152588</ele>
        <time>2018-10-14T12:09:38Z</time>
      </trkpt>
      <trkpt lat="43.35837" lon="6.70487">
        <ele>128</ele>
        <time>2018-10-14T12:09:46Z</time>
      </trkpt>
      <trkpt lat="43.35836" lon="6.70486">
        <ele>128</ele>
        <time>2018-10-14T12:09:47Z</time>
      </trkpt>
      <trkpt lat="43.35832" lon="6.70481">
        <ele>128.39999389648</ele>
        <time>2018-10-14T12:09:51Z</time>
      </trkpt>
      <trkpt lat="43.35826" lon="6.70476">
        <ele>129</ele>
        <time>2018-10-14T12:09:56Z</time>
      </trkpt>
      <trkpt lat="43.35818" lon="6.7047">
        <ele>129.80000305176</ele>
        <time>2018-10-14T12:10:03Z</time>
      </trkpt>
      <trkpt lat="43.3581" lon="6.70464">
        <ele>130.39999389648</ele>
        <time>2018-10-14T12:10:09Z</time>
      </trkpt>
      <trkpt lat="43.35801" lon="6.70457">
        <ele>131.19999694824</ele>
        <time>2018-10-14T12:10:17Z</time>
      </trkpt>
      <trkpt lat="43.358" lon="6.70457">
        <ele>131.39999389648</ele>
        <time>2018-10-14T12:10:18Z</time>
      </trkpt>
      <trkpt lat="43.3579" lon="6.70451">
        <ele>132</ele>
        <time>2018-10-14T12:10:26Z</time>
      </trkpt>
      <trkpt lat="43.35782" lon="6.70448">
        <ele>132.60000610352</ele>
        <time>2018-10-14T12:10:32Z</time>
      </trkpt>
      <trkpt lat="43.35773" lon="6.70446">
        <ele>133.19999694824</ele>
        <time>2018-10-14T12:10:39Z</time>
      </trkpt>
      <trkpt lat="43.35767" lon="6.70445">
        <ele>133.60000610352</ele>
        <time>2018-10-14T12:10:43Z</time>
      </trkpt>
      <trkpt lat="43.35765" lon="6.70443">
        <ele>133.80000305176</ele>
        <time>2018-10-14T12:10:45Z</time>
      </trkpt>
      <trkpt lat="43.35758" lon="6.70436">
        <ele>134.39999389648</ele>
        <time>2018-10-14T12:10:51Z</time>
      </trkpt>
      <trkpt lat="43.35758" lon="6.70435">
        <ele>134.60000610352</ele>
        <time>2018-10-14T12:10:52Z</time>
      </trkpt>
      <trkpt lat="43.35756" lon="6.70428">
        <ele>134.80000305176</ele>
        <time>2018-10-14T12:10:56Z</time>
      </trkpt>
      <trkpt lat="43.35748" lon="6.70419">
        <ele>135.60000610352</ele>
        <time>2018-10-14T12:11:03Z</time>
      </trkpt>
      <trkpt lat="43.35741" lon="6.7041">
        <ele>136.19999694824</ele>
        <time>2018-10-14T12:11:10Z</time>
      </trkpt>
      <trkpt lat="43.35741" lon="6.70408">
        <ele>136.39999389648</ele>
        <time>2018-10-14T12:11:11Z</time>
      </trkpt>
      <trkpt lat="43.35739" lon="6.70394">
        <ele>137.19999694824</ele>
        <time>2018-10-14T12:11:19Z</time>
      </trkpt>
      <trkpt lat="43.35739" lon="6.7039">
        <ele>137.39999389648</ele>
        <time>2018-10-14T12:11:21Z</time>
      </trkpt>
      <trkpt lat="43.35741" lon="6.70384">
        <ele>137.60000610352</ele>
        <time>2018-10-14T12:11:24Z</time>
      </trkpt>
      <trkpt lat="43.35743" lon="6.70379">
        <ele>137.80000305176</ele>
        <time>2018-10-14T12:11:27Z</time>
      </trkpt>
      <trkpt lat="43.35744" lon="6.70375">
        <ele>138</ele>
        <time>2018-10-14T12:11:29Z</time>
      </trkpt>
      <trkpt lat="43.35748" lon="6.70358">
        <ele>138.19999694824</ele>
        <time>2018-10-14T12:11:37Z</time>
      </trkpt>
      <trkpt lat="43.35749" lon="6.70344">
        <ele>138.80000305176</ele>
        <time>2018-10-14T12:11:44Z</time>
      </trkpt>
      <trkpt lat="43.35747" lon="6.70331">
        <ele>139.39999389648</ele>
        <time>2018-10-14T12:11:50Z</time>
      </trkpt>
      <trkpt lat="43.35743" lon="6.70318">
        <ele>140</ele>
        <time>2018-10-14T12:11:56Z</time>
      </trkpt>
      <trkpt lat="43.35736" lon="6.70306">
        <ele>141</ele>
        <time>2018-10-14T12:12:04Z</time>
      </trkpt>
      <trkpt lat="43.35727" lon="6.70296">
        <ele>141.60000610352</ele>
        <time>2018-10-14T12:12:11Z</time>
      </trkpt>
      <trkpt lat="43.35719" lon="6.70286">
        <ele>142.60000610352</ele>
        <time>2018-10-14T12:12:18Z</time>
      </trkpt>
      <trkpt lat="43.35709" lon="6.70278">
        <ele>143.60000610352</ele>
        <time>2018-10-14T12:12:25Z</time>
      </trkpt>
      <trkpt lat="43.35701" lon="6.7027">
        <ele>144.60000610352</ele>
        <time>2018-10-14T12:12:31Z</time>
      </trkpt>
      <trkpt lat="43.35693" lon="6.70256">
        <ele>145.39999389648</ele>
        <time>2018-10-14T12:12:38Z</time>
      </trkpt>
      <trkpt lat="43.35686" lon="6.70241">
        <ele>146</ele>
        <time>2018-10-14T12:12:45Z</time>
      </trkpt>
      <trkpt lat="43.3568" lon="6.70223">
        <ele>147</ele>
        <time>2018-10-14T12:12:53Z</time>
      </trkpt>
      <trkpt lat="43.35677" lon="6.70205">
        <ele>147.60000610352</ele>
        <time>2018-10-14T12:12:59Z</time>
      </trkpt>
      <trkpt lat="43.35676" lon="6.70187">
        <ele>148</ele>
        <time>2018-10-14T12:13:04Z</time>
      </trkpt>
      <trkpt lat="43.3568" lon="6.70167">
        <ele>148.39999389648</ele>
        <time>2018-10-14T12:13:10Z</time>
      </trkpt>
      <trkpt lat="43.35681" lon="6.70163">
        <ele>148.39999389648</ele>
        <time>2018-10-14T12:13:11Z</time>
      </trkpt>
      <trkpt lat="43.3568" lon="6.70152">
        <ele>148.60000610352</ele>
        <time>2018-10-14T12:13:14Z</time>
      </trkpt>
      <trkpt lat="43.35678" lon="6.70126">
        <ele>149</ele>
        <time>2018-10-14T12:13:20Z</time>
      </trkpt>
      <trkpt lat="43.35672" lon="6.70108">
        <ele>149.19999694824</ele>
        <time>2018-10-14T12:13:25Z</time>
      </trkpt>
      <trkpt lat="43.35662" lon="6.70095">
        <ele>149.39999389648</ele>
        <time>2018-10-14T12:13:29Z</time>
      </trkpt>
      <trkpt lat="43.3565" lon="6.70078">
        <ele>149.60000610352</ele>
        <time>2018-10-14T12:13:34Z</time>
      </trkpt>
      <trkpt lat="43.35641" lon="6.7006">
        <ele>149.80000305176</ele>
        <time>2018-10-14T12:13:39Z</time>
      </trkpt>
      <trkpt lat="43.3564" lon="6.70042">
        <ele>150</ele>
        <time>2018-10-14T12:13:43Z</time>
      </trkpt>
      <trkpt lat="43.35647" lon="6.70026">
        <ele>150.19999694824</ele>
        <time>2018-10-14T12:13:48Z</time>
      </trkpt>
      <trkpt lat="43.35664" lon="6.70005">
        <ele>150.39999389648</ele>
        <time>2018-10-14T12:13:54Z</time>
      </trkpt>
      <trkpt lat="43.35678" lon="6.69983">
        <ele>150.80000305176</ele>
        <time>2018-10-14T12:14:00Z</time>
      </trkpt>
      <trkpt lat="43.35683" lon="6.69967">
        <ele>151.19999694824</ele>
        <time>2018-10-14T12:14:05Z</time>
      </trkpt>
      <trkpt lat="43.35683" lon="6.69944">
        <ele>151.80000305176</ele>
        <time>2018-10-14T12:14:12Z</time>
      </trkpt>
      <trkpt lat="43.35683" lon="6.69928">
        <ele>152</ele>
        <time>2018-10-14T12:14:17Z</time>
      </trkpt>
      <trkpt lat="43.35685" lon="6.69918">
        <ele>152.19999694824</ele>
        <time>2018-10-14T12:14:20Z</time>
      </trkpt>
      <trkpt lat="43.35686" lon="6.69916">
        <ele>152.19999694824</ele>
        <time>2018-10-14T12:14:21Z</time>
      </trkpt>
      <trkpt lat="43.35697" lon="6.69901">
        <ele>152.60000610352</ele>
        <time>2018-10-14T12:14:26Z</time>
      </trkpt>
      <trkpt lat="43.35713" lon="6.69896">
        <ele>152.39999389648</ele>
        <time>2018-10-14T12:14:30Z</time>
      </trkpt>
      <trkpt lat="43.35723" lon="6.69889">
        <ele>152.39999389648</ele>
        <time>2018-10-14T12:14:32Z</time>
      </trkpt>
      <trkpt lat="43.35733" lon="6.69878">
        <ele>152.19999694824</ele>
        <time>2018-10-14T12:14:34Z</time>
      </trkpt>
      <trkpt lat="43.3574" lon="6.69864">
        <ele>152.19999694824</ele>
        <time>2018-10-14T12:14:36Z</time>
      </trkpt>
      <trkpt lat="43.35745" lon="6.69848">
        <ele>152</ele>
        <time>2018-10-14T12:14:38Z</time>
      </trkpt>
      <trkpt lat="43.35751" lon="6.69834">
        <ele>151.80000305176</ele>
        <time>2018-10-14T12:14:40Z</time>
      </trkpt>
      <trkpt lat="43.35756" lon="6.69831">
        <ele>151.80000305176</ele>
        <time>2018-10-14T12:14:41Z</time>
      </trkpt>
      <trkpt lat="43.35774" lon="6.69835">
        <ele>151.39999389648</ele>
        <time>2018-10-14T12:14:44Z</time>
      </trkpt>
      <trkpt lat="43.3578" lon="6.69836">
        <ele>151.19999694824</ele>
        <time>2018-10-14T12:14:45Z</time>
      </trkpt>
      <trkpt lat="43.35786" lon="6.69837">
        <ele>151.19999694824</ele>
        <time>2018-10-14T12:14:46Z</time>
      </trkpt>
      <trkpt lat="43.358" lon="6.69843">
        <ele>150.80000305176</ele>
        <time>2018-10-14T12:14:48Z</time>
      </trkpt>
      <trkpt lat="43.35831" lon="6.69865">
        <ele>150</ele>
        <time>2018-10-14T12:14:52Z</time>
      </trkpt>
      <trkpt lat="43.35858" lon="6.6989">
        <ele>149</ele>
        <time>2018-10-14T12:14:56Z</time>
      </trkpt>
      <trkpt lat="43.3587" lon="6.6989">
        <ele>148.60000610352</ele>
        <time>2018-10-14T12:14:58Z</time>
      </trkpt>
      <trkpt lat="43.35874" lon="6.69885">
        <ele>148.39999389648</ele>
        <time>2018-10-14T12:14:59Z</time>
      </trkpt>
      <trkpt lat="43.35878" lon="6.69878">
        <ele>148</ele>
        <time>2018-10-14T12:15:00Z</time>
      </trkpt>
      <trkpt lat="43.35882" lon="6.69862">
        <ele>147.60000610352</ele>
        <time>2018-10-14T12:15:02Z</time>
      </trkpt>
      <trkpt lat="43.35883" lon="6.69845">
        <ele>147</ele>
        <time>2018-10-14T12:15:04Z</time>
      </trkpt>
      <trkpt lat="43.35882" lon="6.69827">
        <ele>146.39999389648</ele>
        <time>2018-10-14T12:15:06Z</time>
      </trkpt>
      <trkpt lat="43.35881" lon="6.69784">
        <ele>145.39999389648</ele>
        <time>2018-10-14T12:15:10Z</time>
      </trkpt>
      <trkpt lat="43.35886" lon="6.69749">
        <ele>144.39999389648</ele>
        <time>2018-10-14T12:15:13Z</time>
      </trkpt>
      <trkpt lat="43.35885" lon="6.69736">
        <ele>144.19999694824</ele>
        <time>2018-10-14T12:15:14Z</time>
      </trkpt>
      <trkpt lat="43.3588" lon="6.697">
        <ele>142.80000305176</ele>
        <time>2018-10-14T12:15:18Z</time>
      </trkpt>
      <trkpt lat="43.3588" lon="6.69694">
        <ele>142.60000610352</ele>
        <time>2018-10-14T12:15:19Z</time>
      </trkpt>
      <trkpt lat="43.35883" lon="6.69688">
        <ele>142.19999694824</ele>
        <time>2018-10-14T12:15:20Z</time>
      </trkpt>
      <trkpt lat="43.35887" lon="6.69684">
        <ele>142</ele>
        <time>2018-10-14T12:15:21Z</time>
      </trkpt>
      <trkpt lat="43.35893" lon="6.69685">
        <ele>141.60000610352</ele>
        <time>2018-10-14T12:15:22Z</time>
      </trkpt>
      <trkpt lat="43.35913" lon="6.69689">
        <ele>140.60000610352</ele>
        <time>2018-10-14T12:15:25Z</time>
      </trkpt>
      <trkpt lat="43.35924" lon="6.69684">
        <ele>140</ele>
        <time>2018-10-14T12:15:27Z</time>
      </trkpt>
      <trkpt lat="43.35928" lon="6.69677">
        <ele>139.60000610352</ele>
        <time>2018-10-14T12:15:28Z</time>
      </trkpt>
      <trkpt lat="43.35932" lon="6.69669">
        <ele>139.19999694824</ele>
        <time>2018-10-14T12:15:29Z</time>
      </trkpt>
      <trkpt lat="43.35937" lon="6.69653">
        <ele>138.39999389648</ele>
        <time>2018-10-14T12:15:31Z</time>
      </trkpt>
      <trkpt lat="43.35944" lon="6.69645">
        <ele>137.80000305176</ele>
        <time>2018-10-14T12:15:33Z</time>
      </trkpt>
      <trkpt lat="43.35951" lon="6.6965">
        <ele>137.19999694824</ele>
        <time>2018-10-14T12:15:35Z</time>
      </trkpt>
      <trkpt lat="43.35951" lon="6.69663">
        <ele>136.39999389648</ele>
        <time>2018-10-14T12:15:37Z</time>
      </trkpt>
      <trkpt lat="43.35951" lon="6.69669">
        <ele>136</ele>
        <time>2018-10-14T12:15:38Z</time>
      </trkpt>
      <trkpt lat="43.35952" lon="6.69681">
        <ele>135.39999389648</ele>
        <time>2018-10-14T12:15:40Z</time>
      </trkpt>
      <trkpt lat="43.35952" lon="6.69695">
        <ele>134.60000610352</ele>
        <time>2018-10-14T12:15:42Z</time>
      </trkpt>
      <trkpt lat="43.35956" lon="6.69718">
        <ele>133.39999389648</ele>
        <time>2018-10-14T12:15:45Z</time>
      </trkpt>
      <trkpt lat="43.35963" lon="6.69735">
        <ele>132.60000610352</ele>
        <time>2018-10-14T12:15:47Z</time>
      </trkpt>
      <trkpt lat="43.35971" lon="6.6975">
        <ele>131.80000305176</ele>
        <time>2018-10-14T12:15:49Z</time>
      </trkpt>
      <trkpt lat="43.35972" lon="6.69766">
        <ele>131</ele>
        <time>2018-10-14T12:15:51Z</time>
      </trkpt>
      <trkpt lat="43.35974" lon="6.69781">
        <ele>130.19999694824</ele>
        <time>2018-10-14T12:15:53Z</time>
      </trkpt>
      <trkpt lat="43.35976" lon="6.69787">
        <ele>129.80000305176</ele>
        <time>2018-10-14T12:15:54Z</time>
      </trkpt>
      <trkpt lat="43.35981" lon="6.69802">
        <ele>129</ele>
        <time>2018-10-14T12:15:56Z</time>
      </trkpt>
      <trkpt lat="43.35985" lon="6.69808">
        <ele>128.60000610352</ele>
        <time>2018-10-14T12:15:57Z</time>
      </trkpt>
      <trkpt lat="43.35994" lon="6.69818">
        <ele>127.80000305176</ele>
        <time>2018-10-14T12:15:59Z</time>
      </trkpt>
      <trkpt lat="43.36003" lon="6.69828">
        <ele>126.80000305176</ele>
        <time>2018-10-14T12:16:01Z</time>
      </trkpt>
      <trkpt lat="43.36017" lon="6.69855">
        <ele>125.19999694824</ele>
        <time>2018-10-14T12:16:05Z</time>
      </trkpt>
      <trkpt lat="43.36021" lon="6.69862">
        <ele>124.80000305176</ele>
        <time>2018-10-14T12:16:06Z</time>
      </trkpt>
      <trkpt lat="43.36025" lon="6.6987">
        <ele>124.40000152588</ele>
        <time>2018-10-14T12:16:07Z</time>
      </trkpt>
      <trkpt lat="43.36033" lon="6.69887">
        <ele>123.59999847412</ele>
        <time>2018-10-14T12:16:09Z</time>
      </trkpt>
      <trkpt lat="43.3604" lon="6.699">
        <ele>122.59999847412</ele>
        <time>2018-10-14T12:16:11Z</time>
      </trkpt>
      <trkpt lat="43.36043" lon="6.69914">
        <ele>121.80000305176</ele>
        <time>2018-10-14T12:16:13Z</time>
      </trkpt>
      <trkpt lat="43.36045" lon="6.6993">
        <ele>121</ele>
        <time>2018-10-14T12:16:15Z</time>
      </trkpt>
      <trkpt lat="43.3605" lon="6.69945">
        <ele>120.19999694824</ele>
        <time>2018-10-14T12:16:17Z</time>
      </trkpt>
      <trkpt lat="43.36057" lon="6.69956">
        <ele>119.40000152588</ele>
        <time>2018-10-14T12:16:19Z</time>
      </trkpt>
      <trkpt lat="43.36059" lon="6.69963">
        <ele>118.80000305176</ele>
        <time>2018-10-14T12:16:20Z</time>
      </trkpt>
      <trkpt lat="43.36061" lon="6.6997">
        <ele>118.40000152588</ele>
        <time>2018-10-14T12:16:21Z</time>
      </trkpt>
      <trkpt lat="43.36062" lon="6.69991">
        <ele>117</ele>
        <time>2018-10-14T12:16:24Z</time>
      </trkpt>
      <trkpt lat="43.36064" lon="6.69999">
        <ele>116.59999847412</ele>
        <time>2018-10-14T12:16:25Z</time>
      </trkpt>
      <trkpt lat="43.36068" lon="6.70013">
        <ele>115.59999847412</ele>
        <time>2018-10-14T12:16:27Z</time>
      </trkpt>
      <trkpt lat="43.36072" lon="6.70025">
        <ele>114.80000305176</ele>
        <time>2018-10-14T12:16:29Z</time>
      </trkpt>
      <trkpt lat="43.36077" lon="6.70032">
        <ele>114</ele>
        <time>2018-10-14T12:16:31Z</time>
      </trkpt>
      <trkpt lat="43.3608" lon="6.70035">
        <ele>113.59999847412</ele>
        <time>2018-10-14T12:16:32Z</time>
      </trkpt>
      <trkpt lat="43.36082" lon="6.70043">
        <ele>112.59999847412</ele>
        <time>2018-10-14T12:16:34Z</time>
      </trkpt>
      <trkpt lat="43.36087" lon="6.70064">
        <ele>110.59999847412</ele>
        <time>2018-10-14T12:16:39Z</time>
      </trkpt>
      <trkpt lat="43.36093" lon="6.7008">
        <ele>109.40000152588</ele>
        <time>2018-10-14T12:16:42Z</time>
      </trkpt>
      <trkpt lat="43.36098" lon="6.70091">
        <ele>108.59999847412</ele>
        <time>2018-10-14T12:16:44Z</time>
      </trkpt>
      <trkpt lat="43.36101" lon="6.70098">
        <ele>108.19999694824</ele>
        <time>2018-10-14T12:16:45Z</time>
      </trkpt>
      <trkpt lat="43.36108" lon="6.70118">
        <ele>107.19999694824</ele>
        <time>2018-10-14T12:16:48Z</time>
      </trkpt>
      <trkpt lat="43.36116" lon="6.70139">
        <ele>106</ele>
        <time>2018-10-14T12:16:51Z</time>
      </trkpt>
      <trkpt lat="43.36124" lon="6.70148">
        <ele>105</ele>
        <time>2018-10-14T12:16:53Z</time>
      </trkpt>
      <trkpt lat="43.36134" lon="6.70154">
        <ele>104.19999694824</ele>
        <time>2018-10-14T12:16:55Z</time>
      </trkpt>
      <trkpt lat="43.36144" lon="6.70159">
        <ele>103.40000152588</ele>
        <time>2018-10-14T12:16:57Z</time>
      </trkpt>
      <trkpt lat="43.36154" lon="6.70161">
        <ele>102.59999847412</ele>
        <time>2018-10-14T12:16:59Z</time>
      </trkpt>
      <trkpt lat="43.36164" lon="6.70161">
        <ele>101.80000305176</ele>
        <time>2018-10-14T12:17:01Z</time>
      </trkpt>
      <trkpt lat="43.36172" lon="6.70154">
        <ele>100.59999847412</ele>
        <time>2018-10-14T12:17:04Z</time>
      </trkpt>
      <trkpt lat="43.36183" lon="6.70147">
        <ele>99.199996948242</ele>
        <time>2018-10-14T12:17:08Z</time>
      </trkpt>
      <trkpt lat="43.36186" lon="6.70146">
        <ele>98.599998474121</ele>
        <time>2018-10-14T12:17:09Z</time>
      </trkpt>
      <trkpt lat="43.36198" lon="6.70154">
        <ele>97.199996948242</ele>
        <time>2018-10-14T12:17:13Z</time>
      </trkpt>
      <trkpt lat="43.36211" lon="6.70168">
        <ele>95.400001525879</ele>
        <time>2018-10-14T12:17:18Z</time>
      </trkpt>
      <trkpt lat="43.36216" lon="6.70184">
        <ele>93.199996948242</ele>
        <time>2018-10-14T12:17:24Z</time>
      </trkpt>
      <trkpt lat="43.36223" lon="6.70199">
        <ele>91.599998474121</ele>
        <time>2018-10-14T12:17:29Z</time>
      </trkpt>
      <trkpt lat="43.3623" lon="6.70208">
        <ele>90.599998474121</ele>
        <time>2018-10-14T12:17:32Z</time>
      </trkpt>
      <trkpt lat="43.3623" lon="6.70212">
        <ele>90.199996948242</ele>
        <time>2018-10-14T12:17:33Z</time>
      </trkpt>
      <trkpt lat="43.36233" lon="6.70235">
        <ele>88.800003051758</ele>
        <time>2018-10-14T12:17:38Z</time>
      </trkpt>
      <trkpt lat="43.36239" lon="6.70251">
        <ele>88</ele>
        <time>2018-10-14T12:17:41Z</time>
      </trkpt>
      <trkpt lat="43.36244" lon="6.7026">
        <ele>87.199996948242</ele>
        <time>2018-10-14T12:17:43Z</time>
      </trkpt>
      <trkpt lat="43.36244" lon="6.70272">
        <ele>86.400001525879</ele>
        <time>2018-10-14T12:17:46Z</time>
      </trkpt>
      <trkpt lat="43.36244" lon="6.70276">
        <ele>86</ele>
        <time>2018-10-14T12:17:47Z</time>
      </trkpt>
      <trkpt lat="43.36247" lon="6.70286">
        <ele>85.400001525879</ele>
        <time>2018-10-14T12:17:49Z</time>
      </trkpt>
      <trkpt lat="43.36249" lon="6.70291">
        <ele>85.199996948242</ele>
        <time>2018-10-14T12:17:50Z</time>
      </trkpt>
      <trkpt lat="43.36256" lon="6.70298">
        <ele>84.599998474121</ele>
        <time>2018-10-14T12:17:52Z</time>
      </trkpt>
      <trkpt lat="43.36259" lon="6.70302">
        <ele>84.199996948242</ele>
        <time>2018-10-14T12:17:53Z</time>
      </trkpt>
      <trkpt lat="43.36263" lon="6.70305">
        <ele>84</ele>
        <time>2018-10-14T12:17:54Z</time>
      </trkpt>
      <trkpt lat="43.36274" lon="6.70312">
        <ele>83</ele>
        <time>2018-10-14T12:17:57Z</time>
      </trkpt>
      <trkpt lat="43.36287" lon="6.70309">
        <ele>81.800003051758</ele>
        <time>2018-10-14T12:18:01Z</time>
      </trkpt>
      <trkpt lat="43.36296" lon="6.70299">
        <ele>80.599998474121</ele>
        <time>2018-10-14T12:18:05Z</time>
      </trkpt>
      <trkpt lat="43.36304" lon="6.70288">
        <ele>79.199996948242</ele>
        <time>2018-10-14T12:18:09Z</time>
      </trkpt>
      <trkpt lat="43.36314" lon="6.7028">
        <ele>77.599998474121</ele>
        <time>2018-10-14T12:18:14Z</time>
      </trkpt>
      <trkpt lat="43.36316" lon="6.7028">
        <ele>77.199996948242</ele>
        <time>2018-10-14T12:18:15Z</time>
      </trkpt>
      <trkpt lat="43.3632" lon="6.70283">
        <ele>76.199996948242</ele>
        <time>2018-10-14T12:18:18Z</time>
      </trkpt>
      <trkpt lat="43.36327" lon="6.7029">
        <ele>74.800003051758</ele>
        <time>2018-10-14T12:18:22Z</time>
      </trkpt>
      <trkpt lat="43.36336" lon="6.70304">
        <ele>73.400001525879</ele>
        <time>2018-10-14T12:18:27Z</time>
      </trkpt>
      <trkpt lat="43.36336" lon="6.7032">
        <ele>72.199996948242</ele>
        <time>2018-10-14T12:18:31Z</time>
      </trkpt>
      <trkpt lat="43.36338" lon="6.70342">
        <ele>70.800003051758</ele>
        <time>2018-10-14T12:18:36Z</time>
      </trkpt>
      <trkpt lat="43.36339" lon="6.70369">
        <ele>69.400001525879</ele>
        <time>2018-10-14T12:18:41Z</time>
      </trkpt>
      <trkpt lat="43.36339" lon="6.7039">
        <ele>68.199996948242</ele>
        <time>2018-10-14T12:18:45Z</time>
      </trkpt>
      <trkpt lat="43.36339" lon="6.70396">
        <ele>67.800003051758</ele>
        <time>2018-10-14T12:18:46Z</time>
      </trkpt>
      <trkpt lat="43.36335" lon="6.70407">
        <ele>67.199996948242</ele>
        <time>2018-10-14T12:18:48Z</time>
      </trkpt>
      <trkpt lat="43.36334" lon="6.70413">
        <ele>66.800003051758</ele>
        <time>2018-10-14T12:18:49Z</time>
      </trkpt>
      <trkpt lat="43.36333" lon="6.70432">
        <ele>65.400001525879</ele>
        <time>2018-10-14T12:18:53Z</time>
      </trkpt>
      <trkpt lat="43.36332" lon="6.70452">
        <ele>64.400001525879</ele>
        <time>2018-10-14T12:18:57Z</time>
      </trkpt>
      <trkpt lat="43.36331" lon="6.70457">
        <ele>64</ele>
        <time>2018-10-14T12:18:58Z</time>
      </trkpt>
      <trkpt lat="43.3633" lon="6.70491">
        <ele>62.400001525879</ele>
        <time>2018-10-14T12:19:03Z</time>
      </trkpt>
      <trkpt lat="43.36331" lon="6.70497">
        <ele>62</ele>
        <time>2018-10-14T12:19:04Z</time>
      </trkpt>
      <trkpt lat="43.36337" lon="6.70506">
        <ele>61.400001525879</ele>
        <time>2018-10-14T12:19:06Z</time>
      </trkpt>
      <trkpt lat="43.36348" lon="6.70509">
        <ele>60</ele>
        <time>2018-10-14T12:19:10Z</time>
      </trkpt>
      <trkpt lat="43.36352" lon="6.70508">
        <ele>59.200000762939</ele>
        <time>2018-10-14T12:19:13Z</time>
      </trkpt>
      <trkpt lat="43.36353" lon="6.70509">
        <ele>58.799999237061</ele>
        <time>2018-10-14T12:19:15Z</time>
      </trkpt>
      <trkpt lat="43.36361" lon="6.70511">
        <ele>57.799999237061</ele>
        <time>2018-10-14T12:19:19Z</time>
      </trkpt>
      <trkpt lat="43.36376" lon="6.70516">
        <ele>56.200000762939</ele>
        <time>2018-10-14T12:19:25Z</time>
      </trkpt>
      <trkpt lat="43.36378" lon="6.70518">
        <ele>56</ele>
        <time>2018-10-14T12:19:26Z</time>
      </trkpt>
      <trkpt lat="43.36384" lon="6.70521">
        <ele>55.599998474121</ele>
        <time>2018-10-14T12:19:28Z</time>
      </trkpt>
      <trkpt lat="43.36391" lon="6.70516">
        <ele>54.799999237061</ele>
        <time>2018-10-14T12:19:31Z</time>
      </trkpt>
      <trkpt lat="43.36396" lon="6.70509">
        <ele>54.200000762939</ele>
        <time>2018-10-14T12:19:34Z</time>
      </trkpt>
      <trkpt lat="43.36399" lon="6.70509">
        <ele>54</ele>
        <time>2018-10-14T12:19:35Z</time>
      </trkpt>
      <trkpt lat="43.36413" lon="6.70516">
        <ele>53</ele>
        <time>2018-10-14T12:19:39Z</time>
      </trkpt>
      <trkpt lat="43.36426" lon="6.70519">
        <ele>52.200000762939</ele>
        <time>2018-10-14T12:19:42Z</time>
      </trkpt>
      <trkpt lat="43.3643" lon="6.70518">
        <ele>52</ele>
        <time>2018-10-14T12:19:43Z</time>
      </trkpt>
      <trkpt lat="43.36437" lon="6.70517">
        <ele>51.599998474121</ele>
        <time>2018-10-14T12:19:45Z</time>
      </trkpt>
      <trkpt lat="43.36441" lon="6.70518">
        <ele>51.400001525879</ele>
        <time>2018-10-14T12:19:46Z</time>
      </trkpt>
      <trkpt lat="43.36454" lon="6.70512">
        <ele>50.599998474121</ele>
        <time>2018-10-14T12:19:50Z</time>
      </trkpt>
      <trkpt lat="43.36467" lon="6.70505">
        <ele>49.599998474121</ele>
        <time>2018-10-14T12:19:54Z</time>
      </trkpt>
      <trkpt lat="43.3647" lon="6.70502">
        <ele>49.400001525879</ele>
        <time>2018-10-14T12:19:55Z</time>
      </trkpt>
      <trkpt lat="43.36476" lon="6.70495">
        <ele>49</ele>
        <time>2018-10-14T12:19:57Z</time>
      </trkpt>
      <trkpt lat="43.3648" lon="6.70482">
        <ele>48</ele>
        <time>2018-10-14T12:20:01Z</time>
      </trkpt>
      <trkpt lat="43.36482" lon="6.70479">
        <ele>47.599998474121</ele>
        <time>2018-10-14T12:20:02Z</time>
      </trkpt>
      <trkpt lat="43.36487" lon="6.70479">
        <ele>47</ele>
        <time>2018-10-14T12:20:04Z</time>
      </trkpt>
      <trkpt lat="43.3649" lon="6.70482">
        <ele>46.799999237061</ele>
        <time>2018-10-14T12:20:05Z</time>
      </trkpt>
      <trkpt lat="43.36495" lon="6.7049">
        <ele>46.200000762939</ele>
        <time>2018-10-14T12:20:07Z</time>
      </trkpt>
      <trkpt lat="43.36498" lon="6.70493">
        <ele>46</ele>
        <time>2018-10-14T12:20:08Z</time>
      </trkpt>
      <trkpt lat="43.36503" lon="6.70495">
        <ele>45.400001525879</ele>
        <time>2018-10-14T12:20:10Z</time>
      </trkpt>
      <trkpt lat="43.36507" lon="6.70496">
        <ele>44.799999237061</ele>
        <time>2018-10-14T12:20:12Z</time>
      </trkpt>
      <trkpt lat="43.36511" lon="6.70494">
        <ele>44.200000762939</ele>
        <time>2018-10-14T12:20:14Z</time>
      </trkpt>
      <trkpt lat="43.3652" lon="6.70495">
        <ele>43.400001525879</ele>
        <time>2018-10-14T12:20:17Z</time>
      </trkpt>
      <trkpt lat="43.36523" lon="6.70497">
        <ele>43.200000762939</ele>
        <time>2018-10-14T12:20:18Z</time>
      </trkpt>
      <trkpt lat="43.36529" lon="6.70506">
        <ele>42.599998474121</ele>
        <time>2018-10-14T12:20:21Z</time>
      </trkpt>
      <trkpt lat="43.36532" lon="6.70507">
        <ele>42.200000762939</ele>
        <time>2018-10-14T12:20:22Z</time>
      </trkpt>
      <trkpt lat="43.36542" lon="6.70508">
        <ele>41.400001525879</ele>
        <time>2018-10-14T12:20:25Z</time>
      </trkpt>
      <trkpt lat="43.36562" lon="6.70497">
        <ele>40</ele>
        <time>2018-10-14T12:20:30Z</time>
      </trkpt>
      <trkpt lat="43.36568" lon="6.70494">
        <ele>39.599998474121</ele>
        <time>2018-10-14T12:20:32Z</time>
      </trkpt>
      <trkpt lat="43.36571" lon="6.70496">
        <ele>39.400001525879</ele>
        <time>2018-10-14T12:20:33Z</time>
      </trkpt>
      <trkpt lat="43.36573" lon="6.705">
        <ele>39</ele>
        <time>2018-10-14T12:20:34Z</time>
      </trkpt>
      <trkpt lat="43.36573" lon="6.70509">
        <ele>38.599998474121</ele>
        <time>2018-10-14T12:20:36Z</time>
      </trkpt>
      <trkpt lat="43.36569" lon="6.70528">
        <ele>37.599998474121</ele>
        <time>2018-10-14T12:20:40Z</time>
      </trkpt>
      <trkpt lat="43.36564" lon="6.70549">
        <ele>36.599998474121</ele>
        <time>2018-10-14T12:20:44Z</time>
      </trkpt>
      <trkpt lat="43.36566" lon="6.70565">
        <ele>36.200000762939</ele>
        <time>2018-10-14T12:20:47Z</time>
      </trkpt>
      <trkpt lat="43.36573" lon="6.70586">
        <ele>35.400001525879</ele>
        <time>2018-10-14T12:20:51Z</time>
      </trkpt>
      <trkpt lat="43.36582" lon="6.70611">
        <ele>34.599998474121</ele>
        <time>2018-10-14T12:20:56Z</time>
      </trkpt>
      <trkpt lat="43.36588" lon="6.70618">
        <ele>34.400001525879</ele>
        <time>2018-10-14T12:20:58Z</time>
      </trkpt>
      <trkpt lat="43.36592" lon="6.70619">
        <ele>34.200000762939</ele>
        <time>2018-10-14T12:20:59Z</time>
      </trkpt>
      <trkpt lat="43.36596" lon="6.70622">
        <ele>34</ele>
        <time>2018-10-14T12:21:00Z</time>
      </trkpt>
      <trkpt lat="43.36605" lon="6.70629">
        <ele>33.599998474121</ele>
        <time>2018-10-14T12:21:02Z</time>
      </trkpt>
      <trkpt lat="43.36609" lon="6.70632">
        <ele>33.400001525879</ele>
        <time>2018-10-14T12:21:03Z</time>
      </trkpt>
      <trkpt lat="43.36614" lon="6.70636">
        <ele>33.400001525879</ele>
        <time>2018-10-14T12:21:04Z</time>
      </trkpt>
      <trkpt lat="43.3662" lon="6.70646">
        <ele>33</ele>
        <time>2018-10-14T12:21:06Z</time>
      </trkpt>
      <trkpt lat="43.36626" lon="6.70657">
        <ele>32.799999237061</ele>
        <time>2018-10-14T12:21:08Z</time>
      </trkpt>
      <trkpt lat="43.36634" lon="6.70666">
        <ele>32.200000762939</ele>
        <time>2018-10-14T12:21:10Z</time>
      </trkpt>
      <trkpt lat="43.3664" lon="6.70672">
        <ele>32</ele>
        <time>2018-10-14T12:21:12Z</time>
      </trkpt>
      <trkpt lat="43.36648" lon="6.70674">
        <ele>31.60000038147</ele>
        <time>2018-10-14T12:21:14Z</time>
      </trkpt>
      <trkpt lat="43.36661" lon="6.70666">
        <ele>31</ele>
        <time>2018-10-14T12:21:18Z</time>
      </trkpt>
      <trkpt lat="43.36684" lon="6.70658">
        <ele>30.39999961853</ele>
        <time>2018-10-14T12:21:22Z</time>
      </trkpt>
      <trkpt lat="43.36695" lon="6.70664">
        <ele>30</ele>
        <time>2018-10-14T12:21:24Z</time>
      </trkpt>
      <trkpt lat="43.367" lon="6.7067">
        <ele>29.799999237061</ele>
        <time>2018-10-14T12:21:25Z</time>
      </trkpt>
      <trkpt lat="43.36704" lon="6.70678">
        <ele>29.60000038147</ele>
        <time>2018-10-14T12:21:26Z</time>
      </trkpt>
      <trkpt lat="43.36711" lon="6.70694">
        <ele>29</ele>
        <time>2018-10-14T12:21:28Z</time>
      </trkpt>
      <trkpt lat="43.36716" lon="6.70707">
        <ele>28.39999961853</ele>
        <time>2018-10-14T12:21:30Z</time>
      </trkpt>
      <trkpt lat="43.3672" lon="6.7071">
        <ele>28</ele>
        <time>2018-10-14T12:21:31Z</time>
      </trkpt>
      <trkpt lat="43.36723" lon="6.70708">
        <ele>27.799999237061</ele>
        <time>2018-10-14T12:21:32Z</time>
      </trkpt>
      <trkpt lat="43.36726" lon="6.70704">
        <ele>27.39999961853</ele>
        <time>2018-10-14T12:21:33Z</time>
      </trkpt>
      <trkpt lat="43.36726" lon="6.70698">
        <ele>27.200000762939</ele>
        <time>2018-10-14T12:21:34Z</time>
      </trkpt>
      <trkpt lat="43.36726" lon="6.70685">
        <ele>26.799999237061</ele>
        <time>2018-10-14T12:21:36Z</time>
      </trkpt>
      <trkpt lat="43.36726" lon="6.70679">
        <ele>26.39999961853</ele>
        <time>2018-10-14T12:21:37Z</time>
      </trkpt>
      <trkpt lat="43.36727" lon="6.70665">
        <ele>26</ele>
        <time>2018-10-14T12:21:39Z</time>
      </trkpt>
      <trkpt lat="43.36728" lon="6.70648">
        <ele>25.60000038147</ele>
        <time>2018-10-14T12:21:41Z</time>
      </trkpt>
      <trkpt lat="43.36734" lon="6.70633">
        <ele>25</ele>
        <time>2018-10-14T12:21:43Z</time>
      </trkpt>
      <trkpt lat="43.36739" lon="6.70628">
        <ele>24.799999237061</ele>
        <time>2018-10-14T12:21:44Z</time>
      </trkpt>
      <trkpt lat="43.36745" lon="6.70626">
        <ele>24.39999961853</ele>
        <time>2018-10-14T12:21:45Z</time>
      </trkpt>
      <trkpt lat="43.36752" lon="6.70627">
        <ele>24.200000762939</ele>
        <time>2018-10-14T12:21:46Z</time>
      </trkpt>
      <trkpt lat="43.36758" lon="6.7063">
        <ele>24</ele>
        <time>2018-10-14T12:21:47Z</time>
      </trkpt>
      <trkpt lat="43.36766" lon="6.70643">
        <ele>23.39999961853</ele>
        <time>2018-10-14T12:21:49Z</time>
      </trkpt>
      <trkpt lat="43.36773" lon="6.70653">
        <ele>22.799999237061</ele>
        <time>2018-10-14T12:21:51Z</time>
      </trkpt>
      <trkpt lat="43.36777" lon="6.70653">
        <ele>22.60000038147</ele>
        <time>2018-10-14T12:21:52Z</time>
      </trkpt>
      <trkpt lat="43.36782" lon="6.70644">
        <ele>22</ele>
        <time>2018-10-14T12:21:54Z</time>
      </trkpt>
      <trkpt lat="43.36783" lon="6.70638">
        <ele>21.60000038147</ele>
        <time>2018-10-14T12:21:55Z</time>
      </trkpt>
      <trkpt lat="43.36788" lon="6.70626">
        <ele>21.200000762939</ele>
        <time>2018-10-14T12:21:57Z</time>
      </trkpt>
      <trkpt lat="43.36793" lon="6.70614">
        <ele>20.60000038147</ele>
        <time>2018-10-14T12:21:59Z</time>
      </trkpt>
      <trkpt lat="43.36795" lon="6.70607">
        <ele>20.39999961853</ele>
        <time>2018-10-14T12:22:00Z</time>
      </trkpt>
      <trkpt lat="43.36795" lon="6.706">
        <ele>20.200000762939</ele>
        <time>2018-10-14T12:22:01Z</time>
      </trkpt>
      <trkpt lat="43.36793" lon="6.70588">
        <ele>19.799999237061</ele>
        <time>2018-10-14T12:22:03Z</time>
      </trkpt>
      <trkpt lat="43.3679" lon="6.70562">
        <ele>19</ele>
        <time>2018-10-14T12:22:08Z</time>
      </trkpt>
      <trkpt lat="43.36792" lon="6.70558">
        <ele>18.799999237061</ele>
        <time>2018-10-14T12:22:09Z</time>
      </trkpt>
      <trkpt lat="43.36795" lon="6.70547">
        <ele>18.60000038147</ele>
        <time>2018-10-14T12:22:11Z</time>
      </trkpt>
      <trkpt lat="43.36794" lon="6.70541">
        <ele>18.39999961853</ele>
        <time>2018-10-14T12:22:12Z</time>
      </trkpt>
      <trkpt lat="43.3679" lon="6.70529">
        <ele>18</ele>
        <time>2018-10-14T12:22:14Z</time>
      </trkpt>
      <trkpt lat="43.3679" lon="6.7051">
        <ele>17.39999961853</ele>
        <time>2018-10-14T12:22:17Z</time>
      </trkpt>
      <trkpt lat="43.3679" lon="6.7049">
        <ele>17</ele>
        <time>2018-10-14T12:22:20Z</time>
      </trkpt>
      <trkpt lat="43.36792" lon="6.70477">
        <ele>16.799999237061</ele>
        <time>2018-10-14T12:22:22Z</time>
      </trkpt>
      <trkpt lat="43.36793" lon="6.70465">
        <ele>16.39999961853</ele>
        <time>2018-10-14T12:22:24Z</time>
      </trkpt>
      <trkpt lat="43.36799" lon="6.7044">
        <ele>16</ele>
        <time>2018-10-14T12:22:29Z</time>
      </trkpt>
      <trkpt lat="43.36803" lon="6.70432">
        <ele>15.60000038147</ele>
        <time>2018-10-14T12:22:31Z</time>
      </trkpt>
      <trkpt lat="43.3681" lon="6.7043">
        <ele>15.39999961853</ele>
        <time>2018-10-14T12:22:33Z</time>
      </trkpt>
      <trkpt lat="43.36823" lon="6.70435">
        <ele>15</ele>
        <time>2018-10-14T12:22:37Z</time>
      </trkpt>
      <trkpt lat="43.36833" lon="6.7044">
        <ele>15.199999809265</ele>
        <time>2018-10-14T12:22:43Z</time>
      </trkpt>
      <trkpt lat="43.36842" lon="6.70449">
        <ele>15</ele>
        <time>2018-10-14T12:22:51Z</time>
      </trkpt>
      <trkpt lat="43.3685" lon="6.70457">
        <ele>15</ele>
        <time>2018-10-14T12:22:58Z</time>
      </trkpt>
      <trkpt lat="43.36856" lon="6.70465">
        <ele>15</ele>
        <time>2018-10-14T12:23:04Z</time>
      </trkpt>
      <trkpt lat="43.36862" lon="6.70477">
        <ele>15</ele>
        <time>2018-10-14T12:23:12Z</time>
      </trkpt>
      <trkpt lat="43.36865" lon="6.70484">
        <ele>15.199999809265</ele>
        <time>2018-10-14T12:23:18Z</time>
      </trkpt>
      <trkpt lat="43.36868" lon="6.70486">
        <ele>15.199999809265</ele>
        <time>2018-10-14T12:23:35Z</time>
      </trkpt>
      <trkpt lat="43.3687" lon="6.70492">
        <ele>15.199999809265</ele>
        <time>2018-10-14T12:23:38Z</time>
      </trkpt>
      <trkpt lat="43.36875" lon="6.70504">
        <ele>15.39999961853</ele>
        <time>2018-10-14T12:23:44Z</time>
      </trkpt>
      <trkpt lat="43.36877" lon="6.70513">
        <ele>15.60000038147</ele>
        <time>2018-10-14T12:23:49Z</time>
      </trkpt>
      <trkpt lat="43.36878" lon="6.70518">
        <ele>15.800000190735</ele>
        <time>2018-10-14T12:23:52Z</time>
      </trkpt>
      <trkpt lat="43.3688" lon="6.70525">
        <ele>16</ele>
        <time>2018-10-14T12:23:56Z</time>
      </trkpt>
      <trkpt lat="43.3688" lon="6.7053">
        <ele>16.200000762939</ele>
        <time>2018-10-14T12:23:59Z</time>
      </trkpt>
      <trkpt lat="43.36882" lon="6.70542">
        <ele>17</ele>
        <time>2018-10-14T12:24:07Z</time>
      </trkpt>
      <trkpt lat="43.36884" lon="6.70552">
        <ele>17.799999237061</ele>
        <time>2018-10-14T12:24:14Z</time>
      </trkpt>
      <trkpt lat="43.36886" lon="6.70556">
        <ele>18.200000762939</ele>
        <time>2018-10-14T12:24:18Z</time>
      </trkpt>
      <trkpt lat="43.36889" lon="6.70557">
        <ele>18.39999961853</ele>
        <time>2018-10-14T12:24:20Z</time>
      </trkpt>
      <trkpt lat="43.36895" lon="6.70552">
        <ele>18.799999237061</ele>
        <time>2018-10-14T12:24:26Z</time>
      </trkpt>
      <trkpt lat="43.36898" lon="6.70551">
        <ele>19.200000762939</ele>
        <time>2018-10-14T12:24:29Z</time>
      </trkpt>
      <trkpt lat="43.369" lon="6.70551">
        <ele>19.39999961853</ele>
        <time>2018-10-14T12:24:31Z</time>
      </trkpt>
      <trkpt lat="43.369" lon="6.70547">
        <ele>19.60000038147</ele>
        <time>2018-10-14T12:24:33Z</time>
      </trkpt>
      <trkpt lat="43.36903" lon="6.70547">
        <ele>20</ele>
        <time>2018-10-14T12:24:35Z</time>
      </trkpt>
      <trkpt lat="43.36905" lon="6.70549">
        <ele>20.200000762939</ele>
        <time>2018-10-14T12:24:37Z</time>
      </trkpt>
      <trkpt lat="43.36906" lon="6.70547">
        <ele>20.39999961853</ele>
        <time>2018-10-14T12:24:39Z</time>
      </trkpt>
      <trkpt lat="43.36907" lon="6.70546">
        <ele>20.60000038147</ele>
        <time>2018-10-14T12:24:40Z</time>
      </trkpt>
      <trkpt lat="43.36907" lon="6.70544">
        <ele>20.799999237061</ele>
        <time>2018-10-14T12:24:41Z</time>
      </trkpt>
      <trkpt lat="43.36911" lon="6.70545">
        <ele>21.200000762939</ele>
        <time>2018-10-14T12:24:44Z</time>
      </trkpt>
      <trkpt lat="43.36912" lon="6.70545">
        <ele>21.39999961853</ele>
        <time>2018-10-14T12:24:45Z</time>
      </trkpt>
      <trkpt lat="43.36916" lon="6.70541">
        <ele>22.200000762939</ele>
        <time>2018-10-14T12:24:50Z</time>
      </trkpt>
      <trkpt lat="43.36922" lon="6.70539">
        <ele>23.200000762939</ele>
        <time>2018-10-14T12:24:57Z</time>
      </trkpt>
      <trkpt lat="43.36928" lon="6.70535">
        <ele>24.39999961853</ele>
        <time>2018-10-14T12:25:05Z</time>
      </trkpt>
      <trkpt lat="43.36932" lon="6.70532">
        <ele>25.39999961853</ele>
        <time>2018-10-14T12:25:10Z</time>
      </trkpt>
      <trkpt lat="43.36935" lon="6.7053">
        <ele>25.799999237061</ele>
        <time>2018-10-14T12:25:13Z</time>
      </trkpt>
      <trkpt lat="43.36941" lon="6.70526">
        <ele>27</ele>
        <time>2018-10-14T12:25:20Z</time>
      </trkpt>
      <trkpt lat="43.36947" lon="6.70523">
        <ele>28</ele>
        <time>2018-10-14T12:25:27Z</time>
      </trkpt>
      <trkpt lat="43.36955" lon="6.70521">
        <ele>29.39999961853</ele>
        <time>2018-10-14T12:25:35Z</time>
      </trkpt>
      <trkpt lat="43.36957" lon="6.7052">
        <ele>29.60000038147</ele>
        <time>2018-10-14T12:25:37Z</time>
      </trkpt>
      <trkpt lat="43.36961" lon="6.70518">
        <ele>30.200000762939</ele>
        <time>2018-10-14T12:25:41Z</time>
      </trkpt>
      <trkpt lat="43.36967" lon="6.70515">
        <ele>31.200000762939</ele>
        <time>2018-10-14T12:25:47Z</time>
      </trkpt>
      <trkpt lat="43.36968" lon="6.70515">
        <ele>31.39999961853</ele>
        <time>2018-10-14T12:25:48Z</time>
      </trkpt>
      <trkpt lat="43.36969" lon="6.70514">
        <ele>31.799999237061</ele>
        <time>2018-10-14T12:25:50Z</time>
      </trkpt>
      <trkpt lat="43.36973" lon="6.70514">
        <ele>32.200000762939</ele>
        <time>2018-10-14T12:25:53Z</time>
      </trkpt>
      <trkpt lat="43.36974" lon="6.70513">
        <ele>32.400001525879</ele>
        <time>2018-10-14T12:25:54Z</time>
      </trkpt>
      <trkpt lat="43.36983" lon="6.70507">
        <ele>33.799999237061</ele>
        <time>2018-10-14T12:26:02Z</time>
      </trkpt>
      <trkpt lat="43.3699" lon="6.705">
        <ele>35</ele>
        <time>2018-10-14T12:26:10Z</time>
      </trkpt>
      <trkpt lat="43.36998" lon="6.70491">
        <ele>36.799999237061</ele>
        <time>2018-10-14T12:26:19Z</time>
      </trkpt>
      <trkpt lat="43.37007" lon="6.7048">
        <ele>38.200000762939</ele>
        <time>2018-10-14T12:26:29Z</time>
      </trkpt>
      <trkpt lat="43.37015" lon="6.7047">
        <ele>39</ele>
        <time>2018-10-14T12:26:36Z</time>
      </trkpt>
      <trkpt lat="43.37022" lon="6.70461">
        <ele>39.599998474121</ele>
        <time>2018-10-14T12:26:42Z</time>
      </trkpt>
      <trkpt lat="43.37029" lon="6.70448">
        <ele>41</ele>
        <time>2018-10-14T12:26:50Z</time>
      </trkpt>
      <trkpt lat="43.37038" lon="6.70435">
        <ele>42.200000762939</ele>
        <time>2018-10-14T12:26:58Z</time>
      </trkpt>
      <trkpt lat="43.37049" lon="6.7042">
        <ele>43.200000762939</ele>
        <time>2018-10-14T12:27:07Z</time>
      </trkpt>
      <trkpt lat="43.37058" lon="6.70405">
        <ele>44.400001525879</ele>
        <time>2018-10-14T12:27:15Z</time>
      </trkpt>
      <trkpt lat="43.37066" lon="6.7039">
        <ele>45.400001525879</ele>
        <time>2018-10-14T12:27:23Z</time>
      </trkpt>
      <trkpt lat="43.37077" lon="6.70376">
        <ele>46.599998474121</ele>
        <time>2018-10-14T12:27:32Z</time>
      </trkpt>
      <trkpt lat="43.37088" lon="6.70359">
        <ele>47.599998474121</ele>
        <time>2018-10-14T12:27:39Z</time>
      </trkpt>
      <trkpt lat="43.37098" lon="6.70338">
        <ele>48.200000762939</ele>
        <time>2018-10-14T12:27:45Z</time>
      </trkpt>
      <trkpt lat="43.37106" lon="6.70307">
        <ele>48.599998474121</ele>
        <time>2018-10-14T12:27:52Z</time>
      </trkpt>
      <trkpt lat="43.37113" lon="6.70293">
        <ele>48.799999237061</ele>
        <time>2018-10-14T12:27:55Z</time>
      </trkpt>
      <trkpt lat="43.37115" lon="6.70284">
        <ele>49.200000762939</ele>
        <time>2018-10-14T12:27:57Z</time>
      </trkpt>
      <trkpt lat="43.37121" lon="6.70264">
        <ele>49.799999237061</ele>
        <time>2018-10-14T12:28:03Z</time>
      </trkpt>
      <trkpt lat="43.37124" lon="6.70249">
        <ele>50.400001525879</ele>
        <time>2018-10-14T12:28:10Z</time>
      </trkpt>
      <trkpt lat="43.3713" lon="6.70233">
        <ele>51.400001525879</ele>
        <time>2018-10-14T12:28:18Z</time>
      </trkpt>
      <trkpt lat="43.37134" lon="6.7022">
        <ele>52.200000762939</ele>
        <time>2018-10-14T12:28:25Z</time>
      </trkpt>
      <trkpt lat="43.37142" lon="6.70204">
        <ele>53.200000762939</ele>
        <time>2018-10-14T12:28:34Z</time>
      </trkpt>
      <trkpt lat="43.37152" lon="6.70193">
        <ele>54.200000762939</ele>
        <time>2018-10-14T12:28:42Z</time>
      </trkpt>
      <trkpt lat="43.37164" lon="6.70187">
        <ele>54.799999237061</ele>
        <time>2018-10-14T12:28:50Z</time>
      </trkpt>
      <trkpt lat="43.37177" lon="6.70182">
        <ele>55.400001525879</ele>
        <time>2018-10-14T12:28:58Z</time>
      </trkpt>
      <trkpt lat="43.37191" lon="6.70176">
        <ele>56.599998474121</ele>
        <time>2018-10-14T12:29:08Z</time>
      </trkpt>
      <trkpt lat="43.372" lon="6.70172">
        <ele>57.200000762939</ele>
        <time>2018-10-14T12:29:15Z</time>
      </trkpt>
      <trkpt lat="43.37209" lon="6.70169">
        <ele>58.200000762939</ele>
        <time>2018-10-14T12:29:21Z</time>
      </trkpt>
      <trkpt lat="43.37217" lon="6.70165">
        <ele>59</ele>
        <time>2018-10-14T12:29:28Z</time>
      </trkpt>
      <trkpt lat="43.37226" lon="6.70164">
        <ele>59.599998474121</ele>
        <time>2018-10-14T12:29:35Z</time>
      </trkpt>
      <trkpt lat="43.37236" lon="6.70163">
        <ele>60.400001525879</ele>
        <time>2018-10-14T12:29:43Z</time>
      </trkpt>
      <trkpt lat="43.37244" lon="6.70162">
        <ele>61.200000762939</ele>
        <time>2018-10-14T12:29:50Z</time>
      </trkpt>
      <trkpt lat="43.37254" lon="6.7016">
        <ele>62.400001525879</ele>
        <time>2018-10-14T12:29:58Z</time>
      </trkpt>
      <trkpt lat="43.37262" lon="6.70159">
        <ele>63.400001525879</ele>
        <time>2018-10-14T12:30:05Z</time>
      </trkpt>
      <trkpt lat="43.37272" lon="6.70159">
        <ele>64.599998474121</ele>
        <time>2018-10-14T12:30:13Z</time>
      </trkpt>
      <trkpt lat="43.37282" lon="6.70156">
        <ele>65.800003051758</ele>
        <time>2018-10-14T12:30:21Z</time>
      </trkpt>
      <trkpt lat="43.3729" lon="6.70153">
        <ele>66.400001525879</ele>
        <time>2018-10-14T12:30:27Z</time>
      </trkpt>
      <trkpt lat="43.37295" lon="6.7015">
        <ele>67.199996948242</ele>
        <time>2018-10-14T12:30:32Z</time>
      </trkpt>
      <trkpt lat="43.37297" lon="6.70148">
        <ele>67.400001525879</ele>
        <time>2018-10-14T12:30:34Z</time>
      </trkpt>
      <trkpt lat="43.37304" lon="6.70142">
        <ele>68.400001525879</ele>
        <time>2018-10-14T12:30:41Z</time>
      </trkpt>
      <trkpt lat="43.37309" lon="6.70132">
        <ele>69</ele>
        <time>2018-10-14T12:30:48Z</time>
      </trkpt>
      <trkpt lat="43.37312" lon="6.70124">
        <ele>70</ele>
        <time>2018-10-14T12:30:55Z</time>
      </trkpt>
      <trkpt lat="43.37315" lon="6.70114">
        <ele>71</ele>
        <time>2018-10-14T12:31:02Z</time>
      </trkpt>
      <trkpt lat="43.37316" lon="6.70111">
        <ele>71.599998474121</ele>
        <time>2018-10-14T12:31:05Z</time>
      </trkpt>
      <trkpt lat="43.37319" lon="6.70108">
        <ele>72.199996948242</ele>
        <time>2018-10-14T12:31:08Z</time>
      </trkpt>
      <trkpt lat="43.37319" lon="6.70107">
        <ele>72.400001525879</ele>
        <time>2018-10-14T12:31:09Z</time>
      </trkpt>
      <trkpt lat="43.37322" lon="6.70102">
        <ele>73.199996948242</ele>
        <time>2018-10-14T12:31:14Z</time>
      </trkpt>
      <trkpt lat="43.37326" lon="6.70093">
        <ele>74.800003051758</ele>
        <time>2018-10-14T12:31:23Z</time>
      </trkpt>
      <trkpt lat="43.3733" lon="6.70087">
        <ele>75.599998474121</ele>
        <time>2018-10-14T12:31:28Z</time>
      </trkpt>
      <trkpt lat="43.37331" lon="6.70085">
        <ele>76</ele>
        <time>2018-10-14T12:31:30Z</time>
      </trkpt>
      <trkpt lat="43.37336" lon="6.70079">
        <ele>77.199996948242</ele>
        <time>2018-10-14T12:31:37Z</time>
      </trkpt>
      <trkpt lat="43.3734" lon="6.70071">
        <ele>78.599998474121</ele>
        <time>2018-10-14T12:31:44Z</time>
      </trkpt>
      <trkpt lat="43.3734" lon="6.7007">
        <ele>78.599998474121</ele>
        <time>2018-10-14T12:31:45Z</time>
      </trkpt>
      <trkpt lat="43.37342" lon="6.70062">
        <ele>79.800003051758</ele>
        <time>2018-10-14T12:31:51Z</time>
      </trkpt>
      <trkpt lat="43.37345" lon="6.70057">
        <ele>80.400001525879</ele>
        <time>2018-10-14T12:31:56Z</time>
      </trkpt>
      <trkpt lat="43.37348" lon="6.70055">
        <ele>81</ele>
        <time>2018-10-14T12:31:59Z</time>
      </trkpt>
      <trkpt lat="43.37352" lon="6.70045">
        <ele>82.599998474121</ele>
        <time>2018-10-14T12:32:07Z</time>
      </trkpt>
      <trkpt lat="43.37353" lon="6.70042">
        <ele>83</ele>
        <time>2018-10-14T12:32:10Z</time>
      </trkpt>
      <trkpt lat="43.37356" lon="6.70039">
        <ele>83.599998474121</ele>
        <time>2018-10-14T12:32:14Z</time>
      </trkpt>
      <trkpt lat="43.3736" lon="6.70029">
        <ele>85</ele>
        <time>2018-10-14T12:32:23Z</time>
      </trkpt>
      <trkpt lat="43.37363" lon="6.70023">
        <ele>85.800003051758</ele>
        <time>2018-10-14T12:32:29Z</time>
      </trkpt>
      <trkpt lat="43.37363" lon="6.70022">
        <ele>86.400001525879</ele>
        <time>2018-10-14T12:32:31Z</time>
      </trkpt>
      <trkpt lat="43.37366" lon="6.70013">
        <ele>87.400001525879</ele>
        <time>2018-10-14T12:32:38Z</time>
      </trkpt>
      <trkpt lat="43.37367" lon="6.70012">
        <ele>88</ele>
        <time>2018-10-14T12:32:40Z</time>
      </trkpt>
      <trkpt lat="43.3737" lon="6.70007">
        <ele>88.800003051758</ele>
        <time>2018-10-14T12:32:45Z</time>
      </trkpt>
      <trkpt lat="43.37371" lon="6.70006">
        <ele>89</ele>
        <time>2018-10-14T12:32:46Z</time>
      </trkpt>
      <trkpt lat="43.37372" lon="6.70006">
        <ele>89.400001525879</ele>
        <time>2018-10-14T12:32:48Z</time>
      </trkpt>
      <trkpt lat="43.37376" lon="6.70006">
        <ele>90</ele>
        <time>2018-10-14T12:32:51Z</time>
      </trkpt>
      <trkpt lat="43.37382" lon="6.70007">
        <ele>91</ele>
        <time>2018-10-14T12:32:57Z</time>
      </trkpt>
      <trkpt lat="43.37386" lon="6.70014">
        <ele>92</ele>
        <time>2018-10-14T12:33:04Z</time>
      </trkpt>
      <trkpt lat="43.37391" lon="6.7002">
        <ele>93</ele>
        <time>2018-10-14T12:33:10Z</time>
      </trkpt>
      <trkpt lat="43.37395" lon="6.7003">
        <ele>93.800003051758</ele>
        <time>2018-10-14T12:33:17Z</time>
      </trkpt>
      <trkpt lat="43.37399" lon="6.70037">
        <ele>94.800003051758</ele>
        <time>2018-10-14T12:33:23Z</time>
      </trkpt>
      <trkpt lat="43.37405" lon="6.70039">
        <ele>95.800003051758</ele>
        <time>2018-10-14T12:33:29Z</time>
      </trkpt>
      <trkpt lat="43.37407" lon="6.7004">
        <ele>96.199996948242</ele>
        <time>2018-10-14T12:33:31Z</time>
      </trkpt>
      <trkpt lat="43.37416" lon="6.70039">
        <ele>97.400001525879</ele>
        <time>2018-10-14T12:33:39Z</time>
      </trkpt>
      <trkpt lat="43.37418" lon="6.70037">
        <ele>97.800003051758</ele>
        <time>2018-10-14T12:33:41Z</time>
      </trkpt>
      <trkpt lat="43.37422" lon="6.70034">
        <ele>98.599998474121</ele>
        <time>2018-10-14T12:33:45Z</time>
      </trkpt>
      <trkpt lat="43.37428" lon="6.70024">
        <ele>99.599998474121</ele>
        <time>2018-10-14T12:33:52Z</time>
      </trkpt>
      <trkpt lat="43.37436" lon="6.70012">
        <ele>100.59999847412</ele>
        <time>2018-10-14T12:33:58Z</time>
      </trkpt>
      <trkpt lat="43.37449" lon="6.70001">
        <ele>101.19999694824</ele>
        <time>2018-10-14T12:34:04Z</time>
      </trkpt>
      <trkpt lat="43.37461" lon="6.69983">
        <ele>102.19999694824</ele>
        <time>2018-10-14T12:34:11Z</time>
      </trkpt>
      <trkpt lat="43.37473" lon="6.69967">
        <ele>103.40000152588</ele>
        <time>2018-10-14T12:34:19Z</time>
      </trkpt>
      <trkpt lat="43.37481" lon="6.69957">
        <ele>104.59999847412</ele>
        <time>2018-10-14T12:34:25Z</time>
      </trkpt>
      <trkpt lat="43.3749" lon="6.6995">
        <ele>105.40000152588</ele>
        <time>2018-10-14T12:34:31Z</time>
      </trkpt>
      <trkpt lat="43.375" lon="6.69945">
        <ele>106</ele>
        <time>2018-10-14T12:34:37Z</time>
      </trkpt>
      <trkpt lat="43.37506" lon="6.69944">
        <ele>106.59999847412</ele>
        <time>2018-10-14T12:34:41Z</time>
      </trkpt>
      <trkpt lat="43.37508" lon="6.69945">
        <ele>106.59999847412</ele>
        <time>2018-10-14T12:34:42Z</time>
      </trkpt>
      <trkpt lat="43.37518" lon="6.69955">
        <ele>107.59999847412</ele>
        <time>2018-10-14T12:34:49Z</time>
      </trkpt>
      <trkpt lat="43.37524" lon="6.6997">
        <ele>108.40000152588</ele>
        <time>2018-10-14T12:34:55Z</time>
      </trkpt>
      <trkpt lat="43.37533" lon="6.69988">
        <ele>109.40000152588</ele>
        <time>2018-10-14T12:35:03Z</time>
      </trkpt>
      <trkpt lat="43.37542" lon="6.69999">
        <ele>110.19999694824</ele>
        <time>2018-10-14T12:35:10Z</time>
      </trkpt>
      <trkpt lat="43.37553" lon="6.70004">
        <ele>111.19999694824</ele>
        <time>2018-10-14T12:35:17Z</time>
      </trkpt>
      <trkpt lat="43.37565" lon="6.70005">
        <ele>112.59999847412</ele>
        <time>2018-10-14T12:35:25Z</time>
      </trkpt>
      <trkpt lat="43.37576" lon="6.70002">
        <ele>113.59999847412</ele>
        <time>2018-10-14T12:35:32Z</time>
      </trkpt>
      <trkpt lat="43.37587" lon="6.7">
        <ele>114.19999694824</ele>
        <time>2018-10-14T12:35:38Z</time>
      </trkpt>
      <trkpt lat="43.37601" lon="6.7">
        <ele>115.19999694824</ele>
        <time>2018-10-14T12:35:45Z</time>
      </trkpt>
      <trkpt lat="43.37607" lon="6.69996">
        <ele>115.59999847412</ele>
        <time>2018-10-14T12:35:48Z</time>
      </trkpt>
      <trkpt lat="43.37611" lon="6.69993">
        <ele>115.80000305176</ele>
        <time>2018-10-14T12:35:50Z</time>
      </trkpt>
      <trkpt lat="43.37624" lon="6.69984">
        <ele>116.19999694824</ele>
        <time>2018-10-14T12:35:54Z</time>
      </trkpt>
      <trkpt lat="43.37639" lon="6.69981">
        <ele>116.40000152588</ele>
        <time>2018-10-14T12:35:58Z</time>
      </trkpt>
      <trkpt lat="43.37652" lon="6.69977">
        <ele>116.40000152588</ele>
        <time>2018-10-14T12:36:01Z</time>
      </trkpt>
      <trkpt lat="43.37657" lon="6.69976">
        <ele>116.40000152588</ele>
        <time>2018-10-14T12:36:02Z</time>
      </trkpt>
      <trkpt lat="43.37661" lon="6.69973">
        <ele>116.40000152588</ele>
        <time>2018-10-14T12:36:03Z</time>
      </trkpt>
      <trkpt lat="43.37671" lon="6.69968">
        <ele>116.40000152588</ele>
        <time>2018-10-14T12:36:05Z</time>
      </trkpt>
      <trkpt lat="43.37676" lon="6.69966">
        <ele>116.40000152588</ele>
        <time>2018-10-14T12:36:06Z</time>
      </trkpt>
      <trkpt lat="43.37681" lon="6.69962">
        <ele>116.19999694824</ele>
        <time>2018-10-14T12:36:07Z</time>
      </trkpt>
      <trkpt lat="43.37694" lon="6.69949">
        <ele>116.19999694824</ele>
        <time>2018-10-14T12:36:10Z</time>
      </trkpt>
      <trkpt lat="43.3771" lon="6.69933">
        <ele>116</ele>
        <time>2018-10-14T12:36:13Z</time>
      </trkpt>
      <trkpt lat="43.37715" lon="6.69932">
        <ele>115.80000305176</ele>
        <time>2018-10-14T12:36:14Z</time>
      </trkpt>
      <trkpt lat="43.37719" lon="6.69934">
        <ele>115.80000305176</ele>
        <time>2018-10-14T12:36:15Z</time>
      </trkpt>
      <trkpt lat="43.37721" lon="6.69937">
        <ele>115.59999847412</ele>
        <time>2018-10-14T12:36:16Z</time>
      </trkpt>
      <trkpt lat="43.37726" lon="6.69948">
        <ele>115.59999847412</ele>
        <time>2018-10-14T12:36:20Z</time>
      </trkpt>
      <trkpt lat="43.37727" lon="6.69949">
        <ele>115.59999847412</ele>
        <time>2018-10-14T12:36:21Z</time>
      </trkpt>
      <trkpt lat="43.37728" lon="6.69951">
        <ele>115.59999847412</ele>
        <time>2018-10-14T12:36:22Z</time>
      </trkpt>
      <trkpt lat="43.37728" lon="6.69956">
        <ele>115.59999847412</ele>
        <time>2018-10-14T12:36:24Z</time>
      </trkpt>
      <trkpt lat="43.37729" lon="6.69958">
        <ele>115.59999847412</ele>
        <time>2018-10-14T12:36:25Z</time>
      </trkpt>
      <trkpt lat="43.37732" lon="6.69963">
        <ele>115.40000152588</ele>
        <time>2018-10-14T12:36:29Z</time>
      </trkpt>
      <trkpt lat="43.37733" lon="6.69964">
        <ele>115.40000152588</ele>
        <time>2018-10-14T12:36:30Z</time>
      </trkpt>
      <trkpt lat="43.37734" lon="6.69965">
        <ele>115.40000152588</ele>
        <time>2018-10-14T12:36:31Z</time>
      </trkpt>
      <trkpt lat="43.37738" lon="6.69969">
        <ele>115.19999694824</ele>
        <time>2018-10-14T12:36:35Z</time>
      </trkpt>
      <trkpt lat="43.37744" lon="6.69978">
        <ele>115.59999847412</ele>
        <time>2018-10-14T12:36:42Z</time>
      </trkpt>
      <trkpt lat="43.37748" lon="6.69982">
        <ele>115.80000305176</ele>
        <time>2018-10-14T12:36:48Z</time>
      </trkpt>
      <trkpt lat="43.37748" lon="6.69984">
        <ele>115.80000305176</ele>
        <time>2018-10-14T12:36:49Z</time>
      </trkpt>
      <trkpt lat="43.3775" lon="6.69986">
        <ele>116</ele>
        <time>2018-10-14T12:36:51Z</time>
      </trkpt>
      <trkpt lat="43.37751" lon="6.69988">
        <ele>116.19999694824</ele>
        <time>2018-10-14T12:36:53Z</time>
      </trkpt>
      <trkpt lat="43.37756" lon="6.69992">
        <ele>117</ele>
        <time>2018-10-14T12:37:00Z</time>
      </trkpt>
      <trkpt lat="43.37757" lon="6.69994">
        <ele>117.19999694824</ele>
        <time>2018-10-14T12:37:03Z</time>
      </trkpt>
      <trkpt lat="43.3776" lon="6.69996">
        <ele>117.40000152588</ele>
        <time>2018-10-14T12:37:05Z</time>
      </trkpt>
      <trkpt lat="43.37769" lon="6.7">
        <ele>118</ele>
        <time>2018-10-14T12:37:13Z</time>
      </trkpt>
      <trkpt lat="43.37773" lon="6.70004">
        <ele>118.19999694824</ele>
        <time>2018-10-14T12:37:17Z</time>
      </trkpt>
      <trkpt lat="43.37776" lon="6.70007">
        <ele>118.59999847412</ele>
        <time>2018-10-14T12:37:20Z</time>
      </trkpt>
      <trkpt lat="43.37781" lon="6.70013">
        <ele>119</ele>
        <time>2018-10-14T12:37:26Z</time>
      </trkpt>
      <trkpt lat="43.37787" lon="6.70015">
        <ele>120</ele>
        <time>2018-10-14T12:37:34Z</time>
      </trkpt>
      <trkpt lat="43.37792" lon="6.70019">
        <ele>120.59999847412</ele>
        <time>2018-10-14T12:37:40Z</time>
      </trkpt>
      <trkpt lat="43.37797" lon="6.70022">
        <ele>121.40000152588</ele>
        <time>2018-10-14T12:37:46Z</time>
      </trkpt>
      <trkpt lat="43.37803" lon="6.70027">
        <ele>121.80000305176</ele>
        <time>2018-10-14T12:37:52Z</time>
      </trkpt>
      <trkpt lat="43.37808" lon="6.70028">
        <ele>122.40000152588</ele>
        <time>2018-10-14T12:37:59Z</time>
      </trkpt>
      <trkpt lat="43.37816" lon="6.70028">
        <ele>123</ele>
        <time>2018-10-14T12:38:06Z</time>
      </trkpt>
      <trkpt lat="43.37827" lon="6.70031">
        <ele>123.40000152588</ele>
        <time>2018-10-14T12:38:12Z</time>
      </trkpt>
      <trkpt lat="43.37839" lon="6.70033">
        <ele>124.19999694824</ele>
        <time>2018-10-14T12:38:18Z</time>
      </trkpt>
      <trkpt lat="43.37853" lon="6.70038">
        <ele>125.19999694824</ele>
        <time>2018-10-14T12:38:27Z</time>
      </trkpt>
      <trkpt lat="43.37864" lon="6.70046">
        <ele>125.80000305176</ele>
        <time>2018-10-14T12:38:33Z</time>
      </trkpt>
      <trkpt lat="43.37875" lon="6.70058">
        <ele>126.40000152588</ele>
        <time>2018-10-14T12:38:38Z</time>
      </trkpt>
      <trkpt lat="43.37887" lon="6.70071">
        <ele>126.80000305176</ele>
        <time>2018-10-14T12:38:42Z</time>
      </trkpt>
      <trkpt lat="43.37894" lon="6.70085">
        <ele>127</ele>
        <time>2018-10-14T12:38:45Z</time>
      </trkpt>
      <trkpt lat="43.37898" lon="6.70098">
        <ele>127.19999694824</ele>
        <time>2018-10-14T12:38:47Z</time>
      </trkpt>
      <trkpt lat="43.37899" lon="6.70105">
        <ele>127.19999694824</ele>
        <time>2018-10-14T12:38:48Z</time>
      </trkpt>
      <trkpt lat="43.37906" lon="6.70129">
        <ele>127.19999694824</ele>
        <time>2018-10-14T12:38:51Z</time>
      </trkpt>
      <trkpt lat="43.37908" lon="6.70139">
        <ele>127.19999694824</ele>
        <time>2018-10-14T12:38:52Z</time>
      </trkpt>
      <trkpt lat="43.37912" lon="6.70161">
        <ele>127</ele>
        <time>2018-10-14T12:38:54Z</time>
      </trkpt>
      <trkpt lat="43.37915" lon="6.70171">
        <ele>127</ele>
        <time>2018-10-14T12:38:55Z</time>
      </trkpt>
      <trkpt lat="43.37918" lon="6.7018">
        <ele>127</ele>
        <time>2018-10-14T12:38:56Z</time>
      </trkpt>
      <trkpt lat="43.37925" lon="6.70192">
        <ele>127.40000152588</ele>
        <time>2018-10-14T12:38:58Z</time>
      </trkpt>
      <trkpt lat="43.37927" lon="6.70197">
        <ele>127.40000152588</ele>
        <time>2018-10-14T12:38:59Z</time>
      </trkpt>
      <trkpt lat="43.37937" lon="6.70206">
        <ele>127.80000305176</ele>
        <time>2018-10-14T12:39:03Z</time>
      </trkpt>
      <trkpt lat="43.37946" lon="6.70212">
        <ele>128.60000610352</ele>
        <time>2018-10-14T12:39:09Z</time>
      </trkpt>
      <trkpt lat="43.37954" lon="6.70219">
        <ele>129.19999694824</ele>
        <time>2018-10-14T12:39:16Z</time>
      </trkpt>
      <trkpt lat="43.37956" lon="6.70223">
        <ele>129.60000610352</ele>
        <time>2018-10-14T12:39:19Z</time>
      </trkpt>
      <trkpt lat="43.37958" lon="6.70227">
        <ele>130</ele>
        <time>2018-10-14T12:39:22Z</time>
      </trkpt>
      <trkpt lat="43.37958" lon="6.70228">
        <ele>130</ele>
        <time>2018-10-14T12:39:23Z</time>
      </trkpt>
      <trkpt lat="43.37958" lon="6.70236">
        <ele>130.39999389648</ele>
        <time>2018-10-14T12:39:27Z</time>
      </trkpt>
      <trkpt lat="43.37957" lon="6.70248">
        <ele>131.39999389648</ele>
        <time>2018-10-14T12:39:35Z</time>
      </trkpt>
      <trkpt lat="43.37957" lon="6.7025">
        <ele>131.39999389648</ele>
        <time>2018-10-14T12:39:36Z</time>
      </trkpt>
      <trkpt lat="43.37958" lon="6.70256">
        <ele>131.80000305176</ele>
        <time>2018-10-14T12:39:41Z</time>
      </trkpt>
      <trkpt lat="43.37957" lon="6.70259">
        <ele>132.19999694824</ele>
        <time>2018-10-14T12:39:43Z</time>
      </trkpt>
      <trkpt lat="43.37957" lon="6.70273">
        <ele>133.19999694824</ele>
        <time>2018-10-14T12:39:52Z</time>
      </trkpt>
      <trkpt lat="43.3796" lon="6.70282">
        <ele>134.19999694824</ele>
        <time>2018-10-14T12:39:59Z</time>
      </trkpt>
      <trkpt lat="43.37962" lon="6.7029">
        <ele>135.19999694824</ele>
        <time>2018-10-14T12:40:04Z</time>
      </trkpt>
      <trkpt lat="43.37963" lon="6.70293">
        <ele>135.60000610352</ele>
        <time>2018-10-14T12:40:06Z</time>
      </trkpt>
      <trkpt lat="43.37966" lon="6.70303">
        <ele>136.19999694824</ele>
        <time>2018-10-14T12:40:13Z</time>
      </trkpt>
      <trkpt lat="43.37972" lon="6.70304">
        <ele>136.80000305176</ele>
        <time>2018-10-14T12:40:18Z</time>
      </trkpt>
      <trkpt lat="43.37981" lon="6.70303">
        <ele>137.80000305176</ele>
        <time>2018-10-14T12:40:25Z</time>
      </trkpt>
      <trkpt lat="43.37993" lon="6.703">
        <ele>138.39999389648</ele>
        <time>2018-10-14T12:40:30Z</time>
      </trkpt>
      <trkpt lat="43.38013" lon="6.70293">
        <ele>139.19999694824</ele>
        <time>2018-10-14T12:40:35Z</time>
      </trkpt>
      <trkpt lat="43.38035" lon="6.70293">
        <ele>139.60000610352</ele>
        <time>2018-10-14T12:40:40Z</time>
      </trkpt>
      <trkpt lat="43.38058" lon="6.70297">
        <ele>140.19999694824</ele>
        <time>2018-10-14T12:40:46Z</time>
      </trkpt>
      <trkpt lat="43.38067" lon="6.70299">
        <ele>140.39999389648</ele>
        <time>2018-10-14T12:40:48Z</time>
      </trkpt>
      <trkpt lat="43.38083" lon="6.70299">
        <ele>140.60000610352</ele>
        <time>2018-10-14T12:40:51Z</time>
      </trkpt>
      <trkpt lat="43.38096" lon="6.703">
        <ele>140.60000610352</ele>
        <time>2018-10-14T12:40:53Z</time>
      </trkpt>
      <trkpt lat="43.3811" lon="6.70306">
        <ele>140.60000610352</ele>
        <time>2018-10-14T12:40:55Z</time>
      </trkpt>
      <trkpt lat="43.38154" lon="6.7033">
        <ele>140.60000610352</ele>
        <time>2018-10-14T12:41:01Z</time>
      </trkpt>
      <trkpt lat="43.38175" lon="6.70345">
        <ele>140.60000610352</ele>
        <time>2018-10-14T12:41:04Z</time>
      </trkpt>
      <trkpt lat="43.38181" lon="6.70352">
        <ele>140.60000610352</ele>
        <time>2018-10-14T12:41:05Z</time>
      </trkpt>
      <trkpt lat="43.38187" lon="6.70359">
        <ele>140.60000610352</ele>
        <time>2018-10-14T12:41:06Z</time>
      </trkpt>
      <trkpt lat="43.38201" lon="6.70367">
        <ele>140.39999389648</ele>
        <time>2018-10-14T12:41:08Z</time>
      </trkpt>
      <trkpt lat="43.38214" lon="6.70372">
        <ele>140.19999694824</ele>
        <time>2018-10-14T12:41:10Z</time>
      </trkpt>
      <trkpt lat="43.3822" lon="6.70379">
        <ele>140</ele>
        <time>2018-10-14T12:41:11Z</time>
      </trkpt>
      <trkpt lat="43.38232" lon="6.70394">
        <ele>139.39999389648</ele>
        <time>2018-10-14T12:41:13Z</time>
      </trkpt>
      <trkpt lat="43.38248" lon="6.70403">
        <ele>139</ele>
        <time>2018-10-14T12:41:15Z</time>
      </trkpt>
      <trkpt lat="43.38277" lon="6.7041">
        <ele>138.19999694824</ele>
        <time>2018-10-14T12:41:18Z</time>
      </trkpt>
      <trkpt lat="43.38284" lon="6.70416">
        <ele>137.80000305176</ele>
        <time>2018-10-14T12:41:19Z</time>
      </trkpt>
      <trkpt lat="43.3829" lon="6.70424">
        <ele>137.80000305176</ele>
        <time>2018-10-14T12:41:20Z</time>
      </trkpt>
      <trkpt lat="43.38299" lon="6.70441">
        <ele>137.80000305176</ele>
        <time>2018-10-14T12:41:22Z</time>
      </trkpt>
      <trkpt lat="43.38309" lon="6.70455">
        <ele>137.60000610352</ele>
        <time>2018-10-14T12:41:24Z</time>
      </trkpt>
      <trkpt lat="43.38321" lon="6.70466">
        <ele>137.39999389648</ele>
        <time>2018-10-14T12:41:26Z</time>
      </trkpt>
      <trkpt lat="43.38348" lon="6.70485">
        <ele>136.80000305176</ele>
        <time>2018-10-14T12:41:30Z</time>
      </trkpt>
      <trkpt lat="43.38356" lon="6.70502">
        <ele>136.60000610352</ele>
        <time>2018-10-14T12:41:32Z</time>
      </trkpt>
      <trkpt lat="43.38359" lon="6.70509">
        <ele>136.39999389648</ele>
        <time>2018-10-14T12:41:33Z</time>
      </trkpt>
      <trkpt lat="43.38363" lon="6.70514">
        <ele>136.39999389648</ele>
        <time>2018-10-14T12:41:34Z</time>
      </trkpt>
      <trkpt lat="43.38368" lon="6.70515">
        <ele>136.19999694824</ele>
        <time>2018-10-14T12:41:35Z</time>
      </trkpt>
      <trkpt lat="43.38374" lon="6.70514">
        <ele>136</ele>
        <time>2018-10-14T12:41:36Z</time>
      </trkpt>
      <trkpt lat="43.38386" lon="6.70513">
        <ele>135.60000610352</ele>
        <time>2018-10-14T12:41:38Z</time>
      </trkpt>
      <trkpt lat="43.38395" lon="6.70516">
        <ele>135</ele>
        <time>2018-10-14T12:41:40Z</time>
      </trkpt>
      <trkpt lat="43.38399" lon="6.70519">
        <ele>134.60000610352</ele>
        <time>2018-10-14T12:41:41Z</time>
      </trkpt>
      <trkpt lat="43.38404" lon="6.70524">
        <ele>134.19999694824</ele>
        <time>2018-10-14T12:41:42Z</time>
      </trkpt>
      <trkpt lat="43.38415" lon="6.70541">
        <ele>133.19999694824</ele>
        <time>2018-10-14T12:41:45Z</time>
      </trkpt>
      <trkpt lat="43.38433" lon="6.70565">
        <ele>131.39999389648</ele>
        <time>2018-10-14T12:41:49Z</time>
      </trkpt>
      <trkpt lat="43.38443" lon="6.7058">
        <ele>130.39999389648</ele>
        <time>2018-10-14T12:41:51Z</time>
      </trkpt>
      <trkpt lat="43.38449" lon="6.70583">
        <ele>130</ele>
        <time>2018-10-14T12:41:52Z</time>
      </trkpt>
      <trkpt lat="43.38456" lon="6.70584">
        <ele>129.39999389648</ele>
        <time>2018-10-14T12:41:53Z</time>
      </trkpt>
      <trkpt lat="43.38473" lon="6.70584">
        <ele>128.39999389648</ele>
        <time>2018-10-14T12:41:55Z</time>
      </trkpt>
      <trkpt lat="43.38487" lon="6.70584">
        <ele>127.40000152588</ele>
        <time>2018-10-14T12:41:57Z</time>
      </trkpt>
      <trkpt lat="43.38492" lon="6.70588">
        <ele>126.80000305176</ele>
        <time>2018-10-14T12:41:58Z</time>
      </trkpt>
      <trkpt lat="43.38495" lon="6.70594">
        <ele>126.40000152588</ele>
        <time>2018-10-14T12:41:59Z</time>
      </trkpt>
      <trkpt lat="43.38503" lon="6.70606">
        <ele>125.40000152588</ele>
        <time>2018-10-14T12:42:01Z</time>
      </trkpt>
      <trkpt lat="43.38522" lon="6.70636">
        <ele>123.80000305176</ele>
        <time>2018-10-14T12:42:05Z</time>
      </trkpt>
      <trkpt lat="43.38548" lon="6.70682">
        <ele>122</ele>
        <time>2018-10-14T12:42:10Z</time>
      </trkpt>
      <trkpt lat="43.38557" lon="6.70695">
        <ele>121.80000305176</ele>
        <time>2018-10-14T12:42:12Z</time>
      </trkpt>
      <trkpt lat="43.38559" lon="6.70699">
        <ele>121.59999847412</ele>
        <time>2018-10-14T12:42:13Z</time>
      </trkpt>
      <trkpt lat="43.38562" lon="6.70706">
        <ele>121.40000152588</ele>
        <time>2018-10-14T12:42:17Z</time>
      </trkpt>
      <trkpt lat="43.38563" lon="6.7071">
        <ele>121.19999694824</ele>
        <time>2018-10-14T12:42:19Z</time>
      </trkpt>
      <trkpt lat="43.38566" lon="6.70713">
        <ele>120.80000305176</ele>
        <time>2018-10-14T12:42:22Z</time>
      </trkpt>
      <trkpt lat="43.38575" lon="6.70718">
        <ele>119.80000305176</ele>
        <time>2018-10-14T12:42:29Z</time>
      </trkpt>
      <trkpt lat="43.38576" lon="6.70719">
        <ele>119.80000305176</ele>
        <time>2018-10-14T12:42:30Z</time>
      </trkpt>
      <trkpt lat="43.38582" lon="6.70723">
        <ele>119.19999694824</ele>
        <time>2018-10-14T12:42:35Z</time>
      </trkpt>
      <trkpt lat="43.38591" lon="6.70727">
        <ele>118.59999847412</ele>
        <time>2018-10-14T12:42:42Z</time>
      </trkpt>
      <trkpt lat="43.38599" lon="6.70729">
        <ele>118.40000152588</ele>
        <time>2018-10-14T12:42:47Z</time>
      </trkpt>
      <trkpt lat="43.38601" lon="6.70731">
        <ele>118.19999694824</ele>
        <time>2018-10-14T12:42:49Z</time>
      </trkpt>
      <trkpt lat="43.38612" lon="6.70733">
        <ele>117.80000305176</ele>
        <time>2018-10-14T12:42:55Z</time>
      </trkpt>
      <trkpt lat="43.38631" lon="6.70737">
        <ele>117.19999694824</ele>
        <time>2018-10-14T12:43:00Z</time>
      </trkpt>
      <trkpt lat="43.38642" lon="6.70739">
        <ele>116.40000152588</ele>
        <time>2018-10-14T12:43:03Z</time>
      </trkpt>
      <trkpt lat="43.3865" lon="6.70732">
        <ele>115.19999694824</ele>
        <time>2018-10-14T12:43:07Z</time>
      </trkpt>
      <trkpt lat="43.38658" lon="6.70723">
        <ele>113.80000305176</ele>
        <time>2018-10-14T12:43:11Z</time>
      </trkpt>
      <trkpt lat="43.38663" lon="6.70724">
        <ele>113.59999847412</ele>
        <time>2018-10-14T12:43:12Z</time>
      </trkpt>
      <trkpt lat="43.38669" lon="6.70728">
        <ele>113.19999694824</ele>
        <time>2018-10-14T12:43:13Z</time>
      </trkpt>
      <trkpt lat="43.38681" lon="6.7073">
        <ele>112.40000152588</ele>
        <time>2018-10-14T12:43:15Z</time>
      </trkpt>
      <trkpt lat="43.3869" lon="6.70722">
        <ele>111.59999847412</ele>
        <time>2018-10-14T12:43:18Z</time>
      </trkpt>
      <trkpt lat="43.38693" lon="6.70719">
        <ele>110.80000305176</ele>
        <time>2018-10-14T12:43:22Z</time>
      </trkpt>
      <trkpt lat="43.38694" lon="6.70718">
        <ele>110.59999847412</ele>
        <time>2018-10-14T12:43:23Z</time>
      </trkpt>
      <trkpt lat="43.38697" lon="6.70719">
        <ele>110.19999694824</ele>
        <time>2018-10-14T12:43:26Z</time>
      </trkpt>
      <trkpt lat="43.387" lon="6.7072">
        <ele>109.19999694824</ele>
        <time>2018-10-14T12:43:32Z</time>
      </trkpt>
      <trkpt lat="43.38705" lon="6.70718">
        <ele>108.59999847412</ele>
        <time>2018-10-14T12:43:40Z</time>
      </trkpt>
      <trkpt lat="43.38711" lon="6.70719">
        <ele>107.80000305176</ele>
        <time>2018-10-14T12:43:47Z</time>
      </trkpt>
      <trkpt lat="43.38716" lon="6.70722">
        <ele>107.59999847412</ele>
        <time>2018-10-14T12:43:55Z</time>
      </trkpt>
      <trkpt lat="43.38723" lon="6.70723">
        <ele>107.40000152588</ele>
        <time>2018-10-14T12:44:02Z</time>
      </trkpt>
      <trkpt lat="43.38732" lon="6.70721">
        <ele>107.19999694824</ele>
        <time>2018-10-14T12:44:08Z</time>
      </trkpt>
      <trkpt lat="43.3875" lon="6.70711">
        <ele>106.80000305176</ele>
        <time>2018-10-14T12:44:14Z</time>
      </trkpt>
      <trkpt lat="43.38759" lon="6.70704">
        <ele>106.59999847412</ele>
        <time>2018-10-14T12:44:16Z</time>
      </trkpt>
      <trkpt lat="43.38768" lon="6.70697">
        <ele>106.59999847412</ele>
        <time>2018-10-14T12:44:18Z</time>
      </trkpt>
      <trkpt lat="43.38774" lon="6.70693">
        <ele>106.40000152588</ele>
        <time>2018-10-14T12:44:19Z</time>
      </trkpt>
      <trkpt lat="43.38781" lon="6.70691">
        <ele>106.40000152588</ele>
        <time>2018-10-14T12:44:20Z</time>
      </trkpt>
      <trkpt lat="43.38792" lon="6.70685">
        <ele>106</ele>
        <time>2018-10-14T12:44:22Z</time>
      </trkpt>
      <trkpt lat="43.38808" lon="6.70675">
        <ele>105.40000152588</ele>
        <time>2018-10-14T12:44:25Z</time>
      </trkpt>
      <trkpt lat="43.38814" lon="6.70672">
        <ele>105.19999694824</ele>
        <time>2018-10-14T12:44:26Z</time>
      </trkpt>
      <trkpt lat="43.38826" lon="6.70669">
        <ele>104.80000305176</ele>
        <time>2018-10-14T12:44:28Z</time>
      </trkpt>
      <trkpt lat="43.38835" lon="6.70669">
        <ele>104.19999694824</ele>
        <time>2018-10-14T12:44:30Z</time>
      </trkpt>
      <trkpt lat="43.38841" lon="6.70663">
        <ele>103.80000305176</ele>
        <time>2018-10-14T12:44:32Z</time>
      </trkpt>
      <trkpt lat="43.38853" lon="6.70657">
        <ele>102.59999847412</ele>
        <time>2018-10-14T12:44:36Z</time>
      </trkpt>
      <trkpt lat="43.38857" lon="6.70654">
        <ele>102.19999694824</ele>
        <time>2018-10-14T12:44:37Z</time>
      </trkpt>
      <trkpt lat="43.38867" lon="6.70648">
        <ele>101.59999847412</ele>
        <time>2018-10-14T12:44:39Z</time>
      </trkpt>
      <trkpt lat="43.38876" lon="6.70633">
        <ele>100.80000305176</ele>
        <time>2018-10-14T12:44:42Z</time>
      </trkpt>
      <trkpt lat="43.3888" lon="6.70625">
        <ele>100.19999694824</ele>
        <time>2018-10-14T12:44:46Z</time>
      </trkpt>
      <trkpt lat="43.38883" lon="6.7062">
        <ele>99.599998474121</ele>
        <time>2018-10-14T12:44:50Z</time>
      </trkpt>
      <trkpt lat="43.38884" lon="6.70616">
        <ele>99.400001525879</ele>
        <time>2018-10-14T12:44:52Z</time>
      </trkpt>
      <trkpt lat="43.38887" lon="6.70607">
        <ele>99.199996948242</ele>
        <time>2018-10-14T12:44:57Z</time>
      </trkpt>
      <trkpt lat="43.38888" lon="6.70605">
        <ele>99.199996948242</ele>
        <time>2018-10-14T12:44:58Z</time>
      </trkpt>
      <trkpt lat="43.38891" lon="6.70603">
        <ele>99.199996948242</ele>
        <time>2018-10-14T12:45:00Z</time>
      </trkpt>
      <trkpt lat="43.38895" lon="6.70602">
        <ele>99.400001525879</ele>
        <time>2018-10-14T12:45:03Z</time>
      </trkpt>
      <trkpt lat="43.389" lon="6.70603">
        <ele>99.400001525879</ele>
        <time>2018-10-14T12:45:07Z</time>
      </trkpt>
      <trkpt lat="43.38903" lon="6.70604">
        <ele>99.400001525879</ele>
        <time>2018-10-14T12:45:09Z</time>
      </trkpt>
      <trkpt lat="43.38904" lon="6.70604">
        <ele>99.400001525879</ele>
        <time>2018-10-14T12:45:10Z</time>
      </trkpt>
      <trkpt lat="43.3891" lon="6.70602">
        <ele>99.400001525879</ele>
        <time>2018-10-14T12:45:14Z</time>
      </trkpt>
      <trkpt lat="43.38915" lon="6.70597">
        <ele>99.400001525879</ele>
        <time>2018-10-14T12:45:19Z</time>
      </trkpt>
      <trkpt lat="43.38925" lon="6.70584">
        <ele>99.199996948242</ele>
        <time>2018-10-14T12:45:24Z</time>
      </trkpt>
      <trkpt lat="43.38939" lon="6.7057">
        <ele>98.800003051758</ele>
        <time>2018-10-14T12:45:28Z</time>
      </trkpt>
      <trkpt lat="43.38943" lon="6.70567">
        <ele>98.599998474121</ele>
        <time>2018-10-14T12:45:29Z</time>
      </trkpt>
      <trkpt lat="43.38957" lon="6.70562">
        <ele>98</ele>
        <time>2018-10-14T12:45:33Z</time>
      </trkpt>
      <trkpt lat="43.38967" lon="6.70569">
        <ele>97</ele>
        <time>2018-10-14T12:45:37Z</time>
      </trkpt>
      <trkpt lat="43.38978" lon="6.70569">
        <ele>95.800003051758</ele>
        <time>2018-10-14T12:45:42Z</time>
      </trkpt>
      <trkpt lat="43.3898" lon="6.70564">
        <ele>95.400001525879</ele>
        <time>2018-10-14T12:45:44Z</time>
      </trkpt>
      <trkpt lat="43.38984" lon="6.70559">
        <ele>94.800003051758</ele>
        <time>2018-10-14T12:45:46Z</time>
      </trkpt>
      <trkpt lat="43.38993" lon="6.70542">
        <ele>94</ele>
        <time>2018-10-14T12:45:50Z</time>
      </trkpt>
      <trkpt lat="43.38995" lon="6.70541">
        <ele>93.800003051758</ele>
        <time>2018-10-14T12:45:51Z</time>
      </trkpt>
      <trkpt lat="43.39002" lon="6.70538">
        <ele>92.800003051758</ele>
        <time>2018-10-14T12:45:54Z</time>
      </trkpt>
      <trkpt lat="43.39009" lon="6.70532">
        <ele>91.400001525879</ele>
        <time>2018-10-14T12:45:58Z</time>
      </trkpt>
      <trkpt lat="43.39012" lon="6.70532">
        <ele>91</ele>
        <time>2018-10-14T12:45:59Z</time>
      </trkpt>
      <trkpt lat="43.3902" lon="6.70535">
        <ele>89.800003051758</ele>
        <time>2018-10-14T12:46:02Z</time>
      </trkpt>
      <trkpt lat="43.39023" lon="6.70533">
        <ele>89</ele>
        <time>2018-10-14T12:46:04Z</time>
      </trkpt>
      <trkpt lat="43.39025" lon="6.70532">
        <ele>88.599998474121</ele>
        <time>2018-10-14T12:46:05Z</time>
      </trkpt>
      <trkpt lat="43.39026" lon="6.70526">
        <ele>87.599998474121</ele>
        <time>2018-10-14T12:46:07Z</time>
      </trkpt>
      <trkpt lat="43.39025" lon="6.70521">
        <ele>87</ele>
        <time>2018-10-14T12:46:09Z</time>
      </trkpt>
      <trkpt lat="43.39024" lon="6.70519">
        <ele>86.199996948242</ele>
        <time>2018-10-14T12:46:12Z</time>
      </trkpt>
      <trkpt lat="43.39029" lon="6.70512">
        <ele>85.199996948242</ele>
        <time>2018-10-14T12:46:15Z</time>
      </trkpt>
      <trkpt lat="43.39036" lon="6.7052">
        <ele>84.199996948242</ele>
        <time>2018-10-14T12:46:18Z</time>
      </trkpt>
      <trkpt lat="43.39041" lon="6.7052">
        <ele>83.599998474121</ele>
        <time>2018-10-14T12:46:20Z</time>
      </trkpt>
      <trkpt lat="43.39048" lon="6.70525">
        <ele>82.599998474121</ele>
        <time>2018-10-14T12:46:22Z</time>
      </trkpt>
      <trkpt lat="43.39052" lon="6.70535">
        <ele>81.800003051758</ele>
        <time>2018-10-14T12:46:24Z</time>
      </trkpt>
      <trkpt lat="43.39053" lon="6.70542">
        <ele>81.400001525879</ele>
        <time>2018-10-14T12:46:25Z</time>
      </trkpt>
      <trkpt lat="43.39053" lon="6.70558">
        <ele>80.800003051758</ele>
        <time>2018-10-14T12:46:27Z</time>
      </trkpt>
      <trkpt lat="43.39057" lon="6.70576">
        <ele>80</ele>
        <time>2018-10-14T12:46:29Z</time>
      </trkpt>
      <trkpt lat="43.39064" lon="6.70589">
        <ele>79</ele>
        <time>2018-10-14T12:46:32Z</time>
      </trkpt>
      <trkpt lat="43.39065" lon="6.70589">
        <ele>78.199996948242</ele>
        <time>2018-10-14T12:46:35Z</time>
      </trkpt>
      <trkpt lat="43.39065" lon="6.70589">
        <ele>78</ele>
        <time>2018-10-14T12:46:36Z</time>
      </trkpt>
      <trkpt lat="43.39069" lon="6.7059">
        <ele>61.200000762939</ele>
        <time>2018-10-14T12:48:59Z</time>
      </trkpt>
      <trkpt lat="43.39073" lon="6.70594">
        <ele>61</ele>
        <time>2018-10-14T12:49:01Z</time>
      </trkpt>
      <trkpt lat="43.39076" lon="6.70597">
        <ele>61</ele>
        <time>2018-10-14T12:49:03Z</time>
      </trkpt>
      <trkpt lat="43.39078" lon="6.70599">
        <ele>61</ele>
        <time>2018-10-14T12:49:04Z</time>
      </trkpt>
      <trkpt lat="43.39091" lon="6.70603">
        <ele>60.799999237061</ele>
        <time>2018-10-14T12:49:08Z</time>
      </trkpt>
      <trkpt lat="43.39099" lon="6.70602">
        <ele>60.599998474121</ele>
        <time>2018-10-14T12:49:10Z</time>
      </trkpt>
      <trkpt lat="43.39104" lon="6.70604">
        <ele>60.400001525879</ele>
        <time>2018-10-14T12:49:11Z</time>
      </trkpt>
      <trkpt lat="43.39109" lon="6.70608">
        <ele>60.400001525879</ele>
        <time>2018-10-14T12:49:12Z</time>
      </trkpt>
      <trkpt lat="43.39118" lon="6.70621">
        <ele>60.200000762939</ele>
        <time>2018-10-14T12:49:14Z</time>
      </trkpt>
      <trkpt lat="43.39127" lon="6.70633">
        <ele>60</ele>
        <time>2018-10-14T12:49:16Z</time>
      </trkpt>
      <trkpt lat="43.39132" lon="6.70635">
        <ele>59.799999237061</ele>
        <time>2018-10-14T12:49:17Z</time>
      </trkpt>
      <trkpt lat="43.39136" lon="6.70636">
        <ele>59.599998474121</ele>
        <time>2018-10-14T12:49:18Z</time>
      </trkpt>
      <trkpt lat="43.39141" lon="6.70646">
        <ele>59.400001525879</ele>
        <time>2018-10-14T12:49:20Z</time>
      </trkpt>
      <trkpt lat="43.39143" lon="6.70653">
        <ele>59.200000762939</ele>
        <time>2018-10-14T12:49:21Z</time>
      </trkpt>
      <trkpt lat="43.39149" lon="6.70667">
        <ele>59</ele>
        <time>2018-10-14T12:49:23Z</time>
      </trkpt>
      <trkpt lat="43.39152" lon="6.70673">
        <ele>58.799999237061</ele>
        <time>2018-10-14T12:49:24Z</time>
      </trkpt>
      <trkpt lat="43.39157" lon="6.70675">
        <ele>58.599998474121</ele>
        <time>2018-10-14T12:49:25Z</time>
      </trkpt>
      <trkpt lat="43.39162" lon="6.70675">
        <ele>58.599998474121</ele>
        <time>2018-10-14T12:49:26Z</time>
      </trkpt>
      <trkpt lat="43.39171" lon="6.70676">
        <ele>58.400001525879</ele>
        <time>2018-10-14T12:49:28Z</time>
      </trkpt>
      <trkpt lat="43.39184" lon="6.70676">
        <ele>58</ele>
        <time>2018-10-14T12:49:31Z</time>
      </trkpt>
      <trkpt lat="43.39199" lon="6.70682">
        <ele>57.400001525879</ele>
        <time>2018-10-14T12:49:35Z</time>
      </trkpt>
      <trkpt lat="43.39206" lon="6.70684">
        <ele>57.200000762939</ele>
        <time>2018-10-14T12:49:37Z</time>
      </trkpt>
      <trkpt lat="43.39213" lon="6.70686">
        <ele>57</ele>
        <time>2018-10-14T12:49:39Z</time>
      </trkpt>
      <trkpt lat="43.39225" lon="6.70691">
        <ele>56.400001525879</ele>
        <time>2018-10-14T12:49:44Z</time>
      </trkpt>
      <trkpt lat="43.39234" lon="6.70696">
        <ele>56</ele>
        <time>2018-10-14T12:49:49Z</time>
      </trkpt>
      <trkpt lat="43.39242" lon="6.707">
        <ele>55.400001525879</ele>
        <time>2018-10-14T12:49:54Z</time>
      </trkpt>
      <trkpt lat="43.39251" lon="6.70698">
        <ele>54.799999237061</ele>
        <time>2018-10-14T12:49:58Z</time>
      </trkpt>
      <trkpt lat="43.39256" lon="6.70699">
        <ele>54</ele>
        <time>2018-10-14T12:50:03Z</time>
      </trkpt>
      <trkpt lat="43.39261" lon="6.70699">
        <ele>52.799999237061</ele>
        <time>2018-10-14T12:50:10Z</time>
      </trkpt>
      <trkpt lat="43.39263" lon="6.707">
        <ele>52.599998474121</ele>
        <time>2018-10-14T12:50:11Z</time>
      </trkpt>
      <trkpt lat="43.39267" lon="6.70701">
        <ele>52</ele>
        <time>2018-10-14T12:50:14Z</time>
      </trkpt>
      <trkpt lat="43.39268" lon="6.70699">
        <ele>51.799999237061</ele>
        <time>2018-10-14T12:50:15Z</time>
      </trkpt>
      <trkpt lat="43.39267" lon="6.70694">
        <ele>51.400001525879</ele>
        <time>2018-10-14T12:50:17Z</time>
      </trkpt>
      <trkpt lat="43.39267" lon="6.70689">
        <ele>51</ele>
        <time>2018-10-14T12:50:18Z</time>
      </trkpt>
      <trkpt lat="43.39265" lon="6.70685">
        <ele>50.799999237061</ele>
        <time>2018-10-14T12:50:19Z</time>
      </trkpt>
      <trkpt lat="43.39258" lon="6.70677">
        <ele>50.200000762939</ele>
        <time>2018-10-14T12:50:21Z</time>
      </trkpt>
      <trkpt lat="43.39257" lon="6.70668">
        <ele>49.799999237061</ele>
        <time>2018-10-14T12:50:23Z</time>
      </trkpt>
      <trkpt lat="43.39261" lon="6.7066">
        <ele>49.400001525879</ele>
        <time>2018-10-14T12:50:26Z</time>
      </trkpt>
      <trkpt lat="43.39263" lon="6.70659">
        <ele>49.200000762939</ele>
        <time>2018-10-14T12:50:27Z</time>
      </trkpt>
      <trkpt lat="43.39266" lon="6.70659">
        <ele>48.799999237061</ele>
        <time>2018-10-14T12:50:29Z</time>
      </trkpt>
      <trkpt lat="43.3927" lon="6.70661">
        <ele>48.400001525879</ele>
        <time>2018-10-14T12:50:31Z</time>
      </trkpt>
      <trkpt lat="43.39277" lon="6.70661">
        <ele>47.799999237061</ele>
        <time>2018-10-14T12:50:34Z</time>
      </trkpt>
      <trkpt lat="43.39281" lon="6.70662">
        <ele>47.400001525879</ele>
        <time>2018-10-14T12:50:36Z</time>
      </trkpt>
      <trkpt lat="43.39283" lon="6.70662">
        <ele>47.400001525879</ele>
        <time>2018-10-14T12:50:37Z</time>
      </trkpt>
      <trkpt lat="43.39286" lon="6.7066">
        <ele>46.799999237061</ele>
        <time>2018-10-14T12:50:40Z</time>
      </trkpt>
      <trkpt lat="43.39287" lon="6.7066">
        <ele>46.799999237061</ele>
        <time>2018-10-14T12:50:41Z</time>
      </trkpt>
      <trkpt lat="43.39289" lon="6.7066">
        <ele>46.599998474121</ele>
        <time>2018-10-14T12:50:43Z</time>
      </trkpt>
      <trkpt lat="43.39292" lon="6.70658">
        <ele>46.400001525879</ele>
        <time>2018-10-14T12:50:45Z</time>
      </trkpt>
      <trkpt lat="43.39293" lon="6.70658">
        <ele>46.200000762939</ele>
        <time>2018-10-14T12:50:47Z</time>
      </trkpt>
      <trkpt lat="43.39296" lon="6.70658">
        <ele>46</ele>
        <time>2018-10-14T12:50:49Z</time>
      </trkpt>
      <trkpt lat="43.39302" lon="6.70655">
        <ele>45.200000762939</ele>
        <time>2018-10-14T12:50:57Z</time>
      </trkpt>
      <trkpt lat="43.39309" lon="6.70656">
        <ele>45</ele>
        <time>2018-10-14T12:51:04Z</time>
      </trkpt>
      <trkpt lat="43.39312" lon="6.70657">
        <ele>44.799999237061</ele>
        <time>2018-10-14T12:51:08Z</time>
      </trkpt>
      <trkpt lat="43.39315" lon="6.70658">
        <ele>44.599998474121</ele>
        <time>2018-10-14T12:51:11Z</time>
      </trkpt>
      <trkpt lat="43.39322" lon="6.70657">
        <ele>44.799999237061</ele>
        <time>2018-10-14T12:51:19Z</time>
      </trkpt>
      <trkpt lat="43.3933" lon="6.70659">
        <ele>45</ele>
        <time>2018-10-14T12:51:26Z</time>
      </trkpt>
      <trkpt lat="43.39335" lon="6.70659">
        <ele>45.200000762939</ele>
        <time>2018-10-14T12:51:30Z</time>
      </trkpt>
      <trkpt lat="43.39337" lon="6.70657">
        <ele>45.200000762939</ele>
        <time>2018-10-14T12:51:32Z</time>
      </trkpt>
      <trkpt lat="43.39338" lon="6.70657">
        <ele>45.400001525879</ele>
        <time>2018-10-14T12:51:33Z</time>
      </trkpt>
      <trkpt lat="43.3934" lon="6.70657">
        <ele>45.400001525879</ele>
        <time>2018-10-14T12:51:35Z</time>
      </trkpt>
      <trkpt lat="43.39343" lon="6.70656">
        <ele>45.400001525879</ele>
        <time>2018-10-14T12:51:37Z</time>
      </trkpt>
      <trkpt lat="43.39355" lon="6.70655">
        <ele>45.400001525879</ele>
        <time>2018-10-14T12:51:43Z</time>
      </trkpt>
      <trkpt lat="43.39372" lon="6.70664">
        <ele>45.599998474121</ele>
        <time>2018-10-14T12:51:49Z</time>
      </trkpt>
      <trkpt lat="43.39387" lon="6.70673">
        <ele>45.599998474121</ele>
        <time>2018-10-14T12:51:54Z</time>
      </trkpt>
      <trkpt lat="43.39389" lon="6.70674">
        <ele>45.599998474121</ele>
        <time>2018-10-14T12:51:55Z</time>
      </trkpt>
      <trkpt lat="43.39392" lon="6.70672">
        <ele>45.799999237061</ele>
        <time>2018-10-14T12:51:57Z</time>
      </trkpt>
      <trkpt lat="43.394" lon="6.70678">
        <ele>46</ele>
        <time>2018-10-14T12:52:02Z</time>
      </trkpt>
      <trkpt lat="43.3941" lon="6.70682">
        <ele>46.400001525879</ele>
        <time>2018-10-14T12:52:08Z</time>
      </trkpt>
      <trkpt lat="43.3942" lon="6.7068">
        <ele>46.799999237061</ele>
        <time>2018-10-14T12:52:14Z</time>
      </trkpt>
      <trkpt lat="43.39433" lon="6.7068">
        <ele>47</ele>
        <time>2018-10-14T12:52:21Z</time>
      </trkpt>
      <trkpt lat="43.39442" lon="6.70685">
        <ele>47.400001525879</ele>
        <time>2018-10-14T12:52:26Z</time>
      </trkpt>
      <trkpt lat="43.39451" lon="6.70687">
        <ele>47.799999237061</ele>
        <time>2018-10-14T12:52:32Z</time>
      </trkpt>
      <trkpt lat="43.39456" lon="6.70688">
        <ele>48</ele>
        <time>2018-10-14T12:52:38Z</time>
      </trkpt>
      <trkpt lat="43.39459" lon="6.70684">
        <ele>48.400001525879</ele>
        <time>2018-10-14T12:52:46Z</time>
      </trkpt>
      <trkpt lat="43.39461" lon="6.7068">
        <ele>48.599998474121</ele>
        <time>2018-10-14T12:52:49Z</time>
      </trkpt>
      <trkpt lat="43.3946" lon="6.70678">
        <ele>48.799999237061</ele>
        <time>2018-10-14T12:52:51Z</time>
      </trkpt>
      <trkpt lat="43.39459" lon="6.70676">
        <ele>49</ele>
        <time>2018-10-14T12:52:53Z</time>
      </trkpt>
      <trkpt lat="43.39458" lon="6.70674">
        <ele>49</ele>
        <time>2018-10-14T12:52:54Z</time>
      </trkpt>
      <trkpt lat="43.39462" lon="6.70671">
        <ele>49.200000762939</ele>
        <time>2018-10-14T12:52:57Z</time>
      </trkpt>
      <trkpt lat="43.39473" lon="6.70668">
        <ele>49.599998474121</ele>
        <time>2018-10-14T12:53:02Z</time>
      </trkpt>
      <trkpt lat="43.39489" lon="6.70666">
        <ele>50.200000762939</ele>
        <time>2018-10-14T12:53:09Z</time>
      </trkpt>
      <trkpt lat="43.39495" lon="6.70664">
        <ele>50.400001525879</ele>
        <time>2018-10-14T12:53:12Z</time>
      </trkpt>
      <trkpt lat="43.39496" lon="6.70659">
        <ele>50.599998474121</ele>
        <time>2018-10-14T12:53:14Z</time>
      </trkpt>
      <trkpt lat="43.39495" lon="6.70643">
        <ele>51.200000762939</ele>
        <time>2018-10-14T12:53:20Z</time>
      </trkpt>
      <trkpt lat="43.39496" lon="6.7064">
        <ele>51.200000762939</ele>
        <time>2018-10-14T12:53:21Z</time>
      </trkpt>
      <trkpt lat="43.395" lon="6.70633">
        <ele>51.599998474121</ele>
        <time>2018-10-14T12:53:24Z</time>
      </trkpt>
      <trkpt lat="43.39508" lon="6.70623">
        <ele>52</ele>
        <time>2018-10-14T12:53:29Z</time>
      </trkpt>
      <trkpt lat="43.39514" lon="6.70606">
        <ele>52.200000762939</ele>
        <time>2018-10-14T12:53:35Z</time>
      </trkpt>
      <trkpt lat="43.39519" lon="6.70602">
        <ele>52.200000762939</ele>
        <time>2018-10-14T12:53:37Z</time>
      </trkpt>
      <trkpt lat="43.39523" lon="6.70601">
        <ele>52.200000762939</ele>
        <time>2018-10-14T12:53:39Z</time>
      </trkpt>
      <trkpt lat="43.39535" lon="6.70599">
        <ele>52.400001525879</ele>
        <time>2018-10-14T12:53:43Z</time>
      </trkpt>
      <trkpt lat="43.39539" lon="6.70601">
        <ele>52.400001525879</ele>
        <time>2018-10-14T12:53:44Z</time>
      </trkpt>
      <trkpt lat="43.39543" lon="6.70609">
        <ele>52.400001525879</ele>
        <time>2018-10-14T12:53:46Z</time>
      </trkpt>
      <trkpt lat="43.39544" lon="6.70621">
        <ele>52</ele>
        <time>2018-10-14T12:53:49Z</time>
      </trkpt>
      <trkpt lat="43.3955" lon="6.70635">
        <ele>51.400001525879</ele>
        <time>2018-10-14T12:53:53Z</time>
      </trkpt>
      <trkpt lat="43.39552" lon="6.70635">
        <ele>51.200000762939</ele>
        <time>2018-10-14T12:53:54Z</time>
      </trkpt>
      <trkpt lat="43.39555" lon="6.70634">
        <ele>51</ele>
        <time>2018-10-14T12:53:55Z</time>
      </trkpt>
      <trkpt lat="43.39564" lon="6.70628">
        <ele>50.400001525879</ele>
        <time>2018-10-14T12:53:58Z</time>
      </trkpt>
      <trkpt lat="43.39568" lon="6.70622">
        <ele>49.799999237061</ele>
        <time>2018-10-14T12:54:01Z</time>
      </trkpt>
      <trkpt lat="43.39569" lon="6.7062">
        <ele>49.599998474121</ele>
        <time>2018-10-14T12:54:04Z</time>
      </trkpt>
      <trkpt lat="43.3957" lon="6.70613">
        <ele>49</ele>
        <time>2018-10-14T12:54:12Z</time>
      </trkpt>
      <trkpt lat="43.3957" lon="6.70611">
        <ele>49</ele>
        <time>2018-10-14T12:54:13Z</time>
      </trkpt>
      <trkpt lat="43.39571" lon="6.70608">
        <ele>48.799999237061</ele>
        <time>2018-10-14T12:54:15Z</time>
      </trkpt>
      <trkpt lat="43.39574" lon="6.70604">
        <ele>48.400001525879</ele>
        <time>2018-10-14T12:54:18Z</time>
      </trkpt>
      <trkpt lat="43.39576" lon="6.70603">
        <ele>48.200000762939</ele>
        <time>2018-10-14T12:54:19Z</time>
      </trkpt>
      <trkpt lat="43.39576" lon="6.70602">
        <ele>48</ele>
        <time>2018-10-14T12:54:21Z</time>
      </trkpt>
      <trkpt lat="43.39579" lon="6.706">
        <ele>48</ele>
        <time>2018-10-14T12:54:23Z</time>
      </trkpt>
      <trkpt lat="43.39583" lon="6.706">
        <ele>48.200000762939</ele>
        <time>2018-10-14T12:54:25Z</time>
      </trkpt>
      <trkpt lat="43.3959" lon="6.70605">
        <ele>49</ele>
        <time>2018-10-14T12:54:31Z</time>
      </trkpt>
      <trkpt lat="43.3959" lon="6.70607">
        <ele>49</ele>
        <time>2018-10-14T12:54:32Z</time>
      </trkpt>
      <trkpt lat="43.39593" lon="6.70614">
        <ele>49.200000762939</ele>
        <time>2018-10-14T12:54:37Z</time>
      </trkpt>
      <trkpt lat="43.39599" lon="6.70626">
        <ele>49.200000762939</ele>
        <time>2018-10-14T12:54:43Z</time>
      </trkpt>
      <trkpt lat="43.39602" lon="6.70637">
        <ele>49.400001525879</ele>
        <time>2018-10-14T12:54:48Z</time>
      </trkpt>
      <trkpt lat="43.39603" lon="6.70641">
        <ele>49.400001525879</ele>
        <time>2018-10-14T12:54:50Z</time>
      </trkpt>
      <trkpt lat="43.39604" lon="6.70647">
        <ele>49.400001525879</ele>
        <time>2018-10-14T12:54:53Z</time>
      </trkpt>
      <trkpt lat="43.39604" lon="6.70659">
        <ele>49.599998474121</ele>
        <time>2018-10-14T12:54:59Z</time>
      </trkpt>
      <trkpt lat="43.39603" lon="6.70662">
        <ele>49.799999237061</ele>
        <time>2018-10-14T12:55:01Z</time>
      </trkpt>
      <trkpt lat="43.39603" lon="6.70668">
        <ele>49.799999237061</ele>
        <time>2018-10-14T12:55:04Z</time>
      </trkpt>
      <trkpt lat="43.39606" lon="6.70675">
        <ele>49.799999237061</ele>
        <time>2018-10-14T12:55:09Z</time>
      </trkpt>
      <trkpt lat="43.39606" lon="6.70677">
        <ele>49.599998474121</ele>
        <time>2018-10-14T12:55:10Z</time>
      </trkpt>
      <trkpt lat="43.39607" lon="6.70683">
        <ele>49.599998474121</ele>
        <time>2018-10-14T12:55:14Z</time>
      </trkpt>
      <trkpt lat="43.39609" lon="6.70684">
        <ele>49.799999237061</ele>
        <time>2018-10-14T12:55:15Z</time>
      </trkpt>
      <trkpt lat="43.39613" lon="6.70688">
        <ele>50.200000762939</ele>
        <time>2018-10-14T12:55:19Z</time>
      </trkpt>
      <trkpt lat="43.39616" lon="6.70687">
        <ele>50.400001525879</ele>
        <time>2018-10-14T12:55:21Z</time>
      </trkpt>
      <trkpt lat="43.39618" lon="6.70687">
        <ele>50.400001525879</ele>
        <time>2018-10-14T12:55:22Z</time>
      </trkpt>
      <trkpt lat="43.39622" lon="6.70682">
        <ele>50.799999237061</ele>
        <time>2018-10-14T12:55:26Z</time>
      </trkpt>
      <trkpt lat="43.39631" lon="6.70681">
        <ele>51.200000762939</ele>
        <time>2018-10-14T12:55:32Z</time>
      </trkpt>
      <trkpt lat="43.39639" lon="6.70677">
        <ele>51.799999237061</ele>
        <time>2018-10-14T12:55:39Z</time>
      </trkpt>
      <trkpt lat="43.39645" lon="6.70676">
        <ele>51.799999237061</ele>
        <time>2018-10-14T12:55:43Z</time>
      </trkpt>
      <trkpt lat="43.39647" lon="6.70675">
        <ele>51.799999237061</ele>
        <time>2018-10-14T12:55:45Z</time>
      </trkpt>
      <trkpt lat="43.39658" lon="6.70672">
        <ele>53</ele>
        <time>2018-10-14T12:55:53Z</time>
      </trkpt>
      <trkpt lat="43.39666" lon="6.70665">
        <ele>53.799999237061</ele>
        <time>2018-10-14T12:56:00Z</time>
      </trkpt>
      <trkpt lat="43.39667" lon="6.70664">
        <ele>53.799999237061</ele>
        <time>2018-10-14T12:56:01Z</time>
      </trkpt>
      <trkpt lat="43.39672" lon="6.70657">
        <ele>54.400001525879</ele>
        <time>2018-10-14T12:56:05Z</time>
      </trkpt>
      <trkpt lat="43.39681" lon="6.70651">
        <ele>54.799999237061</ele>
        <time>2018-10-14T12:56:10Z</time>
      </trkpt>
      <trkpt lat="43.39693" lon="6.70647">
        <ele>54.799999237061</ele>
        <time>2018-10-14T12:56:15Z</time>
      </trkpt>
      <trkpt lat="43.39705" lon="6.70646">
        <ele>55</ele>
        <time>2018-10-14T12:56:20Z</time>
      </trkpt>
      <trkpt lat="43.3972" lon="6.70648">
        <ele>55.400001525879</ele>
        <time>2018-10-14T12:56:26Z</time>
      </trkpt>
      <trkpt lat="43.39733" lon="6.70659">
        <ele>55.799999237061</ele>
        <time>2018-10-14T12:56:30Z</time>
      </trkpt>
      <trkpt lat="43.39742" lon="6.70653">
        <ele>55.799999237061</ele>
        <time>2018-10-14T12:56:33Z</time>
      </trkpt>
      <trkpt lat="43.39749" lon="6.70636">
        <ele>55.799999237061</ele>
        <time>2018-10-14T12:56:37Z</time>
      </trkpt>
      <trkpt lat="43.39758" lon="6.70615">
        <ele>56</ele>
        <time>2018-10-14T12:56:44Z</time>
      </trkpt>
      <trkpt lat="43.39759" lon="6.70613">
        <ele>56.200000762939</ele>
        <time>2018-10-14T12:56:45Z</time>
      </trkpt>
      <trkpt lat="43.39762" lon="6.70607">
        <ele>56.200000762939</ele>
        <time>2018-10-14T12:56:47Z</time>
      </trkpt>
      <trkpt lat="43.39768" lon="6.70593">
        <ele>56.400001525879</ele>
        <time>2018-10-14T12:56:52Z</time>
      </trkpt>
      <trkpt lat="43.39769" lon="6.7059">
        <ele>56.400001525879</ele>
        <time>2018-10-14T12:56:53Z</time>
      </trkpt>
      <trkpt lat="43.3977" lon="6.70578">
        <ele>56.400001525879</ele>
        <time>2018-10-14T12:56:56Z</time>
      </trkpt>
      <trkpt lat="43.39773" lon="6.70573">
        <ele>56.400001525879</ele>
        <time>2018-10-14T12:56:58Z</time>
      </trkpt>
      <trkpt lat="43.39777" lon="6.7057">
        <ele>56.400001525879</ele>
        <time>2018-10-14T12:57:00Z</time>
      </trkpt>
      <trkpt lat="43.39786" lon="6.70562">
        <ele>56.599998474121</ele>
        <time>2018-10-14T12:57:04Z</time>
      </trkpt>
      <trkpt lat="43.39795" lon="6.70549">
        <ele>56.799999237061</ele>
        <time>2018-10-14T12:57:09Z</time>
      </trkpt>
      <trkpt lat="43.39799" lon="6.70543">
        <ele>56.799999237061</ele>
        <time>2018-10-14T12:57:11Z</time>
      </trkpt>
      <trkpt lat="43.39802" lon="6.70533">
        <ele>57</ele>
        <time>2018-10-14T12:57:14Z</time>
      </trkpt>
      <trkpt lat="43.39804" lon="6.70517">
        <ele>56.799999237061</ele>
        <time>2018-10-14T12:57:17Z</time>
      </trkpt>
      <trkpt lat="43.39807" lon="6.70514">
        <ele>56.799999237061</ele>
        <time>2018-10-14T12:57:18Z</time>
      </trkpt>
      <trkpt lat="43.39813" lon="6.70512">
        <ele>57</ele>
        <time>2018-10-14T12:57:20Z</time>
      </trkpt>
      <trkpt lat="43.39816" lon="6.70507">
        <ele>57</ele>
        <time>2018-10-14T12:57:22Z</time>
      </trkpt>
      <trkpt lat="43.39822" lon="6.70494">
        <ele>57.200000762939</ele>
        <time>2018-10-14T12:57:26Z</time>
      </trkpt>
      <trkpt lat="43.39825" lon="6.70484">
        <ele>57.200000762939</ele>
        <time>2018-10-14T12:57:31Z</time>
      </trkpt>
      <trkpt lat="43.39826" lon="6.70482">
        <ele>57.200000762939</ele>
        <time>2018-10-14T12:57:32Z</time>
      </trkpt>
      <trkpt lat="43.39831" lon="6.70479">
        <ele>57.200000762939</ele>
        <time>2018-10-14T12:57:35Z</time>
      </trkpt>
      <trkpt lat="43.39838" lon="6.70487">
        <ele>57.200000762939</ele>
        <time>2018-10-14T12:57:40Z</time>
      </trkpt>
      <trkpt lat="43.3984" lon="6.70495">
        <ele>57.599998474121</ele>
        <time>2018-10-14T12:57:44Z</time>
      </trkpt>
      <trkpt lat="43.39841" lon="6.70498">
        <ele>57.599998474121</ele>
        <time>2018-10-14T12:57:46Z</time>
      </trkpt>
      <trkpt lat="43.39846" lon="6.70504">
        <ele>58.200000762939</ele>
        <time>2018-10-14T12:57:51Z</time>
      </trkpt>
      <trkpt lat="43.39848" lon="6.70507">
        <ele>58.400001525879</ele>
        <time>2018-10-14T12:57:54Z</time>
      </trkpt>
      <trkpt lat="43.39857" lon="6.7052">
        <ele>59.400001525879</ele>
        <time>2018-10-14T12:58:10Z</time>
      </trkpt>
      <trkpt lat="43.39862" lon="6.70536">
        <ele>59.599998474121</ele>
        <time>2018-10-14T12:58:16Z</time>
      </trkpt>
      <trkpt lat="43.39872" lon="6.70558">
        <ele>59.799999237061</ele>
        <time>2018-10-14T12:58:22Z</time>
      </trkpt>
      <trkpt lat="43.39882" lon="6.70569">
        <ele>60</ele>
        <time>2018-10-14T12:58:26Z</time>
      </trkpt>
      <trkpt lat="43.39892" lon="6.70584">
        <ele>60.200000762939</ele>
        <time>2018-10-14T12:58:32Z</time>
      </trkpt>
      <trkpt lat="43.39903" lon="6.70589">
        <ele>60.200000762939</ele>
        <time>2018-10-14T12:58:36Z</time>
      </trkpt>
      <trkpt lat="43.39915" lon="6.70591">
        <ele>60.400001525879</ele>
        <time>2018-10-14T12:58:41Z</time>
      </trkpt>
      <trkpt lat="43.39924" lon="6.70588">
        <ele>60.599998474121</ele>
        <time>2018-10-14T12:58:46Z</time>
      </trkpt>
      <trkpt lat="43.39933" lon="6.70581">
        <ele>60.799999237061</ele>
        <time>2018-10-14T12:58:52Z</time>
      </trkpt>
      <trkpt lat="43.39935" lon="6.70578">
        <ele>61</ele>
        <time>2018-10-14T12:58:54Z</time>
      </trkpt>
      <trkpt lat="43.3994" lon="6.70571">
        <ele>61.200000762939</ele>
        <time>2018-10-14T12:58:58Z</time>
      </trkpt>
      <trkpt lat="43.39942" lon="6.7057">
        <ele>61.200000762939</ele>
        <time>2018-10-14T12:58:59Z</time>
      </trkpt>
      <trkpt lat="43.39948" lon="6.70565">
        <ele>61.400001525879</ele>
        <time>2018-10-14T12:59:03Z</time>
      </trkpt>
      <trkpt lat="43.39958" lon="6.70558">
        <ele>61.799999237061</ele>
        <time>2018-10-14T12:59:09Z</time>
      </trkpt>
      <trkpt lat="43.39967" lon="6.70553">
        <ele>62.400001525879</ele>
        <time>2018-10-14T12:59:14Z</time>
      </trkpt>
      <trkpt lat="43.39969" lon="6.70553">
        <ele>62.400001525879</ele>
        <time>2018-10-14T12:59:15Z</time>
      </trkpt>
      <trkpt lat="43.39978" lon="6.70545">
        <ele>62.599998474121</ele>
        <time>2018-10-14T12:59:19Z</time>
      </trkpt>
      <trkpt lat="43.39986" lon="6.70525">
        <ele>62.599998474121</ele>
        <time>2018-10-14T12:59:25Z</time>
      </trkpt>
      <trkpt lat="43.39984" lon="6.70502">
        <ele>62.799999237061</ele>
        <time>2018-10-14T12:59:30Z</time>
      </trkpt>
      <trkpt lat="43.39986" lon="6.70493">
        <ele>62.799999237061</ele>
        <time>2018-10-14T12:59:32Z</time>
      </trkpt>
      <trkpt lat="43.39988" lon="6.7049">
        <ele>62.799999237061</ele>
        <time>2018-10-14T12:59:33Z</time>
      </trkpt>
      <trkpt lat="43.39992" lon="6.70475">
        <ele>63</ele>
        <time>2018-10-14T12:59:37Z</time>
      </trkpt>
      <trkpt lat="43.4" lon="6.70454">
        <ele>63</ele>
        <time>2018-10-14T12:59:42Z</time>
      </trkpt>
      <trkpt lat="43.40002" lon="6.70448">
        <ele>63</ele>
        <time>2018-10-14T12:59:43Z</time>
      </trkpt>
      <trkpt lat="43.40004" lon="6.70429">
        <ele>62.799999237061</ele>
        <time>2018-10-14T12:59:46Z</time>
      </trkpt>
      <trkpt lat="43.40014" lon="6.70426">
        <ele>62.799999237061</ele>
        <time>2018-10-14T12:59:49Z</time>
      </trkpt>
      <trkpt lat="43.40021" lon="6.70427">
        <ele>62.599998474121</ele>
        <time>2018-10-14T12:59:51Z</time>
      </trkpt>
      <trkpt lat="43.40025" lon="6.70429">
        <ele>62.799999237061</ele>
        <time>2018-10-14T12:59:52Z</time>
      </trkpt>
      <trkpt lat="43.40032" lon="6.70431">
        <ele>62.599998474121</ele>
        <time>2018-10-14T12:59:54Z</time>
      </trkpt>
      <trkpt lat="43.4004" lon="6.70429">
        <ele>62.400001525879</ele>
        <time>2018-10-14T12:59:56Z</time>
      </trkpt>
      <trkpt lat="43.40046" lon="6.70426">
        <ele>62.400001525879</ele>
        <time>2018-10-14T12:59:59Z</time>
      </trkpt>
      <trkpt lat="43.40047" lon="6.70426">
        <ele>62.599998474121</ele>
        <time>2018-10-14T13:00:00Z</time>
      </trkpt>
      <trkpt lat="43.40049" lon="6.70421">
        <ele>62.599998474121</ele>
        <time>2018-10-14T13:00:03Z</time>
      </trkpt>
      <trkpt lat="43.40051" lon="6.7042">
        <ele>62.400001525879</ele>
        <time>2018-10-14T13:00:05Z</time>
      </trkpt>
      <trkpt lat="43.40052" lon="6.70419">
        <ele>62.400001525879</ele>
        <time>2018-10-14T13:00:07Z</time>
      </trkpt>
      <trkpt lat="43.40057" lon="6.70421">
        <ele>62.599998474121</ele>
        <time>2018-10-14T13:00:12Z</time>
      </trkpt>
      <trkpt lat="43.4007" lon="6.70421">
        <ele>62.599998474121</ele>
        <time>2018-10-14T13:00:16Z</time>
      </trkpt>
      <trkpt lat="43.40073" lon="6.70423">
        <ele>62.599998474121</ele>
        <time>2018-10-14T13:00:17Z</time>
      </trkpt>
      <trkpt lat="43.40077" lon="6.70439">
        <ele>62.400001525879</ele>
        <time>2018-10-14T13:00:20Z</time>
      </trkpt>
      <trkpt lat="43.40078" lon="6.70442">
        <ele>62.400001525879</ele>
        <time>2018-10-14T13:00:21Z</time>
      </trkpt>
      <trkpt lat="43.40083" lon="6.70448">
        <ele>62.400001525879</ele>
        <time>2018-10-14T13:00:23Z</time>
      </trkpt>
      <trkpt lat="43.40085" lon="6.70456">
        <ele>62.200000762939</ele>
        <time>2018-10-14T13:00:25Z</time>
      </trkpt>
      <trkpt lat="43.40084" lon="6.70461">
        <ele>62</ele>
        <time>2018-10-14T13:00:26Z</time>
      </trkpt>
      <trkpt lat="43.40084" lon="6.70465">
        <ele>62</ele>
        <time>2018-10-14T13:00:27Z</time>
      </trkpt>
      <trkpt lat="43.40087" lon="6.70472">
        <ele>61.799999237061</ele>
        <time>2018-10-14T13:00:29Z</time>
      </trkpt>
      <trkpt lat="43.40093" lon="6.70469">
        <ele>61.799999237061</ele>
        <time>2018-10-14T13:00:32Z</time>
      </trkpt>
      <trkpt lat="43.40097" lon="6.70469">
        <ele>61.799999237061</ele>
        <time>2018-10-14T13:00:34Z</time>
      </trkpt>
      <trkpt lat="43.40101" lon="6.70473">
        <ele>61.799999237061</ele>
        <time>2018-10-14T13:00:36Z</time>
      </trkpt>
      <trkpt lat="43.40104" lon="6.70492">
        <ele>61.799999237061</ele>
        <time>2018-10-14T13:00:41Z</time>
      </trkpt>
      <trkpt lat="43.40106" lon="6.705">
        <ele>61.799999237061</ele>
        <time>2018-10-14T13:00:43Z</time>
      </trkpt>
      <trkpt lat="43.40108" lon="6.70506">
        <ele>61.799999237061</ele>
        <time>2018-10-14T13:00:45Z</time>
      </trkpt>
      <trkpt lat="43.40114" lon="6.70521">
        <ele>61.799999237061</ele>
        <time>2018-10-14T13:00:49Z</time>
      </trkpt>
      <trkpt lat="43.40115" lon="6.70542">
        <ele>61.599998474121</ele>
        <time>2018-10-14T13:00:53Z</time>
      </trkpt>
      <trkpt lat="43.40117" lon="6.70545">
        <ele>61.599998474121</ele>
        <time>2018-10-14T13:00:54Z</time>
      </trkpt>
      <trkpt lat="43.40124" lon="6.70544">
        <ele>61.599998474121</ele>
        <time>2018-10-14T13:00:57Z</time>
      </trkpt>
      <trkpt lat="43.40134" lon="6.70549">
        <ele>61.799999237061</ele>
        <time>2018-10-14T13:01:02Z</time>
      </trkpt>
      <trkpt lat="43.40135" lon="6.70552">
        <ele>62</ele>
        <time>2018-10-14T13:01:03Z</time>
      </trkpt>
      <trkpt lat="43.40135" lon="6.70555">
        <ele>62</ele>
        <time>2018-10-14T13:01:04Z</time>
      </trkpt>
      <trkpt lat="43.40135" lon="6.70563">
        <ele>62</ele>
        <time>2018-10-14T13:01:06Z</time>
      </trkpt>
      <trkpt lat="43.40137" lon="6.70565">
        <ele>62</ele>
        <time>2018-10-14T13:01:07Z</time>
      </trkpt>
      <trkpt lat="43.40139" lon="6.70567">
        <ele>62</ele>
        <time>2018-10-14T13:01:09Z</time>
      </trkpt>
      <trkpt lat="43.40141" lon="6.7057">
        <ele>62</ele>
        <time>2018-10-14T13:01:11Z</time>
      </trkpt>
      <trkpt lat="43.40141" lon="6.70575">
        <ele>61.799999237061</ele>
        <time>2018-10-14T13:01:13Z</time>
      </trkpt>
      <trkpt lat="43.40147" lon="6.7058">
        <ele>61.400001525879</ele>
        <time>2018-10-14T13:01:17Z</time>
      </trkpt>
      <trkpt lat="43.40155" lon="6.70592">
        <ele>61.200000762939</ele>
        <time>2018-10-14T13:01:21Z</time>
      </trkpt>
      <trkpt lat="43.40161" lon="6.70611">
        <ele>60.799999237061</ele>
        <time>2018-10-14T13:01:25Z</time>
      </trkpt>
      <trkpt lat="43.40166" lon="6.70625">
        <ele>60.200000762939</ele>
        <time>2018-10-14T13:01:28Z</time>
      </trkpt>
      <trkpt lat="43.40167" lon="6.70629">
        <ele>60.200000762939</ele>
        <time>2018-10-14T13:01:29Z</time>
      </trkpt>
      <trkpt lat="43.40175" lon="6.70639">
        <ele>59.799999237061</ele>
        <time>2018-10-14T13:01:32Z</time>
      </trkpt>
      <trkpt lat="43.40179" lon="6.70641">
        <ele>59.599998474121</ele>
        <time>2018-10-14T13:01:33Z</time>
      </trkpt>
      <trkpt lat="43.40182" lon="6.70644">
        <ele>59.599998474121</ele>
        <time>2018-10-14T13:01:34Z</time>
      </trkpt>
      <trkpt lat="43.40184" lon="6.70654">
        <ele>59.400001525879</ele>
        <time>2018-10-14T13:01:36Z</time>
      </trkpt>
      <trkpt lat="43.40184" lon="6.70662">
        <ele>59.200000762939</ele>
        <time>2018-10-14T13:01:38Z</time>
      </trkpt>
      <trkpt lat="43.40186" lon="6.70665">
        <ele>59</ele>
        <time>2018-10-14T13:01:39Z</time>
      </trkpt>
      <trkpt lat="43.40196" lon="6.70684">
        <ele>58.599998474121</ele>
        <time>2018-10-14T13:01:44Z</time>
      </trkpt>
      <trkpt lat="43.40198" lon="6.70688">
        <ele>58.599998474121</ele>
        <time>2018-10-14T13:01:45Z</time>
      </trkpt>
      <trkpt lat="43.402" lon="6.70697">
        <ele>58.200000762939</ele>
        <time>2018-10-14T13:01:47Z</time>
      </trkpt>
      <trkpt lat="43.40203" lon="6.70703">
        <ele>57.799999237061</ele>
        <time>2018-10-14T13:01:49Z</time>
      </trkpt>
      <trkpt lat="43.40207" lon="6.70706">
        <ele>57.599998474121</ele>
        <time>2018-10-14T13:01:51Z</time>
      </trkpt>
      <trkpt lat="43.40212" lon="6.70717">
        <ele>57</ele>
        <time>2018-10-14T13:01:55Z</time>
      </trkpt>
      <trkpt lat="43.40212" lon="6.70725">
        <ele>56.799999237061</ele>
        <time>2018-10-14T13:01:57Z</time>
      </trkpt>
      <trkpt lat="43.40212" lon="6.70729">
        <ele>56.599998474121</ele>
        <time>2018-10-14T13:01:58Z</time>
      </trkpt>
      <trkpt lat="43.40208" lon="6.70747">
        <ele>55.799999237061</ele>
        <time>2018-10-14T13:02:03Z</time>
      </trkpt>
      <trkpt lat="43.40207" lon="6.70758">
        <ele>55.400001525879</ele>
        <time>2018-10-14T13:02:05Z</time>
      </trkpt>
      <trkpt lat="43.40206" lon="6.70774">
        <ele>55</ele>
        <time>2018-10-14T13:02:08Z</time>
      </trkpt>
      <trkpt lat="43.40204" lon="6.70779">
        <ele>54.799999237061</ele>
        <time>2018-10-14T13:02:09Z</time>
      </trkpt>
      <trkpt lat="43.40201" lon="6.70795">
        <ele>54.200000762939</ele>
        <time>2018-10-14T13:02:12Z</time>
      </trkpt>
      <trkpt lat="43.40198" lon="6.70807">
        <ele>54</ele>
        <time>2018-10-14T13:02:14Z</time>
      </trkpt>
      <trkpt lat="43.40193" lon="6.70815">
        <ele>53.599998474121</ele>
        <time>2018-10-14T13:02:16Z</time>
      </trkpt>
      <trkpt lat="43.40187" lon="6.70823">
        <ele>53.200000762939</ele>
        <time>2018-10-14T13:02:18Z</time>
      </trkpt>
      <trkpt lat="43.40181" lon="6.70832">
        <ele>53</ele>
        <time>2018-10-14T13:02:20Z</time>
      </trkpt>
      <trkpt lat="43.40178" lon="6.70836">
        <ele>52.799999237061</ele>
        <time>2018-10-14T13:02:21Z</time>
      </trkpt>
      <trkpt lat="43.40176" lon="6.70841">
        <ele>52.599998474121</ele>
        <time>2018-10-14T13:02:22Z</time>
      </trkpt>
      <trkpt lat="43.40168" lon="6.70851">
        <ele>52</ele>
        <time>2018-10-14T13:02:25Z</time>
      </trkpt>
      <trkpt lat="43.40158" lon="6.70868">
        <ele>51</ele>
        <time>2018-10-14T13:02:30Z</time>
      </trkpt>
      <trkpt lat="43.40149" lon="6.70885">
        <ele>49.799999237061</ele>
        <time>2018-10-14T13:02:34Z</time>
      </trkpt>
      <trkpt lat="43.40148" lon="6.7089">
        <ele>49.400001525879</ele>
        <time>2018-10-14T13:02:35Z</time>
      </trkpt>
      <trkpt lat="43.40146" lon="6.70911">
        <ele>47.799999237061</ele>
        <time>2018-10-14T13:02:40Z</time>
      </trkpt>
      <trkpt lat="43.40142" lon="6.70926">
        <ele>46.400001525879</ele>
        <time>2018-10-14T13:02:45Z</time>
      </trkpt>
      <trkpt lat="43.40142" lon="6.70928">
        <ele>46</ele>
        <time>2018-10-14T13:02:46Z</time>
      </trkpt>
      <trkpt lat="43.4014" lon="6.70935">
        <ele>45</ele>
        <time>2018-10-14T13:02:49Z</time>
      </trkpt>
      <trkpt lat="43.40139" lon="6.70937">
        <ele>44.599998474121</ele>
        <time>2018-10-14T13:02:50Z</time>
      </trkpt>
      <trkpt lat="43.40138" lon="6.70945">
        <ele>43.599998474121</ele>
        <time>2018-10-14T13:02:53Z</time>
      </trkpt>
      <trkpt lat="43.40135" lon="6.70958">
        <ele>42</ele>
        <time>2018-10-14T13:02:58Z</time>
      </trkpt>
      <trkpt lat="43.40134" lon="6.70961">
        <ele>41.599998474121</ele>
        <time>2018-10-14T13:02:59Z</time>
      </trkpt>
      <trkpt lat="43.40133" lon="6.70971">
        <ele>40.599998474121</ele>
        <time>2018-10-14T13:03:02Z</time>
      </trkpt>
      <trkpt lat="43.40133" lon="6.70994">
        <ele>39</ele>
        <time>2018-10-14T13:03:06Z</time>
      </trkpt>
      <trkpt lat="43.40135" lon="6.71013">
        <ele>37.200000762939</ele>
        <time>2018-10-14T13:03:11Z</time>
      </trkpt>
      <trkpt lat="43.40135" lon="6.71032">
        <ele>35.599998474121</ele>
        <time>2018-10-14T13:03:15Z</time>
      </trkpt>
      <trkpt lat="43.40138" lon="6.71049">
        <ele>33.799999237061</ele>
        <time>2018-10-14T13:03:19Z</time>
      </trkpt>
      <trkpt lat="43.40139" lon="6.71053">
        <ele>33.400001525879</ele>
        <time>2018-10-14T13:03:20Z</time>
      </trkpt>
      <trkpt lat="43.40139" lon="6.7106">
        <ele>32.200000762939</ele>
        <time>2018-10-14T13:03:22Z</time>
      </trkpt>
      <trkpt lat="43.40141" lon="6.7108">
        <ele>30</ele>
        <time>2018-10-14T13:03:27Z</time>
      </trkpt>
      <trkpt lat="43.40143" lon="6.71102">
        <ele>27.39999961853</ele>
        <time>2018-10-14T13:03:32Z</time>
      </trkpt>
      <trkpt lat="43.40141" lon="6.71127">
        <ele>25.39999961853</ele>
        <time>2018-10-14T13:03:37Z</time>
      </trkpt>
      <trkpt lat="43.4014" lon="6.71132">
        <ele>25.200000762939</ele>
        <time>2018-10-14T13:03:38Z</time>
      </trkpt>
      <trkpt lat="43.40139" lon="6.71147">
        <ele>24.200000762939</ele>
        <time>2018-10-14T13:03:40Z</time>
      </trkpt>
      <trkpt lat="43.4014" lon="6.71156">
        <ele>23.799999237061</ele>
        <time>2018-10-14T13:03:41Z</time>
      </trkpt>
      <trkpt lat="43.40143" lon="6.712">
        <ele>22</ele>
        <time>2018-10-14T13:03:45Z</time>
      </trkpt>
      <trkpt lat="43.40145" lon="6.71233">
        <ele>20.799999237061</ele>
        <time>2018-10-14T13:03:48Z</time>
      </trkpt>
      <trkpt lat="43.40144" lon="6.71252">
        <ele>20.200000762939</ele>
        <time>2018-10-14T13:03:50Z</time>
      </trkpt>
      <trkpt lat="43.40143" lon="6.7126">
        <ele>19.799999237061</ele>
        <time>2018-10-14T13:03:51Z</time>
      </trkpt>
      <trkpt lat="43.40138" lon="6.7127">
        <ele>19.200000762939</ele>
        <time>2018-10-14T13:03:53Z</time>
      </trkpt>
      <trkpt lat="43.4013" lon="6.71278">
        <ele>18.200000762939</ele>
        <time>2018-10-14T13:03:56Z</time>
      </trkpt>
      <trkpt lat="43.40113" lon="6.71291">
        <ele>16.799999237061</ele>
        <time>2018-10-14T13:04:03Z</time>
      </trkpt>
      <trkpt lat="43.40096" lon="6.71304">
        <ele>15.60000038147</ele>
        <time>2018-10-14T13:04:10Z</time>
      </trkpt>
      <trkpt lat="43.40082" lon="6.71315">
        <ele>14.800000190735</ele>
        <time>2018-10-14T13:04:16Z</time>
      </trkpt>
      <trkpt lat="43.40065" lon="6.7133">
        <ele>13.60000038147</ele>
        <time>2018-10-14T13:04:22Z</time>
      </trkpt>
      <trkpt lat="43.40051" lon="6.71343">
        <ele>12.60000038147</ele>
        <time>2018-10-14T13:04:28Z</time>
      </trkpt>
      <trkpt lat="43.4004" lon="6.71361">
        <ele>11.39999961853</ele>
        <time>2018-10-14T13:04:34Z</time>
      </trkpt>
      <trkpt lat="43.40031" lon="6.7138">
        <ele>10.39999961853</ele>
        <time>2018-10-14T13:04:40Z</time>
      </trkpt>
      <trkpt lat="43.40019" lon="6.71405">
        <ele>9.6000003814697</ele>
        <time>2018-10-14T13:04:47Z</time>
      </trkpt>
      <trkpt lat="43.40012" lon="6.71424">
        <ele>9</ele>
        <time>2018-10-14T13:04:52Z</time>
      </trkpt>
      <trkpt lat="43.40002" lon="6.71441">
        <ele>8.6000003814697</ele>
        <time>2018-10-14T13:04:57Z</time>
      </trkpt>
      <trkpt lat="43.39989" lon="6.71463">
        <ele>7.8000001907349</ele>
        <time>2018-10-14T13:05:03Z</time>
      </trkpt>
      <trkpt lat="43.39978" lon="6.71487">
        <ele>6.8000001907349</ele>
        <time>2018-10-14T13:05:09Z</time>
      </trkpt>
      <trkpt lat="43.39978" lon="6.7149">
        <ele>6.8000001907349</ele>
        <time>2018-10-14T13:05:10Z</time>
      </trkpt>
      <trkpt lat="43.39978" lon="6.71503">
        <ele>6.4000000953674</ele>
        <time>2018-10-14T13:05:13Z</time>
      </trkpt>
      <trkpt lat="43.39982" lon="6.71539">
        <ele>5.8000001907349</ele>
        <time>2018-10-14T13:05:20Z</time>
      </trkpt>
      <trkpt lat="43.39988" lon="6.71574">
        <ele>5.1999998092651</ele>
        <time>2018-10-14T13:05:27Z</time>
      </trkpt>
      <trkpt lat="43.39987" lon="6.71599">
        <ele>4.8000001907349</ele>
        <time>2018-10-14T13:05:32Z</time>
      </trkpt>
      <trkpt lat="43.39982" lon="6.71621">
        <ele>4.4000000953674</ele>
        <time>2018-10-14T13:05:37Z</time>
      </trkpt>
      <trkpt lat="43.39977" lon="6.71632">
        <ele>4</ele>
        <time>2018-10-14T13:05:41Z</time>
      </trkpt>
      <trkpt lat="43.39976" lon="6.71635">
        <ele>3.5999999046326</ele>
        <time>2018-10-14T13:05:43Z</time>
      </trkpt>
      <trkpt lat="43.39976" lon="6.7164">
        <ele>3</ele>
        <time>2018-10-14T13:05:46Z</time>
      </trkpt>
      <trkpt lat="43.39976" lon="6.71643">
        <ele>2.7999999523163</ele>
        <time>2018-10-14T13:05:47Z</time>
      </trkpt>
      <trkpt lat="43.39977" lon="6.71648">
        <ele>2.4000000953674</ele>
        <time>2018-10-14T13:05:49Z</time>
      </trkpt>
      <trkpt lat="43.39978" lon="6.7165">
        <ele>2.2000000476837</ele>
        <time>2018-10-14T13:05:50Z</time>
      </trkpt>
      <trkpt lat="43.39979" lon="6.71651">
        <ele>2.2000000476837</ele>
        <time>2018-10-14T13:05:51Z</time>
      </trkpt>
      <trkpt lat="43.3998" lon="6.71653">
        <ele>1.7999999523163</ele>
        <time>2018-10-14T13:05:53Z</time>
      </trkpt>
      <trkpt lat="43.3998" lon="6.71656">
        <ele>1.3999999761581</ele>
        <time>2018-10-14T13:05:55Z</time>
      </trkpt>
      <trkpt lat="43.39981" lon="6.71659">
        <ele>1.2000000476837</ele>
        <time>2018-10-14T13:05:58Z</time>
      </trkpt>
      <trkpt lat="43.39993" lon="6.71684">
        <ele>0.20000000298023</ele>
        <time>2018-10-14T13:06:34Z</time>
      </trkpt>
      <trkpt lat="43.39988" lon="6.71697">
        <ele>2.2</ele>
        <time>2018-10-14T13:06:38Z</time>
      </trkpt>
      <trkpt lat="43.39981" lon="6.71716">
        <ele>-0.60000002384186</ele>
        <time>2018-10-14T13:06:43Z</time>
      </trkpt>
      <trkpt lat="43.39972" lon="6.71734">
        <ele>-0.60000002384186</ele>
        <time>2018-10-14T13:06:48Z</time>
      </trkpt>
      <trkpt lat="43.39961" lon="6.71758">
        <ele>-0.80000001192093</ele>
        <time>2018-10-14T13:06:55Z</time>
      </trkpt>
      <trkpt lat="43.39957" lon="6.71762">
        <ele>-0.80000001192093</ele>
        <time>2018-10-14T13:06:57Z</time>
      </trkpt>
      <trkpt lat="43.39954" lon="6.71763">
        <ele>-0.60000002384186</ele>
        <time>2018-10-14T13:06:58Z</time>
      </trkpt>
      <trkpt lat="43.39953" lon="6.71766">
        <ele>-0.60000002384186</ele>
        <time>2018-10-14T13:06:59Z</time>
      </trkpt>
      <trkpt lat="43.39947" lon="6.71779">
        <ele>-0.20000000298023</ele>
        <time>2018-10-14T13:07:03Z</time>
      </trkpt>
      <trkpt lat="43.39935" lon="6.71795">
        <ele>4.8</ele>
        <time>2018-10-14T13:07:09Z</time>
      </trkpt>
      <trkpt lat="43.3992" lon="6.71818">
        <ele>0.60000002384186</ele>
        <time>2018-10-14T13:07:16Z</time>
      </trkpt>
      <trkpt lat="43.39899" lon="6.71836">
        <ele>0.60000002384186</ele>
        <time>2018-10-14T13:07:23Z</time>
      </trkpt>
      <trkpt lat="43.39871" lon="6.71851">
        <ele>0.60000002384186</ele>
        <time>2018-10-14T13:07:30Z</time>
      </trkpt>
      <trkpt lat="43.39842" lon="6.71861">
        <ele>1.2000000476837</ele>
        <time>2018-10-14T13:07:37Z</time>
      </trkpt>
      <trkpt lat="43.39803" lon="6.71872">
        <ele>1.3999999761581</ele>
        <time>2018-10-14T13:07:46Z</time>
      </trkpt>
      <trkpt lat="43.39773" lon="6.7188">
        <ele>1.7999999523163</ele>
        <time>2018-10-14T13:07:53Z</time>
      </trkpt>
      <trkpt lat="43.39735" lon="6.7189">
        <ele>2.2000000476837</ele>
        <time>2018-10-14T13:08:02Z</time>
      </trkpt>
      <trkpt lat="43.39706" lon="6.71896">
        <ele>2.5999999046326</ele>
        <time>2018-10-14T13:08:09Z</time>
      </trkpt>
      <trkpt lat="43.39703" lon="6.71899">
        <ele>2.5999999046326</ele>
        <time>2018-10-14T13:08:10Z</time>
      </trkpt>
      <trkpt lat="43.39701" lon="6.71905">
        <ele>2.5999999046326</ele>
        <time>2018-10-14T13:08:11Z</time>
      </trkpt>
      <trkpt lat="43.39698" lon="6.71921">
        <ele>2.5999999046326</ele>
        <time>2018-10-14T13:08:13Z</time>
      </trkpt>
      <trkpt lat="43.39694" lon="6.71951">
        <ele>2.5999999046326</ele>
        <time>2018-10-14T13:08:16Z</time>
      </trkpt>
      <trkpt lat="43.39689" lon="6.71969">
        <ele>2.5999999046326</ele>
        <time>2018-10-14T13:08:18Z</time>
      </trkpt>
      <trkpt lat="43.39683" lon="6.72014">
        <ele>2.5999999046326</ele>
        <time>2018-10-14T13:08:23Z</time>
      </trkpt>
      <trkpt lat="43.39675" lon="6.72058">
        <ele>2.4000000953674</ele>
        <time>2018-10-14T13:08:28Z</time>
      </trkpt>
      <trkpt lat="43.3967" lon="6.721">
        <ele>2</ele>
        <time>2018-10-14T13:08:33Z</time>
      </trkpt>
      <trkpt lat="43.39665" lon="6.72134">
        <ele>1.3999999761581</ele>
        <time>2018-10-14T13:08:37Z</time>
      </trkpt>
      <trkpt lat="43.39662" lon="6.72152">
        <ele>1.2000000476837</ele>
        <time>2018-10-14T13:08:39Z</time>
      </trkpt>
      <trkpt lat="43.39656" lon="6.72194">
        <ele>0.80000001192093</ele>
        <time>2018-10-14T13:08:44Z</time>
      </trkpt>
      <trkpt lat="43.39648" lon="6.72243">
        <ele>1</ele>
        <time>2018-10-14T13:08:50Z</time>
      </trkpt>
      <trkpt lat="43.39641" lon="6.72284">
        <ele>1</ele>
        <time>2018-10-14T13:08:55Z</time>
      </trkpt>
      <trkpt lat="43.39633" lon="6.72333">
        <ele>-0.60000002384186</ele>
        <time>2018-10-14T13:09:01Z</time>
      </trkpt>
      <trkpt lat="43.3963" lon="6.72349">
        <ele>-0.40000000596046</ele>
        <time>2018-10-14T13:09:03Z</time>
      </trkpt>
      <trkpt lat="43.39624" lon="6.72397">
        <ele>-0.20000000298023</ele>
        <time>2018-10-14T13:09:09Z</time>
      </trkpt>
      <trkpt lat="43.39612" lon="6.72467">
        <ele>-0.60000002384186</ele>
        <time>2018-10-14T13:09:18Z</time>
      </trkpt>
      <trkpt lat="43.39609" lon="6.72492">
        <ele>-0.80000001192093</ele>
        <time>2018-10-14T13:09:21Z</time>
      </trkpt>
      <trkpt lat="43.39607" lon="6.72507">
        <ele>-0.60000002384186</ele>
        <time>2018-10-14T13:09:23Z</time>
      </trkpt>
      <trkpt lat="43.39604" lon="6.72521">
        <ele>-0.80000001192093</ele>
        <time>2018-10-14T13:09:25Z</time>
      </trkpt>
      <trkpt lat="43.39601" lon="6.72536">
        <ele>-0.80000001192093</ele>
        <time>2018-10-14T13:09:27Z</time>
      </trkpt>
      <trkpt lat="43.39599" lon="6.72552">
        <ele>-0.80000001192093</ele>
        <time>2018-10-14T13:09:29Z</time>
      </trkpt>
      <trkpt lat="43.39594" lon="6.72565">
        <ele>-0.80000001192093</ele>
        <time>2018-10-14T13:09:31Z</time>
      </trkpt>
      <trkpt lat="43.39591" lon="6.72571">
        <ele>-0.80000001192093</ele>
        <time>2018-10-14T13:09:32Z</time>
      </trkpt>
      <trkpt lat="43.39589" lon="6.72578">
        <ele>-0.60000002384186</ele>
        <time>2018-10-14T13:09:33Z</time>
      </trkpt>
      <trkpt lat="43.39585" lon="6.72601">
        <ele>-0.60000002384186</ele>
        <time>2018-10-14T13:09:36Z</time>
      </trkpt>
      <trkpt lat="43.3958" lon="6.72615">
        <ele>-0.60000002384186</ele>
        <time>2018-10-14T13:09:38Z</time>
      </trkpt>
      <trkpt lat="43.39571" lon="6.72621">
        <ele>-0.60000002384186</ele>
        <time>2018-10-14T13:09:40Z</time>
      </trkpt>
      <trkpt lat="43.3956" lon="6.72619">
        <ele>-0.60000002384186</ele>
        <time>2018-10-14T13:09:42Z</time>
      </trkpt>
      <trkpt lat="43.39554" lon="6.72616">
        <ele>-0.60000002384186</ele>
        <time>2018-10-14T13:09:43Z</time>
      </trkpt>
      <trkpt lat="43.39549" lon="6.72613">
        <ele>-0.60000002384186</ele>
        <time>2018-10-14T13:09:44Z</time>
      </trkpt>
      <trkpt lat="43.3952" lon="6.72601">
        <ele>-0.60000002384186</ele>
        <time>2018-10-14T13:09:49Z</time>
      </trkpt>
      <trkpt lat="43.39504" lon="6.72595">
        <ele>-0.60000002384186</ele>
        <time>2018-10-14T13:09:52Z</time>
      </trkpt>
      <trkpt lat="43.39493" lon="6.72596">
        <ele>-0.60000002384186</ele>
        <time>2018-10-14T13:09:54Z</time>
      </trkpt>
      <trkpt lat="43.3945" lon="6.72609">
        <ele>-0.60000002384186</ele>
        <time>2018-10-14T13:10:02Z</time>
      </trkpt>
      <trkpt lat="43.39407" lon="6.72624">
        <ele>-0.60000002384186</ele>
        <time>2018-10-14T13:10:10Z</time>
      </trkpt>
      <trkpt lat="43.39373" lon="6.72635">
        <ele>-0.40000000596046</ele>
        <time>2018-10-14T13:10:17Z</time>
      </trkpt>
      <trkpt lat="43.39369" lon="6.72636">
        <ele>-0.60000002384186</ele>
        <time>2018-10-14T13:10:18Z</time>
      </trkpt>
      <trkpt lat="43.39359" lon="6.72643">
        <ele>-0.60000002384186</ele>
        <time>2018-10-14T13:10:20Z</time>
      </trkpt>
      <trkpt lat="43.39355" lon="6.72648">
        <ele>-0.60000002384186</ele>
        <time>2018-10-14T13:10:21Z</time>
      </trkpt>
      <trkpt lat="43.39339" lon="6.72679">
        <ele>-0.60000002384186</ele>
        <time>2018-10-14T13:10:26Z</time>
      </trkpt>
      <trkpt lat="43.39327" lon="6.72702">
        <ele>-0.40000000596046</ele>
        <time>2018-10-14T13:10:30Z</time>
      </trkpt>
      <trkpt lat="43.39319" lon="6.7271">
        <ele>-0.20000000298023</ele>
        <time>2018-10-14T13:10:32Z</time>
      </trkpt>
      <trkpt lat="43.39311" lon="6.72714">
        <ele>-0.20000000298023</ele>
        <time>2018-10-14T13:10:34Z</time>
      </trkpt>
      <trkpt lat="43.39303" lon="6.72712">
        <ele>-0.20000000298023</ele>
        <time>2018-10-14T13:10:36Z</time>
      </trkpt>
      <trkpt lat="43.39295" lon="6.72696">
        <ele>-0.20000000298023</ele>
        <time>2018-10-14T13:10:39Z</time>
      </trkpt>
      <trkpt lat="43.39292" lon="6.7269">
        <ele>-0.20000000298023</ele>
        <time>2018-10-14T13:10:40Z</time>
      </trkpt>
      <trkpt lat="43.39284" lon="6.72682">
        <ele>-0.20000000298023</ele>
        <time>2018-10-14T13:10:42Z</time>
      </trkpt>
      <trkpt lat="43.39277" lon="6.72672">
        <ele>-0.20000000298023</ele>
        <time>2018-10-14T13:10:44Z</time>
      </trkpt>
      <trkpt lat="43.39273" lon="6.72669">
        <ele>-0.20000000298023</ele>
        <time>2018-10-14T13:10:45Z</time>
      </trkpt>
      <trkpt lat="43.39268" lon="6.72668">
        <ele>-0.40000000596046</ele>
        <time>2018-10-14T13:10:46Z</time>
      </trkpt>
      <trkpt lat="43.39252" lon="6.72672">
        <ele>-0.40000000596046</ele>
        <time>2018-10-14T13:10:49Z</time>
      </trkpt>
      <trkpt lat="43.39247" lon="6.72672">
        <ele>-0.40000000596046</ele>
        <time>2018-10-14T13:10:50Z</time>
      </trkpt>
      <trkpt lat="43.39237" lon="6.7267">
        <ele>-0.40000000596046</ele>
        <time>2018-10-14T13:10:52Z</time>
      </trkpt>
      <trkpt lat="43.39233" lon="6.72668">
        <ele>-0.40000000596046</ele>
        <time>2018-10-14T13:10:53Z</time>
      </trkpt>
      <trkpt lat="43.39223" lon="6.72663">
        <ele>-0.40000000596046</ele>
        <time>2018-10-14T13:10:55Z</time>
      </trkpt>
      <trkpt lat="43.39206" lon="6.72659">
        <ele>-0.40000000596046</ele>
        <time>2018-10-14T13:10:58Z</time>
      </trkpt>
      <trkpt lat="43.39174" lon="6.72647">
        <ele>7</ele>
        <time>2018-10-14T13:11:04Z</time>
      </trkpt>
      <trkpt lat="43.39168" lon="6.72646">
        <ele>7.6</ele>
        <time>2018-10-14T13:11:05Z</time>
      </trkpt>
      <trkpt lat="43.39159" lon="6.72645">
        <ele>0.20000000298023</ele>
        <time>2018-10-14T13:11:07Z</time>
      </trkpt>
      <trkpt lat="43.39155" lon="6.72651">
        <ele>0.20000000298023</ele>
        <time>2018-10-14T13:11:08Z</time>
      </trkpt>
      <trkpt lat="43.39153" lon="6.72659">
        <ele>0.40000000596046</ele>
        <time>2018-10-14T13:11:09Z</time>
      </trkpt>
      <trkpt lat="43.39151" lon="6.72676">
        <ele>0.60000002384186</ele>
        <time>2018-10-14T13:11:11Z</time>
      </trkpt>
      <trkpt lat="43.39148" lon="6.72699">
        <ele>0.80000001192093</ele>
        <time>2018-10-14T13:11:14Z</time>
      </trkpt>
      <trkpt lat="43.3915" lon="6.72707">
        <ele>0.80000001192093</ele>
        <time>2018-10-14T13:11:15Z</time>
      </trkpt>
      <trkpt lat="43.39153" lon="6.72712">
        <ele>1</ele>
        <time>2018-10-14T13:11:16Z</time>
      </trkpt>
      <trkpt lat="43.39158" lon="6.72713">
        <ele>1.2000000476837</ele>
        <time>2018-10-14T13:11:17Z</time>
      </trkpt>
      <trkpt lat="43.3917" lon="6.72713">
        <ele>1.3999999761581</ele>
        <time>2018-10-14T13:11:19Z</time>
      </trkpt>
      <trkpt lat="43.39182" lon="6.72719">
        <ele>1.6000000238419</ele>
        <time>2018-10-14T13:11:21Z</time>
      </trkpt>
      <trkpt lat="43.39193" lon="6.72724">
        <ele>1.7999999523163</ele>
        <time>2018-10-14T13:11:23Z</time>
      </trkpt>
      <trkpt lat="43.39203" lon="6.72734">
        <ele>2</ele>
        <time>2018-10-14T13:11:25Z</time>
      </trkpt>
      <trkpt lat="43.39219" lon="6.72765">
        <ele>2.2000000476837</ele>
        <time>2018-10-14T13:11:29Z</time>
      </trkpt>
      <trkpt lat="43.39221" lon="6.72774">
        <ele>2.4000000953674</ele>
        <time>2018-10-14T13:11:30Z</time>
      </trkpt>
      <trkpt lat="43.39221" lon="6.72784">
        <ele>2.4000000953674</ele>
        <time>2018-10-14T13:11:31Z</time>
      </trkpt>
      <trkpt lat="43.39224" lon="6.72802">
        <ele>2.5999999046326</ele>
        <time>2018-10-14T13:11:33Z</time>
      </trkpt>
      <trkpt lat="43.39236" lon="6.72811">
        <ele>2.7999999523163</ele>
        <time>2018-10-14T13:11:35Z</time>
      </trkpt>
      <trkpt lat="43.39265" lon="6.72815">
        <ele>3.2000000476837</ele>
        <time>2018-10-14T13:11:39Z</time>
      </trkpt>
      <trkpt lat="43.39311" lon="6.72819">
        <ele>3.4000000953674</ele>
        <time>2018-10-14T13:11:45Z</time>
      </trkpt>
      <trkpt lat="43.39359" lon="6.72826">
        <ele>3.7999999523163</ele>
        <time>2018-10-14T13:11:52Z</time>
      </trkpt>
      <trkpt lat="43.39365" lon="6.72824">
        <ele>3.7999999523163</ele>
        <time>2018-10-14T13:11:53Z</time>
      </trkpt>
      <trkpt lat="43.39369" lon="6.72819">
        <ele>3.7999999523163</ele>
        <time>2018-10-14T13:11:54Z</time>
      </trkpt>
      <trkpt lat="43.39373" lon="6.72811">
        <ele>3.7999999523163</ele>
        <time>2018-10-14T13:11:55Z</time>
      </trkpt>
      <trkpt lat="43.39378" lon="6.72793">
        <ele>4</ele>
        <time>2018-10-14T13:11:57Z</time>
      </trkpt>
      <trkpt lat="43.39389" lon="6.72782">
        <ele>3.7999999523163</ele>
        <time>2018-10-14T13:11:59Z</time>
      </trkpt>
      <trkpt lat="43.39402" lon="6.72784">
        <ele>3.7999999523163</ele>
        <time>2018-10-14T13:12:01Z</time>
      </trkpt>
      <trkpt lat="43.39409" lon="6.72787">
        <ele>3.7999999523163</ele>
        <time>2018-10-14T13:12:02Z</time>
      </trkpt>
      <trkpt lat="43.39434" lon="6.72798">
        <ele>4</ele>
        <time>2018-10-14T13:12:06Z</time>
      </trkpt>
      <trkpt lat="43.39448" lon="6.72804">
        <ele>4.1999998092651</ele>
        <time>2018-10-14T13:12:08Z</time>
      </trkpt>
      <trkpt lat="43.39501" lon="6.72824">
        <ele>4.1999998092651</ele>
        <time>2018-10-14T13:12:16Z</time>
      </trkpt>
      <trkpt lat="43.39547" lon="6.72841">
        <ele>4.4000000953674</ele>
        <time>2018-10-14T13:12:23Z</time>
      </trkpt>
      <trkpt lat="43.39591" lon="6.72856">
        <ele>4.5999999046326</ele>
        <time>2018-10-14T13:12:30Z</time>
      </trkpt>
      <trkpt lat="43.39628" lon="6.7287">
        <ele>4.8000001907349</ele>
        <time>2018-10-14T13:12:36Z</time>
      </trkpt>
      <trkpt lat="43.39672" lon="6.72886">
        <ele>4.8000001907349</ele>
        <time>2018-10-14T13:12:43Z</time>
      </trkpt>
      <trkpt lat="43.39722" lon="6.72905">
        <ele>4.8000001907349</ele>
        <time>2018-10-14T13:12:51Z</time>
      </trkpt>
      <trkpt lat="43.39779" lon="6.72926">
        <ele>4.8000001907349</ele>
        <time>2018-10-14T13:13:00Z</time>
      </trkpt>
      <trkpt lat="43.39828" lon="6.72943">
        <ele>4.8000001907349</ele>
        <time>2018-10-14T13:13:08Z</time>
      </trkpt>
      <trkpt lat="43.39881" lon="6.7296">
        <ele>5</ele>
        <time>2018-10-14T13:13:17Z</time>
      </trkpt>
      <trkpt lat="43.39887" lon="6.72962">
        <ele>5</ele>
        <time>2018-10-14T13:13:18Z</time>
      </trkpt>
      <trkpt lat="43.39929" lon="6.72973">
        <ele>5</ele>
        <time>2018-10-14T13:13:25Z</time>
      </trkpt>
      <trkpt lat="43.39982" lon="6.72981">
        <ele>4.5999999046326</ele>
        <time>2018-10-14T13:13:34Z</time>
      </trkpt>
      <trkpt lat="43.40035" lon="6.72985">
        <ele>4.1999998092651</ele>
        <time>2018-10-14T13:13:43Z</time>
      </trkpt>
      <trkpt lat="43.40076" lon="6.72987">
        <ele>4</ele>
        <time>2018-10-14T13:13:50Z</time>
      </trkpt>
      <trkpt lat="43.40128" lon="6.7299">
        <ele>4</ele>
        <time>2018-10-14T13:13:59Z</time>
      </trkpt>
      <trkpt lat="43.4018" lon="6.72993">
        <ele>3.5999999046326</ele>
        <time>2018-10-14T13:14:08Z</time>
      </trkpt>
      <trkpt lat="43.40232" lon="6.7299">
        <ele>3.4000000953674</ele>
        <time>2018-10-14T13:14:17Z</time>
      </trkpt>
      <trkpt lat="43.40267" lon="6.72982">
        <ele>3.2000000476837</ele>
        <time>2018-10-14T13:14:23Z</time>
      </trkpt>
      <trkpt lat="43.40309" lon="6.72969">
        <ele>3</ele>
        <time>2018-10-14T13:14:30Z</time>
      </trkpt>
      <trkpt lat="43.40315" lon="6.72968">
        <ele>3</ele>
        <time>2018-10-14T13:14:31Z</time>
      </trkpt>
      <trkpt lat="43.40339" lon="6.72956">
        <ele>3</ele>
        <time>2018-10-14T13:14:35Z</time>
      </trkpt>
      <trkpt lat="43.40388" lon="6.72927">
        <ele>2.7999999523163</ele>
        <time>2018-10-14T13:14:43Z</time>
      </trkpt>
      <trkpt lat="43.40427" lon="6.72898">
        <ele>2.7999999523163</ele>
        <time>2018-10-14T13:14:50Z</time>
      </trkpt>
      <trkpt lat="43.40467" lon="6.7286">
        <ele>2.5999999046326</ele>
        <time>2018-10-14T13:14:58Z</time>
      </trkpt>
      <trkpt lat="43.40491" lon="6.72836">
        <ele>2.5999999046326</ele>
        <time>2018-10-14T13:15:03Z</time>
      </trkpt>
      <trkpt lat="43.40496" lon="6.7283">
        <ele>2.5999999046326</ele>
        <time>2018-10-14T13:15:04Z</time>
      </trkpt>
      <trkpt lat="43.40532" lon="6.72794">
        <ele>2.4000000953674</ele>
        <time>2018-10-14T13:15:11Z</time>
      </trkpt>
      <trkpt lat="43.40543" lon="6.72784">
        <ele>2.4000000953674</ele>
        <time>2018-10-14T13:15:13Z</time>
      </trkpt>
      <trkpt lat="43.40558" lon="6.72769">
        <ele>2.4000000953674</ele>
        <time>2018-10-14T13:15:16Z</time>
      </trkpt>
      <trkpt lat="43.40588" lon="6.72738">
        <ele>2.4000000953674</ele>
        <time>2018-10-14T13:15:22Z</time>
      </trkpt>
      <trkpt lat="43.40624" lon="6.72702">
        <ele>2.2000000476837</ele>
        <time>2018-10-14T13:15:29Z</time>
      </trkpt>
      <trkpt lat="43.40648" lon="6.72678">
        <ele>2.2000000476837</ele>
        <time>2018-10-14T13:15:34Z</time>
      </trkpt>
      <trkpt lat="43.40664" lon="6.72662">
        <ele>2.2000000476837</ele>
        <time>2018-10-14T13:15:37Z</time>
      </trkpt>
      <trkpt lat="43.40668" lon="6.72658">
        <ele>2.2000000476837</ele>
        <time>2018-10-14T13:15:38Z</time>
      </trkpt>
      <trkpt lat="43.40698" lon="6.72629">
        <ele>2</ele>
        <time>2018-10-14T13:15:44Z</time>
      </trkpt>
      <trkpt lat="43.40737" lon="6.7259">
        <ele>1.7999999523163</ele>
        <time>2018-10-14T13:15:52Z</time>
      </trkpt>
      <trkpt lat="43.40742" lon="6.72585">
        <ele>1.7999999523163</ele>
        <time>2018-10-14T13:15:53Z</time>
      </trkpt>
      <trkpt lat="43.40756" lon="6.7257">
        <ele>1.7999999523163</ele>
        <time>2018-10-14T13:15:56Z</time>
      </trkpt>
      <trkpt lat="43.40786" lon="6.72541">
        <ele>2</ele>
        <time>2018-10-14T13:16:02Z</time>
      </trkpt>
      <trkpt lat="43.40819" lon="6.72507">
        <ele>2</ele>
        <time>2018-10-14T13:16:09Z</time>
      </trkpt>
      <trkpt lat="43.40833" lon="6.72495">
        <ele>2.2000000476837</ele>
        <time>2018-10-14T13:16:12Z</time>
      </trkpt>
      <trkpt lat="43.40842" lon="6.72486">
        <ele>2.4000000953674</ele>
        <time>2018-10-14T13:16:14Z</time>
      </trkpt>
      <trkpt lat="43.40864" lon="6.72465">
        <ele>3</ele>
        <time>2018-10-14T13:16:19Z</time>
      </trkpt>
      <trkpt lat="43.40869" lon="6.72461">
        <ele>3</ele>
        <time>2018-10-14T13:16:20Z</time>
      </trkpt>
      <trkpt lat="43.40889" lon="6.72442">
        <ele>3.4000000953674</ele>
        <time>2018-10-14T13:16:24Z</time>
      </trkpt>
      <trkpt lat="43.40893" lon="6.72437">
        <ele>3.4000000953674</ele>
        <time>2018-10-14T13:16:25Z</time>
      </trkpt>
      <trkpt lat="43.40905" lon="6.72423">
        <ele>3.2000000476837</ele>
        <time>2018-10-14T13:16:28Z</time>
      </trkpt>
      <trkpt lat="43.4091" lon="6.72422">
        <ele>3</ele>
        <time>2018-10-14T13:16:29Z</time>
      </trkpt>
      <trkpt lat="43.40914" lon="6.72423">
        <ele>3</ele>
        <time>2018-10-14T13:16:30Z</time>
      </trkpt>
      <trkpt lat="43.40924" lon="6.72427">
        <ele>2.7999999523163</ele>
        <time>2018-10-14T13:16:32Z</time>
      </trkpt>
      <trkpt lat="43.4093" lon="6.72428">
        <ele>2.7999999523163</ele>
        <time>2018-10-14T13:16:33Z</time>
      </trkpt>
      <trkpt lat="43.40935" lon="6.72427">
        <ele>2.7999999523163</ele>
        <time>2018-10-14T13:16:34Z</time>
      </trkpt>
      <trkpt lat="43.40952" lon="6.72423">
        <ele>2.7999999523163</ele>
        <time>2018-10-14T13:16:37Z</time>
      </trkpt>
      <trkpt lat="43.40997" lon="6.72422">
        <ele>3</ele>
        <time>2018-10-14T13:16:45Z</time>
      </trkpt>
      <trkpt lat="43.41019" lon="6.72426">
        <ele>3</ele>
        <time>2018-10-14T13:16:49Z</time>
      </trkpt>
      <trkpt lat="43.41035" lon="6.72431">
        <ele>3</ele>
        <time>2018-10-14T13:16:52Z</time>
      </trkpt>
      <trkpt lat="43.41067" lon="6.72447">
        <ele>3</ele>
        <time>2018-10-14T13:16:58Z</time>
      </trkpt>
      <trkpt lat="43.41072" lon="6.7245">
        <ele>3</ele>
        <time>2018-10-14T13:16:59Z</time>
      </trkpt>
      <trkpt lat="43.41106" lon="6.72475">
        <ele>3.2000000476837</ele>
        <time>2018-10-14T13:17:06Z</time>
      </trkpt>
      <trkpt lat="43.41149" lon="6.72504">
        <ele>3.2000000476837</ele>
        <time>2018-10-14T13:17:15Z</time>
      </trkpt>
      <trkpt lat="43.41169" lon="6.72515">
        <ele>3.2000000476837</ele>
        <time>2018-10-14T13:17:19Z</time>
      </trkpt>
      <trkpt lat="43.41174" lon="6.72515">
        <ele>3.2000000476837</ele>
        <time>2018-10-14T13:17:20Z</time>
      </trkpt>
      <trkpt lat="43.4118" lon="6.72513">
        <ele>3</ele>
        <time>2018-10-14T13:17:21Z</time>
      </trkpt>
      <trkpt lat="43.41193" lon="6.72509">
        <ele>3</ele>
        <time>2018-10-14T13:17:23Z</time>
      </trkpt>
      <trkpt lat="43.41205" lon="6.72511">
        <ele>2.7999999523163</ele>
        <time>2018-10-14T13:17:25Z</time>
      </trkpt>
      <trkpt lat="43.41218" lon="6.72517">
        <ele>2.7999999523163</ele>
        <time>2018-10-14T13:17:27Z</time>
      </trkpt>
      <trkpt lat="43.41266" lon="6.72542">
        <ele>2.7999999523163</ele>
        <time>2018-10-14T13:17:35Z</time>
      </trkpt>
      <trkpt lat="43.41296" lon="6.7255">
        <ele>2.7999999523163</ele>
        <time>2018-10-14T13:17:40Z</time>
      </trkpt>
      <trkpt lat="43.41302" lon="6.72553">
        <ele>2.7999999523163</ele>
        <time>2018-10-14T13:17:41Z</time>
      </trkpt>
      <trkpt lat="43.41341" lon="6.72581">
        <ele>3</ele>
        <time>2018-10-14T13:17:48Z</time>
      </trkpt>
      <trkpt lat="43.41347" lon="6.72583">
        <ele>3</ele>
        <time>2018-10-14T13:17:49Z</time>
      </trkpt>
      <trkpt lat="43.41371" lon="6.72589">
        <ele>2.7999999523163</ele>
        <time>2018-10-14T13:17:53Z</time>
      </trkpt>
      <trkpt lat="43.41377" lon="6.72592">
        <ele>2.7999999523163</ele>
        <time>2018-10-14T13:17:54Z</time>
      </trkpt>
      <trkpt lat="43.41392" lon="6.72605">
        <ele>2.7999999523163</ele>
        <time>2018-10-14T13:17:57Z</time>
      </trkpt>
      <trkpt lat="43.41399" lon="6.72617">
        <ele>2.7999999523163</ele>
        <time>2018-10-14T13:17:59Z</time>
      </trkpt>
      <trkpt lat="43.41409" lon="6.72626">
        <ele>2.7999999523163</ele>
        <time>2018-10-14T13:18:01Z</time>
      </trkpt>
      <trkpt lat="43.41443" lon="6.72647">
        <ele>3</ele>
        <time>2018-10-14T13:18:08Z</time>
      </trkpt>
      <trkpt lat="43.41458" lon="6.72653">
        <ele>3</ele>
        <time>2018-10-14T13:18:11Z</time>
      </trkpt>
      <trkpt lat="43.41467" lon="6.72655">
        <ele>3</ele>
        <time>2018-10-14T13:18:13Z</time>
      </trkpt>
      <trkpt lat="43.41474" lon="6.72654">
        <ele>3</ele>
        <time>2018-10-14T13:18:15Z</time>
      </trkpt>
      <trkpt lat="43.41477" lon="6.72651">
        <ele>3</ele>
        <time>2018-10-14T13:18:16Z</time>
      </trkpt>
      <trkpt lat="43.41482" lon="6.72648">
        <ele>2.7999999523163</ele>
        <time>2018-10-14T13:18:18Z</time>
      </trkpt>
      <trkpt lat="43.41491" lon="6.7265">
        <ele>2.7999999523163</ele>
        <time>2018-10-14T13:18:20Z</time>
      </trkpt>
      <trkpt lat="43.41512" lon="6.72658">
        <ele>2.5999999046326</ele>
        <time>2018-10-14T13:18:25Z</time>
      </trkpt>
      <trkpt lat="43.41515" lon="6.72662">
        <ele>2.5999999046326</ele>
        <time>2018-10-14T13:18:26Z</time>
      </trkpt>
      <trkpt lat="43.41511" lon="6.72672">
        <ele>2.4000000953674</ele>
        <time>2018-10-14T13:18:29Z</time>
      </trkpt>
      <trkpt lat="43.41505" lon="6.72676">
        <ele>2.2000000476837</ele>
        <time>2018-10-14T13:18:31Z</time>
      </trkpt>
      <trkpt lat="43.41501" lon="6.72676">
        <ele>2</ele>
        <time>2018-10-14T13:18:32Z</time>
      </trkpt>
      <trkpt lat="43.41497" lon="6.72676">
        <ele>2</ele>
        <time>2018-10-14T13:18:33Z</time>
      </trkpt>
      <trkpt lat="43.4149" lon="6.72683">
        <ele>1.7999999523163</ele>
        <time>2018-10-14T13:18:35Z</time>
      </trkpt>
      <trkpt lat="43.41487" lon="6.72694">
        <ele>1.6000000238419</ele>
        <time>2018-10-14T13:18:37Z</time>
      </trkpt>
      <trkpt lat="43.41481" lon="6.72704">
        <ele>1.6000000238419</ele>
        <time>2018-10-14T13:18:39Z</time>
      </trkpt>
      <trkpt lat="43.41468" lon="6.72722">
        <ele>1.3999999761581</ele>
        <time>2018-10-14T13:18:43Z</time>
      </trkpt>
      <trkpt lat="43.41464" lon="6.72726">
        <ele>1.3999999761581</ele>
        <time>2018-10-14T13:18:44Z</time>
      </trkpt>
      <trkpt lat="43.41435" lon="6.72765">
        <ele>1</ele>
        <time>2018-10-14T13:18:53Z</time>
      </trkpt>
      <trkpt lat="43.41428" lon="6.72773">
        <ele>1</ele>
        <time>2018-10-14T13:18:55Z</time>
      </trkpt>
      <trkpt lat="43.41414" lon="6.72791">
        <ele>1</ele>
        <time>2018-10-14T13:18:59Z</time>
      </trkpt>
      <trkpt lat="43.41411" lon="6.72795">
        <ele>1</ele>
        <time>2018-10-14T13:19:00Z</time>
      </trkpt>
      <trkpt lat="43.41405" lon="6.72805">
        <ele>1</ele>
        <time>2018-10-14T13:19:02Z</time>
      </trkpt>
      <trkpt lat="43.41399" lon="6.72814">
        <ele>1</ele>
        <time>2018-10-14T13:19:04Z</time>
      </trkpt>
      <trkpt lat="43.41389" lon="6.72827">
        <ele>1</ele>
        <time>2018-10-14T13:19:07Z</time>
      </trkpt>
      <trkpt lat="43.41381" lon="6.72834">
        <ele>1</ele>
        <time>2018-10-14T13:19:09Z</time>
      </trkpt>
      <trkpt lat="43.41378" lon="6.72838">
        <ele>1</ele>
        <time>2018-10-14T13:19:10Z</time>
      </trkpt>
      <trkpt lat="43.4137" lon="6.72846">
        <ele>1</ele>
        <time>2018-10-14T13:19:12Z</time>
      </trkpt>
      <trkpt lat="43.4136" lon="6.7286">
        <ele>1</ele>
        <time>2018-10-14T13:19:15Z</time>
      </trkpt>
      <trkpt lat="43.41326" lon="6.72906">
        <ele>1.2000000476837</ele>
        <time>2018-10-14T13:19:25Z</time>
      </trkpt>
      <trkpt lat="43.41323" lon="6.7291">
        <ele>1.2000000476837</ele>
        <time>2018-10-14T13:19:26Z</time>
      </trkpt>
      <trkpt lat="43.41316" lon="6.72919">
        <ele>1</ele>
        <time>2018-10-14T13:19:28Z</time>
      </trkpt>
      <trkpt lat="43.4131" lon="6.72928">
        <ele>1.2000000476837</ele>
        <time>2018-10-14T13:19:30Z</time>
      </trkpt>
      <trkpt lat="43.41283" lon="6.72964">
        <ele>1</ele>
        <time>2018-10-14T13:19:38Z</time>
      </trkpt>
      <trkpt lat="43.41279" lon="6.72968">
        <ele>1</ele>
        <time>2018-10-14T13:19:39Z</time>
      </trkpt>
      <trkpt lat="43.41264" lon="6.72985">
        <ele>1</ele>
        <time>2018-10-14T13:19:43Z</time>
      </trkpt>
      <trkpt lat="43.41239" lon="6.73016">
        <ele>1</ele>
        <time>2018-10-14T13:19:50Z</time>
      </trkpt>
      <trkpt lat="43.41223" lon="6.73038">
        <ele>1.2000000476837</ele>
        <time>2018-10-14T13:19:55Z</time>
      </trkpt>
      <trkpt lat="43.41214" lon="6.73052">
        <ele>1</ele>
        <time>2018-10-14T13:19:58Z</time>
      </trkpt>
      <trkpt lat="43.41188" lon="6.73087">
        <ele>1</ele>
        <time>2018-10-14T13:20:06Z</time>
      </trkpt>
      <trkpt lat="43.41185" lon="6.73092">
        <ele>1</ele>
        <time>2018-10-14T13:20:07Z</time>
      </trkpt>
      <trkpt lat="43.41176" lon="6.73114">
        <ele>1</ele>
        <time>2018-10-14T13:20:11Z</time>
      </trkpt>
      <trkpt lat="43.41171" lon="6.73123">
        <ele>0.80000001192093</ele>
        <time>2018-10-14T13:20:13Z</time>
      </trkpt>
      <trkpt lat="43.41169" lon="6.73132">
        <ele>0.60000002384186</ele>
        <time>2018-10-14T13:20:15Z</time>
      </trkpt>
      <trkpt lat="43.41172" lon="6.73135">
        <ele>0.60000002384186</ele>
        <time>2018-10-14T13:20:16Z</time>
      </trkpt>
      <trkpt lat="43.41185" lon="6.7315">
        <ele>0.20000000298023</ele>
        <time>2018-10-14T13:20:20Z</time>
      </trkpt>
      <trkpt lat="43.41188" lon="6.73153">
        <ele>0.20000000298023</ele>
        <time>2018-10-14T13:20:21Z</time>
      </trkpt>
      <trkpt lat="43.41195" lon="6.73161">
        <ele>1</ele>
        <time>2018-10-14T13:20:23Z</time>
      </trkpt>
      <trkpt lat="43.41205" lon="6.73174">
        <ele>1.1</ele>
        <time>2018-10-14T13:20:26Z</time>
      </trkpt>
      <trkpt lat="43.41215" lon="6.73187">
        <ele>1.5</ele>
        <time>2018-10-14T13:20:29Z</time>
      </trkpt>
      <trkpt lat="43.41221" lon="6.73194">
        <ele>1.9</ele>
        <time>2018-10-14T13:20:31Z</time>
      </trkpt>
      <trkpt lat="43.41221" lon="6.73205">
        <ele>2</ele>
        <time>2018-10-14T13:20:33Z</time>
      </trkpt>
      <trkpt lat="43.41218" lon="6.73211">
        <ele>0.20000000298023</ele>
        <time>2018-10-14T13:20:34Z</time>
      </trkpt>
      <trkpt lat="43.41215" lon="6.73216">
        <ele>0.20000000298023</ele>
        <time>2018-10-14T13:20:35Z</time>
      </trkpt>
      <trkpt lat="43.41198" lon="6.73239">
        <ele>0.20000000298023</ele>
        <time>2018-10-14T13:20:40Z</time>
      </trkpt>
      <trkpt lat="43.41185" lon="6.73264">
        <ele>2.1</ele>
        <time>2018-10-14T13:20:45Z</time>
      </trkpt>
      <trkpt lat="43.41182" lon="6.7327">
        <ele>2.3</ele>
        <time>2018-10-14T13:20:46Z</time>
      </trkpt>
      <trkpt lat="43.41178" lon="6.73282">
        <ele>-0.20000000298023</ele>
        <time>2018-10-14T13:20:48Z</time>
      </trkpt>
      <trkpt lat="43.41166" lon="6.73305">
        <ele>-0.20000000298023</ele>
        <time>2018-10-14T13:20:52Z</time>
      </trkpt>
      <trkpt lat="43.41148" lon="6.73347">
        <ele>1.5</ele>
        <time>2018-10-14T13:20:59Z</time>
      </trkpt>
      <trkpt lat="43.41133" lon="6.7339">
        <ele>1.7</ele>
        <time>2018-10-14T13:21:06Z</time>
      </trkpt>
      <trkpt lat="43.41115" lon="6.73446">
        <ele>1</ele>
        <time>2018-10-14T13:21:15Z</time>
      </trkpt>
      <trkpt lat="43.41116" lon="6.73461">
        <ele>1</ele>
        <time>2018-10-14T13:21:17Z</time>
      </trkpt>
      <trkpt lat="43.41119" lon="6.73467">
        <ele>-0.20000000298023</ele>
        <time>2018-10-14T13:21:18Z</time>
      </trkpt>
      <trkpt lat="43.41122" lon="6.73472">
        <ele>-0.20000000298023</ele>
        <time>2018-10-14T13:21:19Z</time>
      </trkpt>
      <trkpt lat="43.41131" lon="6.73479">
        <ele>-0.40000000596046</ele>
        <time>2018-10-14T13:21:21Z</time>
      </trkpt>
      <trkpt lat="43.41154" lon="6.73499">
        <ele>-0.40000000596046</ele>
        <time>2018-10-14T13:21:27Z</time>
      </trkpt>
      <trkpt lat="43.41179" lon="6.73518">
        <ele>-0.80000001192093</ele>
        <time>2018-10-14T13:21:34Z</time>
      </trkpt>
      <trkpt lat="43.41199" lon="6.73532">
        <ele>-1.6000000238419</ele>
        <time>2018-10-14T13:21:40Z</time>
      </trkpt>
      <trkpt lat="43.41206" lon="6.73536">
        <ele>-1.7999999523163</ele>
        <time>2018-10-14T13:21:42Z</time>
      </trkpt>
      <trkpt lat="43.41215" lon="6.73538">
        <ele>-1.7999999523163</ele>
        <time>2018-10-14T13:21:44Z</time>
      </trkpt>
      <trkpt lat="43.4122" lon="6.73538">
        <ele>-2</ele>
        <time>2018-10-14T13:21:45Z</time>
      </trkpt>
      <trkpt lat="43.41231" lon="6.73535">
        <ele>-2.2000000476837</ele>
        <time>2018-10-14T13:21:48Z</time>
      </trkpt>
      <trkpt lat="43.4124" lon="6.7352">
        <ele>-2.2000000476837</ele>
        <time>2018-10-14T13:21:53Z</time>
      </trkpt>
      <trkpt lat="43.41247" lon="6.73505">
        <ele>-1.6000000238419</ele>
        <time>2018-10-14T13:21:58Z</time>
      </trkpt>
      <trkpt lat="43.41254" lon="6.73492">
        <ele>-1.2000000476837</ele>
        <time>2018-10-14T13:22:04Z</time>
      </trkpt>
      <trkpt lat="43.41262" lon="6.73481">
        <ele>-1.2000000476837</ele>
        <time>2018-10-14T13:22:07Z</time>
      </trkpt>
      <trkpt lat="43.41271" lon="6.73475">
        <ele>-1.2000000476837</ele>
        <time>2018-10-14T13:22:09Z</time>
      </trkpt>
      <trkpt lat="43.41275" lon="6.73475">
        <ele>-1.2000000476837</ele>
        <time>2018-10-14T13:22:10Z</time>
      </trkpt>
      <trkpt lat="43.41283" lon="6.73478">
        <ele>-1.3999999761581</ele>
        <time>2018-10-14T13:22:12Z</time>
      </trkpt>
      <trkpt lat="43.41295" lon="6.73483">
        <ele>-1.3999999761581</ele>
        <time>2018-10-14T13:22:15Z</time>
      </trkpt>
      <trkpt lat="43.41324" lon="6.7349">
        <ele>-1.2000000476837</ele>
        <time>2018-10-14T13:22:22Z</time>
      </trkpt>
      <trkpt lat="43.4136" lon="6.73498">
        <ele>-1.2000000476837</ele>
        <time>2018-10-14T13:22:30Z</time>
      </trkpt>
      <trkpt lat="43.41404" lon="6.73509">
        <ele>-1.2000000476837</ele>
        <time>2018-10-14T13:22:39Z</time>
      </trkpt>
      <trkpt lat="43.4144" lon="6.73518">
        <ele>-1.2000000476837</ele>
        <time>2018-10-14T13:22:46Z</time>
      </trkpt>
      <trkpt lat="43.41487" lon="6.73529">
        <ele>-1.2000000476837</ele>
        <time>2018-10-14T13:22:55Z</time>
      </trkpt>
      <trkpt lat="43.41513" lon="6.73536">
        <ele>-1</ele>
        <time>2018-10-14T13:23:00Z</time>
      </trkpt>
      <trkpt lat="43.41553" lon="6.73546">
        <ele>-0.80000001192093</ele>
        <time>2018-10-14T13:23:08Z</time>
      </trkpt>
      <trkpt lat="43.41581" lon="6.73555">
        <ele>-1</ele>
        <time>2018-10-14T13:23:14Z</time>
      </trkpt>
      <trkpt lat="43.41586" lon="6.73559">
        <ele>-1</ele>
        <time>2018-10-14T13:23:15Z</time>
      </trkpt>
      <trkpt lat="43.4159" lon="6.73563">
        <ele>-1</ele>
        <time>2018-10-14T13:23:16Z</time>
      </trkpt>
      <trkpt lat="43.416" lon="6.73577">
        <ele>-0.80000001192093</ele>
        <time>2018-10-14T13:23:19Z</time>
      </trkpt>
      <trkpt lat="43.41602" lon="6.73583">
        <ele>-0.80000001192093</ele>
        <time>2018-10-14T13:23:20Z</time>
      </trkpt>
      <trkpt lat="43.41607" lon="6.73593">
        <ele>-0.80000001192093</ele>
        <time>2018-10-14T13:23:22Z</time>
      </trkpt>
      <trkpt lat="43.41613" lon="6.73602">
        <ele>-0.80000001192093</ele>
        <time>2018-10-14T13:23:24Z</time>
      </trkpt>
      <trkpt lat="43.41618" lon="6.73612">
        <ele>-0.80000001192093</ele>
        <time>2018-10-14T13:23:26Z</time>
      </trkpt>
      <trkpt lat="43.41632" lon="6.73637">
        <ele>-0.80000001192093</ele>
        <time>2018-10-14T13:23:31Z</time>
      </trkpt>
      <trkpt lat="43.41636" lon="6.73647">
        <ele>-0.80000001192093</ele>
        <time>2018-10-14T13:23:33Z</time>
      </trkpt>
      <trkpt lat="43.41641" lon="6.73656">
        <ele>-0.80000001192093</ele>
        <time>2018-10-14T13:23:35Z</time>
      </trkpt>
      <trkpt lat="43.41648" lon="6.7367">
        <ele>-0.80000001192093</ele>
        <time>2018-10-14T13:23:38Z</time>
      </trkpt>
      <trkpt lat="43.4165" lon="6.73675">
        <ele>-0.80000001192093</ele>
        <time>2018-10-14T13:23:39Z</time>
      </trkpt>
      <trkpt lat="43.41653" lon="6.7369">
        <ele>-0.80000001192093</ele>
        <time>2018-10-14T13:23:42Z</time>
      </trkpt>
      <trkpt lat="43.41652" lon="6.73696">
        <ele>-0.80000001192093</ele>
        <time>2018-10-14T13:23:43Z</time>
      </trkpt>
      <trkpt lat="43.41649" lon="6.737">
        <ele>-0.80000001192093</ele>
        <time>2018-10-14T13:23:44Z</time>
      </trkpt>
      <trkpt lat="43.41642" lon="6.73705">
        <ele>-0.80000001192093</ele>
        <time>2018-10-14T13:23:46Z</time>
      </trkpt>
      <trkpt lat="43.41629" lon="6.73707">
        <ele>-0.80000001192093</ele>
        <time>2018-10-14T13:23:49Z</time>
      </trkpt>
      <trkpt lat="43.4162" lon="6.7371">
        <ele>-0.60000002384186</ele>
        <time>2018-10-14T13:23:51Z</time>
      </trkpt>
      <trkpt lat="43.41616" lon="6.73711">
        <ele>-0.60000002384186</ele>
        <time>2018-10-14T13:23:52Z</time>
      </trkpt>
      <trkpt lat="43.41615" lon="6.7372">
        <ele>-0.60000002384186</ele>
        <time>2018-10-14T13:23:54Z</time>
      </trkpt>
      <trkpt lat="43.41624" lon="6.73741">
        <ele>-0.60000002384186</ele>
        <time>2018-10-14T13:23:59Z</time>
      </trkpt>
      <trkpt lat="43.41631" lon="6.73771">
        <ele>-0.60000002384186</ele>
        <time>2018-10-14T13:24:05Z</time>
      </trkpt>
      <trkpt lat="43.41636" lon="6.73797">
        <ele>-0.40000000596046</ele>
        <time>2018-10-14T13:24:10Z</time>
      </trkpt>
      <trkpt lat="43.41639" lon="6.73811">
        <ele>-0.60000002384186</ele>
        <time>2018-10-14T13:24:13Z</time>
      </trkpt>
      <trkpt lat="43.41639" lon="6.73828">
        <ele>-0.60000002384186</ele>
        <time>2018-10-14T13:24:18Z</time>
      </trkpt>
      <trkpt lat="43.41636" lon="6.73837">
        <ele>-0.40000000596046</ele>
        <time>2018-10-14T13:24:23Z</time>
      </trkpt>
      <trkpt lat="43.41636" lon="6.73837">
        <ele>-0.40000000596046</ele>
        <time>2018-10-14T13:24:25Z</time>
      </trkpt>
    </trkseg>
  </trk>
</gpx>